<?xml version="1.0" encoding="UTF-8" standalone="no" ?>
<gpx xmlns="http://www.topografix.com/GPX/1/1" xmlns:xsi="http://www.w3.org/2001/XMLSchema-instance" xsi:schemaLocation="http://www.topografix.com/GPX/1/1 http://www.topografix.com/GPX/1/1/gpx.xsd" version="1.1" creator="VisuGPX - https://www.visugpx.com">
  <metadata>
    <name>04 - Seyne : 3 circuits</name>
    <desc><![CDATA[Cet itinéraire fait partie de la collection de EquiLiberté : www.equiliberte.org Circuit NON ACCESSIBLE aux attelages
]]></desc>
  </metadata>
  <trk>
    <name><![CDATA[04 - Seyne nord - Montclar]]></name>
    <extensions>
      <line xmlns="http://www.topografix.com/GPX/gpx_style/0/2">
        <color>FF0000</color>
        <width>4</width>
      </line>
    </extensions>
    <trkseg>
      <trkpt lat="44.34603" lon="6.34549">
        <ele>1136.8000488281</ele>
        <time>2016-07-11T06:56:07.000Z</time>
      </trkpt>
      <trkpt lat="44.34603" lon="6.34549">
        <ele>1136.8000488281</ele>
        <time>2016-07-11T06:56:07.000Z</time>
      </trkpt>
      <trkpt lat="44.34605" lon="6.34555">
        <ele>1137</ele>
        <time>2016-07-11T06:56:11.000Z</time>
      </trkpt>
      <trkpt lat="44.34604" lon="6.34564">
        <ele>1137.1999511719</ele>
        <time>2016-07-11T06:56:16.000Z</time>
      </trkpt>
      <trkpt lat="44.34605" lon="6.34566">
        <ele>1137.1999511719</ele>
        <time>2016-07-11T06:56:17.000Z</time>
      </trkpt>
      <trkpt lat="44.34605" lon="6.34567">
        <ele>1137.1999511719</ele>
        <time>2016-07-11T06:56:18.000Z</time>
      </trkpt>
      <trkpt lat="44.34611" lon="6.34571">
        <ele>1137</ele>
        <time>2016-07-11T06:56:23.000Z</time>
      </trkpt>
      <trkpt lat="44.34623" lon="6.34575">
        <ele>1136.4000244141</ele>
        <time>2016-07-11T06:56:32.000Z</time>
      </trkpt>
      <trkpt lat="44.34635" lon="6.34577">
        <ele>1136</ele>
        <time>2016-07-11T06:56:41.000Z</time>
      </trkpt>
      <trkpt lat="44.34639" lon="6.34577">
        <ele>1135.8000488281</ele>
        <time>2016-07-11T06:56:44.000Z</time>
      </trkpt>
      <trkpt lat="44.34651" lon="6.34579">
        <ele>1135.4000244141</ele>
        <time>2016-07-11T06:56:53.000Z</time>
      </trkpt>
      <trkpt lat="44.34661" lon="6.34579">
        <ele>1135</ele>
        <time>2016-07-11T06:57:00.000Z</time>
      </trkpt>
      <trkpt lat="44.34668" lon="6.3458">
        <ele>1134.5999755859</ele>
        <time>2016-07-11T06:57:06.000Z</time>
      </trkpt>
      <trkpt lat="44.34668" lon="6.34581">
        <ele>1134.5999755859</ele>
        <time>2016-07-11T06:57:07.000Z</time>
      </trkpt>
      <trkpt lat="44.34669" lon="6.34582">
        <ele>1134.5999755859</ele>
        <time>2016-07-11T06:57:15.000Z</time>
      </trkpt>
      <trkpt lat="44.34671" lon="6.3458">
        <ele>1134.5999755859</ele>
        <time>2016-07-11T06:57:22.000Z</time>
      </trkpt>
      <trkpt lat="44.34677" lon="6.3458">
        <ele>1134.4000244141</ele>
        <time>2016-07-11T06:57:27.000Z</time>
      </trkpt>
      <trkpt lat="44.34685" lon="6.34579">
        <ele>1134.1999511719</ele>
        <time>2016-07-11T06:57:33.000Z</time>
      </trkpt>
      <trkpt lat="44.34692" lon="6.34576">
        <ele>1133.8000488281</ele>
        <time>2016-07-11T06:57:39.000Z</time>
      </trkpt>
      <trkpt lat="44.34704" lon="6.34575">
        <ele>1133.5999755859</ele>
        <time>2016-07-11T06:57:47.000Z</time>
      </trkpt>
      <trkpt lat="44.34712" lon="6.34574">
        <ele>1133.1999511719</ele>
        <time>2016-07-11T06:57:53.000Z</time>
      </trkpt>
      <trkpt lat="44.34724" lon="6.34578">
        <ele>1132.5999755859</ele>
        <time>2016-07-11T06:58:01.000Z</time>
      </trkpt>
      <trkpt lat="44.34736" lon="6.34583">
        <ele>1131.8000488281</ele>
        <time>2016-07-11T06:58:10.000Z</time>
      </trkpt>
      <trkpt lat="44.34748" lon="6.34588">
        <ele>1131.1999511719</ele>
        <time>2016-07-11T06:58:19.000Z</time>
      </trkpt>
      <trkpt lat="44.34759" lon="6.34596">
        <ele>1130.5999755859</ele>
        <time>2016-07-11T06:58:27.000Z</time>
      </trkpt>
      <trkpt lat="44.34762" lon="6.34609">
        <ele>1130.5999755859</ele>
        <time>2016-07-11T06:58:33.000Z</time>
      </trkpt>
      <trkpt lat="44.3476" lon="6.34649">
        <ele>1130.5999755859</ele>
        <time>2016-07-11T06:58:50.000Z</time>
      </trkpt>
      <trkpt lat="44.34758" lon="6.34665">
        <ele>1131</ele>
        <time>2016-07-11T06:58:58.000Z</time>
      </trkpt>
      <trkpt lat="44.34757" lon="6.34684">
        <ele>1131.4000244141</ele>
        <time>2016-07-11T06:59:07.000Z</time>
      </trkpt>
      <trkpt lat="44.34757" lon="6.347">
        <ele>1131.8000488281</ele>
        <time>2016-07-11T06:59:15.000Z</time>
      </trkpt>
      <trkpt lat="44.34759" lon="6.34721">
        <ele>1132</ele>
        <time>2016-07-11T06:59:25.000Z</time>
      </trkpt>
      <trkpt lat="44.34763" lon="6.3474">
        <ele>1132.1999511719</ele>
        <time>2016-07-11T06:59:35.000Z</time>
      </trkpt>
      <trkpt lat="44.34769" lon="6.34756">
        <ele>1132.5999755859</ele>
        <time>2016-07-11T06:59:44.000Z</time>
      </trkpt>
      <trkpt lat="44.34772" lon="6.34763">
        <ele>1132.8000488281</ele>
        <time>2016-07-11T06:59:48.000Z</time>
      </trkpt>
      <trkpt lat="44.34774" lon="6.34763">
        <ele>1132.8000488281</ele>
        <time>2016-07-11T06:59:54.000Z</time>
      </trkpt>
      <trkpt lat="44.34776" lon="6.34769">
        <ele>1133</ele>
        <time>2016-07-11T06:59:59.000Z</time>
      </trkpt>
      <trkpt lat="44.34783" lon="6.34782">
        <ele>1133.1999511719</ele>
        <time>2016-07-11T07:00:08.000Z</time>
      </trkpt>
      <trkpt lat="44.3479" lon="6.34792">
        <ele>1133.4000244141</ele>
        <time>2016-07-11T07:00:16.000Z</time>
      </trkpt>
      <trkpt lat="44.34797" lon="6.34802">
        <ele>1133.5999755859</ele>
        <time>2016-07-11T07:00:23.000Z</time>
      </trkpt>
      <trkpt lat="44.34801" lon="6.34808">
        <ele>1133.8000488281</ele>
        <time>2016-07-11T07:00:28.000Z</time>
      </trkpt>
      <trkpt lat="44.34804" lon="6.34806">
        <ele>1133.8000488281</ele>
        <time>2016-07-11T07:00:33.000Z</time>
      </trkpt>
      <trkpt lat="44.34803" lon="6.34807">
        <ele>1133.8000488281</ele>
        <time>2016-07-11T07:00:38.000Z</time>
      </trkpt>
      <trkpt lat="44.34803" lon="6.34808">
        <ele>1133.8000488281</ele>
        <time>2016-07-11T07:00:39.000Z</time>
      </trkpt>
      <trkpt lat="44.34812" lon="6.34824">
        <ele>1134.1999511719</ele>
        <time>2016-07-11T07:00:50.000Z</time>
      </trkpt>
      <trkpt lat="44.3482" lon="6.34836">
        <ele>1134.5999755859</ele>
        <time>2016-07-11T07:00:59.000Z</time>
      </trkpt>
      <trkpt lat="44.34828" lon="6.34847">
        <ele>1134.8000488281</ele>
        <time>2016-07-11T07:01:08.000Z</time>
      </trkpt>
      <trkpt lat="44.34839" lon="6.34859">
        <ele>1135</ele>
        <time>2016-07-11T07:01:18.000Z</time>
      </trkpt>
      <trkpt lat="44.34851" lon="6.34871">
        <ele>1135.4000244141</ele>
        <time>2016-07-11T07:01:28.000Z</time>
      </trkpt>
      <trkpt lat="44.34859" lon="6.3488">
        <ele>1135.5999755859</ele>
        <time>2016-07-11T07:01:36.000Z</time>
      </trkpt>
      <trkpt lat="44.34869" lon="6.34893">
        <ele>1135.8000488281</ele>
        <time>2016-07-11T07:01:46.000Z</time>
      </trkpt>
      <trkpt lat="44.34878" lon="6.34906">
        <ele>1136.1999511719</ele>
        <time>2016-07-11T07:01:56.000Z</time>
      </trkpt>
      <trkpt lat="44.34885" lon="6.34918">
        <ele>1136.4000244141</ele>
        <time>2016-07-11T07:02:04.000Z</time>
      </trkpt>
      <trkpt lat="44.34891" lon="6.34931">
        <ele>1136.8000488281</ele>
        <time>2016-07-11T07:02:12.000Z</time>
      </trkpt>
      <trkpt lat="44.34891" lon="6.34933">
        <ele>1136.8000488281</ele>
        <time>2016-07-11T07:02:13.000Z</time>
      </trkpt>
      <trkpt lat="44.34893" lon="6.3494">
        <ele>1136.8000488281</ele>
        <time>2016-07-11T07:02:18.000Z</time>
      </trkpt>
      <trkpt lat="44.34894" lon="6.34942">
        <ele>1136.8000488281</ele>
        <time>2016-07-11T07:02:19.000Z</time>
      </trkpt>
      <trkpt lat="44.34901" lon="6.34958">
        <ele>1137.1999511719</ele>
        <time>2016-07-11T07:02:29.000Z</time>
      </trkpt>
      <trkpt lat="44.34903" lon="6.3496">
        <ele>1137.1999511719</ele>
        <time>2016-07-11T07:02:31.000Z</time>
      </trkpt>
      <trkpt lat="44.34906" lon="6.3497">
        <ele>1137.4000244141</ele>
        <time>2016-07-11T07:02:37.000Z</time>
      </trkpt>
      <trkpt lat="44.34915" lon="6.34991">
        <ele>1137.8000488281</ele>
        <time>2016-07-11T07:02:49.000Z</time>
      </trkpt>
      <trkpt lat="44.34922" lon="6.35005">
        <ele>1138</ele>
        <time>2016-07-11T07:02:58.000Z</time>
      </trkpt>
      <trkpt lat="44.34929" lon="6.35017">
        <ele>1138.1999511719</ele>
        <time>2016-07-11T07:03:06.000Z</time>
      </trkpt>
      <trkpt lat="44.3493" lon="6.35018">
        <ele>1138.1999511719</ele>
        <time>2016-07-11T07:03:07.000Z</time>
      </trkpt>
      <trkpt lat="44.34931" lon="6.35019">
        <ele>1138.1999511719</ele>
        <time>2016-07-11T07:03:35.000Z</time>
      </trkpt>
      <trkpt lat="44.34933" lon="6.35019">
        <ele>1138.1999511719</ele>
        <time>2016-07-11T07:03:47.000Z</time>
      </trkpt>
      <trkpt lat="44.34942" lon="6.35034">
        <ele>1138.5999755859</ele>
        <time>2016-07-11T07:04:03.000Z</time>
      </trkpt>
      <trkpt lat="44.34949" lon="6.35047">
        <ele>1138.8000488281</ele>
        <time>2016-07-11T07:04:10.000Z</time>
      </trkpt>
      <trkpt lat="44.34956" lon="6.35063">
        <ele>1139</ele>
        <time>2016-07-11T07:04:19.000Z</time>
      </trkpt>
      <trkpt lat="44.34958" lon="6.35076">
        <ele>1140.5999755859</ele>
        <time>2016-07-11T07:04:25.000Z</time>
      </trkpt>
      <trkpt lat="44.34957" lon="6.3508">
        <ele>1140.8000488281</ele>
        <time>2016-07-11T07:04:27.000Z</time>
      </trkpt>
      <trkpt lat="44.3495" lon="6.35099">
        <ele>1141.5999755859</ele>
        <time>2016-07-11T07:04:37.000Z</time>
      </trkpt>
      <trkpt lat="44.34944" lon="6.35109">
        <ele>1142.1999511719</ele>
        <time>2016-07-11T07:04:43.000Z</time>
      </trkpt>
      <trkpt lat="44.34938" lon="6.35122">
        <ele>1142.8000488281</ele>
        <time>2016-07-11T07:04:50.000Z</time>
      </trkpt>
      <trkpt lat="44.3493" lon="6.35135">
        <ele>1143.4000244141</ele>
        <time>2016-07-11T07:04:58.000Z</time>
      </trkpt>
      <trkpt lat="44.3492" lon="6.3515">
        <ele>1143.4000244141</ele>
        <time>2016-07-11T07:05:08.000Z</time>
      </trkpt>
      <trkpt lat="44.34912" lon="6.35165">
        <ele>1144.4000244141</ele>
        <time>2016-07-11T07:05:16.000Z</time>
      </trkpt>
      <trkpt lat="44.34903" lon="6.35179">
        <ele>1145.5999755859</ele>
        <time>2016-07-11T07:05:25.000Z</time>
      </trkpt>
      <trkpt lat="44.34894" lon="6.35195">
        <ele>1145.5999755859</ele>
        <time>2016-07-11T07:05:34.000Z</time>
      </trkpt>
      <trkpt lat="44.34884" lon="6.3521">
        <ele>1145</ele>
        <time>2016-07-11T07:05:43.000Z</time>
      </trkpt>
      <trkpt lat="44.3488" lon="6.35217">
        <ele>1144.5999755859</ele>
        <time>2016-07-11T07:05:47.000Z</time>
      </trkpt>
      <trkpt lat="44.34874" lon="6.35237">
        <ele>1145.4000244141</ele>
        <time>2016-07-11T07:05:58.000Z</time>
      </trkpt>
      <trkpt lat="44.34862" lon="6.35254">
        <ele>1144.4000244141</ele>
        <time>2016-07-11T07:06:09.000Z</time>
      </trkpt>
      <trkpt lat="44.34859" lon="6.35259">
        <ele>1144.5999755859</ele>
        <time>2016-07-11T07:06:14.000Z</time>
      </trkpt>
      <trkpt lat="44.34854" lon="6.35267">
        <ele>1144.8000488281</ele>
        <time>2016-07-11T07:06:19.000Z</time>
      </trkpt>
      <trkpt lat="44.34851" lon="6.35274">
        <ele>1145.1999511719</ele>
        <time>2016-07-11T07:06:24.000Z</time>
      </trkpt>
      <trkpt lat="44.34845" lon="6.35286">
        <ele>1145.5999755859</ele>
        <time>2016-07-11T07:06:31.000Z</time>
      </trkpt>
      <trkpt lat="44.34841" lon="6.35297">
        <ele>1146</ele>
        <time>2016-07-11T07:06:37.000Z</time>
      </trkpt>
      <trkpt lat="44.34841" lon="6.35302">
        <ele>1146.1999511719</ele>
        <time>2016-07-11T07:06:40.000Z</time>
      </trkpt>
      <trkpt lat="44.34844" lon="6.35309">
        <ele>1146.5999755859</ele>
        <time>2016-07-11T07:06:45.000Z</time>
      </trkpt>
      <trkpt lat="44.34846" lon="6.35319">
        <ele>1147</ele>
        <time>2016-07-11T07:06:51.000Z</time>
      </trkpt>
      <trkpt lat="44.34847" lon="6.35321">
        <ele>1147</ele>
        <time>2016-07-11T07:06:52.000Z</time>
      </trkpt>
      <trkpt lat="44.34849" lon="6.3533">
        <ele>1147</ele>
        <time>2016-07-11T07:06:58.000Z</time>
      </trkpt>
      <trkpt lat="44.3485" lon="6.35332">
        <ele>1147.1999511719</ele>
        <time>2016-07-11T07:06:59.000Z</time>
      </trkpt>
      <trkpt lat="44.34852" lon="6.35336">
        <ele>1147.1999511719</ele>
        <time>2016-07-11T07:07:03.000Z</time>
      </trkpt>
      <trkpt lat="44.34858" lon="6.35343">
        <ele>1147.5999755859</ele>
        <time>2016-07-11T07:07:10.000Z</time>
      </trkpt>
      <trkpt lat="44.34863" lon="6.35343">
        <ele>1148</ele>
        <time>2016-07-11T07:07:14.000Z</time>
      </trkpt>
      <trkpt lat="44.3487" lon="6.35345">
        <ele>1148.8000488281</ele>
        <time>2016-07-11T07:07:19.000Z</time>
      </trkpt>
      <trkpt lat="44.34871" lon="6.35345">
        <ele>1149</ele>
        <time>2016-07-11T07:07:20.000Z</time>
      </trkpt>
      <trkpt lat="44.34881" lon="6.35347">
        <ele>1150.5999755859</ele>
        <time>2016-07-11T07:07:27.000Z</time>
      </trkpt>
      <trkpt lat="44.34886" lon="6.35348">
        <ele>1151.4000244141</ele>
        <time>2016-07-11T07:07:31.000Z</time>
      </trkpt>
      <trkpt lat="44.34897" lon="6.35353">
        <ele>1153</ele>
        <time>2016-07-11T07:07:39.000Z</time>
      </trkpt>
      <trkpt lat="44.34912" lon="6.35363">
        <ele>1155.4000244141</ele>
        <time>2016-07-11T07:07:49.000Z</time>
      </trkpt>
      <trkpt lat="44.34914" lon="6.35366">
        <ele>1155.8000488281</ele>
        <time>2016-07-11T07:07:51.000Z</time>
      </trkpt>
      <trkpt lat="44.34918" lon="6.35369">
        <ele>1156.4000244141</ele>
        <time>2016-07-11T07:07:54.000Z</time>
      </trkpt>
      <trkpt lat="44.34924" lon="6.35376">
        <ele>1157.4000244141</ele>
        <time>2016-07-11T07:07:59.000Z</time>
      </trkpt>
      <trkpt lat="44.34934" lon="6.35385">
        <ele>1159</ele>
        <time>2016-07-11T07:08:07.000Z</time>
      </trkpt>
      <trkpt lat="44.34943" lon="6.35394">
        <ele>1160.4000244141</ele>
        <time>2016-07-11T07:08:14.000Z</time>
      </trkpt>
      <trkpt lat="44.34944" lon="6.35396">
        <ele>1160.4000244141</ele>
        <time>2016-07-11T07:08:15.000Z</time>
      </trkpt>
      <trkpt lat="44.34951" lon="6.35405">
        <ele>1162</ele>
        <time>2016-07-11T07:08:22.000Z</time>
      </trkpt>
      <trkpt lat="44.34952" lon="6.35406">
        <ele>1162.1999511719</ele>
        <time>2016-07-11T07:08:23.000Z</time>
      </trkpt>
      <trkpt lat="44.34957" lon="6.35412">
        <ele>1163.8000488281</ele>
        <time>2016-07-11T07:08:27.000Z</time>
      </trkpt>
      <trkpt lat="44.34964" lon="6.35419">
        <ele>1165.5999755859</ele>
        <time>2016-07-11T07:08:34.000Z</time>
      </trkpt>
      <trkpt lat="44.34967" lon="6.35424">
        <ele>1166.4000244141</ele>
        <time>2016-07-11T07:08:39.000Z</time>
      </trkpt>
      <trkpt lat="44.3497" lon="6.35426">
        <ele>1167.1999511719</ele>
        <time>2016-07-11T07:08:41.000Z</time>
      </trkpt>
      <trkpt lat="44.34976" lon="6.35428">
        <ele>1168.8000488281</ele>
        <time>2016-07-11T07:08:46.000Z</time>
      </trkpt>
      <trkpt lat="44.34977" lon="6.35431">
        <ele>1169.1999511719</ele>
        <time>2016-07-11T07:08:48.000Z</time>
      </trkpt>
      <trkpt lat="44.34975" lon="6.35442">
        <ele>1168.5999755859</ele>
        <time>2016-07-11T07:08:55.000Z</time>
      </trkpt>
      <trkpt lat="44.3497" lon="6.3546">
        <ele>1167.5999755859</ele>
        <time>2016-07-11T07:09:04.000Z</time>
      </trkpt>
      <trkpt lat="44.34968" lon="6.35468">
        <ele>1167.1999511719</ele>
        <time>2016-07-11T07:09:09.000Z</time>
      </trkpt>
      <trkpt lat="44.34967" lon="6.35472">
        <ele>1167</ele>
        <time>2016-07-11T07:09:11.000Z</time>
      </trkpt>
      <trkpt lat="44.34971" lon="6.35479">
        <ele>1168.1999511719</ele>
        <time>2016-07-11T07:09:17.000Z</time>
      </trkpt>
      <trkpt lat="44.34972" lon="6.3548">
        <ele>1168.4000244141</ele>
        <time>2016-07-11T07:09:18.000Z</time>
      </trkpt>
      <trkpt lat="44.34978" lon="6.35486">
        <ele>1170.5999755859</ele>
        <time>2016-07-11T07:09:23.000Z</time>
      </trkpt>
      <trkpt lat="44.34979" lon="6.35488">
        <ele>1171</ele>
        <time>2016-07-11T07:09:24.000Z</time>
      </trkpt>
      <trkpt lat="44.34981" lon="6.35494">
        <ele>1172</ele>
        <time>2016-07-11T07:09:29.000Z</time>
      </trkpt>
      <trkpt lat="44.34977" lon="6.35496">
        <ele>1171.1999511719</ele>
        <time>2016-07-11T07:09:33.000Z</time>
      </trkpt>
      <trkpt lat="44.34975" lon="6.35498">
        <ele>1170.8000488281</ele>
        <time>2016-07-11T07:09:35.000Z</time>
      </trkpt>
      <trkpt lat="44.34973" lon="6.35501">
        <ele>1170.5999755859</ele>
        <time>2016-07-11T07:09:38.000Z</time>
      </trkpt>
      <trkpt lat="44.34976" lon="6.35509">
        <ele>1172.1999511719</ele>
        <time>2016-07-11T07:09:43.000Z</time>
      </trkpt>
      <trkpt lat="44.34972" lon="6.35516">
        <ele>1171.5999755859</ele>
        <time>2016-07-11T07:09:48.000Z</time>
      </trkpt>
      <trkpt lat="44.34971" lon="6.35525">
        <ele>1172</ele>
        <time>2016-07-11T07:09:52.000Z</time>
      </trkpt>
      <trkpt lat="44.34972" lon="6.35527">
        <ele>1172.4000244141</ele>
        <time>2016-07-11T07:09:53.000Z</time>
      </trkpt>
      <trkpt lat="44.34984" lon="6.35536">
        <ele>1176.4000244141</ele>
        <time>2016-07-11T07:10:02.000Z</time>
      </trkpt>
      <trkpt lat="44.34986" lon="6.35546">
        <ele>1177.8000488281</ele>
        <time>2016-07-11T07:10:07.000Z</time>
      </trkpt>
      <trkpt lat="44.34986" lon="6.35549">
        <ele>1178.1999511719</ele>
        <time>2016-07-11T07:10:09.000Z</time>
      </trkpt>
      <trkpt lat="44.34988" lon="6.35548">
        <ele>1178.5999755859</ele>
        <time>2016-07-11T07:10:15.000Z</time>
      </trkpt>
      <trkpt lat="44.3499" lon="6.35543">
        <ele>1178.8000488281</ele>
        <time>2016-07-11T07:10:19.000Z</time>
      </trkpt>
      <trkpt lat="44.34994" lon="6.35542">
        <ele>1179.5999755859</ele>
        <time>2016-07-11T07:10:23.000Z</time>
      </trkpt>
      <trkpt lat="44.34996" lon="6.3554">
        <ele>1180.1999511719</ele>
        <time>2016-07-11T07:10:29.000Z</time>
      </trkpt>
      <trkpt lat="44.34997" lon="6.35535">
        <ele>1180</ele>
        <time>2016-07-11T07:10:35.000Z</time>
      </trkpt>
      <trkpt lat="44.34996" lon="6.3554">
        <ele>1180.1999511719</ele>
        <time>2016-07-11T07:10:41.000Z</time>
      </trkpt>
      <trkpt lat="44.34995" lon="6.35547">
        <ele>1180.4000244141</ele>
        <time>2016-07-11T07:10:45.000Z</time>
      </trkpt>
      <trkpt lat="44.35014" lon="6.35555">
        <ele>1186.4000244141</ele>
        <time>2016-07-11T07:10:58.000Z</time>
      </trkpt>
      <trkpt lat="44.35021" lon="6.35555">
        <ele>1188.5999755859</ele>
        <time>2016-07-11T07:11:04.000Z</time>
      </trkpt>
      <trkpt lat="44.35028" lon="6.35549">
        <ele>1189.8000488281</ele>
        <time>2016-07-11T07:11:10.000Z</time>
      </trkpt>
      <trkpt lat="44.35033" lon="6.35545">
        <ele>1190.5999755859</ele>
        <time>2016-07-11T07:11:16.000Z</time>
      </trkpt>
      <trkpt lat="44.35036" lon="6.35541">
        <ele>1191</ele>
        <time>2016-07-11T07:13:07.000Z</time>
      </trkpt>
      <trkpt lat="44.35041" lon="6.35535">
        <ele>1191.1999511719</ele>
        <time>2016-07-11T07:13:13.000Z</time>
      </trkpt>
      <trkpt lat="44.35047" lon="6.35523">
        <ele>1191.4000244141</ele>
        <time>2016-07-11T07:13:20.000Z</time>
      </trkpt>
      <trkpt lat="44.35053" lon="6.35502">
        <ele>1190.8000488281</ele>
        <time>2016-07-11T07:13:31.000Z</time>
      </trkpt>
      <trkpt lat="44.35056" lon="6.35488">
        <ele>1192.1999511719</ele>
        <time>2016-07-11T07:13:38.000Z</time>
      </trkpt>
      <trkpt lat="44.35065" lon="6.35456">
        <ele>1194.8000488281</ele>
        <time>2016-07-11T07:13:55.000Z</time>
      </trkpt>
      <trkpt lat="44.35068" lon="6.35437">
        <ele>1195.4000244141</ele>
        <time>2016-07-11T07:14:04.000Z</time>
      </trkpt>
      <trkpt lat="44.35074" lon="6.35424">
        <ele>1196.4000244141</ele>
        <time>2016-07-11T07:14:12.000Z</time>
      </trkpt>
      <trkpt lat="44.35078" lon="6.35415">
        <ele>1197.1999511719</ele>
        <time>2016-07-11T07:14:18.000Z</time>
      </trkpt>
      <trkpt lat="44.35086" lon="6.35422">
        <ele>1200.1999511719</ele>
        <time>2016-07-11T07:14:26.000Z</time>
      </trkpt>
      <trkpt lat="44.35089" lon="6.35425">
        <ele>1201</ele>
        <time>2016-07-11T07:14:28.000Z</time>
      </trkpt>
      <trkpt lat="44.3509" lon="6.35437">
        <ele>1202</ele>
        <time>2016-07-11T07:14:35.000Z</time>
      </trkpt>
      <trkpt lat="44.35088" lon="6.35448">
        <ele>1202</ele>
        <time>2016-07-11T07:14:42.000Z</time>
      </trkpt>
      <trkpt lat="44.35088" lon="6.35449">
        <ele>1202.1999511719</ele>
        <time>2016-07-11T07:14:43.000Z</time>
      </trkpt>
      <trkpt lat="44.35089" lon="6.35449">
        <ele>1202.4000244141</ele>
        <time>2016-07-11T07:14:45.000Z</time>
      </trkpt>
      <trkpt lat="44.35099" lon="6.35432">
        <ele>1204.5999755859</ele>
        <time>2016-07-11T07:14:56.000Z</time>
      </trkpt>
      <trkpt lat="44.35103" lon="6.35416">
        <ele>1204.8000488281</ele>
        <time>2016-07-11T07:15:04.000Z</time>
      </trkpt>
      <trkpt lat="44.35104" lon="6.35414">
        <ele>1205</ele>
        <time>2016-07-11T07:15:05.000Z</time>
      </trkpt>
      <trkpt lat="44.35107" lon="6.35418">
        <ele>1206</ele>
        <time>2016-07-11T07:15:09.000Z</time>
      </trkpt>
      <trkpt lat="44.35109" lon="6.35434">
        <ele>1207.5999755859</ele>
        <time>2016-07-11T07:15:17.000Z</time>
      </trkpt>
      <trkpt lat="44.35115" lon="6.35454">
        <ele>1210.5999755859</ele>
        <time>2016-07-11T07:15:23.000Z</time>
      </trkpt>
      <trkpt lat="44.35116" lon="6.35457">
        <ele>1211</ele>
        <time>2016-07-11T07:15:24.000Z</time>
      </trkpt>
      <trkpt lat="44.3512" lon="6.35466">
        <ele>1212</ele>
        <time>2016-07-11T07:15:30.000Z</time>
      </trkpt>
      <trkpt lat="44.35118" lon="6.35469">
        <ele>1212</ele>
        <time>2016-07-11T07:15:35.000Z</time>
      </trkpt>
      <trkpt lat="44.35114" lon="6.35465">
        <ele>1210.8000488281</ele>
        <time>2016-07-11T07:16:18.000Z</time>
      </trkpt>
      <trkpt lat="44.35112" lon="6.35453">
        <ele>1209.8000488281</ele>
        <time>2016-07-11T07:16:26.000Z</time>
      </trkpt>
      <trkpt lat="44.35115" lon="6.35457">
        <ele>1210.5999755859</ele>
        <time>2016-07-11T07:16:31.000Z</time>
      </trkpt>
      <trkpt lat="44.35116" lon="6.35469">
        <ele>1211.5999755859</ele>
        <time>2016-07-11T07:16:38.000Z</time>
      </trkpt>
      <trkpt lat="44.35115" lon="6.35479">
        <ele>1212</ele>
        <time>2016-07-11T07:16:45.000Z</time>
      </trkpt>
      <trkpt lat="44.35113" lon="6.35489">
        <ele>1211.1999511719</ele>
        <time>2016-07-11T07:16:52.000Z</time>
      </trkpt>
      <trkpt lat="44.35115" lon="6.35501">
        <ele>1211.1999511719</ele>
        <time>2016-07-11T07:16:59.000Z</time>
      </trkpt>
      <trkpt lat="44.3512" lon="6.35515">
        <ele>1210.8000488281</ele>
        <time>2016-07-11T07:17:07.000Z</time>
      </trkpt>
      <trkpt lat="44.35127" lon="6.35531">
        <ele>1210.1999511719</ele>
        <time>2016-07-11T07:17:16.000Z</time>
      </trkpt>
      <trkpt lat="44.35135" lon="6.35531">
        <ele>1210.1999511719</ele>
        <time>2016-07-11T07:17:22.000Z</time>
      </trkpt>
      <trkpt lat="44.35147" lon="6.35526">
        <ele>1210.4000244141</ele>
        <time>2016-07-11T07:17:31.000Z</time>
      </trkpt>
      <trkpt lat="44.35159" lon="6.35524">
        <ele>1210.8000488281</ele>
        <time>2016-07-11T07:17:38.000Z</time>
      </trkpt>
      <trkpt lat="44.35172" lon="6.35526">
        <ele>1212.5999755859</ele>
        <time>2016-07-11T07:17:48.000Z</time>
      </trkpt>
      <trkpt lat="44.3518" lon="6.35526">
        <ele>1214</ele>
        <time>2016-07-11T07:17:54.000Z</time>
      </trkpt>
      <trkpt lat="44.35184" lon="6.35525">
        <ele>1215</ele>
        <time>2016-07-11T07:17:59.000Z</time>
      </trkpt>
      <trkpt lat="44.35185" lon="6.35525">
        <ele>1215.4000244141</ele>
        <time>2016-07-11T07:18:00.000Z</time>
      </trkpt>
      <trkpt lat="44.35189" lon="6.35523">
        <ele>1216.1999511719</ele>
        <time>2016-07-11T07:18:04.000Z</time>
      </trkpt>
      <trkpt lat="44.35196" lon="6.35518">
        <ele>1218.5999755859</ele>
        <time>2016-07-11T07:18:11.000Z</time>
      </trkpt>
      <trkpt lat="44.35199" lon="6.35516">
        <ele>1219.4000244141</ele>
        <time>2016-07-11T07:18:14.000Z</time>
      </trkpt>
      <trkpt lat="44.35202" lon="6.35515">
        <ele>1219.5999755859</ele>
        <time>2016-07-11T07:18:17.000Z</time>
      </trkpt>
      <trkpt lat="44.35205" lon="6.35514">
        <ele>1220</ele>
        <time>2016-07-11T07:18:19.000Z</time>
      </trkpt>
      <trkpt lat="44.3521" lon="6.35512">
        <ele>1220.5999755859</ele>
        <time>2016-07-11T07:18:24.000Z</time>
      </trkpt>
      <trkpt lat="44.35219" lon="6.35505">
        <ele>1222.4000244141</ele>
        <time>2016-07-11T07:18:31.000Z</time>
      </trkpt>
      <trkpt lat="44.35225" lon="6.35499">
        <ele>1223.5999755859</ele>
        <time>2016-07-11T07:18:37.000Z</time>
      </trkpt>
      <trkpt lat="44.35228" lon="6.35497">
        <ele>1224.1999511719</ele>
        <time>2016-07-11T07:18:39.000Z</time>
      </trkpt>
      <trkpt lat="44.35234" lon="6.35494">
        <ele>1224.8000488281</ele>
        <time>2016-07-11T07:18:44.000Z</time>
      </trkpt>
      <trkpt lat="44.35239" lon="6.35485">
        <ele>1226.8000488281</ele>
        <time>2016-07-11T07:18:51.000Z</time>
      </trkpt>
      <trkpt lat="44.35243" lon="6.35479">
        <ele>1227.8000488281</ele>
        <time>2016-07-11T07:18:56.000Z</time>
      </trkpt>
      <trkpt lat="44.35249" lon="6.35472">
        <ele>1228.8000488281</ele>
        <time>2016-07-11T07:19:03.000Z</time>
      </trkpt>
      <trkpt lat="44.35255" lon="6.35466">
        <ele>1229.4000244141</ele>
        <time>2016-07-11T07:19:08.000Z</time>
      </trkpt>
      <trkpt lat="44.35259" lon="6.35461">
        <ele>1230.1999511719</ele>
        <time>2016-07-11T07:19:15.000Z</time>
      </trkpt>
      <trkpt lat="44.35261" lon="6.35458">
        <ele>1231</ele>
        <time>2016-07-11T07:19:18.000Z</time>
      </trkpt>
      <trkpt lat="44.35264" lon="6.35454">
        <ele>1232.4000244141</ele>
        <time>2016-07-11T07:19:24.000Z</time>
      </trkpt>
      <trkpt lat="44.35271" lon="6.35449">
        <ele>1234.8000488281</ele>
        <time>2016-07-11T07:19:30.000Z</time>
      </trkpt>
      <trkpt lat="44.35279" lon="6.35439">
        <ele>1238.8000488281</ele>
        <time>2016-07-11T07:19:37.000Z</time>
      </trkpt>
      <trkpt lat="44.35286" lon="6.35429">
        <ele>1241.8000488281</ele>
        <time>2016-07-11T07:19:43.000Z</time>
      </trkpt>
      <trkpt lat="44.3531" lon="6.35413">
        <ele>1245.4000244141</ele>
        <time>2016-07-11T07:19:59.000Z</time>
      </trkpt>
      <trkpt lat="44.35329" lon="6.35409">
        <ele>1245</ele>
        <time>2016-07-11T07:20:11.000Z</time>
      </trkpt>
      <trkpt lat="44.35346" lon="6.354">
        <ele>1245.5999755859</ele>
        <time>2016-07-11T07:20:23.000Z</time>
      </trkpt>
      <trkpt lat="44.35358" lon="6.35389">
        <ele>1245.5999755859</ele>
        <time>2016-07-11T07:20:34.000Z</time>
      </trkpt>
      <trkpt lat="44.35366" lon="6.35381">
        <ele>1247.5999755859</ele>
        <time>2016-07-11T07:20:42.000Z</time>
      </trkpt>
      <trkpt lat="44.35375" lon="6.35371">
        <ele>1249.5999755859</ele>
        <time>2016-07-11T07:20:51.000Z</time>
      </trkpt>
      <trkpt lat="44.35386" lon="6.35359">
        <ele>1251.8000488281</ele>
        <time>2016-07-11T07:21:01.000Z</time>
      </trkpt>
      <trkpt lat="44.35395" lon="6.35357">
        <ele>1252.4000244141</ele>
        <time>2016-07-11T07:21:08.000Z</time>
      </trkpt>
      <trkpt lat="44.35404" lon="6.35361">
        <ele>1252.1999511719</ele>
        <time>2016-07-11T07:21:15.000Z</time>
      </trkpt>
      <trkpt lat="44.3541" lon="6.35365">
        <ele>1251.8000488281</ele>
        <time>2016-07-11T07:21:21.000Z</time>
      </trkpt>
      <trkpt lat="44.35415" lon="6.35369">
        <ele>1251.4000244141</ele>
        <time>2016-07-11T07:21:26.000Z</time>
      </trkpt>
      <trkpt lat="44.35416" lon="6.35369">
        <ele>1251.1999511719</ele>
        <time>2016-07-11T07:21:27.000Z</time>
      </trkpt>
      <trkpt lat="44.35421" lon="6.35372">
        <ele>1251.1999511719</ele>
        <time>2016-07-11T07:21:31.000Z</time>
      </trkpt>
      <trkpt lat="44.35429" lon="6.35376">
        <ele>1250.5999755859</ele>
        <time>2016-07-11T07:21:38.000Z</time>
      </trkpt>
      <trkpt lat="44.3543" lon="6.35377">
        <ele>1250.5999755859</ele>
        <time>2016-07-11T07:21:39.000Z</time>
      </trkpt>
      <trkpt lat="44.35432" lon="6.35377">
        <ele>1250.5999755859</ele>
        <time>2016-07-11T07:21:41.000Z</time>
      </trkpt>
      <trkpt lat="44.35443" lon="6.35381">
        <ele>1250.4000244141</ele>
        <time>2016-07-11T07:21:49.000Z</time>
      </trkpt>
      <trkpt lat="44.35452" lon="6.35385">
        <ele>1250.4000244141</ele>
        <time>2016-07-11T07:21:56.000Z</time>
      </trkpt>
      <trkpt lat="44.35464" lon="6.35391">
        <ele>1251</ele>
        <time>2016-07-11T07:22:05.000Z</time>
      </trkpt>
      <trkpt lat="44.35474" lon="6.35396">
        <ele>1251.4000244141</ele>
        <time>2016-07-11T07:22:13.000Z</time>
      </trkpt>
      <trkpt lat="44.35485" lon="6.35401">
        <ele>1252.1999511719</ele>
        <time>2016-07-11T07:22:21.000Z</time>
      </trkpt>
      <trkpt lat="44.35496" lon="6.35405">
        <ele>1253.4000244141</ele>
        <time>2016-07-11T07:22:29.000Z</time>
      </trkpt>
      <trkpt lat="44.35505" lon="6.35407">
        <ele>1254.4000244141</ele>
        <time>2016-07-11T07:22:36.000Z</time>
      </trkpt>
      <trkpt lat="44.3551" lon="6.35408">
        <ele>1254.8000488281</ele>
        <time>2016-07-11T07:22:42.000Z</time>
      </trkpt>
      <trkpt lat="44.35517" lon="6.35413">
        <ele>1255.4000244141</ele>
        <time>2016-07-11T07:23:16.000Z</time>
      </trkpt>
      <trkpt lat="44.35523" lon="6.35426">
        <ele>1255.4000244141</ele>
        <time>2016-07-11T07:23:24.000Z</time>
      </trkpt>
      <trkpt lat="44.3553" lon="6.35441">
        <ele>1255.4000244141</ele>
        <time>2016-07-11T07:23:33.000Z</time>
      </trkpt>
      <trkpt lat="44.35537" lon="6.3546">
        <ele>1255.1999511719</ele>
        <time>2016-07-11T07:23:43.000Z</time>
      </trkpt>
      <trkpt lat="44.35542" lon="6.35473">
        <ele>1255.1999511719</ele>
        <time>2016-07-11T07:23:50.000Z</time>
      </trkpt>
      <trkpt lat="44.35547" lon="6.35485">
        <ele>1255.8000488281</ele>
        <time>2016-07-11T07:23:57.000Z</time>
      </trkpt>
      <trkpt lat="44.35552" lon="6.35504">
        <ele>1257.4000244141</ele>
        <time>2016-07-11T07:24:07.000Z</time>
      </trkpt>
      <trkpt lat="44.35553" lon="6.35506">
        <ele>1257.4000244141</ele>
        <time>2016-07-11T07:24:09.000Z</time>
      </trkpt>
      <trkpt lat="44.35561" lon="6.35526">
        <ele>1259</ele>
        <time>2016-07-11T07:24:20.000Z</time>
      </trkpt>
      <trkpt lat="44.35568" lon="6.35543">
        <ele>1260.5999755859</ele>
        <time>2016-07-11T07:24:29.000Z</time>
      </trkpt>
      <trkpt lat="44.35575" lon="6.35561">
        <ele>1262</ele>
        <time>2016-07-11T07:24:39.000Z</time>
      </trkpt>
      <trkpt lat="44.35582" lon="6.35581">
        <ele>1264.1999511719</ele>
        <time>2016-07-11T07:24:50.000Z</time>
      </trkpt>
      <trkpt lat="44.35588" lon="6.35597">
        <ele>1266.1999511719</ele>
        <time>2016-07-11T07:24:59.000Z</time>
      </trkpt>
      <trkpt lat="44.35593" lon="6.35612">
        <ele>1267.8000488281</ele>
        <time>2016-07-11T07:25:07.000Z</time>
      </trkpt>
      <trkpt lat="44.356" lon="6.35631">
        <ele>1270.1999511719</ele>
        <time>2016-07-11T07:25:18.000Z</time>
      </trkpt>
      <trkpt lat="44.35607" lon="6.35653">
        <ele>1272.8000488281</ele>
        <time>2016-07-11T07:25:30.000Z</time>
      </trkpt>
      <trkpt lat="44.35612" lon="6.35664">
        <ele>1274.8000488281</ele>
        <time>2016-07-11T07:25:37.000Z</time>
      </trkpt>
      <trkpt lat="44.3562" lon="6.35679">
        <ele>1278</ele>
        <time>2016-07-11T07:25:47.000Z</time>
      </trkpt>
      <trkpt lat="44.35623" lon="6.35687">
        <ele>1279.5999755859</ele>
        <time>2016-07-11T07:25:52.000Z</time>
      </trkpt>
      <trkpt lat="44.35629" lon="6.35705">
        <ele>1282.8000488281</ele>
        <time>2016-07-11T07:26:03.000Z</time>
      </trkpt>
      <trkpt lat="44.35627" lon="6.35719">
        <ele>1283.4000244141</ele>
        <time>2016-07-11T07:26:11.000Z</time>
      </trkpt>
      <trkpt lat="44.35623" lon="6.3573">
        <ele>1283.1999511719</ele>
        <time>2016-07-11T07:26:18.000Z</time>
      </trkpt>
      <trkpt lat="44.35621" lon="6.35745">
        <ele>1285.8000488281</ele>
        <time>2016-07-11T07:26:27.000Z</time>
      </trkpt>
      <trkpt lat="44.3562" lon="6.35759">
        <ele>1287.8000488281</ele>
        <time>2016-07-11T07:26:36.000Z</time>
      </trkpt>
      <trkpt lat="44.3562" lon="6.3576">
        <ele>1288.4000244141</ele>
        <time>2016-07-11T07:26:37.000Z</time>
      </trkpt>
      <trkpt lat="44.3563" lon="6.35761">
        <ele>1292.4000244141</ele>
        <time>2016-07-11T07:26:45.000Z</time>
      </trkpt>
      <trkpt lat="44.35632" lon="6.35759">
        <ele>1292.8000488281</ele>
        <time>2016-07-11T07:26:48.000Z</time>
      </trkpt>
      <trkpt lat="44.35641" lon="6.35756">
        <ele>1295.5999755859</ele>
        <time>2016-07-11T07:26:54.000Z</time>
      </trkpt>
      <trkpt lat="44.35642" lon="6.35755">
        <ele>1295.5999755859</ele>
        <time>2016-07-11T07:26:55.000Z</time>
      </trkpt>
      <trkpt lat="44.35652" lon="6.35751">
        <ele>1297.1999511719</ele>
        <time>2016-07-11T07:27:03.000Z</time>
      </trkpt>
      <trkpt lat="44.35659" lon="6.35749">
        <ele>1298.1999511719</ele>
        <time>2016-07-11T07:27:09.000Z</time>
      </trkpt>
      <trkpt lat="44.35667" lon="6.35744">
        <ele>1298.8000488281</ele>
        <time>2016-07-11T07:27:16.000Z</time>
      </trkpt>
      <trkpt lat="44.35674" lon="6.3574">
        <ele>1299.5999755859</ele>
        <time>2016-07-11T07:27:22.000Z</time>
      </trkpt>
      <trkpt lat="44.35675" lon="6.35741">
        <ele>1300</ele>
        <time>2016-07-11T07:27:23.000Z</time>
      </trkpt>
      <trkpt lat="44.35676" lon="6.35742">
        <ele>1300.5999755859</ele>
        <time>2016-07-11T07:27:25.000Z</time>
      </trkpt>
      <trkpt lat="44.35681" lon="6.35737">
        <ele>1300.1999511719</ele>
        <time>2016-07-11T07:27:31.000Z</time>
      </trkpt>
      <trkpt lat="44.35682" lon="6.35736">
        <ele>1300.1999511719</ele>
        <time>2016-07-11T07:27:32.000Z</time>
      </trkpt>
      <trkpt lat="44.35691" lon="6.35731">
        <ele>1301.1999511719</ele>
        <time>2016-07-11T07:27:41.000Z</time>
      </trkpt>
      <trkpt lat="44.35698" lon="6.35728">
        <ele>1302.8000488281</ele>
        <time>2016-07-11T07:27:48.000Z</time>
      </trkpt>
      <trkpt lat="44.35704" lon="6.35725">
        <ele>1304.4000244141</ele>
        <time>2016-07-11T07:27:54.000Z</time>
      </trkpt>
      <trkpt lat="44.35712" lon="6.35719">
        <ele>1306.8000488281</ele>
        <time>2016-07-11T07:28:02.000Z</time>
      </trkpt>
      <trkpt lat="44.35718" lon="6.35715">
        <ele>1308.5999755859</ele>
        <time>2016-07-11T07:28:09.000Z</time>
      </trkpt>
      <trkpt lat="44.35726" lon="6.35706">
        <ele>1310</ele>
        <time>2016-07-11T07:28:17.000Z</time>
      </trkpt>
      <trkpt lat="44.35734" lon="6.35698">
        <ele>1312.1999511719</ele>
        <time>2016-07-11T07:28:26.000Z</time>
      </trkpt>
      <trkpt lat="44.35741" lon="6.35694">
        <ele>1313.8000488281</ele>
        <time>2016-07-11T07:28:32.000Z</time>
      </trkpt>
      <trkpt lat="44.35749" lon="6.35687">
        <ele>1315.1999511719</ele>
        <time>2016-07-11T07:28:40.000Z</time>
      </trkpt>
      <trkpt lat="44.35759" lon="6.35681">
        <ele>1317</ele>
        <time>2016-07-11T07:28:48.000Z</time>
      </trkpt>
      <trkpt lat="44.35766" lon="6.35675">
        <ele>1317.5999755859</ele>
        <time>2016-07-11T07:28:55.000Z</time>
      </trkpt>
      <trkpt lat="44.35771" lon="6.3567">
        <ele>1318.5999755859</ele>
        <time>2016-07-11T07:29:00.000Z</time>
      </trkpt>
      <trkpt lat="44.35778" lon="6.35664">
        <ele>1319.1999511719</ele>
        <time>2016-07-11T07:29:07.000Z</time>
      </trkpt>
      <trkpt lat="44.35784" lon="6.3566">
        <ele>1320.4000244141</ele>
        <time>2016-07-11T07:29:12.000Z</time>
      </trkpt>
      <trkpt lat="44.35792" lon="6.35649">
        <ele>1321.1999511719</ele>
        <time>2016-07-11T07:29:21.000Z</time>
      </trkpt>
      <trkpt lat="44.35801" lon="6.35642">
        <ele>1323.1999511719</ele>
        <time>2016-07-11T07:29:29.000Z</time>
      </trkpt>
      <trkpt lat="44.35804" lon="6.35639">
        <ele>1324</ele>
        <time>2016-07-11T07:29:32.000Z</time>
      </trkpt>
      <trkpt lat="44.35808" lon="6.35637">
        <ele>1325.5999755859</ele>
        <time>2016-07-11T07:29:36.000Z</time>
      </trkpt>
      <trkpt lat="44.35812" lon="6.35636">
        <ele>1327</ele>
        <time>2016-07-11T07:29:39.000Z</time>
      </trkpt>
      <trkpt lat="44.3582" lon="6.35635">
        <ele>1330.1999511719</ele>
        <time>2016-07-11T07:29:46.000Z</time>
      </trkpt>
      <trkpt lat="44.35821" lon="6.35635">
        <ele>1330.5999755859</ele>
        <time>2016-07-11T07:29:47.000Z</time>
      </trkpt>
      <trkpt lat="44.3583" lon="6.35629">
        <ele>1333.4000244141</ele>
        <time>2016-07-11T07:29:55.000Z</time>
      </trkpt>
      <trkpt lat="44.35837" lon="6.35629">
        <ele>1336.5999755859</ele>
        <time>2016-07-11T07:30:01.000Z</time>
      </trkpt>
      <trkpt lat="44.35843" lon="6.35629">
        <ele>1338.8000488281</ele>
        <time>2016-07-11T07:30:04.000Z</time>
      </trkpt>
      <trkpt lat="44.35852" lon="6.35624">
        <ele>1340.8000488281</ele>
        <time>2016-07-11T07:30:12.000Z</time>
      </trkpt>
      <trkpt lat="44.35859" lon="6.35623">
        <ele>1343</ele>
        <time>2016-07-11T07:30:17.000Z</time>
      </trkpt>
      <trkpt lat="44.35861" lon="6.35621">
        <ele>1343.1999511719</ele>
        <time>2016-07-11T07:30:19.000Z</time>
      </trkpt>
      <trkpt lat="44.35871" lon="6.35614">
        <ele>1345.4000244141</ele>
        <time>2016-07-11T07:30:27.000Z</time>
      </trkpt>
      <trkpt lat="44.35879" lon="6.35607">
        <ele>1347.1999511719</ele>
        <time>2016-07-11T07:30:35.000Z</time>
      </trkpt>
      <trkpt lat="44.35886" lon="6.35604">
        <ele>1349.5999755859</ele>
        <time>2016-07-11T07:30:41.000Z</time>
      </trkpt>
      <trkpt lat="44.35891" lon="6.35597">
        <ele>1350.1999511719</ele>
        <time>2016-07-11T07:30:47.000Z</time>
      </trkpt>
      <trkpt lat="44.359" lon="6.35586">
        <ele>1351.4000244141</ele>
        <time>2016-07-11T07:30:56.000Z</time>
      </trkpt>
      <trkpt lat="44.35909" lon="6.35577">
        <ele>1353</ele>
        <time>2016-07-11T07:31:04.000Z</time>
      </trkpt>
      <trkpt lat="44.35917" lon="6.3557">
        <ele>1354.8000488281</ele>
        <time>2016-07-11T07:31:12.000Z</time>
      </trkpt>
      <trkpt lat="44.35921" lon="6.35568">
        <ele>1356.1999511719</ele>
        <time>2016-07-11T07:31:15.000Z</time>
      </trkpt>
      <trkpt lat="44.35926" lon="6.35563">
        <ele>1357.1999511719</ele>
        <time>2016-07-11T07:31:20.000Z</time>
      </trkpt>
      <trkpt lat="44.35934" lon="6.3556">
        <ele>1360.4000244141</ele>
        <time>2016-07-11T07:31:29.000Z</time>
      </trkpt>
      <trkpt lat="44.35941" lon="6.35557">
        <ele>1363</ele>
        <time>2016-07-11T07:31:36.000Z</time>
      </trkpt>
      <trkpt lat="44.35948" lon="6.35554">
        <ele>1365</ele>
        <time>2016-07-11T07:31:43.000Z</time>
      </trkpt>
      <trkpt lat="44.35956" lon="6.35549">
        <ele>1365.8000488281</ele>
        <time>2016-07-11T07:31:50.000Z</time>
      </trkpt>
      <trkpt lat="44.35959" lon="6.35547">
        <ele>1366.4000244141</ele>
        <time>2016-07-11T07:31:53.000Z</time>
      </trkpt>
      <trkpt lat="44.35966" lon="6.35543">
        <ele>1367.1999511719</ele>
        <time>2016-07-11T07:32:00.000Z</time>
      </trkpt>
      <trkpt lat="44.35968" lon="6.35542">
        <ele>1367.5999755859</ele>
        <time>2016-07-11T07:32:02.000Z</time>
      </trkpt>
      <trkpt lat="44.3597" lon="6.35534">
        <ele>1366</ele>
        <time>2016-07-11T07:32:08.000Z</time>
      </trkpt>
      <trkpt lat="44.35969" lon="6.35534">
        <ele>1365.5999755859</ele>
        <time>2016-07-11T07:32:14.000Z</time>
      </trkpt>
      <trkpt lat="44.35975" lon="6.35536">
        <ele>1368</ele>
        <time>2016-07-11T07:32:46.000Z</time>
      </trkpt>
      <trkpt lat="44.35977" lon="6.35536">
        <ele>1368.5999755859</ele>
        <time>2016-07-11T07:32:55.000Z</time>
      </trkpt>
      <trkpt lat="44.35976" lon="6.35537">
        <ele>1368.5999755859</ele>
        <time>2016-07-11T07:33:05.000Z</time>
      </trkpt>
      <trkpt lat="44.35977" lon="6.35538">
        <ele>1369</ele>
        <time>2016-07-11T07:33:11.000Z</time>
      </trkpt>
      <trkpt lat="44.35975" lon="6.35539">
        <ele>1369</ele>
        <time>2016-07-11T07:33:15.000Z</time>
      </trkpt>
      <trkpt lat="44.35972" lon="6.35537">
        <ele>1367.4000244141</ele>
        <time>2016-07-11T07:33:20.000Z</time>
      </trkpt>
      <trkpt lat="44.35972" lon="6.35535">
        <ele>1366.5999755859</ele>
        <time>2016-07-11T07:33:29.000Z</time>
      </trkpt>
      <trkpt lat="44.35972" lon="6.35534">
        <ele>1366.5999755859</ele>
        <time>2016-07-11T07:33:34.000Z</time>
      </trkpt>
      <trkpt lat="44.35972" lon="6.35535">
        <ele>1366.5999755859</ele>
        <time>2016-07-11T07:33:40.000Z</time>
      </trkpt>
      <trkpt lat="44.35973" lon="6.35533">
        <ele>1366.5999755859</ele>
        <time>2016-07-11T07:33:45.000Z</time>
      </trkpt>
      <trkpt lat="44.35972" lon="6.35534">
        <ele>1366.5999755859</ele>
        <time>2016-07-11T07:33:50.000Z</time>
      </trkpt>
      <trkpt lat="44.35973" lon="6.35537">
        <ele>1367.5999755859</ele>
        <time>2016-07-11T07:33:53.000Z</time>
      </trkpt>
      <trkpt lat="44.35974" lon="6.35537">
        <ele>1368</ele>
        <time>2016-07-11T07:33:59.000Z</time>
      </trkpt>
      <trkpt lat="44.35973" lon="6.35537">
        <ele>1368</ele>
        <time>2016-07-11T07:34:06.000Z</time>
      </trkpt>
      <trkpt lat="44.35977" lon="6.35538">
        <ele>1369</ele>
        <time>2016-07-11T07:34:16.000Z</time>
      </trkpt>
      <trkpt lat="44.3598" lon="6.3554">
        <ele>1370.5999755859</ele>
        <time>2016-07-11T07:34:20.000Z</time>
      </trkpt>
      <trkpt lat="44.35985" lon="6.3554">
        <ele>1372.4000244141</ele>
        <time>2016-07-11T07:34:26.000Z</time>
      </trkpt>
      <trkpt lat="44.3599" lon="6.3554">
        <ele>1373.8000488281</ele>
        <time>2016-07-11T07:34:31.000Z</time>
      </trkpt>
      <trkpt lat="44.35995" lon="6.3554">
        <ele>1375.4000244141</ele>
        <time>2016-07-11T07:34:36.000Z</time>
      </trkpt>
      <trkpt lat="44.35999" lon="6.3554">
        <ele>1376.8000488281</ele>
        <time>2016-07-11T07:34:41.000Z</time>
      </trkpt>
      <trkpt lat="44.36003" lon="6.35539">
        <ele>1378</ele>
        <time>2016-07-11T07:34:47.000Z</time>
      </trkpt>
      <trkpt lat="44.36011" lon="6.35537">
        <ele>1380</ele>
        <time>2016-07-11T07:34:54.000Z</time>
      </trkpt>
      <trkpt lat="44.36021" lon="6.35535">
        <ele>1382.4000244141</ele>
        <time>2016-07-11T07:35:02.000Z</time>
      </trkpt>
      <trkpt lat="44.36025" lon="6.35534">
        <ele>1383.8000488281</ele>
        <time>2016-07-11T07:35:06.000Z</time>
      </trkpt>
      <trkpt lat="44.36029" lon="6.35533">
        <ele>1384.5999755859</ele>
        <time>2016-07-11T07:35:10.000Z</time>
      </trkpt>
      <trkpt lat="44.36031" lon="6.35531">
        <ele>1384.8000488281</ele>
        <time>2016-07-11T07:35:13.000Z</time>
      </trkpt>
      <trkpt lat="44.36039" lon="6.35526">
        <ele>1384.4000244141</ele>
        <time>2016-07-11T07:35:21.000Z</time>
      </trkpt>
      <trkpt lat="44.36047" lon="6.3552">
        <ele>1383.5999755859</ele>
        <time>2016-07-11T07:35:28.000Z</time>
      </trkpt>
      <trkpt lat="44.36051" lon="6.35517">
        <ele>1383.1999511719</ele>
        <time>2016-07-11T07:35:32.000Z</time>
      </trkpt>
      <trkpt lat="44.36063" lon="6.3551">
        <ele>1383</ele>
        <time>2016-07-11T07:35:43.000Z</time>
      </trkpt>
      <trkpt lat="44.36074" lon="6.35504">
        <ele>1385.1999511719</ele>
        <time>2016-07-11T07:35:52.000Z</time>
      </trkpt>
      <trkpt lat="44.36075" lon="6.35503">
        <ele>1385.4000244141</ele>
        <time>2016-07-11T07:35:53.000Z</time>
      </trkpt>
      <trkpt lat="44.36081" lon="6.35494">
        <ele>1386.1999511719</ele>
        <time>2016-07-11T07:36:01.000Z</time>
      </trkpt>
      <trkpt lat="44.36083" lon="6.35496">
        <ele>1386.8000488281</ele>
        <time>2016-07-11T07:36:07.000Z</time>
      </trkpt>
      <trkpt lat="44.36082" lon="6.35496">
        <ele>1386.8000488281</ele>
        <time>2016-07-11T07:36:14.000Z</time>
      </trkpt>
      <trkpt lat="44.36082" lon="6.35495">
        <ele>1386.8000488281</ele>
        <time>2016-07-11T07:36:22.000Z</time>
      </trkpt>
      <trkpt lat="44.36087" lon="6.35491">
        <ele>1387.4000244141</ele>
        <time>2016-07-11T07:36:28.000Z</time>
      </trkpt>
      <trkpt lat="44.36095" lon="6.35489">
        <ele>1389.5999755859</ele>
        <time>2016-07-11T07:36:35.000Z</time>
      </trkpt>
      <trkpt lat="44.36096" lon="6.35489">
        <ele>1389.8000488281</ele>
        <time>2016-07-11T07:36:36.000Z</time>
      </trkpt>
      <trkpt lat="44.36099" lon="6.35487">
        <ele>1390.5999755859</ele>
        <time>2016-07-11T07:36:40.000Z</time>
      </trkpt>
      <trkpt lat="44.36107" lon="6.35482">
        <ele>1392</ele>
        <time>2016-07-11T07:36:49.000Z</time>
      </trkpt>
      <trkpt lat="44.36112" lon="6.35478">
        <ele>1392.5999755859</ele>
        <time>2016-07-11T07:36:54.000Z</time>
      </trkpt>
      <trkpt lat="44.36113" lon="6.35476">
        <ele>1392.8000488281</ele>
        <time>2016-07-11T07:36:56.000Z</time>
      </trkpt>
      <trkpt lat="44.36116" lon="6.35473">
        <ele>1392.8000488281</ele>
        <time>2016-07-11T07:37:00.000Z</time>
      </trkpt>
      <trkpt lat="44.36122" lon="6.35464">
        <ele>1392.5999755859</ele>
        <time>2016-07-11T07:37:08.000Z</time>
      </trkpt>
      <trkpt lat="44.36127" lon="6.35454">
        <ele>1392</ele>
        <time>2016-07-11T07:37:15.000Z</time>
      </trkpt>
      <trkpt lat="44.36132" lon="6.35447">
        <ele>1391.8000488281</ele>
        <time>2016-07-11T07:37:20.000Z</time>
      </trkpt>
      <trkpt lat="44.3614" lon="6.35439">
        <ele>1391.8000488281</ele>
        <time>2016-07-11T07:37:27.000Z</time>
      </trkpt>
      <trkpt lat="44.36145" lon="6.35431">
        <ele>1391.5999755859</ele>
        <time>2016-07-11T07:37:32.000Z</time>
      </trkpt>
      <trkpt lat="44.36146" lon="6.3543">
        <ele>1391.5999755859</ele>
        <time>2016-07-11T07:37:33.000Z</time>
      </trkpt>
      <trkpt lat="44.36161" lon="6.35412">
        <ele>1395.5999755859</ele>
        <time>2016-07-11T07:37:47.000Z</time>
      </trkpt>
      <trkpt lat="44.36167" lon="6.35405">
        <ele>1397.4000244141</ele>
        <time>2016-07-11T07:37:53.000Z</time>
      </trkpt>
      <trkpt lat="44.3617" lon="6.354">
        <ele>1398.1999511719</ele>
        <time>2016-07-11T07:37:57.000Z</time>
      </trkpt>
      <trkpt lat="44.36173" lon="6.35389">
        <ele>1397.4000244141</ele>
        <time>2016-07-11T07:38:04.000Z</time>
      </trkpt>
      <trkpt lat="44.36174" lon="6.35388">
        <ele>1397.4000244141</ele>
        <time>2016-07-11T07:38:05.000Z</time>
      </trkpt>
      <trkpt lat="44.36176" lon="6.35385">
        <ele>1397.4000244141</ele>
        <time>2016-07-11T07:38:07.000Z</time>
      </trkpt>
      <trkpt lat="44.3618" lon="6.35378">
        <ele>1397.8000488281</ele>
        <time>2016-07-11T07:38:12.000Z</time>
      </trkpt>
      <trkpt lat="44.36189" lon="6.35369">
        <ele>1400.5999755859</ele>
        <time>2016-07-11T07:38:20.000Z</time>
      </trkpt>
      <trkpt lat="44.36194" lon="6.35363">
        <ele>1402.4000244141</ele>
        <time>2016-07-11T07:38:25.000Z</time>
      </trkpt>
      <trkpt lat="44.36194" lon="6.35361">
        <ele>1402.4000244141</ele>
        <time>2016-07-11T07:38:26.000Z</time>
      </trkpt>
      <trkpt lat="44.36204" lon="6.35341">
        <ele>1403</ele>
        <time>2016-07-11T07:38:39.000Z</time>
      </trkpt>
      <trkpt lat="44.3621" lon="6.35332">
        <ele>1402.8000488281</ele>
        <time>2016-07-11T07:38:46.000Z</time>
      </trkpt>
      <trkpt lat="44.36216" lon="6.35324">
        <ele>1403.8000488281</ele>
        <time>2016-07-11T07:38:52.000Z</time>
      </trkpt>
      <trkpt lat="44.36224" lon="6.35312">
        <ele>1405.8000488281</ele>
        <time>2016-07-11T07:39:00.000Z</time>
      </trkpt>
      <trkpt lat="44.36232" lon="6.35302">
        <ele>1405.8000488281</ele>
        <time>2016-07-11T07:39:09.000Z</time>
      </trkpt>
      <trkpt lat="44.36236" lon="6.35292">
        <ele>1405.4000244141</ele>
        <time>2016-07-11T07:39:16.000Z</time>
      </trkpt>
      <trkpt lat="44.36241" lon="6.35283">
        <ele>1405</ele>
        <time>2016-07-11T07:39:23.000Z</time>
      </trkpt>
      <trkpt lat="44.36242" lon="6.35281">
        <ele>1405</ele>
        <time>2016-07-11T07:39:24.000Z</time>
      </trkpt>
      <trkpt lat="44.36251" lon="6.35272">
        <ele>1407.5999755859</ele>
        <time>2016-07-11T07:39:33.000Z</time>
      </trkpt>
      <trkpt lat="44.36256" lon="6.35265">
        <ele>1409.8000488281</ele>
        <time>2016-07-11T07:39:39.000Z</time>
      </trkpt>
      <trkpt lat="44.36263" lon="6.3526">
        <ele>1412.8000488281</ele>
        <time>2016-07-11T07:39:46.000Z</time>
      </trkpt>
      <trkpt lat="44.36269" lon="6.35249">
        <ele>1415.8000488281</ele>
        <time>2016-07-11T07:39:54.000Z</time>
      </trkpt>
      <trkpt lat="44.36273" lon="6.35242">
        <ele>1417.5999755859</ele>
        <time>2016-07-11T07:39:59.000Z</time>
      </trkpt>
      <trkpt lat="44.36278" lon="6.35235">
        <ele>1419.4000244141</ele>
        <time>2016-07-11T07:40:05.000Z</time>
      </trkpt>
      <trkpt lat="44.36279" lon="6.35233">
        <ele>1420</ele>
        <time>2016-07-11T07:40:07.000Z</time>
      </trkpt>
      <trkpt lat="44.3628" lon="6.35227">
        <ele>1420.1999511719</ele>
        <time>2016-07-11T07:40:11.000Z</time>
      </trkpt>
      <trkpt lat="44.36282" lon="6.35219">
        <ele>1419.8000488281</ele>
        <time>2016-07-11T07:40:18.000Z</time>
      </trkpt>
      <trkpt lat="44.36282" lon="6.35217">
        <ele>1419.5999755859</ele>
        <time>2016-07-11T07:40:19.000Z</time>
      </trkpt>
      <trkpt lat="44.36285" lon="6.35203">
        <ele>1418.4000244141</ele>
        <time>2016-07-11T07:40:27.000Z</time>
      </trkpt>
      <trkpt lat="44.36291" lon="6.35193">
        <ele>1418</ele>
        <time>2016-07-11T07:40:34.000Z</time>
      </trkpt>
      <trkpt lat="44.36299" lon="6.35189">
        <ele>1418.1999511719</ele>
        <time>2016-07-11T07:40:40.000Z</time>
      </trkpt>
      <trkpt lat="44.36303" lon="6.35184">
        <ele>1418.1999511719</ele>
        <time>2016-07-11T07:40:44.000Z</time>
      </trkpt>
      <trkpt lat="44.36311" lon="6.35174">
        <ele>1418.5999755859</ele>
        <time>2016-07-11T07:40:53.000Z</time>
      </trkpt>
      <trkpt lat="44.3632" lon="6.35167">
        <ele>1421.8000488281</ele>
        <time>2016-07-11T07:41:02.000Z</time>
      </trkpt>
      <trkpt lat="44.36326" lon="6.35159">
        <ele>1424.4000244141</ele>
        <time>2016-07-11T07:41:09.000Z</time>
      </trkpt>
      <trkpt lat="44.36333" lon="6.3515">
        <ele>1427.1999511719</ele>
        <time>2016-07-11T07:41:15.000Z</time>
      </trkpt>
      <trkpt lat="44.3634" lon="6.3514">
        <ele>1427.5999755859</ele>
        <time>2016-07-11T07:41:23.000Z</time>
      </trkpt>
      <trkpt lat="44.36341" lon="6.35139">
        <ele>1427.5999755859</ele>
        <time>2016-07-11T07:41:24.000Z</time>
      </trkpt>
      <trkpt lat="44.36343" lon="6.35136">
        <ele>1427.4000244141</ele>
        <time>2016-07-11T07:41:33.000Z</time>
      </trkpt>
      <trkpt lat="44.36351" lon="6.35123">
        <ele>1427.8000488281</ele>
        <time>2016-07-11T07:41:49.000Z</time>
      </trkpt>
      <trkpt lat="44.36358" lon="6.35115">
        <ele>1429</ele>
        <time>2016-07-11T07:41:56.000Z</time>
      </trkpt>
      <trkpt lat="44.36365" lon="6.35109">
        <ele>1430.5999755859</ele>
        <time>2016-07-11T07:42:02.000Z</time>
      </trkpt>
      <trkpt lat="44.36366" lon="6.35109">
        <ele>1430.4000244141</ele>
        <time>2016-07-11T07:42:03.000Z</time>
      </trkpt>
      <trkpt lat="44.36372" lon="6.35106">
        <ele>1429.4000244141</ele>
        <time>2016-07-11T07:42:09.000Z</time>
      </trkpt>
      <trkpt lat="44.36373" lon="6.35105">
        <ele>1429</ele>
        <time>2016-07-11T07:42:10.000Z</time>
      </trkpt>
      <trkpt lat="44.36381" lon="6.35101">
        <ele>1427.5999755859</ele>
        <time>2016-07-11T07:42:18.000Z</time>
      </trkpt>
      <trkpt lat="44.3639" lon="6.35095">
        <ele>1425.8000488281</ele>
        <time>2016-07-11T07:42:27.000Z</time>
      </trkpt>
      <trkpt lat="44.36397" lon="6.35089">
        <ele>1425.5999755859</ele>
        <time>2016-07-11T07:42:34.000Z</time>
      </trkpt>
      <trkpt lat="44.36399" lon="6.35086">
        <ele>1426</ele>
        <time>2016-07-11T07:42:37.000Z</time>
      </trkpt>
      <trkpt lat="44.36409" lon="6.35078">
        <ele>1427.8000488281</ele>
        <time>2016-07-11T07:42:48.000Z</time>
      </trkpt>
      <trkpt lat="44.36419" lon="6.35069">
        <ele>1429.1999511719</ele>
        <time>2016-07-11T07:42:58.000Z</time>
      </trkpt>
      <trkpt lat="44.36425" lon="6.35061">
        <ele>1429</ele>
        <time>2016-07-11T07:43:04.000Z</time>
      </trkpt>
      <trkpt lat="44.36431" lon="6.35054">
        <ele>1427</ele>
        <time>2016-07-11T07:43:11.000Z</time>
      </trkpt>
      <trkpt lat="44.36438" lon="6.35047">
        <ele>1426.1999511719</ele>
        <time>2016-07-11T07:43:19.000Z</time>
      </trkpt>
      <trkpt lat="44.36439" lon="6.35047">
        <ele>1426.4000244141</ele>
        <time>2016-07-11T07:43:20.000Z</time>
      </trkpt>
      <trkpt lat="44.36442" lon="6.35045">
        <ele>1426.5999755859</ele>
        <time>2016-07-11T07:43:23.000Z</time>
      </trkpt>
      <trkpt lat="44.36448" lon="6.35039">
        <ele>1426.8000488281</ele>
        <time>2016-07-11T07:43:31.000Z</time>
      </trkpt>
      <trkpt lat="44.36451" lon="6.35034">
        <ele>1425.1999511719</ele>
        <time>2016-07-11T07:43:36.000Z</time>
      </trkpt>
      <trkpt lat="44.36457" lon="6.35029">
        <ele>1423.1999511719</ele>
        <time>2016-07-11T07:43:42.000Z</time>
      </trkpt>
      <trkpt lat="44.3646" lon="6.35026">
        <ele>1421.8000488281</ele>
        <time>2016-07-11T07:43:46.000Z</time>
      </trkpt>
      <trkpt lat="44.36469" lon="6.35015">
        <ele>1418</ele>
        <time>2016-07-11T07:43:53.000Z</time>
      </trkpt>
      <trkpt lat="44.36477" lon="6.35007">
        <ele>1415.5999755859</ele>
        <time>2016-07-11T07:44:00.000Z</time>
      </trkpt>
      <trkpt lat="44.36478" lon="6.35006">
        <ele>1415.5999755859</ele>
        <time>2016-07-11T07:44:01.000Z</time>
      </trkpt>
      <trkpt lat="44.36482" lon="6.35001">
        <ele>1416.1999511719</ele>
        <time>2016-07-11T07:44:05.000Z</time>
      </trkpt>
      <trkpt lat="44.36494" lon="6.34989">
        <ele>1417.8000488281</ele>
        <time>2016-07-11T07:44:14.000Z</time>
      </trkpt>
      <trkpt lat="44.36495" lon="6.34988">
        <ele>1418</ele>
        <time>2016-07-11T07:44:15.000Z</time>
      </trkpt>
      <trkpt lat="44.365" lon="6.34978">
        <ele>1417.5999755859</ele>
        <time>2016-07-11T07:44:21.000Z</time>
      </trkpt>
      <trkpt lat="44.36505" lon="6.34967">
        <ele>1413.8000488281</ele>
        <time>2016-07-11T07:44:28.000Z</time>
      </trkpt>
      <trkpt lat="44.36509" lon="6.34958">
        <ele>1411</ele>
        <time>2016-07-11T07:44:33.000Z</time>
      </trkpt>
      <trkpt lat="44.36522" lon="6.34938">
        <ele>1411.1999511719</ele>
        <time>2016-07-11T07:44:46.000Z</time>
      </trkpt>
      <trkpt lat="44.36529" lon="6.34922">
        <ele>1410.1999511719</ele>
        <time>2016-07-11T07:44:55.000Z</time>
      </trkpt>
      <trkpt lat="44.36534" lon="6.34913">
        <ele>1408.1999511719</ele>
        <time>2016-07-11T07:45:01.000Z</time>
      </trkpt>
      <trkpt lat="44.36541" lon="6.34906">
        <ele>1405.8000488281</ele>
        <time>2016-07-11T07:45:07.000Z</time>
      </trkpt>
      <trkpt lat="44.36551" lon="6.34896">
        <ele>1406.8000488281</ele>
        <time>2016-07-11T07:45:16.000Z</time>
      </trkpt>
      <trkpt lat="44.36554" lon="6.34892">
        <ele>1406</ele>
        <time>2016-07-11T07:45:19.000Z</time>
      </trkpt>
      <trkpt lat="44.36556" lon="6.3489">
        <ele>1405.5999755859</ele>
        <time>2016-07-11T07:45:21.000Z</time>
      </trkpt>
      <trkpt lat="44.36562" lon="6.34882">
        <ele>1403.5999755859</ele>
        <time>2016-07-11T07:45:27.000Z</time>
      </trkpt>
      <trkpt lat="44.36564" lon="6.34875">
        <ele>1401.8000488281</ele>
        <time>2016-07-11T07:45:32.000Z</time>
      </trkpt>
      <trkpt lat="44.36567" lon="6.34863">
        <ele>1398.5999755859</ele>
        <time>2016-07-11T07:45:39.000Z</time>
      </trkpt>
      <trkpt lat="44.36571" lon="6.34854">
        <ele>1396.4000244141</ele>
        <time>2016-07-11T07:45:45.000Z</time>
      </trkpt>
      <trkpt lat="44.36586" lon="6.34834">
        <ele>1399.1999511719</ele>
        <time>2016-07-11T07:45:59.000Z</time>
      </trkpt>
      <trkpt lat="44.3659" lon="6.34828">
        <ele>1400.1999511719</ele>
        <time>2016-07-11T07:46:04.000Z</time>
      </trkpt>
      <trkpt lat="44.36591" lon="6.34826">
        <ele>1400.4000244141</ele>
        <time>2016-07-11T07:46:06.000Z</time>
      </trkpt>
      <trkpt lat="44.36596" lon="6.34821">
        <ele>1401.4000244141</ele>
        <time>2016-07-11T07:46:11.000Z</time>
      </trkpt>
      <trkpt lat="44.36597" lon="6.34821">
        <ele>1401.4000244141</ele>
        <time>2016-07-11T07:46:12.000Z</time>
      </trkpt>
      <trkpt lat="44.36597" lon="6.3482">
        <ele>1401.5999755859</ele>
        <time>2016-07-11T07:46:13.000Z</time>
      </trkpt>
      <trkpt lat="44.36602" lon="6.34818">
        <ele>1402.8000488281</ele>
        <time>2016-07-11T07:46:19.000Z</time>
      </trkpt>
      <trkpt lat="44.36604" lon="6.34816">
        <ele>1403.1999511719</ele>
        <time>2016-07-11T07:46:21.000Z</time>
      </trkpt>
      <trkpt lat="44.36607" lon="6.34814">
        <ele>1403.8000488281</ele>
        <time>2016-07-11T07:46:24.000Z</time>
      </trkpt>
      <trkpt lat="44.36615" lon="6.34807">
        <ele>1403.5999755859</ele>
        <time>2016-07-11T07:46:31.000Z</time>
      </trkpt>
      <trkpt lat="44.36632" lon="6.34793">
        <ele>1398.4000244141</ele>
        <time>2016-07-11T07:46:45.000Z</time>
      </trkpt>
      <trkpt lat="44.36645" lon="6.34785">
        <ele>1395.1999511719</ele>
        <time>2016-07-11T07:46:55.000Z</time>
      </trkpt>
      <trkpt lat="44.36649" lon="6.34784">
        <ele>1394.5999755859</ele>
        <time>2016-07-11T07:46:59.000Z</time>
      </trkpt>
      <trkpt lat="44.36658" lon="6.34779">
        <ele>1392.5999755859</ele>
        <time>2016-07-11T07:47:04.000Z</time>
      </trkpt>
      <trkpt lat="44.36669" lon="6.34776">
        <ele>1393.4000244141</ele>
        <time>2016-07-11T07:47:11.000Z</time>
      </trkpt>
      <trkpt lat="44.36678" lon="6.34773">
        <ele>1394.8000488281</ele>
        <time>2016-07-11T07:47:17.000Z</time>
      </trkpt>
      <trkpt lat="44.36685" lon="6.3477">
        <ele>1395.8000488281</ele>
        <time>2016-07-11T07:47:23.000Z</time>
      </trkpt>
      <trkpt lat="44.36694" lon="6.34762">
        <ele>1397</ele>
        <time>2016-07-11T07:47:31.000Z</time>
      </trkpt>
      <trkpt lat="44.36709" lon="6.34747">
        <ele>1395</ele>
        <time>2016-07-11T07:47:44.000Z</time>
      </trkpt>
      <trkpt lat="44.36716" lon="6.34737">
        <ele>1394.8000488281</ele>
        <time>2016-07-11T07:47:52.000Z</time>
      </trkpt>
      <trkpt lat="44.3672" lon="6.34733">
        <ele>1395</ele>
        <time>2016-07-11T07:47:56.000Z</time>
      </trkpt>
      <trkpt lat="44.36727" lon="6.34727">
        <ele>1393.8000488281</ele>
        <time>2016-07-11T07:48:02.000Z</time>
      </trkpt>
      <trkpt lat="44.36734" lon="6.3472">
        <ele>1391.5999755859</ele>
        <time>2016-07-11T07:48:07.000Z</time>
      </trkpt>
      <trkpt lat="44.36741" lon="6.3471">
        <ele>1388.5999755859</ele>
        <time>2016-07-11T07:48:12.000Z</time>
      </trkpt>
      <trkpt lat="44.36745" lon="6.34706">
        <ele>1387.1999511719</ele>
        <time>2016-07-11T07:48:15.000Z</time>
      </trkpt>
      <trkpt lat="44.36757" lon="6.34696">
        <ele>1386.8000488281</ele>
        <time>2016-07-11T07:48:24.000Z</time>
      </trkpt>
      <trkpt lat="44.36763" lon="6.34692">
        <ele>1387.8000488281</ele>
        <time>2016-07-11T07:48:29.000Z</time>
      </trkpt>
      <trkpt lat="44.36768" lon="6.34688">
        <ele>1388.8000488281</ele>
        <time>2016-07-11T07:48:34.000Z</time>
      </trkpt>
      <trkpt lat="44.36775" lon="6.34681">
        <ele>1389.8000488281</ele>
        <time>2016-07-11T07:48:41.000Z</time>
      </trkpt>
      <trkpt lat="44.36779" lon="6.34676">
        <ele>1390.5999755859</ele>
        <time>2016-07-11T07:48:45.000Z</time>
      </trkpt>
      <trkpt lat="44.36786" lon="6.34663">
        <ele>1389.5999755859</ele>
        <time>2016-07-11T07:48:55.000Z</time>
      </trkpt>
      <trkpt lat="44.36791" lon="6.34647">
        <ele>1389.1999511719</ele>
        <time>2016-07-11T07:49:04.000Z</time>
      </trkpt>
      <trkpt lat="44.36798" lon="6.3463">
        <ele>1386.1999511719</ele>
        <time>2016-07-11T07:49:14.000Z</time>
      </trkpt>
      <trkpt lat="44.36804" lon="6.3462">
        <ele>1384.5999755859</ele>
        <time>2016-07-11T07:49:21.000Z</time>
      </trkpt>
      <trkpt lat="44.3681" lon="6.34609">
        <ele>1382.8000488281</ele>
        <time>2016-07-11T07:49:28.000Z</time>
      </trkpt>
      <trkpt lat="44.36812" lon="6.34602">
        <ele>1381.5999755859</ele>
        <time>2016-07-11T07:49:33.000Z</time>
      </trkpt>
      <trkpt lat="44.36815" lon="6.34593">
        <ele>1381</ele>
        <time>2016-07-11T07:49:38.000Z</time>
      </trkpt>
      <trkpt lat="44.36819" lon="6.3458">
        <ele>1381.4000244141</ele>
        <time>2016-07-11T07:49:45.000Z</time>
      </trkpt>
      <trkpt lat="44.36822" lon="6.34571">
        <ele>1381.8000488281</ele>
        <time>2016-07-11T07:49:48.000Z</time>
      </trkpt>
      <trkpt lat="44.36823" lon="6.34569">
        <ele>1382</ele>
        <time>2016-07-11T07:49:49.000Z</time>
      </trkpt>
      <trkpt lat="44.36826" lon="6.34545">
        <ele>1378.8000488281</ele>
        <time>2016-07-11T07:49:56.000Z</time>
      </trkpt>
      <trkpt lat="44.36827" lon="6.34542">
        <ele>1378.4000244141</ele>
        <time>2016-07-11T07:49:58.000Z</time>
      </trkpt>
      <trkpt lat="44.36827" lon="6.34529">
        <ele>1376.1999511719</ele>
        <time>2016-07-11T07:50:04.000Z</time>
      </trkpt>
      <trkpt lat="44.36829" lon="6.3452">
        <ele>1376.1999511719</ele>
        <time>2016-07-11T07:50:09.000Z</time>
      </trkpt>
      <trkpt lat="44.36829" lon="6.34517">
        <ele>1376.4000244141</ele>
        <time>2016-07-11T07:50:11.000Z</time>
      </trkpt>
      <trkpt lat="44.36832" lon="6.34505">
        <ele>1377.8000488281</ele>
        <time>2016-07-11T07:50:18.000Z</time>
      </trkpt>
      <trkpt lat="44.36834" lon="6.34503">
        <ele>1378.1999511719</ele>
        <time>2016-07-11T07:50:19.000Z</time>
      </trkpt>
      <trkpt lat="44.36836" lon="6.345">
        <ele>1378.8000488281</ele>
        <time>2016-07-11T07:50:21.000Z</time>
      </trkpt>
      <trkpt lat="44.36839" lon="6.34494">
        <ele>1380.1999511719</ele>
        <time>2016-07-11T07:50:25.000Z</time>
      </trkpt>
      <trkpt lat="44.36841" lon="6.34485">
        <ele>1381.1999511719</ele>
        <time>2016-07-11T07:50:30.000Z</time>
      </trkpt>
      <trkpt lat="44.36845" lon="6.34477">
        <ele>1381.4000244141</ele>
        <time>2016-07-11T07:50:35.000Z</time>
      </trkpt>
      <trkpt lat="44.36845" lon="6.34475">
        <ele>1381.1999511719</ele>
        <time>2016-07-11T07:50:36.000Z</time>
      </trkpt>
      <trkpt lat="44.36852" lon="6.34454">
        <ele>1380.1999511719</ele>
        <time>2016-07-11T07:50:49.000Z</time>
      </trkpt>
      <trkpt lat="44.36854" lon="6.34449">
        <ele>1380.5999755859</ele>
        <time>2016-07-11T07:50:57.000Z</time>
      </trkpt>
      <trkpt lat="44.36855" lon="6.34447">
        <ele>1380.8000488281</ele>
        <time>2016-07-11T07:51:01.000Z</time>
      </trkpt>
      <trkpt lat="44.36859" lon="6.3444">
        <ele>1381.8000488281</ele>
        <time>2016-07-11T07:51:07.000Z</time>
      </trkpt>
      <trkpt lat="44.36861" lon="6.34435">
        <ele>1382.4000244141</ele>
        <time>2016-07-11T07:51:10.000Z</time>
      </trkpt>
      <trkpt lat="44.36866" lon="6.34428">
        <ele>1383</ele>
        <time>2016-07-11T07:51:15.000Z</time>
      </trkpt>
      <trkpt lat="44.36873" lon="6.34421">
        <ele>1381.4000244141</ele>
        <time>2016-07-11T07:51:22.000Z</time>
      </trkpt>
      <trkpt lat="44.3688" lon="6.34412">
        <ele>1380</ele>
        <time>2016-07-11T07:51:30.000Z</time>
      </trkpt>
      <trkpt lat="44.36881" lon="6.34411">
        <ele>1380</ele>
        <time>2016-07-11T07:51:38.000Z</time>
      </trkpt>
      <trkpt lat="44.36885" lon="6.34404">
        <ele>1380.1999511719</ele>
        <time>2016-07-11T07:51:43.000Z</time>
      </trkpt>
      <trkpt lat="44.36887" lon="6.34401">
        <ele>1380.4000244141</ele>
        <time>2016-07-11T07:51:48.000Z</time>
      </trkpt>
      <trkpt lat="44.36892" lon="6.34391">
        <ele>1378.5999755859</ele>
        <time>2016-07-11T07:51:55.000Z</time>
      </trkpt>
      <trkpt lat="44.369" lon="6.34381">
        <ele>1376</ele>
        <time>2016-07-11T07:52:03.000Z</time>
      </trkpt>
      <trkpt lat="44.36905" lon="6.34371">
        <ele>1373.5999755859</ele>
        <time>2016-07-11T07:52:10.000Z</time>
      </trkpt>
      <trkpt lat="44.36911" lon="6.34364">
        <ele>1371.8000488281</ele>
        <time>2016-07-11T07:52:18.000Z</time>
      </trkpt>
      <trkpt lat="44.36912" lon="6.34363">
        <ele>1371.5999755859</ele>
        <time>2016-07-11T07:52:19.000Z</time>
      </trkpt>
      <trkpt lat="44.36915" lon="6.34358">
        <ele>1371.5999755859</ele>
        <time>2016-07-11T07:52:24.000Z</time>
      </trkpt>
      <trkpt lat="44.36917" lon="6.34353">
        <ele>1371.5999755859</ele>
        <time>2016-07-11T07:52:29.000Z</time>
      </trkpt>
      <trkpt lat="44.36918" lon="6.34352">
        <ele>1371.5999755859</ele>
        <time>2016-07-11T07:52:30.000Z</time>
      </trkpt>
      <trkpt lat="44.36919" lon="6.3435">
        <ele>1371.8000488281</ele>
        <time>2016-07-11T07:52:32.000Z</time>
      </trkpt>
      <trkpt lat="44.36922" lon="6.34343">
        <ele>1372</ele>
        <time>2016-07-11T07:52:37.000Z</time>
      </trkpt>
      <trkpt lat="44.3693" lon="6.34329">
        <ele>1372.8000488281</ele>
        <time>2016-07-11T07:52:47.000Z</time>
      </trkpt>
      <trkpt lat="44.36935" lon="6.3432">
        <ele>1373</ele>
        <time>2016-07-11T07:52:52.000Z</time>
      </trkpt>
      <trkpt lat="44.3694" lon="6.3431">
        <ele>1372.5999755859</ele>
        <time>2016-07-11T07:52:58.000Z</time>
      </trkpt>
      <trkpt lat="44.36946" lon="6.34298">
        <ele>1371.5999755859</ele>
        <time>2016-07-11T07:53:05.000Z</time>
      </trkpt>
      <trkpt lat="44.3695" lon="6.34291">
        <ele>1370.4000244141</ele>
        <time>2016-07-11T07:53:10.000Z</time>
      </trkpt>
      <trkpt lat="44.36956" lon="6.34282">
        <ele>1367.5999755859</ele>
        <time>2016-07-11T07:53:16.000Z</time>
      </trkpt>
      <trkpt lat="44.36957" lon="6.3428">
        <ele>1367.1999511719</ele>
        <time>2016-07-11T07:53:17.000Z</time>
      </trkpt>
      <trkpt lat="44.36964" lon="6.34267">
        <ele>1363.4000244141</ele>
        <time>2016-07-11T07:53:25.000Z</time>
      </trkpt>
      <trkpt lat="44.3697" lon="6.34258">
        <ele>1360.5999755859</ele>
        <time>2016-07-11T07:53:32.000Z</time>
      </trkpt>
      <trkpt lat="44.36978" lon="6.3425">
        <ele>1361</ele>
        <time>2016-07-11T07:53:39.000Z</time>
      </trkpt>
      <trkpt lat="44.36984" lon="6.34235">
        <ele>1363.1999511719</ele>
        <time>2016-07-11T07:53:49.000Z</time>
      </trkpt>
      <trkpt lat="44.36988" lon="6.34223">
        <ele>1362</ele>
        <time>2016-07-11T07:53:55.000Z</time>
      </trkpt>
      <trkpt lat="44.36995" lon="6.3421">
        <ele>1359</ele>
        <time>2016-07-11T07:54:03.000Z</time>
      </trkpt>
      <trkpt lat="44.36995" lon="6.34209">
        <ele>1358.8000488281</ele>
        <time>2016-07-11T07:54:04.000Z</time>
      </trkpt>
      <trkpt lat="44.36997" lon="6.342">
        <ele>1356.1999511719</ele>
        <time>2016-07-11T07:54:10.000Z</time>
      </trkpt>
      <trkpt lat="44.37" lon="6.34193">
        <ele>1356.1999511719</ele>
        <time>2016-07-11T07:54:16.000Z</time>
      </trkpt>
      <trkpt lat="44.37002" lon="6.34192">
        <ele>1356.8000488281</ele>
        <time>2016-07-11T07:54:19.000Z</time>
      </trkpt>
      <trkpt lat="44.37007" lon="6.34188">
        <ele>1358.5999755859</ele>
        <time>2016-07-11T07:54:27.000Z</time>
      </trkpt>
      <trkpt lat="44.37015" lon="6.34185">
        <ele>1361.5999755859</ele>
        <time>2016-07-11T07:54:34.000Z</time>
      </trkpt>
      <trkpt lat="44.37019" lon="6.34183">
        <ele>1362.8000488281</ele>
        <time>2016-07-11T07:54:38.000Z</time>
      </trkpt>
      <trkpt lat="44.37023" lon="6.34179">
        <ele>1364.5999755859</ele>
        <time>2016-07-11T07:54:43.000Z</time>
      </trkpt>
      <trkpt lat="44.37029" lon="6.34176">
        <ele>1366.5999755859</ele>
        <time>2016-07-11T07:54:49.000Z</time>
      </trkpt>
      <trkpt lat="44.37036" lon="6.3417">
        <ele>1365.5999755859</ele>
        <time>2016-07-11T07:54:56.000Z</time>
      </trkpt>
      <trkpt lat="44.37042" lon="6.34161">
        <ele>1363.1999511719</ele>
        <time>2016-07-11T07:55:03.000Z</time>
      </trkpt>
      <trkpt lat="44.37043" lon="6.3416">
        <ele>1362.8000488281</ele>
        <time>2016-07-11T07:55:04.000Z</time>
      </trkpt>
      <trkpt lat="44.37049" lon="6.34152">
        <ele>1362.1999511719</ele>
        <time>2016-07-11T07:55:11.000Z</time>
      </trkpt>
      <trkpt lat="44.37053" lon="6.34148">
        <ele>1361.8000488281</ele>
        <time>2016-07-11T07:55:16.000Z</time>
      </trkpt>
      <trkpt lat="44.3706" lon="6.34142">
        <ele>1358.5999755859</ele>
        <time>2016-07-11T07:55:23.000Z</time>
      </trkpt>
      <trkpt lat="44.37067" lon="6.34137">
        <ele>1355.5999755859</ele>
        <time>2016-07-11T07:55:31.000Z</time>
      </trkpt>
      <trkpt lat="44.37068" lon="6.34137">
        <ele>1355.1999511719</ele>
        <time>2016-07-11T07:55:32.000Z</time>
      </trkpt>
      <trkpt lat="44.37071" lon="6.34131">
        <ele>1352.4000244141</ele>
        <time>2016-07-11T07:55:38.000Z</time>
      </trkpt>
      <trkpt lat="44.3709" lon="6.34113">
        <ele>1344.4000244141</ele>
        <time>2016-07-11T07:55:59.000Z</time>
      </trkpt>
      <trkpt lat="44.37095" lon="6.34112">
        <ele>1344.4000244141</ele>
        <time>2016-07-11T07:56:05.000Z</time>
      </trkpt>
      <trkpt lat="44.37097" lon="6.34105">
        <ele>1343.1999511719</ele>
        <time>2016-07-11T07:56:11.000Z</time>
      </trkpt>
      <trkpt lat="44.37097" lon="6.34104">
        <ele>1342.8000488281</ele>
        <time>2016-07-11T07:56:12.000Z</time>
      </trkpt>
      <trkpt lat="44.37098" lon="6.34103">
        <ele>1342.4000244141</ele>
        <time>2016-07-11T07:56:13.000Z</time>
      </trkpt>
      <trkpt lat="44.37102" lon="6.341">
        <ele>1342.1999511719</ele>
        <time>2016-07-11T07:56:18.000Z</time>
      </trkpt>
      <trkpt lat="44.37104" lon="6.341">
        <ele>1342.1999511719</ele>
        <time>2016-07-11T07:56:20.000Z</time>
      </trkpt>
      <trkpt lat="44.37105" lon="6.34098">
        <ele>1342</ele>
        <time>2016-07-11T07:56:31.000Z</time>
      </trkpt>
      <trkpt lat="44.37108" lon="6.341">
        <ele>1342.5999755859</ele>
        <time>2016-07-11T07:56:36.000Z</time>
      </trkpt>
      <trkpt lat="44.37116" lon="6.34098">
        <ele>1342</ele>
        <time>2016-07-11T07:56:43.000Z</time>
      </trkpt>
      <trkpt lat="44.37125" lon="6.341">
        <ele>1340</ele>
        <time>2016-07-11T07:56:52.000Z</time>
      </trkpt>
      <trkpt lat="44.37127" lon="6.34096">
        <ele>1338.4000244141</ele>
        <time>2016-07-11T07:56:58.000Z</time>
      </trkpt>
      <trkpt lat="44.3713" lon="6.34094">
        <ele>1337.1999511719</ele>
        <time>2016-07-11T07:57:04.000Z</time>
      </trkpt>
      <trkpt lat="44.37133" lon="6.34092">
        <ele>1335.8000488281</ele>
        <time>2016-07-11T07:57:10.000Z</time>
      </trkpt>
      <trkpt lat="44.37139" lon="6.34089">
        <ele>1333.5999755859</ele>
        <time>2016-07-11T07:57:17.000Z</time>
      </trkpt>
      <trkpt lat="44.37147" lon="6.34088">
        <ele>1332.4000244141</ele>
        <time>2016-07-11T07:57:24.000Z</time>
      </trkpt>
      <trkpt lat="44.37146" lon="6.34089">
        <ele>1332.4000244141</ele>
        <time>2016-07-11T07:57:31.000Z</time>
      </trkpt>
      <trkpt lat="44.37152" lon="6.34088">
        <ele>1331.4000244141</ele>
        <time>2016-07-11T07:58:12.000Z</time>
      </trkpt>
      <trkpt lat="44.37155" lon="6.34087">
        <ele>1331</ele>
        <time>2016-07-11T07:58:18.000Z</time>
      </trkpt>
      <trkpt lat="44.37153" lon="6.34088">
        <ele>1331.1999511719</ele>
        <time>2016-07-11T07:58:25.000Z</time>
      </trkpt>
      <trkpt lat="44.37158" lon="6.34086">
        <ele>1330.1999511719</ele>
        <time>2016-07-11T07:58:44.000Z</time>
      </trkpt>
      <trkpt lat="44.37164" lon="6.34083">
        <ele>1329.1999511719</ele>
        <time>2016-07-11T07:58:49.000Z</time>
      </trkpt>
      <trkpt lat="44.37171" lon="6.34078">
        <ele>1327.5999755859</ele>
        <time>2016-07-11T07:58:56.000Z</time>
      </trkpt>
      <trkpt lat="44.37175" lon="6.34076">
        <ele>1326.8000488281</ele>
        <time>2016-07-11T07:59:00.000Z</time>
      </trkpt>
      <trkpt lat="44.3718" lon="6.34072">
        <ele>1325.5999755859</ele>
        <time>2016-07-11T07:59:06.000Z</time>
      </trkpt>
      <trkpt lat="44.37186" lon="6.34071">
        <ele>1324.5999755859</ele>
        <time>2016-07-11T07:59:12.000Z</time>
      </trkpt>
      <trkpt lat="44.37187" lon="6.34071">
        <ele>1324.4000244141</ele>
        <time>2016-07-11T07:59:13.000Z</time>
      </trkpt>
      <trkpt lat="44.37189" lon="6.3407">
        <ele>1323.8000488281</ele>
        <time>2016-07-11T07:59:15.000Z</time>
      </trkpt>
      <trkpt lat="44.37194" lon="6.34066">
        <ele>1322.8000488281</ele>
        <time>2016-07-11T07:59:21.000Z</time>
      </trkpt>
      <trkpt lat="44.37201" lon="6.34064">
        <ele>1321.4000244141</ele>
        <time>2016-07-11T07:59:28.000Z</time>
      </trkpt>
      <trkpt lat="44.37204" lon="6.34064">
        <ele>1320.8000488281</ele>
        <time>2016-07-11T07:59:31.000Z</time>
      </trkpt>
      <trkpt lat="44.37209" lon="6.34057">
        <ele>1317.4000244141</ele>
        <time>2016-07-11T07:59:37.000Z</time>
      </trkpt>
      <trkpt lat="44.3722" lon="6.34046">
        <ele>1311.5999755859</ele>
        <time>2016-07-11T07:59:48.000Z</time>
      </trkpt>
      <trkpt lat="44.37222" lon="6.34046">
        <ele>1311</ele>
        <time>2016-07-11T07:59:50.000Z</time>
      </trkpt>
      <trkpt lat="44.37232" lon="6.34039">
        <ele>1307</ele>
        <time>2016-07-11T07:59:58.000Z</time>
      </trkpt>
      <trkpt lat="44.37236" lon="6.34034">
        <ele>1304.4000244141</ele>
        <time>2016-07-11T08:00:03.000Z</time>
      </trkpt>
      <trkpt lat="44.37244" lon="6.34029">
        <ele>1301.1999511719</ele>
        <time>2016-07-11T08:00:10.000Z</time>
      </trkpt>
      <trkpt lat="44.37251" lon="6.34029">
        <ele>1300.8000488281</ele>
        <time>2016-07-11T08:00:16.000Z</time>
      </trkpt>
      <trkpt lat="44.37257" lon="6.34025">
        <ele>1300</ele>
        <time>2016-07-11T08:00:21.000Z</time>
      </trkpt>
      <trkpt lat="44.37265" lon="6.34023">
        <ele>1299.5999755859</ele>
        <time>2016-07-11T08:00:28.000Z</time>
      </trkpt>
      <trkpt lat="44.37266" lon="6.34022">
        <ele>1299.4000244141</ele>
        <time>2016-07-11T08:00:30.000Z</time>
      </trkpt>
      <trkpt lat="44.37274" lon="6.34018">
        <ele>1298.5999755859</ele>
        <time>2016-07-11T08:00:37.000Z</time>
      </trkpt>
      <trkpt lat="44.37282" lon="6.34015">
        <ele>1298</ele>
        <time>2016-07-11T08:00:44.000Z</time>
      </trkpt>
      <trkpt lat="44.37284" lon="6.34015">
        <ele>1297.8000488281</ele>
        <time>2016-07-11T08:00:45.000Z</time>
      </trkpt>
      <trkpt lat="44.37287" lon="6.34015">
        <ele>1297</ele>
        <time>2016-07-11T08:00:47.000Z</time>
      </trkpt>
      <trkpt lat="44.37292" lon="6.34012">
        <ele>1295.1999511719</ele>
        <time>2016-07-11T08:00:52.000Z</time>
      </trkpt>
      <trkpt lat="44.37303" lon="6.34008">
        <ele>1292.4000244141</ele>
        <time>2016-07-11T08:01:00.000Z</time>
      </trkpt>
      <trkpt lat="44.37309" lon="6.34004">
        <ele>1291</ele>
        <time>2016-07-11T08:01:06.000Z</time>
      </trkpt>
      <trkpt lat="44.37311" lon="6.34003">
        <ele>1290.8000488281</ele>
        <time>2016-07-11T08:01:07.000Z</time>
      </trkpt>
      <trkpt lat="44.37314" lon="6.33999">
        <ele>1290.5999755859</ele>
        <time>2016-07-11T08:01:11.000Z</time>
      </trkpt>
      <trkpt lat="44.37321" lon="6.3399">
        <ele>1290.1999511719</ele>
        <time>2016-07-11T08:01:20.000Z</time>
      </trkpt>
      <trkpt lat="44.37327" lon="6.33981">
        <ele>1289.8000488281</ele>
        <time>2016-07-11T08:01:27.000Z</time>
      </trkpt>
      <trkpt lat="44.37331" lon="6.33969">
        <ele>1286.1999511719</ele>
        <time>2016-07-11T08:01:34.000Z</time>
      </trkpt>
      <trkpt lat="44.37333" lon="6.33966">
        <ele>1285.1999511719</ele>
        <time>2016-07-11T08:01:36.000Z</time>
      </trkpt>
      <trkpt lat="44.37334" lon="6.33964">
        <ele>1284.4000244141</ele>
        <time>2016-07-11T08:01:38.000Z</time>
      </trkpt>
      <trkpt lat="44.37338" lon="6.33961">
        <ele>1283.4000244141</ele>
        <time>2016-07-11T08:01:42.000Z</time>
      </trkpt>
      <trkpt lat="44.3734" lon="6.33959">
        <ele>1282.5999755859</ele>
        <time>2016-07-11T08:01:45.000Z</time>
      </trkpt>
      <trkpt lat="44.37344" lon="6.33954">
        <ele>1281.5999755859</ele>
        <time>2016-07-11T08:01:51.000Z</time>
      </trkpt>
      <trkpt lat="44.37345" lon="6.33949">
        <ele>1280.8000488281</ele>
        <time>2016-07-11T08:01:55.000Z</time>
      </trkpt>
      <trkpt lat="44.37346" lon="6.33947">
        <ele>1280.4000244141</ele>
        <time>2016-07-11T08:01:57.000Z</time>
      </trkpt>
      <trkpt lat="44.37349" lon="6.33939">
        <ele>1279.1999511719</ele>
        <time>2016-07-11T08:02:03.000Z</time>
      </trkpt>
      <trkpt lat="44.37351" lon="6.33932">
        <ele>1277.8000488281</ele>
        <time>2016-07-11T08:02:08.000Z</time>
      </trkpt>
      <trkpt lat="44.37354" lon="6.33924">
        <ele>1276.5999755859</ele>
        <time>2016-07-11T08:02:14.000Z</time>
      </trkpt>
      <trkpt lat="44.37355" lon="6.33921">
        <ele>1276</ele>
        <time>2016-07-11T08:02:16.000Z</time>
      </trkpt>
      <trkpt lat="44.37356" lon="6.33919">
        <ele>1275.5999755859</ele>
        <time>2016-07-11T08:02:18.000Z</time>
      </trkpt>
      <trkpt lat="44.37356" lon="6.33908">
        <ele>1273.4000244141</ele>
        <time>2016-07-11T08:02:26.000Z</time>
      </trkpt>
      <trkpt lat="44.37353" lon="6.33908">
        <ele>1273.4000244141</ele>
        <time>2016-07-11T08:02:29.000Z</time>
      </trkpt>
      <trkpt lat="44.37349" lon="6.33909">
        <ele>1273.1999511719</ele>
        <time>2016-07-11T08:02:33.000Z</time>
      </trkpt>
      <trkpt lat="44.37343" lon="6.33905">
        <ele>1272.1999511719</ele>
        <time>2016-07-11T08:02:44.000Z</time>
      </trkpt>
      <trkpt lat="44.37341" lon="6.33904">
        <ele>1271.8000488281</ele>
        <time>2016-07-11T08:02:47.000Z</time>
      </trkpt>
      <trkpt lat="44.37337" lon="6.339">
        <ele>1271</ele>
        <time>2016-07-11T08:02:53.000Z</time>
      </trkpt>
      <trkpt lat="44.37332" lon="6.33897">
        <ele>1270.1999511719</ele>
        <time>2016-07-11T08:03:00.000Z</time>
      </trkpt>
      <trkpt lat="44.37327" lon="6.33896">
        <ele>1269.4000244141</ele>
        <time>2016-07-11T08:03:07.000Z</time>
      </trkpt>
      <trkpt lat="44.37324" lon="6.33895">
        <ele>1268.5999755859</ele>
        <time>2016-07-11T08:03:12.000Z</time>
      </trkpt>
      <trkpt lat="44.3732" lon="6.33891">
        <ele>1267.1999511719</ele>
        <time>2016-07-11T08:03:16.000Z</time>
      </trkpt>
      <trkpt lat="44.37315" lon="6.33886">
        <ele>1265</ele>
        <time>2016-07-11T08:03:23.000Z</time>
      </trkpt>
      <trkpt lat="44.37311" lon="6.33882">
        <ele>1263.4000244141</ele>
        <time>2016-07-11T08:03:28.000Z</time>
      </trkpt>
      <trkpt lat="44.37306" lon="6.33877">
        <ele>1261.4000244141</ele>
        <time>2016-07-11T08:03:34.000Z</time>
      </trkpt>
      <trkpt lat="44.37305" lon="6.33876">
        <ele>1261</ele>
        <time>2016-07-11T08:03:35.000Z</time>
      </trkpt>
      <trkpt lat="44.373" lon="6.33872">
        <ele>1259.4000244141</ele>
        <time>2016-07-11T08:03:41.000Z</time>
      </trkpt>
      <trkpt lat="44.37292" lon="6.33869">
        <ele>1257.8000488281</ele>
        <time>2016-07-11T08:03:48.000Z</time>
      </trkpt>
      <trkpt lat="44.37292" lon="6.33867">
        <ele>1257</ele>
        <time>2016-07-11T08:03:52.000Z</time>
      </trkpt>
      <trkpt lat="44.37289" lon="6.33866">
        <ele>1256.4000244141</ele>
        <time>2016-07-11T08:03:56.000Z</time>
      </trkpt>
      <trkpt lat="44.37288" lon="6.33866">
        <ele>1256.4000244141</ele>
        <time>2016-07-11T08:04:03.000Z</time>
      </trkpt>
      <trkpt lat="44.37287" lon="6.33867">
        <ele>1256.8000488281</ele>
        <time>2016-07-11T08:04:09.000Z</time>
      </trkpt>
      <trkpt lat="44.37285" lon="6.33868">
        <ele>1257.1999511719</ele>
        <time>2016-07-11T08:04:16.000Z</time>
      </trkpt>
      <trkpt lat="44.37284" lon="6.33868">
        <ele>1257</ele>
        <time>2016-07-11T08:04:17.000Z</time>
      </trkpt>
      <trkpt lat="44.37285" lon="6.33867">
        <ele>1256.8000488281</ele>
        <time>2016-07-11T08:04:28.000Z</time>
      </trkpt>
      <trkpt lat="44.37285" lon="6.33865">
        <ele>1255.8000488281</ele>
        <time>2016-07-11T08:04:58.000Z</time>
      </trkpt>
      <trkpt lat="44.37285" lon="6.33863">
        <ele>1255.4000244141</ele>
        <time>2016-07-11T08:05:07.000Z</time>
      </trkpt>
      <trkpt lat="44.37286" lon="6.33863">
        <ele>1255.4000244141</ele>
        <time>2016-07-11T08:05:21.000Z</time>
      </trkpt>
      <trkpt lat="44.37286" lon="6.33866">
        <ele>1256.1999511719</ele>
        <time>2016-07-11T08:05:29.000Z</time>
      </trkpt>
      <trkpt lat="44.37292" lon="6.33863">
        <ele>1255.5999755859</ele>
        <time>2016-07-11T08:05:34.000Z</time>
      </trkpt>
      <trkpt lat="44.37301" lon="6.3386">
        <ele>1255.1999511719</ele>
        <time>2016-07-11T08:05:41.000Z</time>
      </trkpt>
      <trkpt lat="44.37306" lon="6.3386">
        <ele>1255.4000244141</ele>
        <time>2016-07-11T08:05:44.000Z</time>
      </trkpt>
      <trkpt lat="44.37312" lon="6.33859">
        <ele>1255.5999755859</ele>
        <time>2016-07-11T08:05:50.000Z</time>
      </trkpt>
      <trkpt lat="44.37314" lon="6.33859">
        <ele>1255.4000244141</ele>
        <time>2016-07-11T08:05:51.000Z</time>
      </trkpt>
      <trkpt lat="44.37325" lon="6.33855">
        <ele>1255</ele>
        <time>2016-07-11T08:05:59.000Z</time>
      </trkpt>
      <trkpt lat="44.37332" lon="6.33853">
        <ele>1254</ele>
        <time>2016-07-11T08:06:05.000Z</time>
      </trkpt>
      <trkpt lat="44.37343" lon="6.3385">
        <ele>1253.1999511719</ele>
        <time>2016-07-11T08:06:13.000Z</time>
      </trkpt>
      <trkpt lat="44.37352" lon="6.33848">
        <ele>1252.8000488281</ele>
        <time>2016-07-11T08:06:20.000Z</time>
      </trkpt>
      <trkpt lat="44.37357" lon="6.33848">
        <ele>1253</ele>
        <time>2016-07-11T08:06:24.000Z</time>
      </trkpt>
      <trkpt lat="44.3737" lon="6.33849">
        <ele>1252.4000244141</ele>
        <time>2016-07-11T08:06:33.000Z</time>
      </trkpt>
      <trkpt lat="44.37383" lon="6.33852">
        <ele>1251.4000244141</ele>
        <time>2016-07-11T08:06:42.000Z</time>
      </trkpt>
      <trkpt lat="44.37395" lon="6.33859">
        <ele>1251.5999755859</ele>
        <time>2016-07-11T08:06:51.000Z</time>
      </trkpt>
      <trkpt lat="44.37399" lon="6.33863">
        <ele>1252.5999755859</ele>
        <time>2016-07-11T08:06:55.000Z</time>
      </trkpt>
      <trkpt lat="44.37403" lon="6.33866">
        <ele>1253.1999511719</ele>
        <time>2016-07-11T08:07:01.000Z</time>
      </trkpt>
      <trkpt lat="44.3741" lon="6.33876">
        <ele>1255.5999755859</ele>
        <time>2016-07-11T08:07:08.000Z</time>
      </trkpt>
      <trkpt lat="44.37416" lon="6.33888">
        <ele>1259</ele>
        <time>2016-07-11T08:07:15.000Z</time>
      </trkpt>
      <trkpt lat="44.37421" lon="6.33899">
        <ele>1262</ele>
        <time>2016-07-11T08:07:22.000Z</time>
      </trkpt>
      <trkpt lat="44.37426" lon="6.3391">
        <ele>1261.8000488281</ele>
        <time>2016-07-11T08:07:29.000Z</time>
      </trkpt>
      <trkpt lat="44.3743" lon="6.33917">
        <ele>1261.8000488281</ele>
        <time>2016-07-11T08:07:33.000Z</time>
      </trkpt>
      <trkpt lat="44.37437" lon="6.33932">
        <ele>1261.4000244141</ele>
        <time>2016-07-11T08:07:42.000Z</time>
      </trkpt>
      <trkpt lat="44.37441" lon="6.33947">
        <ele>1261.8000488281</ele>
        <time>2016-07-11T08:07:50.000Z</time>
      </trkpt>
      <trkpt lat="44.37443" lon="6.33961">
        <ele>1262.4000244141</ele>
        <time>2016-07-11T08:07:57.000Z</time>
      </trkpt>
      <trkpt lat="44.37443" lon="6.33978">
        <ele>1263.8000488281</ele>
        <time>2016-07-11T08:08:06.000Z</time>
      </trkpt>
      <trkpt lat="44.37443" lon="6.3399">
        <ele>1264.5999755859</ele>
        <time>2016-07-11T08:08:13.000Z</time>
      </trkpt>
      <trkpt lat="44.37441" lon="6.34001">
        <ele>1265.1999511719</ele>
        <time>2016-07-11T08:08:20.000Z</time>
      </trkpt>
      <trkpt lat="44.37438" lon="6.34015">
        <ele>1266</ele>
        <time>2016-07-11T08:08:28.000Z</time>
      </trkpt>
      <trkpt lat="44.37434" lon="6.34026">
        <ele>1267.1999511719</ele>
        <time>2016-07-11T08:08:35.000Z</time>
      </trkpt>
      <trkpt lat="44.37429" lon="6.34038">
        <ele>1268.8000488281</ele>
        <time>2016-07-11T08:08:42.000Z</time>
      </trkpt>
      <trkpt lat="44.37423" lon="6.3405">
        <ele>1270.5999755859</ele>
        <time>2016-07-11T08:08:50.000Z</time>
      </trkpt>
      <trkpt lat="44.37421" lon="6.34062">
        <ele>1271.4000244141</ele>
        <time>2016-07-11T08:08:58.000Z</time>
      </trkpt>
      <trkpt lat="44.37419" lon="6.34069">
        <ele>1271.8000488281</ele>
        <time>2016-07-11T08:09:03.000Z</time>
      </trkpt>
      <trkpt lat="44.37414" lon="6.34082">
        <ele>1272.4000244141</ele>
        <time>2016-07-11T08:09:11.000Z</time>
      </trkpt>
      <trkpt lat="44.37412" lon="6.34087">
        <ele>1272.8000488281</ele>
        <time>2016-07-11T08:09:15.000Z</time>
      </trkpt>
      <trkpt lat="44.37406" lon="6.34102">
        <ele>1273.8000488281</ele>
        <time>2016-07-11T08:09:24.000Z</time>
      </trkpt>
      <trkpt lat="44.37402" lon="6.34113">
        <ele>1274.5999755859</ele>
        <time>2016-07-11T08:09:31.000Z</time>
      </trkpt>
      <trkpt lat="44.37395" lon="6.34125">
        <ele>1275.8000488281</ele>
        <time>2016-07-11T08:09:39.000Z</time>
      </trkpt>
      <trkpt lat="44.37393" lon="6.34134">
        <ele>1276</ele>
        <time>2016-07-11T08:09:44.000Z</time>
      </trkpt>
      <trkpt lat="44.37391" lon="6.34143">
        <ele>1276</ele>
        <time>2016-07-11T08:09:49.000Z</time>
      </trkpt>
      <trkpt lat="44.37389" lon="6.3415">
        <ele>1276.4000244141</ele>
        <time>2016-07-11T08:09:53.000Z</time>
      </trkpt>
      <trkpt lat="44.37388" lon="6.34153">
        <ele>1276.5999755859</ele>
        <time>2016-07-11T08:09:55.000Z</time>
      </trkpt>
      <trkpt lat="44.37382" lon="6.34162">
        <ele>1278.1999511719</ele>
        <time>2016-07-11T08:10:01.000Z</time>
      </trkpt>
      <trkpt lat="44.37377" lon="6.34171">
        <ele>1279</ele>
        <time>2016-07-11T08:10:07.000Z</time>
      </trkpt>
      <trkpt lat="44.3737" lon="6.34183">
        <ele>1280</ele>
        <time>2016-07-11T08:10:15.000Z</time>
      </trkpt>
      <trkpt lat="44.37364" lon="6.34191">
        <ele>1281.1999511719</ele>
        <time>2016-07-11T08:10:21.000Z</time>
      </trkpt>
      <trkpt lat="44.37356" lon="6.34203">
        <ele>1282.4000244141</ele>
        <time>2016-07-11T08:10:29.000Z</time>
      </trkpt>
      <trkpt lat="44.37353" lon="6.34213">
        <ele>1282.8000488281</ele>
        <time>2016-07-11T08:10:35.000Z</time>
      </trkpt>
      <trkpt lat="44.37352" lon="6.34216">
        <ele>1282.8000488281</ele>
        <time>2016-07-11T08:10:37.000Z</time>
      </trkpt>
      <trkpt lat="44.37348" lon="6.34224">
        <ele>1283.4000244141</ele>
        <time>2016-07-11T08:10:42.000Z</time>
      </trkpt>
      <trkpt lat="44.37347" lon="6.34228">
        <ele>1283.5999755859</ele>
        <time>2016-07-11T08:10:45.000Z</time>
      </trkpt>
      <trkpt lat="44.37341" lon="6.3424">
        <ele>1284.4000244141</ele>
        <time>2016-07-11T08:10:53.000Z</time>
      </trkpt>
      <trkpt lat="44.37336" lon="6.34252">
        <ele>1285</ele>
        <time>2016-07-11T08:11:01.000Z</time>
      </trkpt>
      <trkpt lat="44.37328" lon="6.34268">
        <ele>1286.1999511719</ele>
        <time>2016-07-11T08:11:11.000Z</time>
      </trkpt>
      <trkpt lat="44.37322" lon="6.3428">
        <ele>1287.4000244141</ele>
        <time>2016-07-11T08:11:19.000Z</time>
      </trkpt>
      <trkpt lat="44.37319" lon="6.34285">
        <ele>1288</ele>
        <time>2016-07-11T08:11:23.000Z</time>
      </trkpt>
      <trkpt lat="44.37316" lon="6.34292">
        <ele>1288.5999755859</ele>
        <time>2016-07-11T08:11:28.000Z</time>
      </trkpt>
      <trkpt lat="44.37312" lon="6.34296">
        <ele>1289.5999755859</ele>
        <time>2016-07-11T08:11:32.000Z</time>
      </trkpt>
      <trkpt lat="44.37305" lon="6.34311">
        <ele>1290.8000488281</ele>
        <time>2016-07-11T08:11:43.000Z</time>
      </trkpt>
      <trkpt lat="44.37303" lon="6.34319">
        <ele>1291</ele>
        <time>2016-07-11T08:11:51.000Z</time>
      </trkpt>
      <trkpt lat="44.37296" lon="6.34329">
        <ele>1292.4000244141</ele>
        <time>2016-07-11T08:11:58.000Z</time>
      </trkpt>
      <trkpt lat="44.37288" lon="6.34342">
        <ele>1294.1999511719</ele>
        <time>2016-07-11T08:12:07.000Z</time>
      </trkpt>
      <trkpt lat="44.37284" lon="6.34352">
        <ele>1295</ele>
        <time>2016-07-11T08:12:14.000Z</time>
      </trkpt>
      <trkpt lat="44.37279" lon="6.34361">
        <ele>1295.8000488281</ele>
        <time>2016-07-11T08:12:21.000Z</time>
      </trkpt>
      <trkpt lat="44.37274" lon="6.34376">
        <ele>1296.4000244141</ele>
        <time>2016-07-11T08:12:30.000Z</time>
      </trkpt>
      <trkpt lat="44.37272" lon="6.34383">
        <ele>1296.4000244141</ele>
        <time>2016-07-11T08:12:34.000Z</time>
      </trkpt>
      <trkpt lat="44.37269" lon="6.34386">
        <ele>1297.1999511719</ele>
        <time>2016-07-11T08:12:38.000Z</time>
      </trkpt>
      <trkpt lat="44.37265" lon="6.34386">
        <ele>1298.5999755859</ele>
        <time>2016-07-11T08:12:42.000Z</time>
      </trkpt>
      <trkpt lat="44.37263" lon="6.3438">
        <ele>1299.1999511719</ele>
        <time>2016-07-11T08:12:46.000Z</time>
      </trkpt>
      <trkpt lat="44.37263" lon="6.3437">
        <ele>1299.8000488281</ele>
        <time>2016-07-11T08:12:52.000Z</time>
      </trkpt>
      <trkpt lat="44.37263" lon="6.34358">
        <ele>1300.8000488281</ele>
        <time>2016-07-11T08:13:00.000Z</time>
      </trkpt>
      <trkpt lat="44.37262" lon="6.34349">
        <ele>1301.5999755859</ele>
        <time>2016-07-11T08:13:05.000Z</time>
      </trkpt>
      <trkpt lat="44.37262" lon="6.34343">
        <ele>1301.8000488281</ele>
        <time>2016-07-11T08:13:09.000Z</time>
      </trkpt>
      <trkpt lat="44.37263" lon="6.34333">
        <ele>1302</ele>
        <time>2016-07-11T08:13:15.000Z</time>
      </trkpt>
      <trkpt lat="44.37263" lon="6.34329">
        <ele>1302.4000244141</ele>
        <time>2016-07-11T08:13:17.000Z</time>
      </trkpt>
      <trkpt lat="44.37262" lon="6.34319">
        <ele>1303.1999511719</ele>
        <time>2016-07-11T08:13:23.000Z</time>
      </trkpt>
      <trkpt lat="44.37261" lon="6.34313">
        <ele>1304</ele>
        <time>2016-07-11T08:13:26.000Z</time>
      </trkpt>
      <trkpt lat="44.37259" lon="6.34307">
        <ele>1304.8000488281</ele>
        <time>2016-07-11T08:13:29.000Z</time>
      </trkpt>
      <trkpt lat="44.3726" lon="6.34301">
        <ele>1305</ele>
        <time>2016-07-11T08:13:33.000Z</time>
      </trkpt>
      <trkpt lat="44.37259" lon="6.34292">
        <ele>1306</ele>
        <time>2016-07-11T08:13:39.000Z</time>
      </trkpt>
      <trkpt lat="44.37259" lon="6.34289">
        <ele>1306</ele>
        <time>2016-07-11T08:13:40.000Z</time>
      </trkpt>
      <trkpt lat="44.37261" lon="6.34278">
        <ele>1306.4000244141</ele>
        <time>2016-07-11T08:13:46.000Z</time>
      </trkpt>
      <trkpt lat="44.37261" lon="6.34274">
        <ele>1306.4000244141</ele>
        <time>2016-07-11T08:13:48.000Z</time>
      </trkpt>
      <trkpt lat="44.37262" lon="6.34264">
        <ele>1306.5999755859</ele>
        <time>2016-07-11T08:13:54.000Z</time>
      </trkpt>
      <trkpt lat="44.37263" lon="6.34255">
        <ele>1307.1999511719</ele>
        <time>2016-07-11T08:13:59.000Z</time>
      </trkpt>
      <trkpt lat="44.37263" lon="6.34252">
        <ele>1307.1999511719</ele>
        <time>2016-07-11T08:14:01.000Z</time>
      </trkpt>
      <trkpt lat="44.37264" lon="6.34246">
        <ele>1307.1999511719</ele>
        <time>2016-07-11T08:14:04.000Z</time>
      </trkpt>
      <trkpt lat="44.37264" lon="6.34236">
        <ele>1308</ele>
        <time>2016-07-11T08:14:09.000Z</time>
      </trkpt>
      <trkpt lat="44.37265" lon="6.34227">
        <ele>1307.8000488281</ele>
        <time>2016-07-11T08:14:15.000Z</time>
      </trkpt>
      <trkpt lat="44.37265" lon="6.34225">
        <ele>1307.8000488281</ele>
        <time>2016-07-11T08:14:24.000Z</time>
      </trkpt>
      <trkpt lat="44.37267" lon="6.34218">
        <ele>1307.8000488281</ele>
        <time>2016-07-11T08:14:38.000Z</time>
      </trkpt>
      <trkpt lat="44.37267" lon="6.34216">
        <ele>1307.5999755859</ele>
        <time>2016-07-11T08:14:40.000Z</time>
      </trkpt>
      <trkpt lat="44.37268" lon="6.34208">
        <ele>1307.8000488281</ele>
        <time>2016-07-11T08:14:45.000Z</time>
      </trkpt>
      <trkpt lat="44.37267" lon="6.34194">
        <ele>1309</ele>
        <time>2016-07-11T08:14:52.000Z</time>
      </trkpt>
      <trkpt lat="44.37268" lon="6.3418">
        <ele>1309.4000244141</ele>
        <time>2016-07-11T08:14:59.000Z</time>
      </trkpt>
      <trkpt lat="44.37268" lon="6.34179">
        <ele>1309.5999755859</ele>
        <time>2016-07-11T08:15:00.000Z</time>
      </trkpt>
      <trkpt lat="44.37262" lon="6.34179">
        <ele>1311.1999511719</ele>
        <time>2016-07-11T08:15:07.000Z</time>
      </trkpt>
      <trkpt lat="44.3726" lon="6.34185">
        <ele>1311.1999511719</ele>
        <time>2016-07-11T08:15:11.000Z</time>
      </trkpt>
      <trkpt lat="44.37258" lon="6.34195">
        <ele>1311.1999511719</ele>
        <time>2016-07-11T08:15:18.000Z</time>
      </trkpt>
      <trkpt lat="44.37256" lon="6.34201">
        <ele>1311.4000244141</ele>
        <time>2016-07-11T08:15:23.000Z</time>
      </trkpt>
      <trkpt lat="44.37252" lon="6.34209">
        <ele>1312.1999511719</ele>
        <time>2016-07-11T08:15:28.000Z</time>
      </trkpt>
      <trkpt lat="44.37252" lon="6.3421">
        <ele>1312.4000244141</ele>
        <time>2016-07-11T08:15:29.000Z</time>
      </trkpt>
      <trkpt lat="44.37248" lon="6.34217">
        <ele>1313.4000244141</ele>
        <time>2016-07-11T08:15:36.000Z</time>
      </trkpt>
      <trkpt lat="44.37242" lon="6.34225">
        <ele>1314.8000488281</ele>
        <time>2016-07-11T08:15:43.000Z</time>
      </trkpt>
      <trkpt lat="44.3724" lon="6.34232">
        <ele>1315.4000244141</ele>
        <time>2016-07-11T08:15:47.000Z</time>
      </trkpt>
      <trkpt lat="44.37235" lon="6.34241">
        <ele>1316.4000244141</ele>
        <time>2016-07-11T08:15:54.000Z</time>
      </trkpt>
      <trkpt lat="44.3723" lon="6.34252">
        <ele>1317.1999511719</ele>
        <time>2016-07-11T08:16:01.000Z</time>
      </trkpt>
      <trkpt lat="44.37225" lon="6.34261">
        <ele>1318.1999511719</ele>
        <time>2016-07-11T08:16:08.000Z</time>
      </trkpt>
      <trkpt lat="44.37219" lon="6.34268">
        <ele>1319.1999511719</ele>
        <time>2016-07-11T08:16:14.000Z</time>
      </trkpt>
      <trkpt lat="44.37218" lon="6.3427">
        <ele>1319.4000244141</ele>
        <time>2016-07-11T08:16:15.000Z</time>
      </trkpt>
      <trkpt lat="44.37211" lon="6.34283">
        <ele>1320.4000244141</ele>
        <time>2016-07-11T08:16:23.000Z</time>
      </trkpt>
      <trkpt lat="44.37205" lon="6.34291">
        <ele>1321.5999755859</ele>
        <time>2016-07-11T08:16:29.000Z</time>
      </trkpt>
      <trkpt lat="44.37199" lon="6.34297">
        <ele>1322.8000488281</ele>
        <time>2016-07-11T08:16:35.000Z</time>
      </trkpt>
      <trkpt lat="44.37196" lon="6.343">
        <ele>1323.5999755859</ele>
        <time>2016-07-11T08:16:39.000Z</time>
      </trkpt>
      <trkpt lat="44.37192" lon="6.34304">
        <ele>1324.1999511719</ele>
        <time>2016-07-11T08:16:43.000Z</time>
      </trkpt>
      <trkpt lat="44.37186" lon="6.34316">
        <ele>1325</ele>
        <time>2016-07-11T08:16:50.000Z</time>
      </trkpt>
      <trkpt lat="44.37184" lon="6.34323">
        <ele>1325.4000244141</ele>
        <time>2016-07-11T08:16:55.000Z</time>
      </trkpt>
      <trkpt lat="44.37183" lon="6.34326">
        <ele>1325.5999755859</ele>
        <time>2016-07-11T08:16:57.000Z</time>
      </trkpt>
      <trkpt lat="44.37182" lon="6.34329">
        <ele>1325.5999755859</ele>
        <time>2016-07-11T08:16:58.000Z</time>
      </trkpt>
      <trkpt lat="44.37181" lon="6.34342">
        <ele>1325.5999755859</ele>
        <time>2016-07-11T08:17:05.000Z</time>
      </trkpt>
      <trkpt lat="44.3718" lon="6.34344">
        <ele>1325.5999755859</ele>
        <time>2016-07-11T08:17:06.000Z</time>
      </trkpt>
      <trkpt lat="44.37176" lon="6.34357">
        <ele>1326.4000244141</ele>
        <time>2016-07-11T08:17:14.000Z</time>
      </trkpt>
      <trkpt lat="44.37172" lon="6.34366">
        <ele>1326.8000488281</ele>
        <time>2016-07-11T08:17:19.000Z</time>
      </trkpt>
      <trkpt lat="44.37168" lon="6.34378">
        <ele>1327.5999755859</ele>
        <time>2016-07-11T08:17:27.000Z</time>
      </trkpt>
      <trkpt lat="44.37165" lon="6.34389">
        <ele>1328</ele>
        <time>2016-07-11T08:17:34.000Z</time>
      </trkpt>
      <trkpt lat="44.37163" lon="6.34402">
        <ele>1328.1999511719</ele>
        <time>2016-07-11T08:17:41.000Z</time>
      </trkpt>
      <trkpt lat="44.37163" lon="6.34418">
        <ele>1327.8000488281</ele>
        <time>2016-07-11T08:17:50.000Z</time>
      </trkpt>
      <trkpt lat="44.37163" lon="6.34434">
        <ele>1327.4000244141</ele>
        <time>2016-07-11T08:17:58.000Z</time>
      </trkpt>
      <trkpt lat="44.37161" lon="6.3445">
        <ele>1327.5999755859</ele>
        <time>2016-07-11T08:18:06.000Z</time>
      </trkpt>
      <trkpt lat="44.3716" lon="6.34466">
        <ele>1328.4000244141</ele>
        <time>2016-07-11T08:18:14.000Z</time>
      </trkpt>
      <trkpt lat="44.37156" lon="6.34479">
        <ele>1329.5999755859</ele>
        <time>2016-07-11T08:18:21.000Z</time>
      </trkpt>
      <trkpt lat="44.37154" lon="6.34486">
        <ele>1330.1999511719</ele>
        <time>2016-07-11T08:18:25.000Z</time>
      </trkpt>
      <trkpt lat="44.37149" lon="6.34496">
        <ele>1331.8000488281</ele>
        <time>2016-07-11T08:18:31.000Z</time>
      </trkpt>
      <trkpt lat="44.3714" lon="6.34509">
        <ele>1334.5999755859</ele>
        <time>2016-07-11T08:18:41.000Z</time>
      </trkpt>
      <trkpt lat="44.37135" lon="6.34517">
        <ele>1335.5999755859</ele>
        <time>2016-07-11T08:18:47.000Z</time>
      </trkpt>
      <trkpt lat="44.37129" lon="6.34526">
        <ele>1336.5999755859</ele>
        <time>2016-07-11T08:18:53.000Z</time>
      </trkpt>
      <trkpt lat="44.37125" lon="6.34532">
        <ele>1337.4000244141</ele>
        <time>2016-07-11T08:18:59.000Z</time>
      </trkpt>
      <trkpt lat="44.37118" lon="6.34544">
        <ele>1338.8000488281</ele>
        <time>2016-07-11T08:19:07.000Z</time>
      </trkpt>
      <trkpt lat="44.37116" lon="6.34553">
        <ele>1339</ele>
        <time>2016-07-11T08:19:13.000Z</time>
      </trkpt>
      <trkpt lat="44.37113" lon="6.34564">
        <ele>1339.4000244141</ele>
        <time>2016-07-11T08:19:19.000Z</time>
      </trkpt>
      <trkpt lat="44.37106" lon="6.34577">
        <ele>1340.8000488281</ele>
        <time>2016-07-11T08:19:28.000Z</time>
      </trkpt>
      <trkpt lat="44.37105" lon="6.34579">
        <ele>1340.8000488281</ele>
        <time>2016-07-11T08:19:29.000Z</time>
      </trkpt>
      <trkpt lat="44.37101" lon="6.34587">
        <ele>1341.5999755859</ele>
        <time>2016-07-11T08:19:35.000Z</time>
      </trkpt>
      <trkpt lat="44.37097" lon="6.34599">
        <ele>1342.1999511719</ele>
        <time>2016-07-11T08:19:42.000Z</time>
      </trkpt>
      <trkpt lat="44.37091" lon="6.34609">
        <ele>1343.1999511719</ele>
        <time>2016-07-11T08:19:48.000Z</time>
      </trkpt>
      <trkpt lat="44.37088" lon="6.34614">
        <ele>1343.8000488281</ele>
        <time>2016-07-11T08:19:51.000Z</time>
      </trkpt>
      <trkpt lat="44.37082" lon="6.3463">
        <ele>1344</ele>
        <time>2016-07-11T08:19:59.000Z</time>
      </trkpt>
      <trkpt lat="44.37081" lon="6.34632">
        <ele>1343.8000488281</ele>
        <time>2016-07-11T08:20:01.000Z</time>
      </trkpt>
      <trkpt lat="44.3708" lon="6.34636">
        <ele>1343.8000488281</ele>
        <time>2016-07-11T08:20:03.000Z</time>
      </trkpt>
      <trkpt lat="44.37076" lon="6.34639">
        <ele>1344.4000244141</ele>
        <time>2016-07-11T08:20:06.000Z</time>
      </trkpt>
      <trkpt lat="44.37072" lon="6.34647">
        <ele>1344.1999511719</ele>
        <time>2016-07-11T08:20:12.000Z</time>
      </trkpt>
      <trkpt lat="44.37072" lon="6.34649">
        <ele>1344.1999511719</ele>
        <time>2016-07-11T08:20:13.000Z</time>
      </trkpt>
      <trkpt lat="44.3707" lon="6.34659">
        <ele>1344.1999511719</ele>
        <time>2016-07-11T08:20:19.000Z</time>
      </trkpt>
      <trkpt lat="44.37067" lon="6.34669">
        <ele>1344.5999755859</ele>
        <time>2016-07-11T08:20:24.000Z</time>
      </trkpt>
      <trkpt lat="44.37065" lon="6.34679">
        <ele>1344.8000488281</ele>
        <time>2016-07-11T08:20:29.000Z</time>
      </trkpt>
      <trkpt lat="44.37065" lon="6.3468">
        <ele>1344.8000488281</ele>
        <time>2016-07-11T08:20:30.000Z</time>
      </trkpt>
      <trkpt lat="44.37062" lon="6.3469">
        <ele>1344.4000244141</ele>
        <time>2016-07-11T08:20:35.000Z</time>
      </trkpt>
      <trkpt lat="44.37057" lon="6.34706">
        <ele>1343.8000488281</ele>
        <time>2016-07-11T08:20:44.000Z</time>
      </trkpt>
      <trkpt lat="44.37052" lon="6.34717">
        <ele>1343.4000244141</ele>
        <time>2016-07-11T08:20:51.000Z</time>
      </trkpt>
      <trkpt lat="44.37046" lon="6.34724">
        <ele>1343.5999755859</ele>
        <time>2016-07-11T08:20:56.000Z</time>
      </trkpt>
      <trkpt lat="44.3704" lon="6.34734">
        <ele>1343.5999755859</ele>
        <time>2016-07-11T08:21:03.000Z</time>
      </trkpt>
      <trkpt lat="44.37033" lon="6.34751">
        <ele>1343.4000244141</ele>
        <time>2016-07-11T08:21:13.000Z</time>
      </trkpt>
      <trkpt lat="44.37031" lon="6.34759">
        <ele>1343.4000244141</ele>
        <time>2016-07-11T08:21:17.000Z</time>
      </trkpt>
      <trkpt lat="44.37025" lon="6.34771">
        <ele>1344.4000244141</ele>
        <time>2016-07-11T08:21:24.000Z</time>
      </trkpt>
      <trkpt lat="44.37021" lon="6.34779">
        <ele>1344.8000488281</ele>
        <time>2016-07-11T08:21:29.000Z</time>
      </trkpt>
      <trkpt lat="44.37015" lon="6.34793">
        <ele>1345.4000244141</ele>
        <time>2016-07-11T08:21:37.000Z</time>
      </trkpt>
      <trkpt lat="44.3701" lon="6.34803">
        <ele>1346</ele>
        <time>2016-07-11T08:21:43.000Z</time>
      </trkpt>
      <trkpt lat="44.37006" lon="6.34814">
        <ele>1346.4000244141</ele>
        <time>2016-07-11T08:21:50.000Z</time>
      </trkpt>
      <trkpt lat="44.37006" lon="6.34818">
        <ele>1346.1999511719</ele>
        <time>2016-07-11T08:21:59.000Z</time>
      </trkpt>
      <trkpt lat="44.37003" lon="6.34825">
        <ele>1346.5999755859</ele>
        <time>2016-07-11T08:22:07.000Z</time>
      </trkpt>
      <trkpt lat="44.36998" lon="6.34832">
        <ele>1347.4000244141</ele>
        <time>2016-07-11T08:22:12.000Z</time>
      </trkpt>
      <trkpt lat="44.36989" lon="6.34839">
        <ele>1349.4000244141</ele>
        <time>2016-07-11T08:22:18.000Z</time>
      </trkpt>
      <trkpt lat="44.36981" lon="6.34846">
        <ele>1351</ele>
        <time>2016-07-11T08:22:24.000Z</time>
      </trkpt>
      <trkpt lat="44.36975" lon="6.34853">
        <ele>1351.5999755859</ele>
        <time>2016-07-11T08:22:30.000Z</time>
      </trkpt>
      <trkpt lat="44.36969" lon="6.34859">
        <ele>1352</ele>
        <time>2016-07-11T08:22:36.000Z</time>
      </trkpt>
      <trkpt lat="44.36964" lon="6.34869">
        <ele>1352</ele>
        <time>2016-07-11T08:22:42.000Z</time>
      </trkpt>
      <trkpt lat="44.36959" lon="6.34876">
        <ele>1352.1999511719</ele>
        <time>2016-07-11T08:22:47.000Z</time>
      </trkpt>
      <trkpt lat="44.36952" lon="6.34888">
        <ele>1352.1999511719</ele>
        <time>2016-07-11T08:22:54.000Z</time>
      </trkpt>
      <trkpt lat="44.36945" lon="6.34897">
        <ele>1352.5999755859</ele>
        <time>2016-07-11T08:23:01.000Z</time>
      </trkpt>
      <trkpt lat="44.36941" lon="6.34903">
        <ele>1352.4000244141</ele>
        <time>2016-07-11T08:23:04.000Z</time>
      </trkpt>
      <trkpt lat="44.36941" lon="6.34904">
        <ele>1352.4000244141</ele>
        <time>2016-07-11T08:23:05.000Z</time>
      </trkpt>
      <trkpt lat="44.36938" lon="6.34907">
        <ele>1352.4000244141</ele>
        <time>2016-07-11T08:23:07.000Z</time>
      </trkpt>
      <trkpt lat="44.36932" lon="6.34918">
        <ele>1352.1999511719</ele>
        <time>2016-07-11T08:23:14.000Z</time>
      </trkpt>
      <trkpt lat="44.36927" lon="6.3493">
        <ele>1351.5999755859</ele>
        <time>2016-07-11T08:23:21.000Z</time>
      </trkpt>
      <trkpt lat="44.36922" lon="6.3494">
        <ele>1351</ele>
        <time>2016-07-11T08:23:28.000Z</time>
      </trkpt>
      <trkpt lat="44.36917" lon="6.34947">
        <ele>1350.8000488281</ele>
        <time>2016-07-11T08:23:33.000Z</time>
      </trkpt>
      <trkpt lat="44.36913" lon="6.34955">
        <ele>1350.5999755859</ele>
        <time>2016-07-11T08:23:38.000Z</time>
      </trkpt>
      <trkpt lat="44.36912" lon="6.34957">
        <ele>1350.5999755859</ele>
        <time>2016-07-11T08:23:39.000Z</time>
      </trkpt>
      <trkpt lat="44.36905" lon="6.34966">
        <ele>1350.5999755859</ele>
        <time>2016-07-11T08:23:45.000Z</time>
      </trkpt>
      <trkpt lat="44.36897" lon="6.34974">
        <ele>1351.1999511719</ele>
        <time>2016-07-11T08:23:52.000Z</time>
      </trkpt>
      <trkpt lat="44.36888" lon="6.34985">
        <ele>1351.4000244141</ele>
        <time>2016-07-11T08:24:00.000Z</time>
      </trkpt>
      <trkpt lat="44.36882" lon="6.34996">
        <ele>1350.8000488281</ele>
        <time>2016-07-11T08:24:08.000Z</time>
      </trkpt>
      <trkpt lat="44.36876" lon="6.35004">
        <ele>1350.8000488281</ele>
        <time>2016-07-11T08:24:14.000Z</time>
      </trkpt>
      <trkpt lat="44.36869" lon="6.35012">
        <ele>1351</ele>
        <time>2016-07-11T08:24:21.000Z</time>
      </trkpt>
      <trkpt lat="44.3686" lon="6.35025">
        <ele>1351</ele>
        <time>2016-07-11T08:24:29.000Z</time>
      </trkpt>
      <trkpt lat="44.36858" lon="6.35029">
        <ele>1351</ele>
        <time>2016-07-11T08:24:31.000Z</time>
      </trkpt>
      <trkpt lat="44.36829" lon="6.35053">
        <ele>1353.5999755859</ele>
        <time>2016-07-11T08:24:55.000Z</time>
      </trkpt>
      <trkpt lat="44.36823" lon="6.35061">
        <ele>1354</ele>
        <time>2016-07-11T08:25:01.000Z</time>
      </trkpt>
      <trkpt lat="44.3682" lon="6.35064">
        <ele>1354</ele>
        <time>2016-07-11T08:25:03.000Z</time>
      </trkpt>
      <trkpt lat="44.36816" lon="6.35075">
        <ele>1353.8000488281</ele>
        <time>2016-07-11T08:25:10.000Z</time>
      </trkpt>
      <trkpt lat="44.36808" lon="6.35085">
        <ele>1354.4000244141</ele>
        <time>2016-07-11T08:25:17.000Z</time>
      </trkpt>
      <trkpt lat="44.36805" lon="6.35088">
        <ele>1354.4000244141</ele>
        <time>2016-07-11T08:25:19.000Z</time>
      </trkpt>
      <trkpt lat="44.36798" lon="6.35094">
        <ele>1355.4000244141</ele>
        <time>2016-07-11T08:25:24.000Z</time>
      </trkpt>
      <trkpt lat="44.36787" lon="6.35107">
        <ele>1356.1999511719</ele>
        <time>2016-07-11T08:25:33.000Z</time>
      </trkpt>
      <trkpt lat="44.36786" lon="6.35108">
        <ele>1356.1999511719</ele>
        <time>2016-07-11T08:25:34.000Z</time>
      </trkpt>
      <trkpt lat="44.36784" lon="6.35113">
        <ele>1356.1999511719</ele>
        <time>2016-07-11T08:25:37.000Z</time>
      </trkpt>
      <trkpt lat="44.36782" lon="6.35116">
        <ele>1356.1999511719</ele>
        <time>2016-07-11T08:25:39.000Z</time>
      </trkpt>
      <trkpt lat="44.36774" lon="6.35124">
        <ele>1356.1999511719</ele>
        <time>2016-07-11T08:26:33.000Z</time>
      </trkpt>
      <trkpt lat="44.36771" lon="6.35136">
        <ele>1355.1999511719</ele>
        <time>2016-07-11T08:26:41.000Z</time>
      </trkpt>
      <trkpt lat="44.3676" lon="6.35155">
        <ele>1354.1999511719</ele>
        <time>2016-07-11T08:26:54.000Z</time>
      </trkpt>
      <trkpt lat="44.36753" lon="6.35167">
        <ele>1354</ele>
        <time>2016-07-11T08:27:01.000Z</time>
      </trkpt>
      <trkpt lat="44.36753" lon="6.35169">
        <ele>1354</ele>
        <time>2016-07-11T08:27:02.000Z</time>
      </trkpt>
      <trkpt lat="44.36747" lon="6.3518">
        <ele>1354</ele>
        <time>2016-07-11T08:27:09.000Z</time>
      </trkpt>
      <trkpt lat="44.36742" lon="6.35189">
        <ele>1353.8000488281</ele>
        <time>2016-07-11T08:27:15.000Z</time>
      </trkpt>
      <trkpt lat="44.36736" lon="6.35201">
        <ele>1353</ele>
        <time>2016-07-11T08:27:23.000Z</time>
      </trkpt>
      <trkpt lat="44.3673" lon="6.35209">
        <ele>1352.4000244141</ele>
        <time>2016-07-11T08:27:28.000Z</time>
      </trkpt>
      <trkpt lat="44.36727" lon="6.35212">
        <ele>1352</ele>
        <time>2016-07-11T08:27:31.000Z</time>
      </trkpt>
      <trkpt lat="44.36723" lon="6.35217">
        <ele>1351.5999755859</ele>
        <time>2016-07-11T08:27:35.000Z</time>
      </trkpt>
      <trkpt lat="44.36716" lon="6.35234">
        <ele>1350.4000244141</ele>
        <time>2016-07-11T08:27:44.000Z</time>
      </trkpt>
      <trkpt lat="44.36714" lon="6.35239">
        <ele>1350.1999511719</ele>
        <time>2016-07-11T08:27:47.000Z</time>
      </trkpt>
      <trkpt lat="44.36711" lon="6.35247">
        <ele>1349.8000488281</ele>
        <time>2016-07-11T08:27:51.000Z</time>
      </trkpt>
      <trkpt lat="44.36708" lon="6.35252">
        <ele>1349.4000244141</ele>
        <time>2016-07-11T08:27:55.000Z</time>
      </trkpt>
      <trkpt lat="44.36705" lon="6.35259">
        <ele>1348.8000488281</ele>
        <time>2016-07-11T08:27:59.000Z</time>
      </trkpt>
      <trkpt lat="44.36703" lon="6.3527">
        <ele>1347.8000488281</ele>
        <time>2016-07-11T08:28:06.000Z</time>
      </trkpt>
      <trkpt lat="44.367" lon="6.35283">
        <ele>1346.5999755859</ele>
        <time>2016-07-11T08:28:13.000Z</time>
      </trkpt>
      <trkpt lat="44.36696" lon="6.35299">
        <ele>1345.5999755859</ele>
        <time>2016-07-11T08:28:20.000Z</time>
      </trkpt>
      <trkpt lat="44.3669" lon="6.35314">
        <ele>1345</ele>
        <time>2016-07-11T08:28:27.000Z</time>
      </trkpt>
      <trkpt lat="44.36684" lon="6.35325">
        <ele>1345</ele>
        <time>2016-07-11T08:28:33.000Z</time>
      </trkpt>
      <trkpt lat="44.36678" lon="6.3534">
        <ele>1344.5999755859</ele>
        <time>2016-07-11T08:28:41.000Z</time>
      </trkpt>
      <trkpt lat="44.36671" lon="6.35353">
        <ele>1344.1999511719</ele>
        <time>2016-07-11T08:28:49.000Z</time>
      </trkpt>
      <trkpt lat="44.36662" lon="6.3537">
        <ele>1343.8000488281</ele>
        <time>2016-07-11T08:28:59.000Z</time>
      </trkpt>
      <trkpt lat="44.36657" lon="6.35387">
        <ele>1342.1999511719</ele>
        <time>2016-07-11T08:29:08.000Z</time>
      </trkpt>
      <trkpt lat="44.36652" lon="6.35403">
        <ele>1340.5999755859</ele>
        <time>2016-07-11T08:29:16.000Z</time>
      </trkpt>
      <trkpt lat="44.36648" lon="6.35412">
        <ele>1339.8000488281</ele>
        <time>2016-07-11T08:29:21.000Z</time>
      </trkpt>
      <trkpt lat="44.36646" lon="6.35421">
        <ele>1338.5999755859</ele>
        <time>2016-07-11T08:29:26.000Z</time>
      </trkpt>
      <trkpt lat="44.36646" lon="6.35423">
        <ele>1338.4000244141</ele>
        <time>2016-07-11T08:29:27.000Z</time>
      </trkpt>
      <trkpt lat="44.36643" lon="6.35437">
        <ele>1337</ele>
        <time>2016-07-11T08:29:34.000Z</time>
      </trkpt>
      <trkpt lat="44.3664" lon="6.35446">
        <ele>1336.4000244141</ele>
        <time>2016-07-11T08:29:39.000Z</time>
      </trkpt>
      <trkpt lat="44.36638" lon="6.35456">
        <ele>1335.5999755859</ele>
        <time>2016-07-11T08:29:44.000Z</time>
      </trkpt>
      <trkpt lat="44.36635" lon="6.35468">
        <ele>1334.8000488281</ele>
        <time>2016-07-11T08:29:50.000Z</time>
      </trkpt>
      <trkpt lat="44.3663" lon="6.35482">
        <ele>1333.8000488281</ele>
        <time>2016-07-11T08:29:58.000Z</time>
      </trkpt>
      <trkpt lat="44.36629" lon="6.35484">
        <ele>1333.8000488281</ele>
        <time>2016-07-11T08:29:59.000Z</time>
      </trkpt>
      <trkpt lat="44.36628" lon="6.35492">
        <ele>1333.4000244141</ele>
        <time>2016-07-11T08:30:03.000Z</time>
      </trkpt>
      <trkpt lat="44.36624" lon="6.35499">
        <ele>1333.5999755859</ele>
        <time>2016-07-11T08:30:07.000Z</time>
      </trkpt>
      <trkpt lat="44.36623" lon="6.355">
        <ele>1333.5999755859</ele>
        <time>2016-07-11T08:30:08.000Z</time>
      </trkpt>
      <trkpt lat="44.36617" lon="6.35508">
        <ele>1334.4000244141</ele>
        <time>2016-07-11T08:30:14.000Z</time>
      </trkpt>
      <trkpt lat="44.36614" lon="6.35511">
        <ele>1334.5999755859</ele>
        <time>2016-07-11T08:30:17.000Z</time>
      </trkpt>
      <trkpt lat="44.3661" lon="6.35523">
        <ele>1334.8000488281</ele>
        <time>2016-07-11T08:30:24.000Z</time>
      </trkpt>
      <trkpt lat="44.36607" lon="6.35531">
        <ele>1335</ele>
        <time>2016-07-11T08:30:29.000Z</time>
      </trkpt>
      <trkpt lat="44.36607" lon="6.35545">
        <ele>1334.4000244141</ele>
        <time>2016-07-11T08:30:36.000Z</time>
      </trkpt>
      <trkpt lat="44.36606" lon="6.35548">
        <ele>1334.4000244141</ele>
        <time>2016-07-11T08:30:38.000Z</time>
      </trkpt>
      <trkpt lat="44.366" lon="6.35563">
        <ele>1334.4000244141</ele>
        <time>2016-07-11T08:30:46.000Z</time>
      </trkpt>
      <trkpt lat="44.36596" lon="6.35576">
        <ele>1333.5999755859</ele>
        <time>2016-07-11T08:30:52.000Z</time>
      </trkpt>
      <trkpt lat="44.36594" lon="6.35585">
        <ele>1333</ele>
        <time>2016-07-11T08:30:58.000Z</time>
      </trkpt>
      <trkpt lat="44.36592" lon="6.35592">
        <ele>1332.4000244141</ele>
        <time>2016-07-11T08:31:06.000Z</time>
      </trkpt>
      <trkpt lat="44.36585" lon="6.35603">
        <ele>1332.1999511719</ele>
        <time>2016-07-11T08:31:13.000Z</time>
      </trkpt>
      <trkpt lat="44.36579" lon="6.35617">
        <ele>1331.1999511719</ele>
        <time>2016-07-11T08:31:21.000Z</time>
      </trkpt>
      <trkpt lat="44.36571" lon="6.35632">
        <ele>1328.4000244141</ele>
        <time>2016-07-11T08:31:31.000Z</time>
      </trkpt>
      <trkpt lat="44.36565" lon="6.35641">
        <ele>1327</ele>
        <time>2016-07-11T08:31:38.000Z</time>
      </trkpt>
      <trkpt lat="44.36554" lon="6.35655">
        <ele>1325.4000244141</ele>
        <time>2016-07-11T08:31:47.000Z</time>
      </trkpt>
      <trkpt lat="44.36548" lon="6.35665">
        <ele>1324.4000244141</ele>
        <time>2016-07-11T08:31:54.000Z</time>
      </trkpt>
      <trkpt lat="44.36541" lon="6.35677">
        <ele>1323</ele>
        <time>2016-07-11T08:32:02.000Z</time>
      </trkpt>
      <trkpt lat="44.36534" lon="6.35693">
        <ele>1320.8000488281</ele>
        <time>2016-07-11T08:32:11.000Z</time>
      </trkpt>
      <trkpt lat="44.36529" lon="6.35704">
        <ele>1319.4000244141</ele>
        <time>2016-07-11T08:32:18.000Z</time>
      </trkpt>
      <trkpt lat="44.36521" lon="6.35718">
        <ele>1318</ele>
        <time>2016-07-11T08:32:27.000Z</time>
      </trkpt>
      <trkpt lat="44.36514" lon="6.35727">
        <ele>1318</ele>
        <time>2016-07-11T08:32:33.000Z</time>
      </trkpt>
      <trkpt lat="44.36508" lon="6.35734">
        <ele>1318.1999511719</ele>
        <time>2016-07-11T08:32:38.000Z</time>
      </trkpt>
      <trkpt lat="44.36498" lon="6.35745">
        <ele>1318.4000244141</ele>
        <time>2016-07-11T08:32:46.000Z</time>
      </trkpt>
      <trkpt lat="44.36487" lon="6.35759">
        <ele>1318.4000244141</ele>
        <time>2016-07-11T08:32:55.000Z</time>
      </trkpt>
      <trkpt lat="44.36481" lon="6.3577">
        <ele>1318</ele>
        <time>2016-07-11T08:33:02.000Z</time>
      </trkpt>
      <trkpt lat="44.36474" lon="6.35782">
        <ele>1316.5999755859</ele>
        <time>2016-07-11T08:33:10.000Z</time>
      </trkpt>
      <trkpt lat="44.36468" lon="6.35794">
        <ele>1315.1999511719</ele>
        <time>2016-07-11T08:33:17.000Z</time>
      </trkpt>
      <trkpt lat="44.36461" lon="6.35808">
        <ele>1313.5999755859</ele>
        <time>2016-07-11T08:33:25.000Z</time>
      </trkpt>
      <trkpt lat="44.36454" lon="6.35819">
        <ele>1312.8000488281</ele>
        <time>2016-07-11T08:33:32.000Z</time>
      </trkpt>
      <trkpt lat="44.3645" lon="6.35826">
        <ele>1312.4000244141</ele>
        <time>2016-07-11T08:33:38.000Z</time>
      </trkpt>
      <trkpt lat="44.36446" lon="6.35832">
        <ele>1312.1999511719</ele>
        <time>2016-07-11T08:33:50.000Z</time>
      </trkpt>
      <trkpt lat="44.36444" lon="6.35833">
        <ele>1312.4000244141</ele>
        <time>2016-07-11T08:33:51.000Z</time>
      </trkpt>
      <trkpt lat="44.36436" lon="6.35843">
        <ele>1312.4000244141</ele>
        <time>2016-07-11T08:33:59.000Z</time>
      </trkpt>
      <trkpt lat="44.36435" lon="6.35844">
        <ele>1312.4000244141</ele>
        <time>2016-07-11T08:34:01.000Z</time>
      </trkpt>
      <trkpt lat="44.36427" lon="6.35858">
        <ele>1312</ele>
        <time>2016-07-11T08:34:08.000Z</time>
      </trkpt>
      <trkpt lat="44.36425" lon="6.35877">
        <ele>1309.8000488281</ele>
        <time>2016-07-11T08:34:16.000Z</time>
      </trkpt>
      <trkpt lat="44.36422" lon="6.35892">
        <ele>1307</ele>
        <time>2016-07-11T08:34:23.000Z</time>
      </trkpt>
      <trkpt lat="44.36415" lon="6.35901">
        <ele>1306</ele>
        <time>2016-07-11T08:34:30.000Z</time>
      </trkpt>
      <trkpt lat="44.36404" lon="6.35908">
        <ele>1305.8000488281</ele>
        <time>2016-07-11T08:34:38.000Z</time>
      </trkpt>
      <trkpt lat="44.3638" lon="6.35925">
        <ele>1305</ele>
        <time>2016-07-11T08:34:55.000Z</time>
      </trkpt>
      <trkpt lat="44.36375" lon="6.35929">
        <ele>1304.5999755859</ele>
        <time>2016-07-11T08:34:59.000Z</time>
      </trkpt>
      <trkpt lat="44.3637" lon="6.35932">
        <ele>1304.4000244141</ele>
        <time>2016-07-11T08:35:03.000Z</time>
      </trkpt>
      <trkpt lat="44.36357" lon="6.3594">
        <ele>1304.5999755859</ele>
        <time>2016-07-11T08:35:12.000Z</time>
      </trkpt>
      <trkpt lat="44.36345" lon="6.3595">
        <ele>1305.4000244141</ele>
        <time>2016-07-11T08:35:22.000Z</time>
      </trkpt>
      <trkpt lat="44.36335" lon="6.35958">
        <ele>1305.5999755859</ele>
        <time>2016-07-11T08:35:30.000Z</time>
      </trkpt>
      <trkpt lat="44.36323" lon="6.35968">
        <ele>1305.5999755859</ele>
        <time>2016-07-11T08:35:41.000Z</time>
      </trkpt>
      <trkpt lat="44.36305" lon="6.35986">
        <ele>1305.4000244141</ele>
        <time>2016-07-11T08:35:55.000Z</time>
      </trkpt>
      <trkpt lat="44.36292" lon="6.36002">
        <ele>1306</ele>
        <time>2016-07-11T08:36:07.000Z</time>
      </trkpt>
      <trkpt lat="44.36282" lon="6.36012">
        <ele>1306</ele>
        <time>2016-07-11T08:36:16.000Z</time>
      </trkpt>
      <trkpt lat="44.36273" lon="6.36021">
        <ele>1306.8000488281</ele>
        <time>2016-07-11T08:36:26.000Z</time>
      </trkpt>
      <trkpt lat="44.36269" lon="6.36028">
        <ele>1307.1999511719</ele>
        <time>2016-07-11T08:36:33.000Z</time>
      </trkpt>
      <trkpt lat="44.3627" lon="6.36032">
        <ele>1306.5999755859</ele>
        <time>2016-07-11T08:37:18.000Z</time>
      </trkpt>
      <trkpt lat="44.3627" lon="6.3603">
        <ele>1306.5999755859</ele>
        <time>2016-07-11T08:37:23.000Z</time>
      </trkpt>
      <trkpt lat="44.36267" lon="6.3603">
        <ele>1307.4000244141</ele>
        <time>2016-07-11T08:37:28.000Z</time>
      </trkpt>
      <trkpt lat="44.36268" lon="6.36029">
        <ele>1307.1999511719</ele>
        <time>2016-07-11T08:41:46.000Z</time>
      </trkpt>
      <trkpt lat="44.36269" lon="6.36029">
        <ele>1306.8000488281</ele>
        <time>2016-07-11T08:41:52.000Z</time>
      </trkpt>
      <trkpt lat="44.36268" lon="6.3603">
        <ele>1307.1999511719</ele>
        <time>2016-07-11T08:41:58.000Z</time>
      </trkpt>
      <trkpt lat="44.36267" lon="6.36031">
        <ele>1307.4000244141</ele>
        <time>2016-07-11T08:41:59.000Z</time>
      </trkpt>
      <trkpt lat="44.36268" lon="6.36037">
        <ele>1306.4000244141</ele>
        <time>2016-07-11T08:42:05.000Z</time>
      </trkpt>
      <trkpt lat="44.36269" lon="6.36037">
        <ele>1306.1999511719</ele>
        <time>2016-07-11T08:42:06.000Z</time>
      </trkpt>
      <trkpt lat="44.36277" lon="6.36038">
        <ele>1304.5999755859</ele>
        <time>2016-07-11T08:42:13.000Z</time>
      </trkpt>
      <trkpt lat="44.36287" lon="6.36036">
        <ele>1303.1999511719</ele>
        <time>2016-07-11T08:42:22.000Z</time>
      </trkpt>
      <trkpt lat="44.36298" lon="6.36036">
        <ele>1302.1999511719</ele>
        <time>2016-07-11T08:42:30.000Z</time>
      </trkpt>
      <trkpt lat="44.36309" lon="6.36036">
        <ele>1301.4000244141</ele>
        <time>2016-07-11T08:42:37.000Z</time>
      </trkpt>
      <trkpt lat="44.36337" lon="6.36037">
        <ele>1298.8000488281</ele>
        <time>2016-07-11T08:42:58.000Z</time>
      </trkpt>
      <trkpt lat="44.36355" lon="6.36037">
        <ele>1296.4000244141</ele>
        <time>2016-07-11T08:43:10.000Z</time>
      </trkpt>
      <trkpt lat="44.36365" lon="6.36037">
        <ele>1295</ele>
        <time>2016-07-11T08:43:17.000Z</time>
      </trkpt>
      <trkpt lat="44.36374" lon="6.36037">
        <ele>1294.1999511719</ele>
        <time>2016-07-11T08:43:23.000Z</time>
      </trkpt>
      <trkpt lat="44.3639" lon="6.36037">
        <ele>1293.1999511719</ele>
        <time>2016-07-11T08:43:34.000Z</time>
      </trkpt>
      <trkpt lat="44.36398" lon="6.36037">
        <ele>1292.5999755859</ele>
        <time>2016-07-11T08:43:40.000Z</time>
      </trkpt>
      <trkpt lat="44.36404" lon="6.36038">
        <ele>1292.1999511719</ele>
        <time>2016-07-11T08:43:44.000Z</time>
      </trkpt>
      <trkpt lat="44.36418" lon="6.36038">
        <ele>1291</ele>
        <time>2016-07-11T08:43:54.000Z</time>
      </trkpt>
      <trkpt lat="44.36431" lon="6.36039">
        <ele>1290.4000244141</ele>
        <time>2016-07-11T08:44:03.000Z</time>
      </trkpt>
      <trkpt lat="44.36441" lon="6.3604">
        <ele>1289.8000488281</ele>
        <time>2016-07-11T08:44:10.000Z</time>
      </trkpt>
      <trkpt lat="44.36454" lon="6.3604">
        <ele>1289.1999511719</ele>
        <time>2016-07-11T08:44:19.000Z</time>
      </trkpt>
      <trkpt lat="44.3647" lon="6.36041">
        <ele>1288.5999755859</ele>
        <time>2016-07-11T08:44:30.000Z</time>
      </trkpt>
      <trkpt lat="44.36484" lon="6.36042">
        <ele>1288</ele>
        <time>2016-07-11T08:44:40.000Z</time>
      </trkpt>
      <trkpt lat="44.36496" lon="6.36043">
        <ele>1287.5999755859</ele>
        <time>2016-07-11T08:44:48.000Z</time>
      </trkpt>
      <trkpt lat="44.36515" lon="6.36045">
        <ele>1286.8000488281</ele>
        <time>2016-07-11T08:45:01.000Z</time>
      </trkpt>
      <trkpt lat="44.36531" lon="6.36046">
        <ele>1286.5999755859</ele>
        <time>2016-07-11T08:45:12.000Z</time>
      </trkpt>
      <trkpt lat="44.36546" lon="6.36048">
        <ele>1286.1999511719</ele>
        <time>2016-07-11T08:45:22.000Z</time>
      </trkpt>
      <trkpt lat="44.36562" lon="6.36049">
        <ele>1286</ele>
        <time>2016-07-11T08:45:33.000Z</time>
      </trkpt>
      <trkpt lat="44.36578" lon="6.3605">
        <ele>1285.5999755859</ele>
        <time>2016-07-11T08:45:44.000Z</time>
      </trkpt>
      <trkpt lat="44.36593" lon="6.36048">
        <ele>1285.5999755859</ele>
        <time>2016-07-11T08:45:54.000Z</time>
      </trkpt>
      <trkpt lat="44.3661" lon="6.36044">
        <ele>1285.1999511719</ele>
        <time>2016-07-11T08:46:06.000Z</time>
      </trkpt>
      <trkpt lat="44.36622" lon="6.36039">
        <ele>1285</ele>
        <time>2016-07-11T08:46:16.000Z</time>
      </trkpt>
      <trkpt lat="44.36637" lon="6.36035">
        <ele>1284.5999755859</ele>
        <time>2016-07-11T08:46:25.000Z</time>
      </trkpt>
      <trkpt lat="44.36653" lon="6.3603">
        <ele>1284.1999511719</ele>
        <time>2016-07-11T08:46:37.000Z</time>
      </trkpt>
      <trkpt lat="44.36671" lon="6.36025">
        <ele>1284</ele>
        <time>2016-07-11T08:46:49.000Z</time>
      </trkpt>
      <trkpt lat="44.36688" lon="6.36021">
        <ele>1283.8000488281</ele>
        <time>2016-07-11T08:47:01.000Z</time>
      </trkpt>
      <trkpt lat="44.36698" lon="6.36018">
        <ele>1283.8000488281</ele>
        <time>2016-07-11T08:47:08.000Z</time>
      </trkpt>
      <trkpt lat="44.36703" lon="6.36017">
        <ele>1283.8000488281</ele>
        <time>2016-07-11T08:47:11.000Z</time>
      </trkpt>
      <trkpt lat="44.36704" lon="6.36017">
        <ele>1283.8000488281</ele>
        <time>2016-07-11T08:47:14.000Z</time>
      </trkpt>
      <trkpt lat="44.36701" lon="6.36017">
        <ele>1283.8000488281</ele>
        <time>2016-07-11T08:47:19.000Z</time>
      </trkpt>
      <trkpt lat="44.36701" lon="6.36021">
        <ele>1283.5999755859</ele>
        <time>2016-07-11T08:47:30.000Z</time>
      </trkpt>
      <trkpt lat="44.36702" lon="6.36022">
        <ele>1283.5999755859</ele>
        <time>2016-07-11T08:47:31.000Z</time>
      </trkpt>
      <trkpt lat="44.36708" lon="6.36024">
        <ele>1283.5999755859</ele>
        <time>2016-07-11T08:47:35.000Z</time>
      </trkpt>
      <trkpt lat="44.36722" lon="6.36021">
        <ele>1283.8000488281</ele>
        <time>2016-07-11T08:47:44.000Z</time>
      </trkpt>
      <trkpt lat="44.36736" lon="6.36017">
        <ele>1284.1999511719</ele>
        <time>2016-07-11T08:47:54.000Z</time>
      </trkpt>
      <trkpt lat="44.3675" lon="6.36013">
        <ele>1283.8000488281</ele>
        <time>2016-07-11T08:48:03.000Z</time>
      </trkpt>
      <trkpt lat="44.36764" lon="6.36009">
        <ele>1283.1999511719</ele>
        <time>2016-07-11T08:48:12.000Z</time>
      </trkpt>
      <trkpt lat="44.36779" lon="6.36005">
        <ele>1282.8000488281</ele>
        <time>2016-07-11T08:48:22.000Z</time>
      </trkpt>
      <trkpt lat="44.36793" lon="6.36002">
        <ele>1283.8000488281</ele>
        <time>2016-07-11T08:48:31.000Z</time>
      </trkpt>
      <trkpt lat="44.36805" lon="6.36003">
        <ele>1284.5999755859</ele>
        <time>2016-07-11T08:48:39.000Z</time>
      </trkpt>
      <trkpt lat="44.3682" lon="6.35999">
        <ele>1284.8000488281</ele>
        <time>2016-07-11T08:48:49.000Z</time>
      </trkpt>
      <trkpt lat="44.36832" lon="6.35999">
        <ele>1285</ele>
        <time>2016-07-11T08:48:58.000Z</time>
      </trkpt>
      <trkpt lat="44.36845" lon="6.35998">
        <ele>1285.4000244141</ele>
        <time>2016-07-11T08:49:07.000Z</time>
      </trkpt>
      <trkpt lat="44.36856" lon="6.35997">
        <ele>1285.5999755859</ele>
        <time>2016-07-11T08:49:13.000Z</time>
      </trkpt>
      <trkpt lat="44.36869" lon="6.35997">
        <ele>1286</ele>
        <time>2016-07-11T08:49:21.000Z</time>
      </trkpt>
      <trkpt lat="44.36886" lon="6.35997">
        <ele>1287</ele>
        <time>2016-07-11T08:49:32.000Z</time>
      </trkpt>
      <trkpt lat="44.36897" lon="6.36005">
        <ele>1287.8000488281</ele>
        <time>2016-07-11T08:49:41.000Z</time>
      </trkpt>
      <trkpt lat="44.36899" lon="6.36008">
        <ele>1288.1999511719</ele>
        <time>2016-07-11T08:49:44.000Z</time>
      </trkpt>
      <trkpt lat="44.36901" lon="6.36009">
        <ele>1288.4000244141</ele>
        <time>2016-07-11T08:49:52.000Z</time>
      </trkpt>
      <trkpt lat="44.36906" lon="6.36021">
        <ele>1289.4000244141</ele>
        <time>2016-07-11T08:51:23.000Z</time>
      </trkpt>
      <trkpt lat="44.36911" lon="6.36033">
        <ele>1290.1999511719</ele>
        <time>2016-07-11T08:51:31.000Z</time>
      </trkpt>
      <trkpt lat="44.36915" lon="6.36045">
        <ele>1291</ele>
        <time>2016-07-11T08:51:37.000Z</time>
      </trkpt>
      <trkpt lat="44.36919" lon="6.36062">
        <ele>1292.1999511719</ele>
        <time>2016-07-11T08:51:48.000Z</time>
      </trkpt>
      <trkpt lat="44.36922" lon="6.36078">
        <ele>1293.5999755859</ele>
        <time>2016-07-11T08:51:56.000Z</time>
      </trkpt>
      <trkpt lat="44.3693" lon="6.36094">
        <ele>1295.4000244141</ele>
        <time>2016-07-11T08:52:07.000Z</time>
      </trkpt>
      <trkpt lat="44.3693" lon="6.36095">
        <ele>1295.5999755859</ele>
        <time>2016-07-11T08:52:08.000Z</time>
      </trkpt>
      <trkpt lat="44.36941" lon="6.3611">
        <ele>1297.4000244141</ele>
        <time>2016-07-11T08:52:19.000Z</time>
      </trkpt>
      <trkpt lat="44.3695" lon="6.36124">
        <ele>1299</ele>
        <time>2016-07-11T08:52:30.000Z</time>
      </trkpt>
      <trkpt lat="44.36951" lon="6.36129">
        <ele>1299.5999755859</ele>
        <time>2016-07-11T08:52:35.000Z</time>
      </trkpt>
      <trkpt lat="44.36954" lon="6.36133">
        <ele>1300</ele>
        <time>2016-07-11T08:52:37.000Z</time>
      </trkpt>
      <trkpt lat="44.36961" lon="6.36148">
        <ele>1301.5999755859</ele>
        <time>2016-07-11T08:52:48.000Z</time>
      </trkpt>
      <trkpt lat="44.36969" lon="6.36166">
        <ele>1303.4000244141</ele>
        <time>2016-07-11T08:52:58.000Z</time>
      </trkpt>
      <trkpt lat="44.36974" lon="6.3618">
        <ele>1304.8000488281</ele>
        <time>2016-07-11T08:53:07.000Z</time>
      </trkpt>
      <trkpt lat="44.3698" lon="6.36192">
        <ele>1305.8000488281</ele>
        <time>2016-07-11T08:53:17.000Z</time>
      </trkpt>
      <trkpt lat="44.36986" lon="6.36206">
        <ele>1307</ele>
        <time>2016-07-11T08:53:26.000Z</time>
      </trkpt>
      <trkpt lat="44.36991" lon="6.36212">
        <ele>1307.5999755859</ele>
        <time>2016-07-11T08:53:32.000Z</time>
      </trkpt>
      <trkpt lat="44.37009" lon="6.3624">
        <ele>1311.1999511719</ele>
        <time>2016-07-11T08:53:53.000Z</time>
      </trkpt>
      <trkpt lat="44.37015" lon="6.36248">
        <ele>1312.5999755859</ele>
        <time>2016-07-11T08:54:01.000Z</time>
      </trkpt>
      <trkpt lat="44.37022" lon="6.36258">
        <ele>1314.1999511719</ele>
        <time>2016-07-11T08:54:10.000Z</time>
      </trkpt>
      <trkpt lat="44.37029" lon="6.36268">
        <ele>1315.8000488281</ele>
        <time>2016-07-11T08:54:17.000Z</time>
      </trkpt>
      <trkpt lat="44.37036" lon="6.36278">
        <ele>1317.1999511719</ele>
        <time>2016-07-11T08:54:25.000Z</time>
      </trkpt>
      <trkpt lat="44.37041" lon="6.36286">
        <ele>1318</ele>
        <time>2016-07-11T08:54:32.000Z</time>
      </trkpt>
      <trkpt lat="44.37048" lon="6.36295">
        <ele>1319</ele>
        <time>2016-07-11T08:54:40.000Z</time>
      </trkpt>
      <trkpt lat="44.37058" lon="6.36303">
        <ele>1320</ele>
        <time>2016-07-11T08:54:48.000Z</time>
      </trkpt>
      <trkpt lat="44.37069" lon="6.36308">
        <ele>1320.8000488281</ele>
        <time>2016-07-11T08:54:57.000Z</time>
      </trkpt>
      <trkpt lat="44.37081" lon="6.36317">
        <ele>1321.8000488281</ele>
        <time>2016-07-11T08:55:07.000Z</time>
      </trkpt>
      <trkpt lat="44.37082" lon="6.36318">
        <ele>1321.8000488281</ele>
        <time>2016-07-11T08:55:08.000Z</time>
      </trkpt>
      <trkpt lat="44.37088" lon="6.36312">
        <ele>1321.4000244141</ele>
        <time>2016-07-11T08:55:13.000Z</time>
      </trkpt>
      <trkpt lat="44.37096" lon="6.363">
        <ele>1320.1999511719</ele>
        <time>2016-07-11T08:55:21.000Z</time>
      </trkpt>
      <trkpt lat="44.37103" lon="6.36283">
        <ele>1319.4000244141</ele>
        <time>2016-07-11T08:55:31.000Z</time>
      </trkpt>
      <trkpt lat="44.3711" lon="6.36269">
        <ele>1319</ele>
        <time>2016-07-11T08:55:40.000Z</time>
      </trkpt>
      <trkpt lat="44.37119" lon="6.36254">
        <ele>1318.8000488281</ele>
        <time>2016-07-11T08:55:49.000Z</time>
      </trkpt>
      <trkpt lat="44.37127" lon="6.36242">
        <ele>1319</ele>
        <time>2016-07-11T08:55:59.000Z</time>
      </trkpt>
      <trkpt lat="44.37135" lon="6.36232">
        <ele>1320.1999511719</ele>
        <time>2016-07-11T08:56:07.000Z</time>
      </trkpt>
      <trkpt lat="44.37137" lon="6.3623">
        <ele>1320.4000244141</ele>
        <time>2016-07-11T08:56:08.000Z</time>
      </trkpt>
      <trkpt lat="44.37144" lon="6.36223">
        <ele>1321.4000244141</ele>
        <time>2016-07-11T08:56:16.000Z</time>
      </trkpt>
      <trkpt lat="44.37154" lon="6.36225">
        <ele>1322.8000488281</ele>
        <time>2016-07-11T08:56:23.000Z</time>
      </trkpt>
      <trkpt lat="44.37161" lon="6.36232">
        <ele>1324.1999511719</ele>
        <time>2016-07-11T08:56:30.000Z</time>
      </trkpt>
      <trkpt lat="44.37171" lon="6.3624">
        <ele>1325.8000488281</ele>
        <time>2016-07-11T08:56:38.000Z</time>
      </trkpt>
      <trkpt lat="44.37186" lon="6.36245">
        <ele>1328</ele>
        <time>2016-07-11T08:56:50.000Z</time>
      </trkpt>
      <trkpt lat="44.372" lon="6.36237">
        <ele>1330.4000244141</ele>
        <time>2016-07-11T08:57:01.000Z</time>
      </trkpt>
      <trkpt lat="44.3721" lon="6.36229">
        <ele>1332</ele>
        <time>2016-07-11T08:57:09.000Z</time>
      </trkpt>
      <trkpt lat="44.3722" lon="6.36226">
        <ele>1333.4000244141</ele>
        <time>2016-07-11T08:57:17.000Z</time>
      </trkpt>
      <trkpt lat="44.37232" lon="6.36226">
        <ele>1335.4000244141</ele>
        <time>2016-07-11T08:57:26.000Z</time>
      </trkpt>
      <trkpt lat="44.37234" lon="6.36227">
        <ele>1335.8000488281</ele>
        <time>2016-07-11T08:57:28.000Z</time>
      </trkpt>
      <trkpt lat="44.37234" lon="6.36233">
        <ele>1336</ele>
        <time>2016-07-11T08:57:32.000Z</time>
      </trkpt>
      <trkpt lat="44.37232" lon="6.36233">
        <ele>1335.8000488281</ele>
        <time>2016-07-11T08:57:45.000Z</time>
      </trkpt>
      <trkpt lat="44.3723" lon="6.36234">
        <ele>1335.5999755859</ele>
        <time>2016-07-11T09:00:57.000Z</time>
      </trkpt>
      <trkpt lat="44.37232" lon="6.36235">
        <ele>1335.8000488281</ele>
        <time>2016-07-11T09:02:31.000Z</time>
      </trkpt>
      <trkpt lat="44.37233" lon="6.36234">
        <ele>1336</ele>
        <time>2016-07-11T09:02:38.000Z</time>
      </trkpt>
      <trkpt lat="44.37233" lon="6.36235">
        <ele>1336</ele>
        <time>2016-07-11T09:02:44.000Z</time>
      </trkpt>
      <trkpt lat="44.37233" lon="6.36233">
        <ele>1336</ele>
        <time>2016-07-11T09:03:29.000Z</time>
      </trkpt>
      <trkpt lat="44.37233" lon="6.36234">
        <ele>1336</ele>
        <time>2016-07-11T09:04:06.000Z</time>
      </trkpt>
      <trkpt lat="44.37232" lon="6.36234">
        <ele>1336</ele>
        <time>2016-07-11T09:04:23.000Z</time>
      </trkpt>
      <trkpt lat="44.37235" lon="6.36232">
        <ele>1336.1999511719</ele>
        <time>2016-07-11T09:04:27.000Z</time>
      </trkpt>
      <trkpt lat="44.37232" lon="6.36227">
        <ele>1335.4000244141</ele>
        <time>2016-07-11T09:04:31.000Z</time>
      </trkpt>
      <trkpt lat="44.37218" lon="6.36228">
        <ele>1333.1999511719</ele>
        <time>2016-07-11T09:04:41.000Z</time>
      </trkpt>
      <trkpt lat="44.37203" lon="6.36236">
        <ele>1331</ele>
        <time>2016-07-11T09:04:53.000Z</time>
      </trkpt>
      <trkpt lat="44.37187" lon="6.36247">
        <ele>1328.4000244141</ele>
        <time>2016-07-11T09:05:05.000Z</time>
      </trkpt>
      <trkpt lat="44.37175" lon="6.36246">
        <ele>1326.4000244141</ele>
        <time>2016-07-11T09:05:13.000Z</time>
      </trkpt>
      <trkpt lat="44.37165" lon="6.36239">
        <ele>1324.8000488281</ele>
        <time>2016-07-11T09:05:21.000Z</time>
      </trkpt>
      <trkpt lat="44.37153" lon="6.36228">
        <ele>1322.8000488281</ele>
        <time>2016-07-11T09:05:31.000Z</time>
      </trkpt>
      <trkpt lat="44.37143" lon="6.36228">
        <ele>1321.4000244141</ele>
        <time>2016-07-11T09:05:38.000Z</time>
      </trkpt>
      <trkpt lat="44.37134" lon="6.3624">
        <ele>1320</ele>
        <time>2016-07-11T09:05:47.000Z</time>
      </trkpt>
      <trkpt lat="44.37126" lon="6.36255">
        <ele>1319.5999755859</ele>
        <time>2016-07-11T09:05:56.000Z</time>
      </trkpt>
      <trkpt lat="44.37119" lon="6.36267">
        <ele>1319.5999755859</ele>
        <time>2016-07-11T09:06:03.000Z</time>
      </trkpt>
      <trkpt lat="44.37112" lon="6.3628">
        <ele>1319.8000488281</ele>
        <time>2016-07-11T09:06:11.000Z</time>
      </trkpt>
      <trkpt lat="44.37105" lon="6.36293">
        <ele>1320.1999511719</ele>
        <time>2016-07-11T09:06:19.000Z</time>
      </trkpt>
      <trkpt lat="44.371" lon="6.36306">
        <ele>1321</ele>
        <time>2016-07-11T09:06:26.000Z</time>
      </trkpt>
      <trkpt lat="44.37093" lon="6.3632">
        <ele>1322.1999511719</ele>
        <time>2016-07-11T09:06:34.000Z</time>
      </trkpt>
      <trkpt lat="44.3709" lon="6.36325">
        <ele>1322.4000244141</ele>
        <time>2016-07-11T09:06:37.000Z</time>
      </trkpt>
      <trkpt lat="44.37091" lon="6.36325">
        <ele>1322.4000244141</ele>
        <time>2016-07-11T09:06:44.000Z</time>
      </trkpt>
      <trkpt lat="44.37088" lon="6.36327">
        <ele>1322.5999755859</ele>
        <time>2016-07-11T09:06:54.000Z</time>
      </trkpt>
      <trkpt lat="44.3709" lon="6.36339">
        <ele>1323.4000244141</ele>
        <time>2016-07-11T09:07:01.000Z</time>
      </trkpt>
      <trkpt lat="44.37095" lon="6.36356">
        <ele>1324.8000488281</ele>
        <time>2016-07-11T09:07:11.000Z</time>
      </trkpt>
      <trkpt lat="44.37097" lon="6.36366">
        <ele>1325.5999755859</ele>
        <time>2016-07-11T09:07:16.000Z</time>
      </trkpt>
      <trkpt lat="44.37102" lon="6.36379">
        <ele>1326.5999755859</ele>
        <time>2016-07-11T09:07:23.000Z</time>
      </trkpt>
      <trkpt lat="44.37103" lon="6.36385">
        <ele>1327</ele>
        <time>2016-07-11T09:07:26.000Z</time>
      </trkpt>
      <trkpt lat="44.37103" lon="6.36392">
        <ele>1327.4000244141</ele>
        <time>2016-07-11T09:07:30.000Z</time>
      </trkpt>
      <trkpt lat="44.37099" lon="6.36407">
        <ele>1328.4000244141</ele>
        <time>2016-07-11T09:07:38.000Z</time>
      </trkpt>
      <trkpt lat="44.3709" lon="6.3642">
        <ele>1329.4000244141</ele>
        <time>2016-07-11T09:07:47.000Z</time>
      </trkpt>
      <trkpt lat="44.37081" lon="6.36429">
        <ele>1329.8000488281</ele>
        <time>2016-07-11T09:07:55.000Z</time>
      </trkpt>
      <trkpt lat="44.37072" lon="6.36438">
        <ele>1330.4000244141</ele>
        <time>2016-07-11T09:08:03.000Z</time>
      </trkpt>
      <trkpt lat="44.37066" lon="6.36456">
        <ele>1331.5999755859</ele>
        <time>2016-07-11T09:08:12.000Z</time>
      </trkpt>
      <trkpt lat="44.37061" lon="6.36469">
        <ele>1332.4000244141</ele>
        <time>2016-07-11T09:08:18.000Z</time>
      </trkpt>
      <trkpt lat="44.37057" lon="6.36477">
        <ele>1333</ele>
        <time>2016-07-11T09:08:23.000Z</time>
      </trkpt>
      <trkpt lat="44.37048" lon="6.36492">
        <ele>1333.8000488281</ele>
        <time>2016-07-11T09:08:32.000Z</time>
      </trkpt>
      <trkpt lat="44.37026" lon="6.36522">
        <ele>1332.1999511719</ele>
        <time>2016-07-11T09:08:54.000Z</time>
      </trkpt>
      <trkpt lat="44.37017" lon="6.36534">
        <ele>1331</ele>
        <time>2016-07-11T09:09:03.000Z</time>
      </trkpt>
      <trkpt lat="44.37004" lon="6.36548">
        <ele>1329.8000488281</ele>
        <time>2016-07-11T09:09:14.000Z</time>
      </trkpt>
      <trkpt lat="44.36995" lon="6.36557">
        <ele>1329.5999755859</ele>
        <time>2016-07-11T09:09:22.000Z</time>
      </trkpt>
      <trkpt lat="44.36984" lon="6.36565">
        <ele>1329</ele>
        <time>2016-07-11T09:09:31.000Z</time>
      </trkpt>
      <trkpt lat="44.36976" lon="6.36572">
        <ele>1329</ele>
        <time>2016-07-11T09:09:39.000Z</time>
      </trkpt>
      <trkpt lat="44.36969" lon="6.36579">
        <ele>1329</ele>
        <time>2016-07-11T09:09:45.000Z</time>
      </trkpt>
      <trkpt lat="44.36963" lon="6.36595">
        <ele>1329.5999755859</ele>
        <time>2016-07-11T09:09:53.000Z</time>
      </trkpt>
      <trkpt lat="44.36957" lon="6.36611">
        <ele>1330.1999511719</ele>
        <time>2016-07-11T09:10:02.000Z</time>
      </trkpt>
      <trkpt lat="44.36952" lon="6.36629">
        <ele>1331</ele>
        <time>2016-07-11T09:10:11.000Z</time>
      </trkpt>
      <trkpt lat="44.3695" lon="6.36644">
        <ele>1332</ele>
        <time>2016-07-11T09:10:19.000Z</time>
      </trkpt>
      <trkpt lat="44.36949" lon="6.36665">
        <ele>1334</ele>
        <time>2016-07-11T09:10:29.000Z</time>
      </trkpt>
      <trkpt lat="44.36944" lon="6.36679">
        <ele>1335</ele>
        <time>2016-07-11T09:10:37.000Z</time>
      </trkpt>
      <trkpt lat="44.36935" lon="6.36684">
        <ele>1334.8000488281</ele>
        <time>2016-07-11T09:10:44.000Z</time>
      </trkpt>
      <trkpt lat="44.36922" lon="6.36686">
        <ele>1334</ele>
        <time>2016-07-11T09:10:52.000Z</time>
      </trkpt>
      <trkpt lat="44.36909" lon="6.36688">
        <ele>1333</ele>
        <time>2016-07-11T09:11:01.000Z</time>
      </trkpt>
      <trkpt lat="44.36895" lon="6.36689">
        <ele>1332</ele>
        <time>2016-07-11T09:11:11.000Z</time>
      </trkpt>
      <trkpt lat="44.3688" lon="6.36699">
        <ele>1332</ele>
        <time>2016-07-11T09:11:21.000Z</time>
      </trkpt>
      <trkpt lat="44.36872" lon="6.36707">
        <ele>1332</ele>
        <time>2016-07-11T09:11:28.000Z</time>
      </trkpt>
      <trkpt lat="44.36858" lon="6.36717">
        <ele>1332</ele>
        <time>2016-07-11T09:11:37.000Z</time>
      </trkpt>
      <trkpt lat="44.36846" lon="6.36723">
        <ele>1332</ele>
        <time>2016-07-11T09:11:45.000Z</time>
      </trkpt>
      <trkpt lat="44.36828" lon="6.36732">
        <ele>1331.5999755859</ele>
        <time>2016-07-11T09:11:57.000Z</time>
      </trkpt>
      <trkpt lat="44.36818" lon="6.36737">
        <ele>1331.4000244141</ele>
        <time>2016-07-11T09:12:04.000Z</time>
      </trkpt>
      <trkpt lat="44.36812" lon="6.36741">
        <ele>1331.5999755859</ele>
        <time>2016-07-11T09:12:10.000Z</time>
      </trkpt>
      <trkpt lat="44.36803" lon="6.36748">
        <ele>1331.8000488281</ele>
        <time>2016-07-11T09:12:17.000Z</time>
      </trkpt>
      <trkpt lat="44.36794" lon="6.36757">
        <ele>1332</ele>
        <time>2016-07-11T09:12:25.000Z</time>
      </trkpt>
      <trkpt lat="44.36781" lon="6.36768">
        <ele>1332</ele>
        <time>2016-07-11T09:12:35.000Z</time>
      </trkpt>
      <trkpt lat="44.36767" lon="6.36782">
        <ele>1333.1999511719</ele>
        <time>2016-07-11T09:12:46.000Z</time>
      </trkpt>
      <trkpt lat="44.36757" lon="6.36789">
        <ele>1333.5999755859</ele>
        <time>2016-07-11T09:12:54.000Z</time>
      </trkpt>
      <trkpt lat="44.3675" lon="6.36796">
        <ele>1333.4000244141</ele>
        <time>2016-07-11T09:13:00.000Z</time>
      </trkpt>
      <trkpt lat="44.3674" lon="6.36805">
        <ele>1332.5999755859</ele>
        <time>2016-07-11T09:13:08.000Z</time>
      </trkpt>
      <trkpt lat="44.3673" lon="6.36814">
        <ele>1332</ele>
        <time>2016-07-11T09:13:15.000Z</time>
      </trkpt>
      <trkpt lat="44.36722" lon="6.36821">
        <ele>1332</ele>
        <time>2016-07-11T09:13:21.000Z</time>
      </trkpt>
      <trkpt lat="44.36716" lon="6.36826">
        <ele>1331.8000488281</ele>
        <time>2016-07-11T09:13:26.000Z</time>
      </trkpt>
      <trkpt lat="44.36706" lon="6.36835">
        <ele>1331.8000488281</ele>
        <time>2016-07-11T09:13:33.000Z</time>
      </trkpt>
      <trkpt lat="44.36694" lon="6.36847">
        <ele>1331.8000488281</ele>
        <time>2016-07-11T09:13:43.000Z</time>
      </trkpt>
      <trkpt lat="44.36678" lon="6.36861">
        <ele>1332.5999755859</ele>
        <time>2016-07-11T09:13:55.000Z</time>
      </trkpt>
      <trkpt lat="44.36669" lon="6.36874">
        <ele>1333.1999511719</ele>
        <time>2016-07-11T09:14:03.000Z</time>
      </trkpt>
      <trkpt lat="44.36667" lon="6.36887">
        <ele>1334.1999511719</ele>
        <time>2016-07-11T09:14:10.000Z</time>
      </trkpt>
      <trkpt lat="44.36671" lon="6.36898">
        <ele>1335.4000244141</ele>
        <time>2016-07-11T09:14:17.000Z</time>
      </trkpt>
      <trkpt lat="44.36679" lon="6.36907">
        <ele>1336.5999755859</ele>
        <time>2016-07-11T09:14:25.000Z</time>
      </trkpt>
      <trkpt lat="44.36688" lon="6.36921">
        <ele>1338.4000244141</ele>
        <time>2016-07-11T09:14:35.000Z</time>
      </trkpt>
      <trkpt lat="44.36706" lon="6.3695">
        <ele>1342</ele>
        <time>2016-07-11T09:14:56.000Z</time>
      </trkpt>
      <trkpt lat="44.36711" lon="6.36956">
        <ele>1343</ele>
        <time>2016-07-11T09:15:01.000Z</time>
      </trkpt>
      <trkpt lat="44.36717" lon="6.36963">
        <ele>1344</ele>
        <time>2016-07-11T09:15:06.000Z</time>
      </trkpt>
      <trkpt lat="44.36717" lon="6.36964">
        <ele>1344.1999511719</ele>
        <time>2016-07-11T09:15:13.000Z</time>
      </trkpt>
      <trkpt lat="44.3672" lon="6.36971">
        <ele>1345</ele>
        <time>2016-07-11T09:15:17.000Z</time>
      </trkpt>
      <trkpt lat="44.36729" lon="6.36984">
        <ele>1347</ele>
        <time>2016-07-11T09:15:27.000Z</time>
      </trkpt>
      <trkpt lat="44.36741" lon="6.36989">
        <ele>1348.8000488281</ele>
        <time>2016-07-11T09:15:36.000Z</time>
      </trkpt>
      <trkpt lat="44.3677" lon="6.3698">
        <ele>1350</ele>
        <time>2016-07-11T09:15:58.000Z</time>
      </trkpt>
      <trkpt lat="44.36781" lon="6.36974">
        <ele>1350.4000244141</ele>
        <time>2016-07-11T09:16:07.000Z</time>
      </trkpt>
      <trkpt lat="44.36784" lon="6.36977">
        <ele>1351</ele>
        <time>2016-07-11T09:16:11.000Z</time>
      </trkpt>
      <trkpt lat="44.36783" lon="6.36984">
        <ele>1351.4000244141</ele>
        <time>2016-07-11T09:16:15.000Z</time>
      </trkpt>
      <trkpt lat="44.36781" lon="6.36985">
        <ele>1351.5999755859</ele>
        <time>2016-07-11T09:16:19.000Z</time>
      </trkpt>
      <trkpt lat="44.36786" lon="6.36972">
        <ele>1350.8000488281</ele>
        <time>2016-07-11T09:16:25.000Z</time>
      </trkpt>
      <trkpt lat="44.36788" lon="6.36971">
        <ele>1351.1999511719</ele>
        <time>2016-07-11T09:16:26.000Z</time>
      </trkpt>
      <trkpt lat="44.36796" lon="6.36966">
        <ele>1351.8000488281</ele>
        <time>2016-07-11T09:16:32.000Z</time>
      </trkpt>
      <trkpt lat="44.36812" lon="6.36958">
        <ele>1353</ele>
        <time>2016-07-11T09:16:45.000Z</time>
      </trkpt>
      <trkpt lat="44.3682" lon="6.36955">
        <ele>1353.8000488281</ele>
        <time>2016-07-11T09:16:52.000Z</time>
      </trkpt>
      <trkpt lat="44.36834" lon="6.36949">
        <ele>1355</ele>
        <time>2016-07-11T09:17:03.000Z</time>
      </trkpt>
      <trkpt lat="44.36845" lon="6.36945">
        <ele>1356.5999755859</ele>
        <time>2016-07-11T09:17:12.000Z</time>
      </trkpt>
      <trkpt lat="44.36856" lon="6.36941">
        <ele>1358.1999511719</ele>
        <time>2016-07-11T09:17:20.000Z</time>
      </trkpt>
      <trkpt lat="44.36868" lon="6.36936">
        <ele>1359.5999755859</ele>
        <time>2016-07-11T09:17:29.000Z</time>
      </trkpt>
      <trkpt lat="44.36877" lon="6.36931">
        <ele>1360.1999511719</ele>
        <time>2016-07-11T09:17:37.000Z</time>
      </trkpt>
      <trkpt lat="44.3689" lon="6.36927">
        <ele>1361.1999511719</ele>
        <time>2016-07-11T09:17:46.000Z</time>
      </trkpt>
      <trkpt lat="44.36908" lon="6.36922">
        <ele>1363</ele>
        <time>2016-07-11T09:17:59.000Z</time>
      </trkpt>
      <trkpt lat="44.36921" lon="6.36919">
        <ele>1364.4000244141</ele>
        <time>2016-07-11T09:18:09.000Z</time>
      </trkpt>
      <trkpt lat="44.36935" lon="6.36918">
        <ele>1365.8000488281</ele>
        <time>2016-07-11T09:18:19.000Z</time>
      </trkpt>
      <trkpt lat="44.36937" lon="6.36918">
        <ele>1366</ele>
        <time>2016-07-11T09:18:20.000Z</time>
      </trkpt>
      <trkpt lat="44.36943" lon="6.36918">
        <ele>1366.8000488281</ele>
        <time>2016-07-11T09:18:24.000Z</time>
      </trkpt>
      <trkpt lat="44.36954" lon="6.36919">
        <ele>1367.5999755859</ele>
        <time>2016-07-11T09:18:32.000Z</time>
      </trkpt>
      <trkpt lat="44.36961" lon="6.36919">
        <ele>1368</ele>
        <time>2016-07-11T09:18:37.000Z</time>
      </trkpt>
      <trkpt lat="44.36968" lon="6.3692">
        <ele>1368.4000244141</ele>
        <time>2016-07-11T09:18:43.000Z</time>
      </trkpt>
      <trkpt lat="44.36972" lon="6.36918">
        <ele>1368.5999755859</ele>
        <time>2016-07-11T09:18:48.000Z</time>
      </trkpt>
      <trkpt lat="44.36981" lon="6.36916">
        <ele>1368.8000488281</ele>
        <time>2016-07-11T09:18:55.000Z</time>
      </trkpt>
      <trkpt lat="44.36994" lon="6.36913">
        <ele>1368.8000488281</ele>
        <time>2016-07-11T09:19:03.000Z</time>
      </trkpt>
      <trkpt lat="44.37011" lon="6.36912">
        <ele>1369.1999511719</ele>
        <time>2016-07-11T09:19:14.000Z</time>
      </trkpt>
      <trkpt lat="44.37024" lon="6.36911">
        <ele>1369.4000244141</ele>
        <time>2016-07-11T09:19:23.000Z</time>
      </trkpt>
      <trkpt lat="44.3704" lon="6.3691">
        <ele>1370.1999511719</ele>
        <time>2016-07-11T09:19:33.000Z</time>
      </trkpt>
      <trkpt lat="44.37052" lon="6.36908">
        <ele>1371</ele>
        <time>2016-07-11T09:19:41.000Z</time>
      </trkpt>
      <trkpt lat="44.37068" lon="6.36906">
        <ele>1371.8000488281</ele>
        <time>2016-07-11T09:19:48.000Z</time>
      </trkpt>
      <trkpt lat="44.37091" lon="6.36899">
        <ele>1372.5999755859</ele>
        <time>2016-07-11T09:19:59.000Z</time>
      </trkpt>
      <trkpt lat="44.37096" lon="6.369">
        <ele>1373</ele>
        <time>2016-07-11T09:20:06.000Z</time>
      </trkpt>
      <trkpt lat="44.37102" lon="6.36901">
        <ele>1373.4000244141</ele>
        <time>2016-07-11T09:20:12.000Z</time>
      </trkpt>
      <trkpt lat="44.37107" lon="6.36901">
        <ele>1373.8000488281</ele>
        <time>2016-07-11T09:20:16.000Z</time>
      </trkpt>
      <trkpt lat="44.37115" lon="6.36896">
        <ele>1373.8000488281</ele>
        <time>2016-07-11T09:20:23.000Z</time>
      </trkpt>
      <trkpt lat="44.37126" lon="6.36893">
        <ele>1374.4000244141</ele>
        <time>2016-07-11T09:20:30.000Z</time>
      </trkpt>
      <trkpt lat="44.37131" lon="6.36892">
        <ele>1374.5999755859</ele>
        <time>2016-07-11T09:20:35.000Z</time>
      </trkpt>
      <trkpt lat="44.37139" lon="6.36888">
        <ele>1374.8000488281</ele>
        <time>2016-07-11T09:20:53.000Z</time>
      </trkpt>
      <trkpt lat="44.37149" lon="6.3688">
        <ele>1374.5999755859</ele>
        <time>2016-07-11T09:21:01.000Z</time>
      </trkpt>
      <trkpt lat="44.37157" lon="6.36871">
        <ele>1374</ele>
        <time>2016-07-11T09:21:08.000Z</time>
      </trkpt>
      <trkpt lat="44.37164" lon="6.36861">
        <ele>1373.4000244141</ele>
        <time>2016-07-11T09:21:15.000Z</time>
      </trkpt>
      <trkpt lat="44.37169" lon="6.36849">
        <ele>1373.4000244141</ele>
        <time>2016-07-11T09:21:22.000Z</time>
      </trkpt>
      <trkpt lat="44.37174" lon="6.3684">
        <ele>1373.4000244141</ele>
        <time>2016-07-11T09:21:28.000Z</time>
      </trkpt>
      <trkpt lat="44.3718" lon="6.36828">
        <ele>1373.4000244141</ele>
        <time>2016-07-11T09:21:35.000Z</time>
      </trkpt>
      <trkpt lat="44.37188" lon="6.36816">
        <ele>1373.8000488281</ele>
        <time>2016-07-11T09:21:43.000Z</time>
      </trkpt>
      <trkpt lat="44.37199" lon="6.368">
        <ele>1373</ele>
        <time>2016-07-11T09:21:53.000Z</time>
      </trkpt>
      <trkpt lat="44.37206" lon="6.3679">
        <ele>1372.4000244141</ele>
        <time>2016-07-11T09:22:00.000Z</time>
      </trkpt>
      <trkpt lat="44.37211" lon="6.36785">
        <ele>1372</ele>
        <time>2016-07-11T09:22:04.000Z</time>
      </trkpt>
      <trkpt lat="44.37219" lon="6.36774">
        <ele>1371.1999511719</ele>
        <time>2016-07-11T09:22:13.000Z</time>
      </trkpt>
      <trkpt lat="44.37228" lon="6.36766">
        <ele>1371</ele>
        <time>2016-07-11T09:22:20.000Z</time>
      </trkpt>
      <trkpt lat="44.37237" lon="6.36756">
        <ele>1370.8000488281</ele>
        <time>2016-07-11T09:22:28.000Z</time>
      </trkpt>
      <trkpt lat="44.37245" lon="6.36746">
        <ele>1370.8000488281</ele>
        <time>2016-07-11T09:22:35.000Z</time>
      </trkpt>
      <trkpt lat="44.37257" lon="6.3673">
        <ele>1370.5999755859</ele>
        <time>2016-07-11T09:22:46.000Z</time>
      </trkpt>
      <trkpt lat="44.37263" lon="6.36719">
        <ele>1370.4000244141</ele>
        <time>2016-07-11T09:22:53.000Z</time>
      </trkpt>
      <trkpt lat="44.37268" lon="6.36706">
        <ele>1369.5999755859</ele>
        <time>2016-07-11T09:23:00.000Z</time>
      </trkpt>
      <trkpt lat="44.37272" lon="6.36694">
        <ele>1368.8000488281</ele>
        <time>2016-07-11T09:23:07.000Z</time>
      </trkpt>
      <trkpt lat="44.37275" lon="6.36678">
        <ele>1367.4000244141</ele>
        <time>2016-07-11T09:23:15.000Z</time>
      </trkpt>
      <trkpt lat="44.37276" lon="6.36672">
        <ele>1367</ele>
        <time>2016-07-11T09:23:20.000Z</time>
      </trkpt>
      <trkpt lat="44.37274" lon="6.36666">
        <ele>1366</ele>
        <time>2016-07-11T09:23:37.000Z</time>
      </trkpt>
      <trkpt lat="44.37283" lon="6.36648">
        <ele>1365.1999511719</ele>
        <time>2016-07-11T09:23:49.000Z</time>
      </trkpt>
      <trkpt lat="44.37294" lon="6.36633">
        <ele>1364.8000488281</ele>
        <time>2016-07-11T09:23:59.000Z</time>
      </trkpt>
      <trkpt lat="44.37304" lon="6.36627">
        <ele>1365.1999511719</ele>
        <time>2016-07-11T09:24:07.000Z</time>
      </trkpt>
      <trkpt lat="44.37305" lon="6.36627">
        <ele>1365.4000244141</ele>
        <time>2016-07-11T09:24:08.000Z</time>
      </trkpt>
      <trkpt lat="44.37309" lon="6.36627">
        <ele>1365.8000488281</ele>
        <time>2016-07-11T09:24:12.000Z</time>
      </trkpt>
      <trkpt lat="44.37313" lon="6.36625">
        <ele>1366</ele>
        <time>2016-07-11T09:24:16.000Z</time>
      </trkpt>
      <trkpt lat="44.37318" lon="6.36624">
        <ele>1366.4000244141</ele>
        <time>2016-07-11T09:24:21.000Z</time>
      </trkpt>
      <trkpt lat="44.37324" lon="6.36619">
        <ele>1366.5999755859</ele>
        <time>2016-07-11T09:24:27.000Z</time>
      </trkpt>
      <trkpt lat="44.3733" lon="6.36616">
        <ele>1366.8000488281</ele>
        <time>2016-07-11T09:24:31.000Z</time>
      </trkpt>
      <trkpt lat="44.37332" lon="6.36615">
        <ele>1366.8000488281</ele>
        <time>2016-07-11T09:24:32.000Z</time>
      </trkpt>
      <trkpt lat="44.3734" lon="6.36607">
        <ele>1367.8000488281</ele>
        <time>2016-07-11T09:24:40.000Z</time>
      </trkpt>
      <trkpt lat="44.37342" lon="6.36604">
        <ele>1368</ele>
        <time>2016-07-11T09:24:42.000Z</time>
      </trkpt>
      <trkpt lat="44.37344" lon="6.36599">
        <ele>1367.8000488281</ele>
        <time>2016-07-11T09:24:45.000Z</time>
      </trkpt>
      <trkpt lat="44.37343" lon="6.36594">
        <ele>1367.4000244141</ele>
        <time>2016-07-11T09:24:49.000Z</time>
      </trkpt>
      <trkpt lat="44.37342" lon="6.36591">
        <ele>1367.1999511719</ele>
        <time>2016-07-11T09:24:51.000Z</time>
      </trkpt>
      <trkpt lat="44.37338" lon="6.36578">
        <ele>1365.8000488281</ele>
        <time>2016-07-11T09:24:59.000Z</time>
      </trkpt>
      <trkpt lat="44.37336" lon="6.3657">
        <ele>1364.8000488281</ele>
        <time>2016-07-11T09:25:05.000Z</time>
      </trkpt>
      <trkpt lat="44.37336" lon="6.36555">
        <ele>1364.1999511719</ele>
        <time>2016-07-11T09:25:13.000Z</time>
      </trkpt>
      <trkpt lat="44.37337" lon="6.36537">
        <ele>1363.8000488281</ele>
        <time>2016-07-11T09:25:22.000Z</time>
      </trkpt>
      <trkpt lat="44.37338" lon="6.36528">
        <ele>1363.8000488281</ele>
        <time>2016-07-11T09:25:26.000Z</time>
      </trkpt>
      <trkpt lat="44.3734" lon="6.36516">
        <ele>1363.8000488281</ele>
        <time>2016-07-11T09:25:32.000Z</time>
      </trkpt>
      <trkpt lat="44.37344" lon="6.365">
        <ele>1364</ele>
        <time>2016-07-11T09:25:40.000Z</time>
      </trkpt>
      <trkpt lat="44.37345" lon="6.36492">
        <ele>1364</ele>
        <time>2016-07-11T09:25:44.000Z</time>
      </trkpt>
      <trkpt lat="44.37347" lon="6.36478">
        <ele>1364</ele>
        <time>2016-07-11T09:25:50.000Z</time>
      </trkpt>
      <trkpt lat="44.37349" lon="6.36465">
        <ele>1364.1999511719</ele>
        <time>2016-07-11T09:25:57.000Z</time>
      </trkpt>
      <trkpt lat="44.37352" lon="6.36455">
        <ele>1364.4000244141</ele>
        <time>2016-07-11T09:26:03.000Z</time>
      </trkpt>
      <trkpt lat="44.37354" lon="6.36445">
        <ele>1364.4000244141</ele>
        <time>2016-07-11T09:26:08.000Z</time>
      </trkpt>
      <trkpt lat="44.37359" lon="6.36432">
        <ele>1365</ele>
        <time>2016-07-11T09:26:16.000Z</time>
      </trkpt>
      <trkpt lat="44.37364" lon="6.3642">
        <ele>1365.4000244141</ele>
        <time>2016-07-11T09:26:23.000Z</time>
      </trkpt>
      <trkpt lat="44.37367" lon="6.36404">
        <ele>1365.5999755859</ele>
        <time>2016-07-11T09:26:30.000Z</time>
      </trkpt>
      <trkpt lat="44.37373" lon="6.3639">
        <ele>1365.5999755859</ele>
        <time>2016-07-11T09:26:37.000Z</time>
      </trkpt>
      <trkpt lat="44.3738" lon="6.36377">
        <ele>1365.8000488281</ele>
        <time>2016-07-11T09:26:45.000Z</time>
      </trkpt>
      <trkpt lat="44.37386" lon="6.36368">
        <ele>1366.1999511719</ele>
        <time>2016-07-11T09:26:51.000Z</time>
      </trkpt>
      <trkpt lat="44.37394" lon="6.36354">
        <ele>1366.4000244141</ele>
        <time>2016-07-11T09:26:59.000Z</time>
      </trkpt>
      <trkpt lat="44.37402" lon="6.36342">
        <ele>1366.8000488281</ele>
        <time>2016-07-11T09:27:07.000Z</time>
      </trkpt>
      <trkpt lat="44.3741" lon="6.36334">
        <ele>1367.4000244141</ele>
        <time>2016-07-11T09:27:13.000Z</time>
      </trkpt>
      <trkpt lat="44.37417" lon="6.36326">
        <ele>1367.8000488281</ele>
        <time>2016-07-11T09:27:19.000Z</time>
      </trkpt>
      <trkpt lat="44.37425" lon="6.36315">
        <ele>1368.1999511719</ele>
        <time>2016-07-11T09:27:27.000Z</time>
      </trkpt>
      <trkpt lat="44.37434" lon="6.36303">
        <ele>1368.4000244141</ele>
        <time>2016-07-11T09:27:35.000Z</time>
      </trkpt>
      <trkpt lat="44.3744" lon="6.36294">
        <ele>1369</ele>
        <time>2016-07-11T09:27:41.000Z</time>
      </trkpt>
      <trkpt lat="44.37448" lon="6.36281">
        <ele>1369.8000488281</ele>
        <time>2016-07-11T09:27:50.000Z</time>
      </trkpt>
      <trkpt lat="44.37459" lon="6.36266">
        <ele>1371</ele>
        <time>2016-07-11T09:28:00.000Z</time>
      </trkpt>
      <trkpt lat="44.37467" lon="6.36256">
        <ele>1371.8000488281</ele>
        <time>2016-07-11T09:28:08.000Z</time>
      </trkpt>
      <trkpt lat="44.37477" lon="6.3624">
        <ele>1372.8000488281</ele>
        <time>2016-07-11T09:28:18.000Z</time>
      </trkpt>
      <trkpt lat="44.37487" lon="6.36221">
        <ele>1373.1999511719</ele>
        <time>2016-07-11T09:28:28.000Z</time>
      </trkpt>
      <trkpt lat="44.37495" lon="6.36208">
        <ele>1373.1999511719</ele>
        <time>2016-07-11T09:28:36.000Z</time>
      </trkpt>
      <trkpt lat="44.37504" lon="6.36196">
        <ele>1373.4000244141</ele>
        <time>2016-07-11T09:28:44.000Z</time>
      </trkpt>
      <trkpt lat="44.37513" lon="6.36184">
        <ele>1374</ele>
        <time>2016-07-11T09:28:52.000Z</time>
      </trkpt>
      <trkpt lat="44.37522" lon="6.3617">
        <ele>1374.1999511719</ele>
        <time>2016-07-11T09:29:01.000Z</time>
      </trkpt>
      <trkpt lat="44.3753" lon="6.36156">
        <ele>1374.5999755859</ele>
        <time>2016-07-11T09:29:10.000Z</time>
      </trkpt>
      <trkpt lat="44.37541" lon="6.36143">
        <ele>1374.5999755859</ele>
        <time>2016-07-11T09:29:19.000Z</time>
      </trkpt>
      <trkpt lat="44.3755" lon="6.36134">
        <ele>1374.4000244141</ele>
        <time>2016-07-11T09:29:26.000Z</time>
      </trkpt>
      <trkpt lat="44.37556" lon="6.36127">
        <ele>1374.1999511719</ele>
        <time>2016-07-11T09:29:32.000Z</time>
      </trkpt>
      <trkpt lat="44.37561" lon="6.36118">
        <ele>1373.8000488281</ele>
        <time>2016-07-11T09:29:38.000Z</time>
      </trkpt>
      <trkpt lat="44.3757" lon="6.36106">
        <ele>1373</ele>
        <time>2016-07-11T09:29:46.000Z</time>
      </trkpt>
      <trkpt lat="44.37583" lon="6.36089">
        <ele>1374.1999511719</ele>
        <time>2016-07-11T09:29:57.000Z</time>
      </trkpt>
      <trkpt lat="44.37596" lon="6.36075">
        <ele>1376</ele>
        <time>2016-07-11T09:30:07.000Z</time>
      </trkpt>
      <trkpt lat="44.37605" lon="6.36059">
        <ele>1376.1999511719</ele>
        <time>2016-07-11T09:30:16.000Z</time>
      </trkpt>
      <trkpt lat="44.37614" lon="6.36041">
        <ele>1376.4000244141</ele>
        <time>2016-07-11T09:30:26.000Z</time>
      </trkpt>
      <trkpt lat="44.37623" lon="6.36028">
        <ele>1376</ele>
        <time>2016-07-11T09:30:35.000Z</time>
      </trkpt>
      <trkpt lat="44.37628" lon="6.3602">
        <ele>1375.8000488281</ele>
        <time>2016-07-11T09:30:41.000Z</time>
      </trkpt>
      <trkpt lat="44.37634" lon="6.36011">
        <ele>1375.5999755859</ele>
        <time>2016-07-11T09:30:48.000Z</time>
      </trkpt>
      <trkpt lat="44.37641" lon="6.36002">
        <ele>1375.4000244141</ele>
        <time>2016-07-11T09:30:54.000Z</time>
      </trkpt>
      <trkpt lat="44.37651" lon="6.3599">
        <ele>1375</ele>
        <time>2016-07-11T09:31:01.000Z</time>
      </trkpt>
      <trkpt lat="44.37668" lon="6.35976">
        <ele>1375</ele>
        <time>2016-07-11T09:31:08.000Z</time>
      </trkpt>
      <trkpt lat="44.37687" lon="6.35965">
        <ele>1375.4000244141</ele>
        <time>2016-07-11T09:31:14.000Z</time>
      </trkpt>
      <trkpt lat="44.37705" lon="6.35954">
        <ele>1377</ele>
        <time>2016-07-11T09:31:20.000Z</time>
      </trkpt>
      <trkpt lat="44.37721" lon="6.35946">
        <ele>1378.4000244141</ele>
        <time>2016-07-11T09:31:27.000Z</time>
      </trkpt>
      <trkpt lat="44.37733" lon="6.3594">
        <ele>1379.4000244141</ele>
        <time>2016-07-11T09:31:33.000Z</time>
      </trkpt>
      <trkpt lat="44.37744" lon="6.35934">
        <ele>1379.8000488281</ele>
        <time>2016-07-11T09:31:40.000Z</time>
      </trkpt>
      <trkpt lat="44.37767" lon="6.35919">
        <ele>1380.8000488281</ele>
        <time>2016-07-11T09:31:56.000Z</time>
      </trkpt>
      <trkpt lat="44.37781" lon="6.35911">
        <ele>1381.5999755859</ele>
        <time>2016-07-11T09:32:05.000Z</time>
      </trkpt>
      <trkpt lat="44.3779" lon="6.35905">
        <ele>1381.8000488281</ele>
        <time>2016-07-11T09:32:12.000Z</time>
      </trkpt>
      <trkpt lat="44.37803" lon="6.35896">
        <ele>1382.5999755859</ele>
        <time>2016-07-11T09:32:21.000Z</time>
      </trkpt>
      <trkpt lat="44.37815" lon="6.35886">
        <ele>1383.1999511719</ele>
        <time>2016-07-11T09:32:30.000Z</time>
      </trkpt>
      <trkpt lat="44.37829" lon="6.35876">
        <ele>1384</ele>
        <time>2016-07-11T09:32:40.000Z</time>
      </trkpt>
      <trkpt lat="44.37845" lon="6.35863">
        <ele>1384.4000244141</ele>
        <time>2016-07-11T09:32:52.000Z</time>
      </trkpt>
      <trkpt lat="44.37855" lon="6.35854">
        <ele>1384.1999511719</ele>
        <time>2016-07-11T09:33:00.000Z</time>
      </trkpt>
      <trkpt lat="44.37863" lon="6.35849">
        <ele>1384.4000244141</ele>
        <time>2016-07-11T09:33:05.000Z</time>
      </trkpt>
      <trkpt lat="44.37863" lon="6.35848">
        <ele>1384.4000244141</ele>
        <time>2016-07-11T09:33:06.000Z</time>
      </trkpt>
      <trkpt lat="44.37864" lon="6.35846">
        <ele>1384.1999511719</ele>
        <time>2016-07-11T09:33:12.000Z</time>
      </trkpt>
      <trkpt lat="44.37873" lon="6.35841">
        <ele>1384.1999511719</ele>
        <time>2016-07-11T09:33:20.000Z</time>
      </trkpt>
      <trkpt lat="44.37876" lon="6.35839">
        <ele>1384.1999511719</ele>
        <time>2016-07-11T09:33:22.000Z</time>
      </trkpt>
      <trkpt lat="44.37882" lon="6.35836">
        <ele>1384.4000244141</ele>
        <time>2016-07-11T09:33:27.000Z</time>
      </trkpt>
      <trkpt lat="44.37891" lon="6.3583">
        <ele>1384.5999755859</ele>
        <time>2016-07-11T09:33:34.000Z</time>
      </trkpt>
      <trkpt lat="44.37902" lon="6.35822">
        <ele>1384.8000488281</ele>
        <time>2016-07-11T09:33:42.000Z</time>
      </trkpt>
      <trkpt lat="44.37909" lon="6.35817">
        <ele>1385.1999511719</ele>
        <time>2016-07-11T09:33:47.000Z</time>
      </trkpt>
      <trkpt lat="44.37924" lon="6.3581">
        <ele>1386</ele>
        <time>2016-07-11T09:33:57.000Z</time>
      </trkpt>
      <trkpt lat="44.37935" lon="6.35804">
        <ele>1386.4000244141</ele>
        <time>2016-07-11T09:34:05.000Z</time>
      </trkpt>
      <trkpt lat="44.3794" lon="6.35799">
        <ele>1386.8000488281</ele>
        <time>2016-07-11T09:34:12.000Z</time>
      </trkpt>
      <trkpt lat="44.37942" lon="6.35798">
        <ele>1387</ele>
        <time>2016-07-11T09:34:13.000Z</time>
      </trkpt>
      <trkpt lat="44.3795" lon="6.35792">
        <ele>1387.8000488281</ele>
        <time>2016-07-11T09:34:19.000Z</time>
      </trkpt>
      <trkpt lat="44.37951" lon="6.3579">
        <ele>1387.8000488281</ele>
        <time>2016-07-11T09:34:20.000Z</time>
      </trkpt>
      <trkpt lat="44.37958" lon="6.35786">
        <ele>1388</ele>
        <time>2016-07-11T09:34:26.000Z</time>
      </trkpt>
      <trkpt lat="44.37963" lon="6.35781">
        <ele>1388</ele>
        <time>2016-07-11T09:34:32.000Z</time>
      </trkpt>
      <trkpt lat="44.37966" lon="6.35778">
        <ele>1388.1999511719</ele>
        <time>2016-07-11T09:34:38.000Z</time>
      </trkpt>
      <trkpt lat="44.37972" lon="6.35774">
        <ele>1388.4000244141</ele>
        <time>2016-07-11T09:34:44.000Z</time>
      </trkpt>
      <trkpt lat="44.37976" lon="6.35771">
        <ele>1388.4000244141</ele>
        <time>2016-07-11T09:34:49.000Z</time>
      </trkpt>
      <trkpt lat="44.37977" lon="6.3577">
        <ele>1388.4000244141</ele>
        <time>2016-07-11T09:34:50.000Z</time>
      </trkpt>
      <trkpt lat="44.37983" lon="6.35767">
        <ele>1388.5999755859</ele>
        <time>2016-07-11T09:34:55.000Z</time>
      </trkpt>
      <trkpt lat="44.37986" lon="6.35765">
        <ele>1388.8000488281</ele>
        <time>2016-07-11T09:34:57.000Z</time>
      </trkpt>
      <trkpt lat="44.37989" lon="6.35761">
        <ele>1388.5999755859</ele>
        <time>2016-07-11T09:35:01.000Z</time>
      </trkpt>
      <trkpt lat="44.37996" lon="6.35757">
        <ele>1388.8000488281</ele>
        <time>2016-07-11T09:35:11.000Z</time>
      </trkpt>
      <trkpt lat="44.37997" lon="6.35757">
        <ele>1388.8000488281</ele>
        <time>2016-07-11T09:35:12.000Z</time>
      </trkpt>
      <trkpt lat="44.38001" lon="6.35757">
        <ele>1389</ele>
        <time>2016-07-11T09:35:15.000Z</time>
      </trkpt>
      <trkpt lat="44.38009" lon="6.35751">
        <ele>1389</ele>
        <time>2016-07-11T09:35:21.000Z</time>
      </trkpt>
      <trkpt lat="44.38016" lon="6.35745">
        <ele>1389</ele>
        <time>2016-07-11T09:35:28.000Z</time>
      </trkpt>
      <trkpt lat="44.38024" lon="6.3574">
        <ele>1389.1999511719</ele>
        <time>2016-07-11T09:35:34.000Z</time>
      </trkpt>
      <trkpt lat="44.38032" lon="6.35735">
        <ele>1389.1999511719</ele>
        <time>2016-07-11T09:35:40.000Z</time>
      </trkpt>
      <trkpt lat="44.38043" lon="6.35729">
        <ele>1389</ele>
        <time>2016-07-11T09:35:48.000Z</time>
      </trkpt>
      <trkpt lat="44.38044" lon="6.35729">
        <ele>1388.8000488281</ele>
        <time>2016-07-11T09:35:49.000Z</time>
      </trkpt>
      <trkpt lat="44.38048" lon="6.35727">
        <ele>1388.5999755859</ele>
        <time>2016-07-11T09:35:52.000Z</time>
      </trkpt>
      <trkpt lat="44.38054" lon="6.35723">
        <ele>1388.1999511719</ele>
        <time>2016-07-11T09:35:57.000Z</time>
      </trkpt>
      <trkpt lat="44.38056" lon="6.35723">
        <ele>1388.1999511719</ele>
        <time>2016-07-11T09:36:04.000Z</time>
      </trkpt>
      <trkpt lat="44.38064" lon="6.35719">
        <ele>1387.5999755859</ele>
        <time>2016-07-11T09:36:17.000Z</time>
      </trkpt>
      <trkpt lat="44.38071" lon="6.35716">
        <ele>1387.1999511719</ele>
        <time>2016-07-11T09:36:22.000Z</time>
      </trkpt>
      <trkpt lat="44.38078" lon="6.35712">
        <ele>1386.8000488281</ele>
        <time>2016-07-11T09:36:28.000Z</time>
      </trkpt>
      <trkpt lat="44.38085" lon="6.35708">
        <ele>1386.4000244141</ele>
        <time>2016-07-11T09:36:34.000Z</time>
      </trkpt>
      <trkpt lat="44.38095" lon="6.35704">
        <ele>1385.8000488281</ele>
        <time>2016-07-11T09:36:43.000Z</time>
      </trkpt>
      <trkpt lat="44.38104" lon="6.357">
        <ele>1385</ele>
        <time>2016-07-11T09:36:50.000Z</time>
      </trkpt>
      <trkpt lat="44.38112" lon="6.35697">
        <ele>1384.5999755859</ele>
        <time>2016-07-11T09:36:56.000Z</time>
      </trkpt>
      <trkpt lat="44.38114" lon="6.35696">
        <ele>1384.5999755859</ele>
        <time>2016-07-11T09:36:58.000Z</time>
      </trkpt>
      <trkpt lat="44.38121" lon="6.35693">
        <ele>1384.4000244141</ele>
        <time>2016-07-11T09:37:04.000Z</time>
      </trkpt>
      <trkpt lat="44.38126" lon="6.35691">
        <ele>1384.5999755859</ele>
        <time>2016-07-11T09:37:09.000Z</time>
      </trkpt>
      <trkpt lat="44.38131" lon="6.35689">
        <ele>1384.5999755859</ele>
        <time>2016-07-11T09:37:19.000Z</time>
      </trkpt>
      <trkpt lat="44.38135" lon="6.35689">
        <ele>1385</ele>
        <time>2016-07-11T09:37:25.000Z</time>
      </trkpt>
      <trkpt lat="44.38137" lon="6.35689">
        <ele>1385</ele>
        <time>2016-07-11T09:37:27.000Z</time>
      </trkpt>
      <trkpt lat="44.38142" lon="6.35689">
        <ele>1385.5999755859</ele>
        <time>2016-07-11T09:37:32.000Z</time>
      </trkpt>
      <trkpt lat="44.38144" lon="6.35689">
        <ele>1385.5999755859</ele>
        <time>2016-07-11T09:37:36.000Z</time>
      </trkpt>
      <trkpt lat="44.38154" lon="6.35686">
        <ele>1385.8000488281</ele>
        <time>2016-07-11T09:37:49.000Z</time>
      </trkpt>
      <trkpt lat="44.38158" lon="6.35683">
        <ele>1385</ele>
        <time>2016-07-11T09:37:54.000Z</time>
      </trkpt>
      <trkpt lat="44.38166" lon="6.35678">
        <ele>1383.4000244141</ele>
        <time>2016-07-11T09:38:01.000Z</time>
      </trkpt>
      <trkpt lat="44.38174" lon="6.35671">
        <ele>1381.5999755859</ele>
        <time>2016-07-11T09:38:08.000Z</time>
      </trkpt>
      <trkpt lat="44.3818" lon="6.35664">
        <ele>1379.5999755859</ele>
        <time>2016-07-11T09:38:14.000Z</time>
      </trkpt>
      <trkpt lat="44.38185" lon="6.35661">
        <ele>1378.8000488281</ele>
        <time>2016-07-11T09:38:18.000Z</time>
      </trkpt>
      <trkpt lat="44.38188" lon="6.35652">
        <ele>1376.4000244141</ele>
        <time>2016-07-11T09:38:23.000Z</time>
      </trkpt>
      <trkpt lat="44.38193" lon="6.35641">
        <ele>1374.1999511719</ele>
        <time>2016-07-11T09:38:30.000Z</time>
      </trkpt>
      <trkpt lat="44.38197" lon="6.35634">
        <ele>1373.4000244141</ele>
        <time>2016-07-11T09:38:36.000Z</time>
      </trkpt>
      <trkpt lat="44.38198" lon="6.35632">
        <ele>1373.4000244141</ele>
        <time>2016-07-11T09:38:37.000Z</time>
      </trkpt>
      <trkpt lat="44.38206" lon="6.35617">
        <ele>1372.1999511719</ele>
        <time>2016-07-11T09:38:51.000Z</time>
      </trkpt>
      <trkpt lat="44.3821" lon="6.35616">
        <ele>1372.4000244141</ele>
        <time>2016-07-11T09:38:56.000Z</time>
      </trkpt>
      <trkpt lat="44.38211" lon="6.35615">
        <ele>1372.4000244141</ele>
        <time>2016-07-11T09:39:00.000Z</time>
      </trkpt>
      <trkpt lat="44.38212" lon="6.35613">
        <ele>1372.1999511719</ele>
        <time>2016-07-11T09:39:01.000Z</time>
      </trkpt>
      <trkpt lat="44.38216" lon="6.35608">
        <ele>1372</ele>
        <time>2016-07-11T09:39:06.000Z</time>
      </trkpt>
      <trkpt lat="44.38217" lon="6.35606">
        <ele>1371.8000488281</ele>
        <time>2016-07-11T09:39:07.000Z</time>
      </trkpt>
      <trkpt lat="44.3822" lon="6.35602">
        <ele>1371.5999755859</ele>
        <time>2016-07-11T09:39:10.000Z</time>
      </trkpt>
      <trkpt lat="44.38225" lon="6.35597">
        <ele>1371.5999755859</ele>
        <time>2016-07-11T09:39:15.000Z</time>
      </trkpt>
      <trkpt lat="44.38228" lon="6.35596">
        <ele>1371.4000244141</ele>
        <time>2016-07-11T09:39:18.000Z</time>
      </trkpt>
      <trkpt lat="44.38232" lon="6.35587">
        <ele>1370.5999755859</ele>
        <time>2016-07-11T09:39:25.000Z</time>
      </trkpt>
      <trkpt lat="44.38234" lon="6.35587">
        <ele>1370.8000488281</ele>
        <time>2016-07-11T09:39:27.000Z</time>
      </trkpt>
      <trkpt lat="44.38236" lon="6.35589">
        <ele>1371.1999511719</ele>
        <time>2016-07-11T09:39:30.000Z</time>
      </trkpt>
      <trkpt lat="44.3824" lon="6.35596">
        <ele>1372.1999511719</ele>
        <time>2016-07-11T09:39:36.000Z</time>
      </trkpt>
      <trkpt lat="44.38246" lon="6.356">
        <ele>1373</ele>
        <time>2016-07-11T09:39:42.000Z</time>
      </trkpt>
      <trkpt lat="44.38251" lon="6.35598">
        <ele>1373</ele>
        <time>2016-07-11T09:40:00.000Z</time>
      </trkpt>
      <trkpt lat="44.38253" lon="6.35593">
        <ele>1372.4000244141</ele>
        <time>2016-07-11T09:40:06.000Z</time>
      </trkpt>
      <trkpt lat="44.38254" lon="6.35593">
        <ele>1372.4000244141</ele>
        <time>2016-07-11T09:40:11.000Z</time>
      </trkpt>
      <trkpt lat="44.38255" lon="6.35589">
        <ele>1372</ele>
        <time>2016-07-11T09:40:17.000Z</time>
      </trkpt>
      <trkpt lat="44.38253" lon="6.3559">
        <ele>1372</ele>
        <time>2016-07-11T09:40:52.000Z</time>
      </trkpt>
      <trkpt lat="44.38254" lon="6.35589">
        <ele>1372</ele>
        <time>2016-07-11T09:41:00.000Z</time>
      </trkpt>
      <trkpt lat="44.38254" lon="6.35588">
        <ele>1371.8000488281</ele>
        <time>2016-07-11T09:41:12.000Z</time>
      </trkpt>
      <trkpt lat="44.38257" lon="6.35581">
        <ele>1371</ele>
        <time>2016-07-11T09:41:21.000Z</time>
      </trkpt>
      <trkpt lat="44.38264" lon="6.3557">
        <ele>1370</ele>
        <time>2016-07-11T09:41:29.000Z</time>
      </trkpt>
      <trkpt lat="44.38271" lon="6.3556">
        <ele>1369.1999511719</ele>
        <time>2016-07-11T09:41:37.000Z</time>
      </trkpt>
      <trkpt lat="44.38277" lon="6.35553">
        <ele>1368.8000488281</ele>
        <time>2016-07-11T09:41:43.000Z</time>
      </trkpt>
      <trkpt lat="44.38284" lon="6.35546">
        <ele>1368.8000488281</ele>
        <time>2016-07-11T09:41:49.000Z</time>
      </trkpt>
      <trkpt lat="44.38294" lon="6.35537">
        <ele>1368.8000488281</ele>
        <time>2016-07-11T09:41:57.000Z</time>
      </trkpt>
      <trkpt lat="44.38304" lon="6.35526">
        <ele>1369</ele>
        <time>2016-07-11T09:42:06.000Z</time>
      </trkpt>
      <trkpt lat="44.38314" lon="6.35519">
        <ele>1369.4000244141</ele>
        <time>2016-07-11T09:42:14.000Z</time>
      </trkpt>
      <trkpt lat="44.38322" lon="6.35513">
        <ele>1369.5999755859</ele>
        <time>2016-07-11T09:42:21.000Z</time>
      </trkpt>
      <trkpt lat="44.38332" lon="6.35506">
        <ele>1370</ele>
        <time>2016-07-11T09:42:28.000Z</time>
      </trkpt>
      <trkpt lat="44.38341" lon="6.35499">
        <ele>1370.1999511719</ele>
        <time>2016-07-11T09:42:35.000Z</time>
      </trkpt>
      <trkpt lat="44.38349" lon="6.35489">
        <ele>1370.1999511719</ele>
        <time>2016-07-11T09:42:43.000Z</time>
      </trkpt>
      <trkpt lat="44.38354" lon="6.35485">
        <ele>1370.4000244141</ele>
        <time>2016-07-11T09:42:47.000Z</time>
      </trkpt>
      <trkpt lat="44.38363" lon="6.3548">
        <ele>1370.8000488281</ele>
        <time>2016-07-11T09:42:53.000Z</time>
      </trkpt>
      <trkpt lat="44.38366" lon="6.35479">
        <ele>1371</ele>
        <time>2016-07-11T09:42:55.000Z</time>
      </trkpt>
      <trkpt lat="44.38371" lon="6.35477">
        <ele>1371.1999511719</ele>
        <time>2016-07-11T09:43:00.000Z</time>
      </trkpt>
      <trkpt lat="44.38374" lon="6.35475">
        <ele>1371.1999511719</ele>
        <time>2016-07-11T09:43:04.000Z</time>
      </trkpt>
      <trkpt lat="44.38377" lon="6.3547">
        <ele>1371.1999511719</ele>
        <time>2016-07-11T09:43:08.000Z</time>
      </trkpt>
      <trkpt lat="44.38379" lon="6.35468">
        <ele>1371</ele>
        <time>2016-07-11T09:43:10.000Z</time>
      </trkpt>
      <trkpt lat="44.38381" lon="6.35465">
        <ele>1371</ele>
        <time>2016-07-11T09:43:17.000Z</time>
      </trkpt>
      <trkpt lat="44.38383" lon="6.35465">
        <ele>1371.1999511719</ele>
        <time>2016-07-11T09:43:22.000Z</time>
      </trkpt>
      <trkpt lat="44.38386" lon="6.35463">
        <ele>1371.1999511719</ele>
        <time>2016-07-11T09:43:29.000Z</time>
      </trkpt>
      <trkpt lat="44.38394" lon="6.35457">
        <ele>1371.4000244141</ele>
        <time>2016-07-11T09:43:36.000Z</time>
      </trkpt>
      <trkpt lat="44.38407" lon="6.35446">
        <ele>1371.5999755859</ele>
        <time>2016-07-11T09:43:47.000Z</time>
      </trkpt>
      <trkpt lat="44.38418" lon="6.35442">
        <ele>1371.5999755859</ele>
        <time>2016-07-11T09:43:55.000Z</time>
      </trkpt>
      <trkpt lat="44.38427" lon="6.35438">
        <ele>1371.4000244141</ele>
        <time>2016-07-11T09:44:02.000Z</time>
      </trkpt>
      <trkpt lat="44.38429" lon="6.35437">
        <ele>1371.1999511719</ele>
        <time>2016-07-11T09:44:04.000Z</time>
      </trkpt>
      <trkpt lat="44.38437" lon="6.35437">
        <ele>1371.4000244141</ele>
        <time>2016-07-11T09:44:11.000Z</time>
      </trkpt>
      <trkpt lat="44.38438" lon="6.35437">
        <ele>1371.5999755859</ele>
        <time>2016-07-11T09:44:12.000Z</time>
      </trkpt>
      <trkpt lat="44.38448" lon="6.35437">
        <ele>1371.8000488281</ele>
        <time>2016-07-11T09:44:20.000Z</time>
      </trkpt>
      <trkpt lat="44.38452" lon="6.35437">
        <ele>1371.8000488281</ele>
        <time>2016-07-11T09:44:25.000Z</time>
      </trkpt>
      <trkpt lat="44.38454" lon="6.35437">
        <ele>1372</ele>
        <time>2016-07-11T09:44:32.000Z</time>
      </trkpt>
      <trkpt lat="44.38459" lon="6.35438">
        <ele>1372.1999511719</ele>
        <time>2016-07-11T09:44:39.000Z</time>
      </trkpt>
      <trkpt lat="44.38463" lon="6.35438">
        <ele>1372.4000244141</ele>
        <time>2016-07-11T09:44:47.000Z</time>
      </trkpt>
      <trkpt lat="44.38466" lon="6.35438">
        <ele>1372.4000244141</ele>
        <time>2016-07-11T09:44:56.000Z</time>
      </trkpt>
      <trkpt lat="44.38466" lon="6.35437">
        <ele>1372.4000244141</ele>
        <time>2016-07-11T09:45:07.000Z</time>
      </trkpt>
      <trkpt lat="44.38469" lon="6.35437">
        <ele>1372.5999755859</ele>
        <time>2016-07-11T09:45:12.000Z</time>
      </trkpt>
      <trkpt lat="44.3847" lon="6.35439">
        <ele>1372.8000488281</ele>
        <time>2016-07-11T09:45:16.000Z</time>
      </trkpt>
      <trkpt lat="44.38472" lon="6.35439">
        <ele>1372.8000488281</ele>
        <time>2016-07-11T09:45:20.000Z</time>
      </trkpt>
      <trkpt lat="44.38475" lon="6.35441">
        <ele>1373.1999511719</ele>
        <time>2016-07-11T09:45:26.000Z</time>
      </trkpt>
      <trkpt lat="44.38475" lon="6.35442">
        <ele>1373.1999511719</ele>
        <time>2016-07-11T09:45:32.000Z</time>
      </trkpt>
      <trkpt lat="44.38476" lon="6.35442">
        <ele>1373.4000244141</ele>
        <time>2016-07-11T09:45:36.000Z</time>
      </trkpt>
      <trkpt lat="44.38478" lon="6.35444">
        <ele>1373.5999755859</ele>
        <time>2016-07-11T09:45:38.000Z</time>
      </trkpt>
      <trkpt lat="44.3848" lon="6.35443">
        <ele>1373.5999755859</ele>
        <time>2016-07-11T09:45:40.000Z</time>
      </trkpt>
      <trkpt lat="44.38484" lon="6.35446">
        <ele>1374.1999511719</ele>
        <time>2016-07-11T09:45:46.000Z</time>
      </trkpt>
      <trkpt lat="44.3849" lon="6.35449">
        <ele>1374.8000488281</ele>
        <time>2016-07-11T09:45:53.000Z</time>
      </trkpt>
      <trkpt lat="44.38493" lon="6.35453">
        <ele>1375.1999511719</ele>
        <time>2016-07-11T09:45:58.000Z</time>
      </trkpt>
      <trkpt lat="44.38498" lon="6.35457">
        <ele>1376</ele>
        <time>2016-07-11T09:46:04.000Z</time>
      </trkpt>
      <trkpt lat="44.38507" lon="6.35458">
        <ele>1376.4000244141</ele>
        <time>2016-07-11T09:46:10.000Z</time>
      </trkpt>
      <trkpt lat="44.38514" lon="6.35457">
        <ele>1376.1999511719</ele>
        <time>2016-07-11T09:46:16.000Z</time>
      </trkpt>
      <trkpt lat="44.38523" lon="6.35457">
        <ele>1376.1999511719</ele>
        <time>2016-07-11T09:46:23.000Z</time>
      </trkpt>
      <trkpt lat="44.38526" lon="6.35457">
        <ele>1376</ele>
        <time>2016-07-11T09:46:26.000Z</time>
      </trkpt>
      <trkpt lat="44.38529" lon="6.35453">
        <ele>1375.4000244141</ele>
        <time>2016-07-11T09:46:30.000Z</time>
      </trkpt>
      <trkpt lat="44.38536" lon="6.35451">
        <ele>1375</ele>
        <time>2016-07-11T09:46:35.000Z</time>
      </trkpt>
      <trkpt lat="44.38548" lon="6.35453">
        <ele>1375.4000244141</ele>
        <time>2016-07-11T09:46:43.000Z</time>
      </trkpt>
      <trkpt lat="44.38558" lon="6.35452">
        <ele>1375.5999755859</ele>
        <time>2016-07-11T09:46:51.000Z</time>
      </trkpt>
      <trkpt lat="44.38566" lon="6.35449">
        <ele>1375.1999511719</ele>
        <time>2016-07-11T09:46:57.000Z</time>
      </trkpt>
      <trkpt lat="44.38568" lon="6.35449">
        <ele>1375</ele>
        <time>2016-07-11T09:46:59.000Z</time>
      </trkpt>
      <trkpt lat="44.38574" lon="6.35445">
        <ele>1374.5999755859</ele>
        <time>2016-07-11T09:47:03.000Z</time>
      </trkpt>
      <trkpt lat="44.38581" lon="6.35443">
        <ele>1374.1999511719</ele>
        <time>2016-07-11T09:47:08.000Z</time>
      </trkpt>
      <trkpt lat="44.38591" lon="6.3544">
        <ele>1373.1999511719</ele>
        <time>2016-07-11T09:47:17.000Z</time>
      </trkpt>
      <trkpt lat="44.38596" lon="6.35439">
        <ele>1372.8000488281</ele>
        <time>2016-07-11T09:47:21.000Z</time>
      </trkpt>
      <trkpt lat="44.38604" lon="6.35436">
        <ele>1372.1999511719</ele>
        <time>2016-07-11T09:47:28.000Z</time>
      </trkpt>
      <trkpt lat="44.38607" lon="6.35435">
        <ele>1371.8000488281</ele>
        <time>2016-07-11T09:47:32.000Z</time>
      </trkpt>
      <trkpt lat="44.38608" lon="6.35434">
        <ele>1371.5999755859</ele>
        <time>2016-07-11T09:47:33.000Z</time>
      </trkpt>
      <trkpt lat="44.38609" lon="6.35433">
        <ele>1371.4000244141</ele>
        <time>2016-07-11T09:47:34.000Z</time>
      </trkpt>
      <trkpt lat="44.38612" lon="6.35431">
        <ele>1371</ele>
        <time>2016-07-11T09:47:37.000Z</time>
      </trkpt>
      <trkpt lat="44.38616" lon="6.35429">
        <ele>1370.5999755859</ele>
        <time>2016-07-11T09:47:41.000Z</time>
      </trkpt>
      <trkpt lat="44.38618" lon="6.35429">
        <ele>1370.8000488281</ele>
        <time>2016-07-11T09:47:43.000Z</time>
      </trkpt>
      <trkpt lat="44.38621" lon="6.35427">
        <ele>1370.8000488281</ele>
        <time>2016-07-11T09:47:51.000Z</time>
      </trkpt>
      <trkpt lat="44.38627" lon="6.35424">
        <ele>1371</ele>
        <time>2016-07-11T09:47:56.000Z</time>
      </trkpt>
      <trkpt lat="44.38632" lon="6.35422">
        <ele>1371.1999511719</ele>
        <time>2016-07-11T09:48:00.000Z</time>
      </trkpt>
      <trkpt lat="44.38639" lon="6.3542">
        <ele>1371.5999755859</ele>
        <time>2016-07-11T09:48:05.000Z</time>
      </trkpt>
      <trkpt lat="44.38646" lon="6.35418">
        <ele>1371.5999755859</ele>
        <time>2016-07-11T09:48:11.000Z</time>
      </trkpt>
      <trkpt lat="44.38649" lon="6.35417">
        <ele>1371.5999755859</ele>
        <time>2016-07-11T09:48:13.000Z</time>
      </trkpt>
      <trkpt lat="44.38653" lon="6.35413">
        <ele>1371</ele>
        <time>2016-07-11T09:48:19.000Z</time>
      </trkpt>
      <trkpt lat="44.38653" lon="6.35414">
        <ele>1371</ele>
        <time>2016-07-11T09:48:24.000Z</time>
      </trkpt>
      <trkpt lat="44.38653" lon="6.3541">
        <ele>1370.1999511719</ele>
        <time>2016-07-11T09:48:31.000Z</time>
      </trkpt>
      <trkpt lat="44.38654" lon="6.35409">
        <ele>1369.8000488281</ele>
        <time>2016-07-11T09:48:36.000Z</time>
      </trkpt>
      <trkpt lat="44.38662" lon="6.35412">
        <ele>1371.4000244141</ele>
        <time>2016-07-11T09:48:44.000Z</time>
      </trkpt>
      <trkpt lat="44.3866" lon="6.35413">
        <ele>1371.1999511719</ele>
        <time>2016-07-11T09:48:48.000Z</time>
      </trkpt>
      <trkpt lat="44.38657" lon="6.35412">
        <ele>1370.8000488281</ele>
        <time>2016-07-11T09:48:54.000Z</time>
      </trkpt>
      <trkpt lat="44.38658" lon="6.35411">
        <ele>1370.5999755859</ele>
        <time>2016-07-11T09:49:57.000Z</time>
      </trkpt>
      <trkpt lat="44.38659" lon="6.35411">
        <ele>1370.5999755859</ele>
        <time>2016-07-11T09:50:06.000Z</time>
      </trkpt>
      <trkpt lat="44.38659" lon="6.3541">
        <ele>1370.5999755859</ele>
        <time>2016-07-11T09:50:14.000Z</time>
      </trkpt>
      <trkpt lat="44.38666" lon="6.35409">
        <ele>1370.8000488281</ele>
        <time>2016-07-11T09:50:20.000Z</time>
      </trkpt>
      <trkpt lat="44.38667" lon="6.35409">
        <ele>1370.8000488281</ele>
        <time>2016-07-11T09:50:21.000Z</time>
      </trkpt>
      <trkpt lat="44.38676" lon="6.35401">
        <ele>1369.4000244141</ele>
        <time>2016-07-11T09:50:30.000Z</time>
      </trkpt>
      <trkpt lat="44.38685" lon="6.35396">
        <ele>1369</ele>
        <time>2016-07-11T09:50:38.000Z</time>
      </trkpt>
      <trkpt lat="44.38689" lon="6.35396">
        <ele>1369.4000244141</ele>
        <time>2016-07-11T09:50:41.000Z</time>
      </trkpt>
      <trkpt lat="44.38696" lon="6.35393">
        <ele>1369.8000488281</ele>
        <time>2016-07-11T09:50:47.000Z</time>
      </trkpt>
      <trkpt lat="44.38703" lon="6.35389">
        <ele>1370</ele>
        <time>2016-07-11T09:50:52.000Z</time>
      </trkpt>
      <trkpt lat="44.3871" lon="6.35383">
        <ele>1370.1999511719</ele>
        <time>2016-07-11T09:50:59.000Z</time>
      </trkpt>
      <trkpt lat="44.38712" lon="6.35382">
        <ele>1370.1999511719</ele>
        <time>2016-07-11T09:51:00.000Z</time>
      </trkpt>
      <trkpt lat="44.38718" lon="6.35377">
        <ele>1370.4000244141</ele>
        <time>2016-07-11T09:51:06.000Z</time>
      </trkpt>
      <trkpt lat="44.38731" lon="6.35372">
        <ele>1371</ele>
        <time>2016-07-11T09:51:15.000Z</time>
      </trkpt>
      <trkpt lat="44.38742" lon="6.35366">
        <ele>1371.4000244141</ele>
        <time>2016-07-11T09:51:23.000Z</time>
      </trkpt>
      <trkpt lat="44.38749" lon="6.35362">
        <ele>1371.4000244141</ele>
        <time>2016-07-11T09:51:28.000Z</time>
      </trkpt>
      <trkpt lat="44.38752" lon="6.35361">
        <ele>1371</ele>
        <time>2016-07-11T09:51:30.000Z</time>
      </trkpt>
      <trkpt lat="44.38774" lon="6.35359">
        <ele>1369.8000488281</ele>
        <time>2016-07-11T09:51:47.000Z</time>
      </trkpt>
      <trkpt lat="44.38779" lon="6.35357">
        <ele>1369.4000244141</ele>
        <time>2016-07-11T09:51:51.000Z</time>
      </trkpt>
      <trkpt lat="44.38789" lon="6.35349">
        <ele>1368.8000488281</ele>
        <time>2016-07-11T09:52:00.000Z</time>
      </trkpt>
      <trkpt lat="44.38799" lon="6.35341">
        <ele>1368.5999755859</ele>
        <time>2016-07-11T09:52:07.000Z</time>
      </trkpt>
      <trkpt lat="44.38807" lon="6.35335">
        <ele>1368.4000244141</ele>
        <time>2016-07-11T09:52:14.000Z</time>
      </trkpt>
      <trkpt lat="44.38813" lon="6.35328">
        <ele>1367.8000488281</ele>
        <time>2016-07-11T09:52:20.000Z</time>
      </trkpt>
      <trkpt lat="44.3882" lon="6.35322">
        <ele>1367.4000244141</ele>
        <time>2016-07-11T09:52:26.000Z</time>
      </trkpt>
      <trkpt lat="44.38829" lon="6.35314">
        <ele>1366.8000488281</ele>
        <time>2016-07-11T09:52:34.000Z</time>
      </trkpt>
      <trkpt lat="44.3883" lon="6.35312">
        <ele>1366.5999755859</ele>
        <time>2016-07-11T09:52:35.000Z</time>
      </trkpt>
      <trkpt lat="44.38837" lon="6.35306">
        <ele>1366.1999511719</ele>
        <time>2016-07-11T09:52:43.000Z</time>
      </trkpt>
      <trkpt lat="44.38843" lon="6.35298">
        <ele>1365.8000488281</ele>
        <time>2016-07-11T09:52:50.000Z</time>
      </trkpt>
      <trkpt lat="44.38845" lon="6.35296">
        <ele>1365.5999755859</ele>
        <time>2016-07-11T09:52:52.000Z</time>
      </trkpt>
      <trkpt lat="44.3885" lon="6.3529">
        <ele>1364.8000488281</ele>
        <time>2016-07-11T09:52:57.000Z</time>
      </trkpt>
      <trkpt lat="44.38856" lon="6.35281">
        <ele>1363.5999755859</ele>
        <time>2016-07-11T09:53:04.000Z</time>
      </trkpt>
      <trkpt lat="44.38857" lon="6.3528">
        <ele>1363.5999755859</ele>
        <time>2016-07-11T09:53:05.000Z</time>
      </trkpt>
      <trkpt lat="44.38862" lon="6.35273">
        <ele>1362.5999755859</ele>
        <time>2016-07-11T09:53:12.000Z</time>
      </trkpt>
      <trkpt lat="44.3887" lon="6.3527">
        <ele>1361.8000488281</ele>
        <time>2016-07-11T09:53:19.000Z</time>
      </trkpt>
      <trkpt lat="44.38876" lon="6.35265">
        <ele>1360.8000488281</ele>
        <time>2016-07-11T09:53:25.000Z</time>
      </trkpt>
      <trkpt lat="44.38877" lon="6.35265">
        <ele>1360.5999755859</ele>
        <time>2016-07-11T09:53:26.000Z</time>
      </trkpt>
      <trkpt lat="44.38883" lon="6.35262">
        <ele>1360</ele>
        <time>2016-07-11T09:53:32.000Z</time>
      </trkpt>
      <trkpt lat="44.38886" lon="6.3526">
        <ele>1359.4000244141</ele>
        <time>2016-07-11T09:53:35.000Z</time>
      </trkpt>
      <trkpt lat="44.38896" lon="6.35253">
        <ele>1358.1999511719</ele>
        <time>2016-07-11T09:53:43.000Z</time>
      </trkpt>
      <trkpt lat="44.389" lon="6.35247">
        <ele>1357.4000244141</ele>
        <time>2016-07-11T09:53:48.000Z</time>
      </trkpt>
      <trkpt lat="44.38907" lon="6.35235">
        <ele>1355.4000244141</ele>
        <time>2016-07-11T09:55:55.000Z</time>
      </trkpt>
      <trkpt lat="44.38908" lon="6.35235">
        <ele>1355.5999755859</ele>
        <time>2016-07-11T09:56:13.000Z</time>
      </trkpt>
      <trkpt lat="44.3891" lon="6.35236">
        <ele>1355.5999755859</ele>
        <time>2016-07-11T09:56:19.000Z</time>
      </trkpt>
      <trkpt lat="44.38909" lon="6.35237">
        <ele>1355.8000488281</ele>
        <time>2016-07-11T09:56:23.000Z</time>
      </trkpt>
      <trkpt lat="44.38911" lon="6.35239">
        <ele>1356</ele>
        <time>2016-07-11T09:56:28.000Z</time>
      </trkpt>
      <trkpt lat="44.38911" lon="6.3524">
        <ele>1356.1999511719</ele>
        <time>2016-07-11T09:56:34.000Z</time>
      </trkpt>
      <trkpt lat="44.38911" lon="6.35241">
        <ele>1356.1999511719</ele>
        <time>2016-07-11T09:56:39.000Z</time>
      </trkpt>
      <trkpt lat="44.38914" lon="6.35248">
        <ele>1357.1999511719</ele>
        <time>2016-07-11T09:56:49.000Z</time>
      </trkpt>
      <trkpt lat="44.38919" lon="6.35253">
        <ele>1357.5999755859</ele>
        <time>2016-07-11T09:56:54.000Z</time>
      </trkpt>
      <trkpt lat="44.38928" lon="6.35262">
        <ele>1358.5999755859</ele>
        <time>2016-07-11T09:57:03.000Z</time>
      </trkpt>
      <trkpt lat="44.38933" lon="6.35267">
        <ele>1359</ele>
        <time>2016-07-11T09:57:09.000Z</time>
      </trkpt>
      <trkpt lat="44.38935" lon="6.35269">
        <ele>1359.4000244141</ele>
        <time>2016-07-11T09:57:11.000Z</time>
      </trkpt>
      <trkpt lat="44.38937" lon="6.35274">
        <ele>1360</ele>
        <time>2016-07-11T09:57:16.000Z</time>
      </trkpt>
      <trkpt lat="44.38938" lon="6.35276">
        <ele>1360.1999511719</ele>
        <time>2016-07-11T09:57:17.000Z</time>
      </trkpt>
      <trkpt lat="44.38943" lon="6.35285">
        <ele>1361.1999511719</ele>
        <time>2016-07-11T09:57:24.000Z</time>
      </trkpt>
      <trkpt lat="44.38944" lon="6.35286">
        <ele>1361.4000244141</ele>
        <time>2016-07-11T09:57:25.000Z</time>
      </trkpt>
      <trkpt lat="44.3895" lon="6.35293">
        <ele>1362.1999511719</ele>
        <time>2016-07-11T09:57:32.000Z</time>
      </trkpt>
      <trkpt lat="44.38952" lon="6.35296">
        <ele>1362.5999755859</ele>
        <time>2016-07-11T09:57:35.000Z</time>
      </trkpt>
      <trkpt lat="44.38956" lon="6.35304">
        <ele>1363.5999755859</ele>
        <time>2016-07-11T09:57:42.000Z</time>
      </trkpt>
      <trkpt lat="44.38957" lon="6.35307">
        <ele>1364</ele>
        <time>2016-07-11T09:57:53.000Z</time>
      </trkpt>
      <trkpt lat="44.38958" lon="6.35315">
        <ele>1365.1999511719</ele>
        <time>2016-07-11T09:57:59.000Z</time>
      </trkpt>
      <trkpt lat="44.3896" lon="6.35322">
        <ele>1366.5999755859</ele>
        <time>2016-07-11T09:58:04.000Z</time>
      </trkpt>
      <trkpt lat="44.38962" lon="6.35331">
        <ele>1368.1999511719</ele>
        <time>2016-07-11T09:58:11.000Z</time>
      </trkpt>
      <trkpt lat="44.38963" lon="6.35332">
        <ele>1368.5999755859</ele>
        <time>2016-07-11T09:58:12.000Z</time>
      </trkpt>
      <trkpt lat="44.38963" lon="6.35341">
        <ele>1370</ele>
        <time>2016-07-11T09:58:19.000Z</time>
      </trkpt>
      <trkpt lat="44.38964" lon="6.35343">
        <ele>1370.4000244141</ele>
        <time>2016-07-11T09:58:20.000Z</time>
      </trkpt>
      <trkpt lat="44.38964" lon="6.35346">
        <ele>1371</ele>
        <time>2016-07-11T09:58:23.000Z</time>
      </trkpt>
      <trkpt lat="44.38966" lon="6.35353">
        <ele>1372.1999511719</ele>
        <time>2016-07-11T09:58:29.000Z</time>
      </trkpt>
      <trkpt lat="44.38967" lon="6.35358">
        <ele>1373</ele>
        <time>2016-07-11T09:58:34.000Z</time>
      </trkpt>
      <trkpt lat="44.38967" lon="6.35362">
        <ele>1373.8000488281</ele>
        <time>2016-07-11T09:58:37.000Z</time>
      </trkpt>
      <trkpt lat="44.38969" lon="6.35371">
        <ele>1375.4000244141</ele>
        <time>2016-07-11T09:58:44.000Z</time>
      </trkpt>
      <trkpt lat="44.3897" lon="6.35378">
        <ele>1376.5999755859</ele>
        <time>2016-07-11T09:58:49.000Z</time>
      </trkpt>
      <trkpt lat="44.38976" lon="6.35385">
        <ele>1378</ele>
        <time>2016-07-11T09:58:57.000Z</time>
      </trkpt>
      <trkpt lat="44.38977" lon="6.35386">
        <ele>1378.1999511719</ele>
        <time>2016-07-11T09:58:58.000Z</time>
      </trkpt>
      <trkpt lat="44.3898" lon="6.3539">
        <ele>1378.8000488281</ele>
        <time>2016-07-11T09:59:02.000Z</time>
      </trkpt>
      <trkpt lat="44.38987" lon="6.35392">
        <ele>1379.4000244141</ele>
        <time>2016-07-11T09:59:10.000Z</time>
      </trkpt>
      <trkpt lat="44.38989" lon="6.35394">
        <ele>1380</ele>
        <time>2016-07-11T09:59:15.000Z</time>
      </trkpt>
      <trkpt lat="44.38993" lon="6.35399">
        <ele>1381</ele>
        <time>2016-07-11T09:59:35.000Z</time>
      </trkpt>
      <trkpt lat="44.39003" lon="6.35404">
        <ele>1382.4000244141</ele>
        <time>2016-07-11T09:59:42.000Z</time>
      </trkpt>
      <trkpt lat="44.3901" lon="6.35406">
        <ele>1383</ele>
        <time>2016-07-11T09:59:47.000Z</time>
      </trkpt>
      <trkpt lat="44.39018" lon="6.35412">
        <ele>1384.4000244141</ele>
        <time>2016-07-11T09:59:56.000Z</time>
      </trkpt>
      <trkpt lat="44.39021" lon="6.35415">
        <ele>1385.1999511719</ele>
        <time>2016-07-11T09:59:59.000Z</time>
      </trkpt>
      <trkpt lat="44.39022" lon="6.35415">
        <ele>1385.1999511719</ele>
        <time>2016-07-11T10:00:00.000Z</time>
      </trkpt>
      <trkpt lat="44.39026" lon="6.35425">
        <ele>1387.4000244141</ele>
        <time>2016-07-11T10:00:06.000Z</time>
      </trkpt>
      <trkpt lat="44.39026" lon="6.35435">
        <ele>1389.4000244141</ele>
        <time>2016-07-11T10:00:11.000Z</time>
      </trkpt>
      <trkpt lat="44.39026" lon="6.35446">
        <ele>1391.5999755859</ele>
        <time>2016-07-11T10:00:18.000Z</time>
      </trkpt>
      <trkpt lat="44.39023" lon="6.35456">
        <ele>1393.5999755859</ele>
        <time>2016-07-11T10:00:26.000Z</time>
      </trkpt>
      <trkpt lat="44.39023" lon="6.35457">
        <ele>1393.8000488281</ele>
        <time>2016-07-11T10:00:27.000Z</time>
      </trkpt>
      <trkpt lat="44.39022" lon="6.3547">
        <ele>1396.4000244141</ele>
        <time>2016-07-11T10:00:34.000Z</time>
      </trkpt>
      <trkpt lat="44.39022" lon="6.35471">
        <ele>1396.5999755859</ele>
        <time>2016-07-11T10:00:35.000Z</time>
      </trkpt>
      <trkpt lat="44.39023" lon="6.35485">
        <ele>1399.4000244141</ele>
        <time>2016-07-11T10:00:43.000Z</time>
      </trkpt>
      <trkpt lat="44.39025" lon="6.35496">
        <ele>1401.5999755859</ele>
        <time>2016-07-11T10:00:49.000Z</time>
      </trkpt>
      <trkpt lat="44.39026" lon="6.35505">
        <ele>1403.1999511719</ele>
        <time>2016-07-11T10:00:53.000Z</time>
      </trkpt>
      <trkpt lat="44.39029" lon="6.35512">
        <ele>1404.8000488281</ele>
        <time>2016-07-11T10:00:58.000Z</time>
      </trkpt>
      <trkpt lat="44.39029" lon="6.35519">
        <ele>1406.1999511719</ele>
        <time>2016-07-11T10:01:02.000Z</time>
      </trkpt>
      <trkpt lat="44.3903" lon="6.35523">
        <ele>1407</ele>
        <time>2016-07-11T10:01:06.000Z</time>
      </trkpt>
      <trkpt lat="44.3903" lon="6.35527">
        <ele>1407.8000488281</ele>
        <time>2016-07-11T10:01:08.000Z</time>
      </trkpt>
      <trkpt lat="44.39031" lon="6.35531">
        <ele>1408.5999755859</ele>
        <time>2016-07-11T10:01:10.000Z</time>
      </trkpt>
      <trkpt lat="44.39033" lon="6.35536">
        <ele>1409.5999755859</ele>
        <time>2016-07-11T10:01:14.000Z</time>
      </trkpt>
      <trkpt lat="44.39033" lon="6.35538">
        <ele>1410.1999511719</ele>
        <time>2016-07-11T10:01:16.000Z</time>
      </trkpt>
      <trkpt lat="44.39034" lon="6.35546">
        <ele>1411.8000488281</ele>
        <time>2016-07-11T10:01:20.000Z</time>
      </trkpt>
      <trkpt lat="44.39034" lon="6.35549">
        <ele>1412.4000244141</ele>
        <time>2016-07-11T10:01:22.000Z</time>
      </trkpt>
      <trkpt lat="44.39035" lon="6.35555">
        <ele>1413.5999755859</ele>
        <time>2016-07-11T10:01:26.000Z</time>
      </trkpt>
      <trkpt lat="44.39037" lon="6.3556">
        <ele>1414.8000488281</ele>
        <time>2016-07-11T10:01:36.000Z</time>
      </trkpt>
      <trkpt lat="44.39039" lon="6.35565">
        <ele>1415.8000488281</ele>
        <time>2016-07-11T10:01:51.000Z</time>
      </trkpt>
      <trkpt lat="44.39043" lon="6.35575">
        <ele>1418</ele>
        <time>2016-07-11T10:02:38.000Z</time>
      </trkpt>
      <trkpt lat="44.39043" lon="6.35573">
        <ele>1417.8000488281</ele>
        <time>2016-07-11T10:02:45.000Z</time>
      </trkpt>
      <trkpt lat="44.39043" lon="6.35577">
        <ele>1418.4000244141</ele>
        <time>2016-07-11T10:03:35.000Z</time>
      </trkpt>
      <trkpt lat="44.39044" lon="6.35579">
        <ele>1418.8000488281</ele>
        <time>2016-07-11T10:03:40.000Z</time>
      </trkpt>
      <trkpt lat="44.39046" lon="6.35581">
        <ele>1419.1999511719</ele>
        <time>2016-07-11T10:03:48.000Z</time>
      </trkpt>
      <trkpt lat="44.39047" lon="6.35582">
        <ele>1419.5999755859</ele>
        <time>2016-07-11T10:03:53.000Z</time>
      </trkpt>
      <trkpt lat="44.39049" lon="6.35583">
        <ele>1420</ele>
        <time>2016-07-11T10:03:58.000Z</time>
      </trkpt>
      <trkpt lat="44.3905" lon="6.35585">
        <ele>1420.4000244141</ele>
        <time>2016-07-11T10:04:02.000Z</time>
      </trkpt>
      <trkpt lat="44.39051" lon="6.35589">
        <ele>1421.1999511719</ele>
        <time>2016-07-11T10:04:07.000Z</time>
      </trkpt>
      <trkpt lat="44.39054" lon="6.35593">
        <ele>1422.1999511719</ele>
        <time>2016-07-11T10:04:12.000Z</time>
      </trkpt>
      <trkpt lat="44.39056" lon="6.35597">
        <ele>1423</ele>
        <time>2016-07-11T10:04:17.000Z</time>
      </trkpt>
      <trkpt lat="44.39057" lon="6.356">
        <ele>1423.5999755859</ele>
        <time>2016-07-11T10:04:19.000Z</time>
      </trkpt>
      <trkpt lat="44.39056" lon="6.35605">
        <ele>1424.4000244141</ele>
        <time>2016-07-11T10:04:25.000Z</time>
      </trkpt>
      <trkpt lat="44.39058" lon="6.35607">
        <ele>1425</ele>
        <time>2016-07-11T10:04:29.000Z</time>
      </trkpt>
      <trkpt lat="44.39061" lon="6.35609">
        <ele>1425.4000244141</ele>
        <time>2016-07-11T10:04:34.000Z</time>
      </trkpt>
      <trkpt lat="44.39063" lon="6.3561">
        <ele>1426</ele>
        <time>2016-07-11T10:04:41.000Z</time>
      </trkpt>
      <trkpt lat="44.39066" lon="6.35611">
        <ele>1426.4000244141</ele>
        <time>2016-07-11T10:05:24.000Z</time>
      </trkpt>
      <trkpt lat="44.39066" lon="6.3561">
        <ele>1426.4000244141</ele>
        <time>2016-07-11T10:05:30.000Z</time>
      </trkpt>
      <trkpt lat="44.39069" lon="6.35611">
        <ele>1426.8000488281</ele>
        <time>2016-07-11T10:05:35.000Z</time>
      </trkpt>
      <trkpt lat="44.39075" lon="6.35612">
        <ele>1427.5999755859</ele>
        <time>2016-07-11T10:05:41.000Z</time>
      </trkpt>
      <trkpt lat="44.39081" lon="6.35612">
        <ele>1428.4000244141</ele>
        <time>2016-07-11T10:05:47.000Z</time>
      </trkpt>
      <trkpt lat="44.39082" lon="6.35612">
        <ele>1428.4000244141</ele>
        <time>2016-07-11T10:05:48.000Z</time>
      </trkpt>
      <trkpt lat="44.3909" lon="6.3561">
        <ele>1428.8000488281</ele>
        <time>2016-07-11T10:05:55.000Z</time>
      </trkpt>
      <trkpt lat="44.39095" lon="6.3561">
        <ele>1429.1999511719</ele>
        <time>2016-07-11T10:05:59.000Z</time>
      </trkpt>
      <trkpt lat="44.39102" lon="6.35609">
        <ele>1429.8000488281</ele>
        <time>2016-07-11T10:06:05.000Z</time>
      </trkpt>
      <trkpt lat="44.39108" lon="6.35609">
        <ele>1430.1999511719</ele>
        <time>2016-07-11T10:06:10.000Z</time>
      </trkpt>
      <trkpt lat="44.39115" lon="6.3561">
        <ele>1431.1999511719</ele>
        <time>2016-07-11T10:06:16.000Z</time>
      </trkpt>
      <trkpt lat="44.39116" lon="6.3561">
        <ele>1431.4000244141</ele>
        <time>2016-07-11T10:06:17.000Z</time>
      </trkpt>
      <trkpt lat="44.39122" lon="6.35611">
        <ele>1432.1999511719</ele>
        <time>2016-07-11T10:06:21.000Z</time>
      </trkpt>
      <trkpt lat="44.39125" lon="6.35611">
        <ele>1432.8000488281</ele>
        <time>2016-07-11T10:06:26.000Z</time>
      </trkpt>
      <trkpt lat="44.39127" lon="6.35609">
        <ele>1432.8000488281</ele>
        <time>2016-07-11T10:06:37.000Z</time>
      </trkpt>
      <trkpt lat="44.39133" lon="6.35611">
        <ele>1433.8000488281</ele>
        <time>2016-07-11T10:06:58.000Z</time>
      </trkpt>
      <trkpt lat="44.3914" lon="6.35609">
        <ele>1434.1999511719</ele>
        <time>2016-07-11T10:07:04.000Z</time>
      </trkpt>
      <trkpt lat="44.39148" lon="6.35606">
        <ele>1435</ele>
        <time>2016-07-11T10:07:11.000Z</time>
      </trkpt>
      <trkpt lat="44.39158" lon="6.35606">
        <ele>1436.1999511719</ele>
        <time>2016-07-11T10:07:19.000Z</time>
      </trkpt>
      <trkpt lat="44.39167" lon="6.35608">
        <ele>1437.5999755859</ele>
        <time>2016-07-11T10:07:26.000Z</time>
      </trkpt>
      <trkpt lat="44.39178" lon="6.3561">
        <ele>1439.1999511719</ele>
        <time>2016-07-11T10:07:35.000Z</time>
      </trkpt>
      <trkpt lat="44.39189" lon="6.35611">
        <ele>1440.4000244141</ele>
        <time>2016-07-11T10:07:43.000Z</time>
      </trkpt>
      <trkpt lat="44.39201" lon="6.3561">
        <ele>1441.5999755859</ele>
        <time>2016-07-11T10:07:53.000Z</time>
      </trkpt>
      <trkpt lat="44.39208" lon="6.35609">
        <ele>1442.1999511719</ele>
        <time>2016-07-11T10:08:01.000Z</time>
      </trkpt>
      <trkpt lat="44.3921" lon="6.35609">
        <ele>1442.4000244141</ele>
        <time>2016-07-11T10:08:07.000Z</time>
      </trkpt>
      <trkpt lat="44.39214" lon="6.35608">
        <ele>1442.8000488281</ele>
        <time>2016-07-11T10:08:13.000Z</time>
      </trkpt>
      <trkpt lat="44.39217" lon="6.35607">
        <ele>1443</ele>
        <time>2016-07-11T10:08:18.000Z</time>
      </trkpt>
      <trkpt lat="44.39218" lon="6.35607">
        <ele>1443.1999511719</ele>
        <time>2016-07-11T10:08:19.000Z</time>
      </trkpt>
      <trkpt lat="44.39219" lon="6.35608">
        <ele>1443.4000244141</ele>
        <time>2016-07-11T10:08:20.000Z</time>
      </trkpt>
      <trkpt lat="44.39221" lon="6.35614">
        <ele>1444.8000488281</ele>
        <time>2016-07-11T10:08:24.000Z</time>
      </trkpt>
      <trkpt lat="44.39221" lon="6.35619">
        <ele>1446</ele>
        <time>2016-07-11T10:08:31.000Z</time>
      </trkpt>
      <trkpt lat="44.39221" lon="6.35617">
        <ele>1445.5999755859</ele>
        <time>2016-07-11T10:08:37.000Z</time>
      </trkpt>
      <trkpt lat="44.39224" lon="6.35619">
        <ele>1446.1999511719</ele>
        <time>2016-07-11T10:08:47.000Z</time>
      </trkpt>
      <trkpt lat="44.39223" lon="6.35619">
        <ele>1446</ele>
        <time>2016-07-11T10:08:55.000Z</time>
      </trkpt>
      <trkpt lat="44.39223" lon="6.35618">
        <ele>1445.8000488281</ele>
        <time>2016-07-11T10:09:02.000Z</time>
      </trkpt>
      <trkpt lat="44.39225" lon="6.35619">
        <ele>1446.4000244141</ele>
        <time>2016-07-11T10:09:12.000Z</time>
      </trkpt>
      <trkpt lat="44.39224" lon="6.35617">
        <ele>1445.8000488281</ele>
        <time>2016-07-11T10:09:25.000Z</time>
      </trkpt>
      <trkpt lat="44.39226" lon="6.35622">
        <ele>1447.1999511719</ele>
        <time>2016-07-11T10:09:42.000Z</time>
      </trkpt>
      <trkpt lat="44.39228" lon="6.35627">
        <ele>1448.4000244141</ele>
        <time>2016-07-11T10:09:48.000Z</time>
      </trkpt>
      <trkpt lat="44.39229" lon="6.35632">
        <ele>1449.5999755859</ele>
        <time>2016-07-11T10:09:53.000Z</time>
      </trkpt>
      <trkpt lat="44.39228" lon="6.35637">
        <ele>1450.5999755859</ele>
        <time>2016-07-11T10:09:57.000Z</time>
      </trkpt>
      <trkpt lat="44.39229" lon="6.35643">
        <ele>1451.8000488281</ele>
        <time>2016-07-11T10:10:02.000Z</time>
      </trkpt>
      <trkpt lat="44.39228" lon="6.35647">
        <ele>1452.5999755859</ele>
        <time>2016-07-11T10:10:05.000Z</time>
      </trkpt>
      <trkpt lat="44.39229" lon="6.35654">
        <ele>1454.1999511719</ele>
        <time>2016-07-11T10:10:09.000Z</time>
      </trkpt>
      <trkpt lat="44.39227" lon="6.35662">
        <ele>1456</ele>
        <time>2016-07-11T10:10:14.000Z</time>
      </trkpt>
      <trkpt lat="44.39227" lon="6.35667">
        <ele>1457.1999511719</ele>
        <time>2016-07-11T10:10:18.000Z</time>
      </trkpt>
      <trkpt lat="44.39228" lon="6.3567">
        <ele>1458</ele>
        <time>2016-07-11T10:10:20.000Z</time>
      </trkpt>
      <trkpt lat="44.3923" lon="6.35677">
        <ele>1459.8000488281</ele>
        <time>2016-07-11T10:10:25.000Z</time>
      </trkpt>
      <trkpt lat="44.39234" lon="6.35681">
        <ele>1461.4000244141</ele>
        <time>2016-07-11T10:10:31.000Z</time>
      </trkpt>
      <trkpt lat="44.39235" lon="6.35681">
        <ele>1461.5999755859</ele>
        <time>2016-07-11T10:10:32.000Z</time>
      </trkpt>
      <trkpt lat="44.39236" lon="6.35683">
        <ele>1462</ele>
        <time>2016-07-11T10:10:34.000Z</time>
      </trkpt>
      <trkpt lat="44.39238" lon="6.35684">
        <ele>1462.4000244141</ele>
        <time>2016-07-11T10:10:36.000Z</time>
      </trkpt>
      <trkpt lat="44.39239" lon="6.35686">
        <ele>1463.1999511719</ele>
        <time>2016-07-11T10:10:39.000Z</time>
      </trkpt>
      <trkpt lat="44.39242" lon="6.35688">
        <ele>1464</ele>
        <time>2016-07-11T10:10:43.000Z</time>
      </trkpt>
      <trkpt lat="44.39245" lon="6.35692">
        <ele>1465.1999511719</ele>
        <time>2016-07-11T10:10:47.000Z</time>
      </trkpt>
      <trkpt lat="44.39246" lon="6.35694">
        <ele>1465.8000488281</ele>
        <time>2016-07-11T10:10:49.000Z</time>
      </trkpt>
      <trkpt lat="44.39246" lon="6.35695">
        <ele>1466</ele>
        <time>2016-07-11T10:10:53.000Z</time>
      </trkpt>
      <trkpt lat="44.39249" lon="6.35699">
        <ele>1467.4000244141</ele>
        <time>2016-07-11T10:11:03.000Z</time>
      </trkpt>
      <trkpt lat="44.3925" lon="6.357">
        <ele>1467.8000488281</ele>
        <time>2016-07-11T10:11:04.000Z</time>
      </trkpt>
      <trkpt lat="44.39252" lon="6.35705">
        <ele>1469.4000244141</ele>
        <time>2016-07-11T10:11:09.000Z</time>
      </trkpt>
      <trkpt lat="44.39254" lon="6.35708">
        <ele>1470.1999511719</ele>
        <time>2016-07-11T10:11:12.000Z</time>
      </trkpt>
      <trkpt lat="44.39256" lon="6.35712">
        <ele>1471.4000244141</ele>
        <time>2016-07-11T10:11:16.000Z</time>
      </trkpt>
      <trkpt lat="44.39261" lon="6.35717">
        <ele>1473.1999511719</ele>
        <time>2016-07-11T10:11:21.000Z</time>
      </trkpt>
      <trkpt lat="44.39263" lon="6.35729">
        <ele>1476.4000244141</ele>
        <time>2016-07-11T10:11:28.000Z</time>
      </trkpt>
      <trkpt lat="44.39264" lon="6.35734">
        <ele>1477.8000488281</ele>
        <time>2016-07-11T10:11:31.000Z</time>
      </trkpt>
      <trkpt lat="44.39265" lon="6.35737">
        <ele>1478.4000244141</ele>
        <time>2016-07-11T10:11:33.000Z</time>
      </trkpt>
      <trkpt lat="44.3927" lon="6.35744">
        <ele>1480</ele>
        <time>2016-07-11T10:11:38.000Z</time>
      </trkpt>
      <trkpt lat="44.39275" lon="6.35752">
        <ele>1482.1999511719</ele>
        <time>2016-07-11T10:11:45.000Z</time>
      </trkpt>
      <trkpt lat="44.39275" lon="6.35755">
        <ele>1482.5999755859</ele>
        <time>2016-07-11T10:11:47.000Z</time>
      </trkpt>
      <trkpt lat="44.39279" lon="6.35762">
        <ele>1484.4000244141</ele>
        <time>2016-07-11T10:11:53.000Z</time>
      </trkpt>
      <trkpt lat="44.39282" lon="6.35772">
        <ele>1486.1999511719</ele>
        <time>2016-07-11T10:11:59.000Z</time>
      </trkpt>
      <trkpt lat="44.39282" lon="6.35784">
        <ele>1488.4000244141</ele>
        <time>2016-07-11T10:12:03.000Z</time>
      </trkpt>
      <trkpt lat="44.39282" lon="6.3579">
        <ele>1489.5999755859</ele>
        <time>2016-07-11T10:12:06.000Z</time>
      </trkpt>
      <trkpt lat="44.39282" lon="6.35791">
        <ele>1489.8000488281</ele>
        <time>2016-07-11T10:12:07.000Z</time>
      </trkpt>
      <trkpt lat="44.39284" lon="6.35798">
        <ele>1491</ele>
        <time>2016-07-11T10:12:12.000Z</time>
      </trkpt>
      <trkpt lat="44.39291" lon="6.35808">
        <ele>1492.4000244141</ele>
        <time>2016-07-11T10:12:40.000Z</time>
      </trkpt>
      <trkpt lat="44.39292" lon="6.35809">
        <ele>1492.8000488281</ele>
        <time>2016-07-11T10:12:41.000Z</time>
      </trkpt>
      <trkpt lat="44.39293" lon="6.3581">
        <ele>1492.8000488281</ele>
        <time>2016-07-11T10:12:42.000Z</time>
      </trkpt>
      <trkpt lat="44.39295" lon="6.35816">
        <ele>1493.8000488281</ele>
        <time>2016-07-11T10:12:47.000Z</time>
      </trkpt>
      <trkpt lat="44.39296" lon="6.35817">
        <ele>1494.1999511719</ele>
        <time>2016-07-11T10:12:48.000Z</time>
      </trkpt>
      <trkpt lat="44.39298" lon="6.35819">
        <ele>1494.4000244141</ele>
        <time>2016-07-11T10:12:51.000Z</time>
      </trkpt>
      <trkpt lat="44.39301" lon="6.35823">
        <ele>1495.4000244141</ele>
        <time>2016-07-11T10:12:55.000Z</time>
      </trkpt>
      <trkpt lat="44.39303" lon="6.35827">
        <ele>1496.1999511719</ele>
        <time>2016-07-11T10:12:58.000Z</time>
      </trkpt>
      <trkpt lat="44.39306" lon="6.35847">
        <ele>1501</ele>
        <time>2016-07-11T10:13:05.000Z</time>
      </trkpt>
      <trkpt lat="44.39306" lon="6.35849">
        <ele>1501.4000244141</ele>
        <time>2016-07-11T10:13:06.000Z</time>
      </trkpt>
      <trkpt lat="44.39307" lon="6.35854">
        <ele>1502.8000488281</ele>
        <time>2016-07-11T10:13:10.000Z</time>
      </trkpt>
      <trkpt lat="44.39308" lon="6.35859">
        <ele>1503.8000488281</ele>
        <time>2016-07-11T10:13:13.000Z</time>
      </trkpt>
      <trkpt lat="44.39311" lon="6.35869">
        <ele>1506.1999511719</ele>
        <time>2016-07-11T10:13:19.000Z</time>
      </trkpt>
      <trkpt lat="44.39312" lon="6.35871">
        <ele>1506.4000244141</ele>
        <time>2016-07-11T10:13:20.000Z</time>
      </trkpt>
      <trkpt lat="44.39319" lon="6.35882">
        <ele>1509</ele>
        <time>2016-07-11T10:13:29.000Z</time>
      </trkpt>
      <trkpt lat="44.39324" lon="6.35885">
        <ele>1509.5999755859</ele>
        <time>2016-07-11T10:13:33.000Z</time>
      </trkpt>
      <trkpt lat="44.39331" lon="6.35889">
        <ele>1510.1999511719</ele>
        <time>2016-07-11T10:13:40.000Z</time>
      </trkpt>
      <trkpt lat="44.39332" lon="6.3589">
        <ele>1510.4000244141</ele>
        <time>2016-07-11T10:13:41.000Z</time>
      </trkpt>
      <trkpt lat="44.39335" lon="6.35894">
        <ele>1511.1999511719</ele>
        <time>2016-07-11T10:13:45.000Z</time>
      </trkpt>
      <trkpt lat="44.39339" lon="6.35897">
        <ele>1511.8000488281</ele>
        <time>2016-07-11T10:13:51.000Z</time>
      </trkpt>
      <trkpt lat="44.39346" lon="6.35903">
        <ele>1512.8000488281</ele>
        <time>2016-07-11T10:13:58.000Z</time>
      </trkpt>
      <trkpt lat="44.39351" lon="6.3591">
        <ele>1514.4000244141</ele>
        <time>2016-07-11T10:14:03.000Z</time>
      </trkpt>
      <trkpt lat="44.39351" lon="6.35922">
        <ele>1517.4000244141</ele>
        <time>2016-07-11T10:14:10.000Z</time>
      </trkpt>
      <trkpt lat="44.39351" lon="6.35924">
        <ele>1517.8000488281</ele>
        <time>2016-07-11T10:14:11.000Z</time>
      </trkpt>
      <trkpt lat="44.39354" lon="6.35935">
        <ele>1520.4000244141</ele>
        <time>2016-07-11T10:14:18.000Z</time>
      </trkpt>
      <trkpt lat="44.39359" lon="6.35945">
        <ele>1522.5999755859</ele>
        <time>2016-07-11T10:14:25.000Z</time>
      </trkpt>
      <trkpt lat="44.39362" lon="6.35957">
        <ele>1525.1999511719</ele>
        <time>2016-07-11T10:14:33.000Z</time>
      </trkpt>
      <trkpt lat="44.39363" lon="6.35958">
        <ele>1525.4000244141</ele>
        <time>2016-07-11T10:14:34.000Z</time>
      </trkpt>
      <trkpt lat="44.39365" lon="6.35961">
        <ele>1526.1999511719</ele>
        <time>2016-07-11T10:14:37.000Z</time>
      </trkpt>
      <trkpt lat="44.39371" lon="6.35972">
        <ele>1529</ele>
        <time>2016-07-11T10:14:47.000Z</time>
      </trkpt>
      <trkpt lat="44.39373" lon="6.35974">
        <ele>1529.8000488281</ele>
        <time>2016-07-11T10:14:50.000Z</time>
      </trkpt>
      <trkpt lat="44.39375" lon="6.35976">
        <ele>1530.4000244141</ele>
        <time>2016-07-11T10:14:52.000Z</time>
      </trkpt>
      <trkpt lat="44.39381" lon="6.35981">
        <ele>1531.8000488281</ele>
        <time>2016-07-11T10:14:57.000Z</time>
      </trkpt>
      <trkpt lat="44.39384" lon="6.35983">
        <ele>1532.1999511719</ele>
        <time>2016-07-11T10:15:04.000Z</time>
      </trkpt>
      <trkpt lat="44.39386" lon="6.35985">
        <ele>1532.8000488281</ele>
        <time>2016-07-11T10:15:11.000Z</time>
      </trkpt>
      <trkpt lat="44.39388" lon="6.35986">
        <ele>1533</ele>
        <time>2016-07-11T10:15:21.000Z</time>
      </trkpt>
      <trkpt lat="44.39389" lon="6.35988">
        <ele>1533.4000244141</ele>
        <time>2016-07-11T10:15:27.000Z</time>
      </trkpt>
      <trkpt lat="44.39391" lon="6.3599">
        <ele>1533.8000488281</ele>
        <time>2016-07-11T10:16:00.000Z</time>
      </trkpt>
      <trkpt lat="44.39391" lon="6.35989">
        <ele>1533.8000488281</ele>
        <time>2016-07-11T10:16:08.000Z</time>
      </trkpt>
      <trkpt lat="44.3939" lon="6.35992">
        <ele>1534.1999511719</ele>
        <time>2016-07-11T10:16:28.000Z</time>
      </trkpt>
      <trkpt lat="44.39391" lon="6.35991">
        <ele>1534.1999511719</ele>
        <time>2016-07-11T10:16:33.000Z</time>
      </trkpt>
      <trkpt lat="44.3939" lon="6.3599">
        <ele>1534</ele>
        <time>2016-07-11T10:16:40.000Z</time>
      </trkpt>
      <trkpt lat="44.39388" lon="6.35989">
        <ele>1533.5999755859</ele>
        <time>2016-07-11T10:17:03.000Z</time>
      </trkpt>
      <trkpt lat="44.39388" lon="6.35988">
        <ele>1533.5999755859</ele>
        <time>2016-07-11T10:17:07.000Z</time>
      </trkpt>
      <trkpt lat="44.39389" lon="6.35991">
        <ele>1534</ele>
        <time>2016-07-11T10:17:14.000Z</time>
      </trkpt>
      <trkpt lat="44.39391" lon="6.35992">
        <ele>1534.4000244141</ele>
        <time>2016-07-11T10:17:21.000Z</time>
      </trkpt>
      <trkpt lat="44.39391" lon="6.35995">
        <ele>1534.8000488281</ele>
        <time>2016-07-11T10:17:23.000Z</time>
      </trkpt>
      <trkpt lat="44.39389" lon="6.36003">
        <ele>1536.4000244141</ele>
        <time>2016-07-11T10:17:28.000Z</time>
      </trkpt>
      <trkpt lat="44.39391" lon="6.36016">
        <ele>1539</ele>
        <time>2016-07-11T10:17:35.000Z</time>
      </trkpt>
      <trkpt lat="44.39394" lon="6.36022">
        <ele>1540.4000244141</ele>
        <time>2016-07-11T10:17:40.000Z</time>
      </trkpt>
      <trkpt lat="44.39395" lon="6.36025">
        <ele>1541</ele>
        <time>2016-07-11T10:17:42.000Z</time>
      </trkpt>
      <trkpt lat="44.39397" lon="6.36032">
        <ele>1542.4000244141</ele>
        <time>2016-07-11T10:17:46.000Z</time>
      </trkpt>
      <trkpt lat="44.39397" lon="6.36035">
        <ele>1543</ele>
        <time>2016-07-11T10:17:48.000Z</time>
      </trkpt>
      <trkpt lat="44.394" lon="6.36041">
        <ele>1544.5999755859</ele>
        <time>2016-07-11T10:17:52.000Z</time>
      </trkpt>
      <trkpt lat="44.39405" lon="6.36049">
        <ele>1546.4000244141</ele>
        <time>2016-07-11T10:17:58.000Z</time>
      </trkpt>
      <trkpt lat="44.39409" lon="6.36055">
        <ele>1547.5999755859</ele>
        <time>2016-07-11T10:18:02.000Z</time>
      </trkpt>
      <trkpt lat="44.39417" lon="6.36068">
        <ele>1550.4000244141</ele>
        <time>2016-07-11T10:18:12.000Z</time>
      </trkpt>
      <trkpt lat="44.39422" lon="6.36073">
        <ele>1551.1999511719</ele>
        <time>2016-07-11T10:18:17.000Z</time>
      </trkpt>
      <trkpt lat="44.39424" lon="6.36077">
        <ele>1551.8000488281</ele>
        <time>2016-07-11T10:18:20.000Z</time>
      </trkpt>
      <trkpt lat="44.39428" lon="6.36083">
        <ele>1552.8000488281</ele>
        <time>2016-07-11T10:18:26.000Z</time>
      </trkpt>
      <trkpt lat="44.3943" lon="6.36085">
        <ele>1553.1999511719</ele>
        <time>2016-07-11T10:18:32.000Z</time>
      </trkpt>
      <trkpt lat="44.39432" lon="6.36086">
        <ele>1553.4000244141</ele>
        <time>2016-07-11T10:18:38.000Z</time>
      </trkpt>
      <trkpt lat="44.39432" lon="6.36088">
        <ele>1553.5999755859</ele>
        <time>2016-07-11T10:18:43.000Z</time>
      </trkpt>
      <trkpt lat="44.39433" lon="6.3609">
        <ele>1553.8000488281</ele>
        <time>2016-07-11T10:18:49.000Z</time>
      </trkpt>
      <trkpt lat="44.39433" lon="6.36093">
        <ele>1554.1999511719</ele>
        <time>2016-07-11T10:18:55.000Z</time>
      </trkpt>
      <trkpt lat="44.39432" lon="6.36099">
        <ele>1555</ele>
        <time>2016-07-11T10:20:01.000Z</time>
      </trkpt>
      <trkpt lat="44.39434" lon="6.361">
        <ele>1555.1999511719</ele>
        <time>2016-07-11T10:20:09.000Z</time>
      </trkpt>
      <trkpt lat="44.39437" lon="6.361">
        <ele>1555.4000244141</ele>
        <time>2016-07-11T10:20:19.000Z</time>
      </trkpt>
      <trkpt lat="44.3944" lon="6.36096">
        <ele>1555</ele>
        <time>2016-07-11T10:20:23.000Z</time>
      </trkpt>
      <trkpt lat="44.39442" lon="6.36094">
        <ele>1554.5999755859</ele>
        <time>2016-07-11T10:20:25.000Z</time>
      </trkpt>
      <trkpt lat="44.39442" lon="6.36093">
        <ele>1554.5999755859</ele>
        <time>2016-07-11T10:20:26.000Z</time>
      </trkpt>
      <trkpt lat="44.39443" lon="6.36094">
        <ele>1554.5999755859</ele>
        <time>2016-07-11T10:20:39.000Z</time>
      </trkpt>
      <trkpt lat="44.39443" lon="6.36095">
        <ele>1554.8000488281</ele>
        <time>2016-07-11T10:20:50.000Z</time>
      </trkpt>
      <trkpt lat="44.39443" lon="6.36094">
        <ele>1554.8000488281</ele>
        <time>2016-07-11T10:20:54.000Z</time>
      </trkpt>
      <trkpt lat="44.39444" lon="6.36095">
        <ele>1554.8000488281</ele>
        <time>2016-07-11T10:21:07.000Z</time>
      </trkpt>
      <trkpt lat="44.39444" lon="6.36096">
        <ele>1555</ele>
        <time>2016-07-11T10:21:15.000Z</time>
      </trkpt>
      <trkpt lat="44.39443" lon="6.36098">
        <ele>1555.1999511719</ele>
        <time>2016-07-11T10:21:26.000Z</time>
      </trkpt>
      <trkpt lat="44.39443" lon="6.36099">
        <ele>1555.4000244141</ele>
        <time>2016-07-11T10:21:45.000Z</time>
      </trkpt>
      <trkpt lat="44.39446" lon="6.36096">
        <ele>1555.1999511719</ele>
        <time>2016-07-11T10:22:00.000Z</time>
      </trkpt>
      <trkpt lat="44.39447" lon="6.36095">
        <ele>1555</ele>
        <time>2016-07-11T10:22:01.000Z</time>
      </trkpt>
      <trkpt lat="44.3945" lon="6.36086">
        <ele>1554</ele>
        <time>2016-07-11T10:22:08.000Z</time>
      </trkpt>
      <trkpt lat="44.39451" lon="6.36084">
        <ele>1553.8000488281</ele>
        <time>2016-07-11T10:22:09.000Z</time>
      </trkpt>
      <trkpt lat="44.39455" lon="6.36072">
        <ele>1552.4000244141</ele>
        <time>2016-07-11T10:22:16.000Z</time>
      </trkpt>
      <trkpt lat="44.39467" lon="6.36057">
        <ele>1551.4000244141</ele>
        <time>2016-07-11T10:22:26.000Z</time>
      </trkpt>
      <trkpt lat="44.39477" lon="6.36048">
        <ele>1550.5999755859</ele>
        <time>2016-07-11T10:22:34.000Z</time>
      </trkpt>
      <trkpt lat="44.39488" lon="6.36038">
        <ele>1549.8000488281</ele>
        <time>2016-07-11T10:22:43.000Z</time>
      </trkpt>
      <trkpt lat="44.39504" lon="6.36019">
        <ele>1547.1999511719</ele>
        <time>2016-07-11T10:22:57.000Z</time>
      </trkpt>
      <trkpt lat="44.39512" lon="6.36007">
        <ele>1545.1999511719</ele>
        <time>2016-07-11T10:23:05.000Z</time>
      </trkpt>
      <trkpt lat="44.39513" lon="6.36004">
        <ele>1544.5999755859</ele>
        <time>2016-07-11T10:23:07.000Z</time>
      </trkpt>
      <trkpt lat="44.39519" lon="6.35996">
        <ele>1543.4000244141</ele>
        <time>2016-07-11T10:23:13.000Z</time>
      </trkpt>
      <trkpt lat="44.39526" lon="6.35995">
        <ele>1543.5999755859</ele>
        <time>2016-07-11T10:23:19.000Z</time>
      </trkpt>
      <trkpt lat="44.39527" lon="6.35995">
        <ele>1543.5999755859</ele>
        <time>2016-07-11T10:23:20.000Z</time>
      </trkpt>
      <trkpt lat="44.39533" lon="6.35991">
        <ele>1543.4000244141</ele>
        <time>2016-07-11T10:23:27.000Z</time>
      </trkpt>
      <trkpt lat="44.39534" lon="6.35991">
        <ele>1543.4000244141</ele>
        <time>2016-07-11T10:23:28.000Z</time>
      </trkpt>
      <trkpt lat="44.3954" lon="6.35992">
        <ele>1543.8000488281</ele>
        <time>2016-07-11T10:23:33.000Z</time>
      </trkpt>
      <trkpt lat="44.39541" lon="6.35992">
        <ele>1543.8000488281</ele>
        <time>2016-07-11T10:23:34.000Z</time>
      </trkpt>
      <trkpt lat="44.39545" lon="6.3599">
        <ele>1543.4000244141</ele>
        <time>2016-07-11T10:23:37.000Z</time>
      </trkpt>
      <trkpt lat="44.39556" lon="6.35985">
        <ele>1542.1999511719</ele>
        <time>2016-07-11T10:23:46.000Z</time>
      </trkpt>
      <trkpt lat="44.39562" lon="6.35982">
        <ele>1541.8000488281</ele>
        <time>2016-07-11T10:23:52.000Z</time>
      </trkpt>
      <trkpt lat="44.39569" lon="6.3598">
        <ele>1541.4000244141</ele>
        <time>2016-07-11T10:23:57.000Z</time>
      </trkpt>
      <trkpt lat="44.39574" lon="6.35979">
        <ele>1541.1999511719</ele>
        <time>2016-07-11T10:24:01.000Z</time>
      </trkpt>
      <trkpt lat="44.39582" lon="6.35975">
        <ele>1540.8000488281</ele>
        <time>2016-07-11T10:24:08.000Z</time>
      </trkpt>
      <trkpt lat="44.39585" lon="6.35975">
        <ele>1540.8000488281</ele>
        <time>2016-07-11T10:24:10.000Z</time>
      </trkpt>
      <trkpt lat="44.39589" lon="6.35973">
        <ele>1540.5999755859</ele>
        <time>2016-07-11T10:24:14.000Z</time>
      </trkpt>
      <trkpt lat="44.39594" lon="6.35974">
        <ele>1540.8000488281</ele>
        <time>2016-07-11T10:24:20.000Z</time>
      </trkpt>
      <trkpt lat="44.39601" lon="6.35975">
        <ele>1541</ele>
        <time>2016-07-11T10:24:26.000Z</time>
      </trkpt>
      <trkpt lat="44.3961" lon="6.3598">
        <ele>1541.8000488281</ele>
        <time>2016-07-11T10:24:33.000Z</time>
      </trkpt>
      <trkpt lat="44.39616" lon="6.35982">
        <ele>1542.1999511719</ele>
        <time>2016-07-11T10:24:38.000Z</time>
      </trkpt>
      <trkpt lat="44.39618" lon="6.35981">
        <ele>1542</ele>
        <time>2016-07-11T10:24:40.000Z</time>
      </trkpt>
      <trkpt lat="44.39618" lon="6.35977">
        <ele>1541.1999511719</ele>
        <time>2016-07-11T10:24:44.000Z</time>
      </trkpt>
      <trkpt lat="44.39618" lon="6.35972">
        <ele>1540.1999511719</ele>
        <time>2016-07-11T10:24:49.000Z</time>
      </trkpt>
      <trkpt lat="44.39617" lon="6.35957">
        <ele>1537.8000488281</ele>
        <time>2016-07-11T10:25:00.000Z</time>
      </trkpt>
      <trkpt lat="44.39617" lon="6.35956">
        <ele>1537.5999755859</ele>
        <time>2016-07-11T10:25:01.000Z</time>
      </trkpt>
      <trkpt lat="44.39621" lon="6.35947">
        <ele>1536</ele>
        <time>2016-07-11T10:25:06.000Z</time>
      </trkpt>
      <trkpt lat="44.39625" lon="6.35938">
        <ele>1534.1999511719</ele>
        <time>2016-07-11T10:25:11.000Z</time>
      </trkpt>
      <trkpt lat="44.39631" lon="6.35927">
        <ele>1532</ele>
        <time>2016-07-11T10:25:17.000Z</time>
      </trkpt>
      <trkpt lat="44.3964" lon="6.3592">
        <ele>1530.1999511719</ele>
        <time>2016-07-11T10:25:24.000Z</time>
      </trkpt>
      <trkpt lat="44.39641" lon="6.35919">
        <ele>1530</ele>
        <time>2016-07-11T10:25:25.000Z</time>
      </trkpt>
      <trkpt lat="44.39643" lon="6.35919">
        <ele>1530</ele>
        <time>2016-07-11T10:25:27.000Z</time>
      </trkpt>
      <trkpt lat="44.39647" lon="6.3592">
        <ele>1529.8000488281</ele>
        <time>2016-07-11T10:25:31.000Z</time>
      </trkpt>
      <trkpt lat="44.39658" lon="6.35923">
        <ele>1529.4000244141</ele>
        <time>2016-07-11T10:25:40.000Z</time>
      </trkpt>
      <trkpt lat="44.39664" lon="6.35927">
        <ele>1529.8000488281</ele>
        <time>2016-07-11T10:25:45.000Z</time>
      </trkpt>
      <trkpt lat="44.39671" lon="6.35932">
        <ele>1530.1999511719</ele>
        <time>2016-07-11T10:25:51.000Z</time>
      </trkpt>
      <trkpt lat="44.39678" lon="6.35933">
        <ele>1529.8000488281</ele>
        <time>2016-07-11T10:25:56.000Z</time>
      </trkpt>
      <trkpt lat="44.3968" lon="6.35933">
        <ele>1529.8000488281</ele>
        <time>2016-07-11T10:25:57.000Z</time>
      </trkpt>
      <trkpt lat="44.39686" lon="6.35937">
        <ele>1530</ele>
        <time>2016-07-11T10:26:03.000Z</time>
      </trkpt>
      <trkpt lat="44.39699" lon="6.35941">
        <ele>1529.8000488281</ele>
        <time>2016-07-11T10:26:12.000Z</time>
      </trkpt>
      <trkpt lat="44.39713" lon="6.35944">
        <ele>1531</ele>
        <time>2016-07-11T10:26:21.000Z</time>
      </trkpt>
      <trkpt lat="44.39723" lon="6.35943">
        <ele>1531.1999511719</ele>
        <time>2016-07-11T10:26:28.000Z</time>
      </trkpt>
      <trkpt lat="44.39729" lon="6.35931">
        <ele>1529.4000244141</ele>
        <time>2016-07-11T10:26:36.000Z</time>
      </trkpt>
      <trkpt lat="44.39734" lon="6.35923">
        <ele>1527.8000488281</ele>
        <time>2016-07-11T10:26:42.000Z</time>
      </trkpt>
      <trkpt lat="44.39741" lon="6.35913">
        <ele>1525.8000488281</ele>
        <time>2016-07-11T10:26:49.000Z</time>
      </trkpt>
      <trkpt lat="44.39754" lon="6.35907">
        <ele>1524.5999755859</ele>
        <time>2016-07-11T10:26:57.000Z</time>
      </trkpt>
      <trkpt lat="44.39767" lon="6.35905">
        <ele>1524.4000244141</ele>
        <time>2016-07-11T10:27:06.000Z</time>
      </trkpt>
      <trkpt lat="44.3977" lon="6.35896">
        <ele>1522.4000244141</ele>
        <time>2016-07-11T10:27:12.000Z</time>
      </trkpt>
      <trkpt lat="44.3977" lon="6.35894">
        <ele>1522</ele>
        <time>2016-07-11T10:27:13.000Z</time>
      </trkpt>
      <trkpt lat="44.39783" lon="6.3587">
        <ele>1518</ele>
        <time>2016-07-11T10:27:29.000Z</time>
      </trkpt>
      <trkpt lat="44.3979" lon="6.35855">
        <ele>1517</ele>
        <time>2016-07-11T10:27:37.000Z</time>
      </trkpt>
      <trkpt lat="44.39794" lon="6.35844">
        <ele>1515.8000488281</ele>
        <time>2016-07-11T10:27:43.000Z</time>
      </trkpt>
      <trkpt lat="44.39797" lon="6.35829">
        <ele>1513.5999755859</ele>
        <time>2016-07-11T10:27:51.000Z</time>
      </trkpt>
      <trkpt lat="44.39798" lon="6.35826">
        <ele>1513.5999755859</ele>
        <time>2016-07-11T10:27:53.000Z</time>
      </trkpt>
      <trkpt lat="44.39796" lon="6.35811">
        <ele>1511.4000244141</ele>
        <time>2016-07-11T10:28:01.000Z</time>
      </trkpt>
      <trkpt lat="44.39795" lon="6.35805">
        <ele>1510.5999755859</ele>
        <time>2016-07-11T10:28:04.000Z</time>
      </trkpt>
      <trkpt lat="44.39793" lon="6.35792">
        <ele>1508.5999755859</ele>
        <time>2016-07-11T10:28:11.000Z</time>
      </trkpt>
      <trkpt lat="44.39792" lon="6.3578">
        <ele>1506.8000488281</ele>
        <time>2016-07-11T10:28:17.000Z</time>
      </trkpt>
      <trkpt lat="44.39792" lon="6.35768">
        <ele>1505.8000488281</ele>
        <time>2016-07-11T10:28:23.000Z</time>
      </trkpt>
      <trkpt lat="44.39794" lon="6.35764">
        <ele>1506</ele>
        <time>2016-07-11T10:28:26.000Z</time>
      </trkpt>
      <trkpt lat="44.39802" lon="6.35753">
        <ele>1507.4000244141</ele>
        <time>2016-07-11T10:28:34.000Z</time>
      </trkpt>
      <trkpt lat="44.39814" lon="6.35726">
        <ele>1508</ele>
        <time>2016-07-11T10:28:49.000Z</time>
      </trkpt>
      <trkpt lat="44.39821" lon="6.35719">
        <ele>1509.1999511719</ele>
        <time>2016-07-11T10:28:55.000Z</time>
      </trkpt>
      <trkpt lat="44.39828" lon="6.3571">
        <ele>1510.5999755859</ele>
        <time>2016-07-11T10:29:02.000Z</time>
      </trkpt>
      <trkpt lat="44.39835" lon="6.35704">
        <ele>1512</ele>
        <time>2016-07-11T10:29:08.000Z</time>
      </trkpt>
      <trkpt lat="44.3984" lon="6.35697">
        <ele>1511.8000488281</ele>
        <time>2016-07-11T10:29:13.000Z</time>
      </trkpt>
      <trkpt lat="44.39843" lon="6.35693">
        <ele>1511.5999755859</ele>
        <time>2016-07-11T10:29:16.000Z</time>
      </trkpt>
      <trkpt lat="44.39853" lon="6.35682">
        <ele>1511.4000244141</ele>
        <time>2016-07-11T10:29:24.000Z</time>
      </trkpt>
      <trkpt lat="44.39859" lon="6.35671">
        <ele>1510</ele>
        <time>2016-07-11T10:29:31.000Z</time>
      </trkpt>
      <trkpt lat="44.39865" lon="6.35661">
        <ele>1509</ele>
        <time>2016-07-11T10:29:37.000Z</time>
      </trkpt>
      <trkpt lat="44.39866" lon="6.35659">
        <ele>1508.8000488281</ele>
        <time>2016-07-11T10:29:38.000Z</time>
      </trkpt>
      <trkpt lat="44.39868" lon="6.35655">
        <ele>1508.4000244141</ele>
        <time>2016-07-11T10:29:41.000Z</time>
      </trkpt>
      <trkpt lat="44.39881" lon="6.35642">
        <ele>1507.5999755859</ele>
        <time>2016-07-11T10:29:53.000Z</time>
      </trkpt>
      <trkpt lat="44.3989" lon="6.35633">
        <ele>1506.8000488281</ele>
        <time>2016-07-11T10:30:00.000Z</time>
      </trkpt>
      <trkpt lat="44.39895" lon="6.35629">
        <ele>1506.5999755859</ele>
        <time>2016-07-11T10:30:06.000Z</time>
      </trkpt>
      <trkpt lat="44.39901" lon="6.35623">
        <ele>1506.4000244141</ele>
        <time>2016-07-11T10:30:11.000Z</time>
      </trkpt>
      <trkpt lat="44.39907" lon="6.35616">
        <ele>1505.4000244141</ele>
        <time>2016-07-11T10:30:16.000Z</time>
      </trkpt>
      <trkpt lat="44.39913" lon="6.35603">
        <ele>1503.4000244141</ele>
        <time>2016-07-11T10:30:23.000Z</time>
      </trkpt>
      <trkpt lat="44.39919" lon="6.35586">
        <ele>1500.4000244141</ele>
        <time>2016-07-11T10:30:31.000Z</time>
      </trkpt>
      <trkpt lat="44.39922" lon="6.3558">
        <ele>1499</ele>
        <time>2016-07-11T10:30:35.000Z</time>
      </trkpt>
      <trkpt lat="44.39925" lon="6.35571">
        <ele>1497.5999755859</ele>
        <time>2016-07-11T10:30:40.000Z</time>
      </trkpt>
      <trkpt lat="44.39932" lon="6.35559">
        <ele>1496</ele>
        <time>2016-07-11T10:30:49.000Z</time>
      </trkpt>
      <trkpt lat="44.39942" lon="6.35548">
        <ele>1495.4000244141</ele>
        <time>2016-07-11T10:30:58.000Z</time>
      </trkpt>
      <trkpt lat="44.39948" lon="6.35539">
        <ele>1494.4000244141</ele>
        <time>2016-07-11T10:31:05.000Z</time>
      </trkpt>
      <trkpt lat="44.39956" lon="6.35529">
        <ele>1493.1999511719</ele>
        <time>2016-07-11T10:31:13.000Z</time>
      </trkpt>
      <trkpt lat="44.39964" lon="6.35519">
        <ele>1491.8000488281</ele>
        <time>2016-07-11T10:31:21.000Z</time>
      </trkpt>
      <trkpt lat="44.39966" lon="6.35516">
        <ele>1491.5999755859</ele>
        <time>2016-07-11T10:31:23.000Z</time>
      </trkpt>
      <trkpt lat="44.3997" lon="6.3551">
        <ele>1490.5999755859</ele>
        <time>2016-07-11T10:31:28.000Z</time>
      </trkpt>
      <trkpt lat="44.39978" lon="6.35501">
        <ele>1489.5999755859</ele>
        <time>2016-07-11T10:31:35.000Z</time>
      </trkpt>
      <trkpt lat="44.39983" lon="6.35492">
        <ele>1488.1999511719</ele>
        <time>2016-07-11T10:31:41.000Z</time>
      </trkpt>
      <trkpt lat="44.3999" lon="6.35481">
        <ele>1486.4000244141</ele>
        <time>2016-07-11T10:31:48.000Z</time>
      </trkpt>
      <trkpt lat="44.39992" lon="6.35469">
        <ele>1485</ele>
        <time>2016-07-11T10:31:54.000Z</time>
      </trkpt>
      <trkpt lat="44.39995" lon="6.35459">
        <ele>1483.8000488281</ele>
        <time>2016-07-11T10:32:01.000Z</time>
      </trkpt>
      <trkpt lat="44.39996" lon="6.35455">
        <ele>1483.4000244141</ele>
        <time>2016-07-11T10:32:04.000Z</time>
      </trkpt>
      <trkpt lat="44.39997" lon="6.35446">
        <ele>1482.4000244141</ele>
        <time>2016-07-11T10:32:09.000Z</time>
      </trkpt>
      <trkpt lat="44.39997" lon="6.35439">
        <ele>1481.5999755859</ele>
        <time>2016-07-11T10:32:15.000Z</time>
      </trkpt>
      <trkpt lat="44.39997" lon="6.35435">
        <ele>1481</ele>
        <time>2016-07-11T10:32:17.000Z</time>
      </trkpt>
      <trkpt lat="44.39999" lon="6.35428">
        <ele>1480.5999755859</ele>
        <time>2016-07-11T10:32:21.000Z</time>
      </trkpt>
      <trkpt lat="44.40002" lon="6.35412">
        <ele>1479.1999511719</ele>
        <time>2016-07-11T10:32:29.000Z</time>
      </trkpt>
      <trkpt lat="44.40006" lon="6.35399">
        <ele>1478.4000244141</ele>
        <time>2016-07-11T10:32:35.000Z</time>
      </trkpt>
      <trkpt lat="44.40008" lon="6.35392">
        <ele>1477.8000488281</ele>
        <time>2016-07-11T10:32:39.000Z</time>
      </trkpt>
      <trkpt lat="44.40009" lon="6.35366">
        <ele>1474</ele>
        <time>2016-07-11T10:32:55.000Z</time>
      </trkpt>
      <trkpt lat="44.40008" lon="6.35364">
        <ele>1473.8000488281</ele>
        <time>2016-07-11T10:32:56.000Z</time>
      </trkpt>
      <trkpt lat="44.40012" lon="6.35358">
        <ele>1473</ele>
        <time>2016-07-11T10:33:03.000Z</time>
      </trkpt>
      <trkpt lat="44.40014" lon="6.35357">
        <ele>1473</ele>
        <time>2016-07-11T10:33:06.000Z</time>
      </trkpt>
      <trkpt lat="44.4002" lon="6.35355">
        <ele>1473.1999511719</ele>
        <time>2016-07-11T10:33:11.000Z</time>
      </trkpt>
      <trkpt lat="44.40028" lon="6.35356">
        <ele>1474</ele>
        <time>2016-07-11T10:33:17.000Z</time>
      </trkpt>
      <trkpt lat="44.40032" lon="6.35358">
        <ele>1475</ele>
        <time>2016-07-11T10:33:21.000Z</time>
      </trkpt>
      <trkpt lat="44.40037" lon="6.35361">
        <ele>1475.4000244141</ele>
        <time>2016-07-11T10:33:26.000Z</time>
      </trkpt>
      <trkpt lat="44.40043" lon="6.35366">
        <ele>1476.4000244141</ele>
        <time>2016-07-11T10:33:32.000Z</time>
      </trkpt>
      <trkpt lat="44.40058" lon="6.35374">
        <ele>1478</ele>
        <time>2016-07-11T10:33:45.000Z</time>
      </trkpt>
      <trkpt lat="44.40066" lon="6.35378">
        <ele>1478.8000488281</ele>
        <time>2016-07-11T10:33:51.000Z</time>
      </trkpt>
      <trkpt lat="44.40072" lon="6.3538">
        <ele>1479.4000244141</ele>
        <time>2016-07-11T10:33:56.000Z</time>
      </trkpt>
      <trkpt lat="44.40079" lon="6.35383">
        <ele>1480</ele>
        <time>2016-07-11T10:34:01.000Z</time>
      </trkpt>
      <trkpt lat="44.40087" lon="6.35385">
        <ele>1480.4000244141</ele>
        <time>2016-07-11T10:34:07.000Z</time>
      </trkpt>
      <trkpt lat="44.40092" lon="6.35386">
        <ele>1480.5999755859</ele>
        <time>2016-07-11T10:34:12.000Z</time>
      </trkpt>
      <trkpt lat="44.40095" lon="6.35387">
        <ele>1480.8000488281</ele>
        <time>2016-07-11T10:34:16.000Z</time>
      </trkpt>
      <trkpt lat="44.40098" lon="6.35389">
        <ele>1481.1999511719</ele>
        <time>2016-07-11T10:34:20.000Z</time>
      </trkpt>
      <trkpt lat="44.40102" lon="6.3539">
        <ele>1481.4000244141</ele>
        <time>2016-07-11T10:34:23.000Z</time>
      </trkpt>
      <trkpt lat="44.4011" lon="6.35392">
        <ele>1482</ele>
        <time>2016-07-11T10:34:30.000Z</time>
      </trkpt>
      <trkpt lat="44.40112" lon="6.35393">
        <ele>1482</ele>
        <time>2016-07-11T10:34:31.000Z</time>
      </trkpt>
      <trkpt lat="44.40115" lon="6.35395">
        <ele>1482.4000244141</ele>
        <time>2016-07-11T10:34:34.000Z</time>
      </trkpt>
      <trkpt lat="44.40138" lon="6.35408">
        <ele>1483</ele>
        <time>2016-07-11T10:34:51.000Z</time>
      </trkpt>
      <trkpt lat="44.40148" lon="6.35411">
        <ele>1482.4000244141</ele>
        <time>2016-07-11T10:34:58.000Z</time>
      </trkpt>
      <trkpt lat="44.40157" lon="6.35411">
        <ele>1481.5999755859</ele>
        <time>2016-07-11T10:35:04.000Z</time>
      </trkpt>
      <trkpt lat="44.40168" lon="6.35414">
        <ele>1481.1999511719</ele>
        <time>2016-07-11T10:35:11.000Z</time>
      </trkpt>
      <trkpt lat="44.40179" lon="6.35418">
        <ele>1480.8000488281</ele>
        <time>2016-07-11T10:35:18.000Z</time>
      </trkpt>
      <trkpt lat="44.4019" lon="6.35422">
        <ele>1480.4000244141</ele>
        <time>2016-07-11T10:35:26.000Z</time>
      </trkpt>
      <trkpt lat="44.402" lon="6.35423">
        <ele>1480</ele>
        <time>2016-07-11T10:35:33.000Z</time>
      </trkpt>
      <trkpt lat="44.40212" lon="6.35424">
        <ele>1480.8000488281</ele>
        <time>2016-07-11T10:35:41.000Z</time>
      </trkpt>
      <trkpt lat="44.40218" lon="6.35425">
        <ele>1481.1999511719</ele>
        <time>2016-07-11T10:35:46.000Z</time>
      </trkpt>
      <trkpt lat="44.40219" lon="6.35426">
        <ele>1481.4000244141</ele>
        <time>2016-07-11T10:35:47.000Z</time>
      </trkpt>
      <trkpt lat="44.40229" lon="6.35426">
        <ele>1482</ele>
        <time>2016-07-11T10:35:54.000Z</time>
      </trkpt>
      <trkpt lat="44.4024" lon="6.35428">
        <ele>1482</ele>
        <time>2016-07-11T10:36:02.000Z</time>
      </trkpt>
      <trkpt lat="44.40246" lon="6.35428">
        <ele>1482</ele>
        <time>2016-07-11T10:36:07.000Z</time>
      </trkpt>
      <trkpt lat="44.40253" lon="6.35429">
        <ele>1482.1999511719</ele>
        <time>2016-07-11T10:36:12.000Z</time>
      </trkpt>
      <trkpt lat="44.4026" lon="6.35432">
        <ele>1483</ele>
        <time>2016-07-11T10:36:19.000Z</time>
      </trkpt>
      <trkpt lat="44.40261" lon="6.35433">
        <ele>1483</ele>
        <time>2016-07-11T10:36:20.000Z</time>
      </trkpt>
      <trkpt lat="44.4027" lon="6.35434">
        <ele>1483.1999511719</ele>
        <time>2016-07-11T10:36:25.000Z</time>
      </trkpt>
      <trkpt lat="44.40271" lon="6.35435">
        <ele>1483.4000244141</ele>
        <time>2016-07-11T10:36:26.000Z</time>
      </trkpt>
      <trkpt lat="44.40277" lon="6.35437">
        <ele>1483.8000488281</ele>
        <time>2016-07-11T10:36:31.000Z</time>
      </trkpt>
      <trkpt lat="44.4028" lon="6.35438">
        <ele>1484.1999511719</ele>
        <time>2016-07-11T10:36:38.000Z</time>
      </trkpt>
      <trkpt lat="44.40285" lon="6.3544">
        <ele>1484.4000244141</ele>
        <time>2016-07-11T10:36:47.000Z</time>
      </trkpt>
      <trkpt lat="44.40292" lon="6.35443">
        <ele>1485</ele>
        <time>2016-07-11T10:36:52.000Z</time>
      </trkpt>
      <trkpt lat="44.40297" lon="6.35447">
        <ele>1485.8000488281</ele>
        <time>2016-07-11T10:36:56.000Z</time>
      </trkpt>
      <trkpt lat="44.40305" lon="6.35447">
        <ele>1485.1999511719</ele>
        <time>2016-07-11T10:37:01.000Z</time>
      </trkpt>
      <trkpt lat="44.40314" lon="6.35445">
        <ele>1484</ele>
        <time>2016-07-11T10:37:08.000Z</time>
      </trkpt>
      <trkpt lat="44.40326" lon="6.3544">
        <ele>1481.5999755859</ele>
        <time>2016-07-11T10:37:16.000Z</time>
      </trkpt>
      <trkpt lat="44.40332" lon="6.35437">
        <ele>1480.5999755859</ele>
        <time>2016-07-11T10:37:21.000Z</time>
      </trkpt>
      <trkpt lat="44.40343" lon="6.35432">
        <ele>1479.1999511719</ele>
        <time>2016-07-11T10:37:28.000Z</time>
      </trkpt>
      <trkpt lat="44.40352" lon="6.35429">
        <ele>1478.1999511719</ele>
        <time>2016-07-11T10:37:34.000Z</time>
      </trkpt>
      <trkpt lat="44.40366" lon="6.35426">
        <ele>1477.1999511719</ele>
        <time>2016-07-11T10:37:43.000Z</time>
      </trkpt>
      <trkpt lat="44.4037" lon="6.35426">
        <ele>1476.5999755859</ele>
        <time>2016-07-11T10:37:46.000Z</time>
      </trkpt>
      <trkpt lat="44.40381" lon="6.3542">
        <ele>1474</ele>
        <time>2016-07-11T10:37:55.000Z</time>
      </trkpt>
      <trkpt lat="44.40387" lon="6.35417">
        <ele>1472.5999755859</ele>
        <time>2016-07-11T10:38:00.000Z</time>
      </trkpt>
      <trkpt lat="44.40396" lon="6.35414">
        <ele>1471.4000244141</ele>
        <time>2016-07-11T10:38:08.000Z</time>
      </trkpt>
      <trkpt lat="44.40398" lon="6.35412">
        <ele>1471</ele>
        <time>2016-07-11T10:38:10.000Z</time>
      </trkpt>
      <trkpt lat="44.40404" lon="6.3541">
        <ele>1470.1999511719</ele>
        <time>2016-07-11T10:38:17.000Z</time>
      </trkpt>
      <trkpt lat="44.40413" lon="6.35407">
        <ele>1469</ele>
        <time>2016-07-11T10:38:24.000Z</time>
      </trkpt>
      <trkpt lat="44.40421" lon="6.35406">
        <ele>1468.4000244141</ele>
        <time>2016-07-11T10:38:30.000Z</time>
      </trkpt>
      <trkpt lat="44.40431" lon="6.35404">
        <ele>1467.4000244141</ele>
        <time>2016-07-11T10:38:37.000Z</time>
      </trkpt>
      <trkpt lat="44.40436" lon="6.35404">
        <ele>1467</ele>
        <time>2016-07-11T10:38:42.000Z</time>
      </trkpt>
      <trkpt lat="44.40442" lon="6.35405">
        <ele>1466.8000488281</ele>
        <time>2016-07-11T10:38:45.000Z</time>
      </trkpt>
      <trkpt lat="44.40445" lon="6.35408">
        <ele>1467.4000244141</ele>
        <time>2016-07-11T10:38:50.000Z</time>
      </trkpt>
      <trkpt lat="44.4045" lon="6.35413">
        <ele>1467.8000488281</ele>
        <time>2016-07-11T10:39:09.000Z</time>
      </trkpt>
      <trkpt lat="44.40451" lon="6.35412">
        <ele>1467.5999755859</ele>
        <time>2016-07-11T10:39:20.000Z</time>
      </trkpt>
      <trkpt lat="44.40452" lon="6.35408">
        <ele>1466.5999755859</ele>
        <time>2016-07-11T10:39:24.000Z</time>
      </trkpt>
      <trkpt lat="44.40452" lon="6.35406">
        <ele>1466.1999511719</ele>
        <time>2016-07-11T10:39:25.000Z</time>
      </trkpt>
      <trkpt lat="44.40454" lon="6.35405">
        <ele>1465.5999755859</ele>
        <time>2016-07-11T10:39:30.000Z</time>
      </trkpt>
      <trkpt lat="44.40457" lon="6.35412">
        <ele>1466.5999755859</ele>
        <time>2016-07-11T10:43:26.000Z</time>
      </trkpt>
      <trkpt lat="44.40459" lon="6.35412">
        <ele>1466.1999511719</ele>
        <time>2016-07-11T10:43:37.000Z</time>
      </trkpt>
      <trkpt lat="44.40462" lon="6.35409">
        <ele>1465.1999511719</ele>
        <time>2016-07-11T10:43:45.000Z</time>
      </trkpt>
      <trkpt lat="44.40465" lon="6.35409">
        <ele>1465</ele>
        <time>2016-07-11T10:43:47.000Z</time>
      </trkpt>
      <trkpt lat="44.40473" lon="6.35402">
        <ele>1463.1999511719</ele>
        <time>2016-07-11T10:43:54.000Z</time>
      </trkpt>
      <trkpt lat="44.40475" lon="6.354">
        <ele>1462.8000488281</ele>
        <time>2016-07-11T10:43:56.000Z</time>
      </trkpt>
      <trkpt lat="44.40484" lon="6.35391">
        <ele>1461.1999511719</ele>
        <time>2016-07-11T10:44:03.000Z</time>
      </trkpt>
      <trkpt lat="44.40492" lon="6.35387">
        <ele>1460</ele>
        <time>2016-07-11T10:44:09.000Z</time>
      </trkpt>
      <trkpt lat="44.40502" lon="6.3538">
        <ele>1458.5999755859</ele>
        <time>2016-07-11T10:44:17.000Z</time>
      </trkpt>
      <trkpt lat="44.40503" lon="6.35378">
        <ele>1458.4000244141</ele>
        <time>2016-07-11T10:44:18.000Z</time>
      </trkpt>
      <trkpt lat="44.4051" lon="6.35373">
        <ele>1457.4000244141</ele>
        <time>2016-07-11T10:44:24.000Z</time>
      </trkpt>
      <trkpt lat="44.40519" lon="6.35368">
        <ele>1456.1999511719</ele>
        <time>2016-07-11T10:44:31.000Z</time>
      </trkpt>
      <trkpt lat="44.4052" lon="6.35367">
        <ele>1456</ele>
        <time>2016-07-11T10:44:32.000Z</time>
      </trkpt>
      <trkpt lat="44.40521" lon="6.35357">
        <ele>1455.1999511719</ele>
        <time>2016-07-11T10:44:38.000Z</time>
      </trkpt>
      <trkpt lat="44.4052" lon="6.35352">
        <ele>1454.8000488281</ele>
        <time>2016-07-11T10:44:41.000Z</time>
      </trkpt>
      <trkpt lat="44.4052" lon="6.3535">
        <ele>1454.8000488281</ele>
        <time>2016-07-11T10:44:42.000Z</time>
      </trkpt>
      <trkpt lat="44.4052" lon="6.3534">
        <ele>1454</ele>
        <time>2016-07-11T10:44:48.000Z</time>
      </trkpt>
      <trkpt lat="44.4052" lon="6.35333">
        <ele>1453.4000244141</ele>
        <time>2016-07-11T10:44:51.000Z</time>
      </trkpt>
      <trkpt lat="44.4052" lon="6.35325">
        <ele>1453</ele>
        <time>2016-07-11T10:44:56.000Z</time>
      </trkpt>
      <trkpt lat="44.40521" lon="6.35316">
        <ele>1452.1999511719</ele>
        <time>2016-07-11T10:45:01.000Z</time>
      </trkpt>
      <trkpt lat="44.40525" lon="6.35304">
        <ele>1450.5999755859</ele>
        <time>2016-07-11T10:45:08.000Z</time>
      </trkpt>
      <trkpt lat="44.40531" lon="6.35296">
        <ele>1449.4000244141</ele>
        <time>2016-07-11T10:45:15.000Z</time>
      </trkpt>
      <trkpt lat="44.40538" lon="6.35292">
        <ele>1448.1999511719</ele>
        <time>2016-07-11T10:45:21.000Z</time>
      </trkpt>
      <trkpt lat="44.40545" lon="6.35287">
        <ele>1447.1999511719</ele>
        <time>2016-07-11T10:45:27.000Z</time>
      </trkpt>
      <trkpt lat="44.40547" lon="6.35277">
        <ele>1446</ele>
        <time>2016-07-11T10:45:33.000Z</time>
      </trkpt>
      <trkpt lat="44.40546" lon="6.3527">
        <ele>1445.4000244141</ele>
        <time>2016-07-11T10:45:38.000Z</time>
      </trkpt>
      <trkpt lat="44.40544" lon="6.35263">
        <ele>1445</ele>
        <time>2016-07-11T10:45:42.000Z</time>
      </trkpt>
      <trkpt lat="44.40544" lon="6.35262">
        <ele>1444.8000488281</ele>
        <time>2016-07-11T10:45:43.000Z</time>
      </trkpt>
      <trkpt lat="44.40541" lon="6.3525">
        <ele>1444</ele>
        <time>2016-07-11T10:45:50.000Z</time>
      </trkpt>
      <trkpt lat="44.40538" lon="6.35243">
        <ele>1443.5999755859</ele>
        <time>2016-07-11T10:45:54.000Z</time>
      </trkpt>
      <trkpt lat="44.40534" lon="6.35229">
        <ele>1442.1999511719</ele>
        <time>2016-07-11T10:46:03.000Z</time>
      </trkpt>
      <trkpt lat="44.40531" lon="6.3522">
        <ele>1441.4000244141</ele>
        <time>2016-07-11T10:46:10.000Z</time>
      </trkpt>
      <trkpt lat="44.4053" lon="6.35217">
        <ele>1441</ele>
        <time>2016-07-11T10:46:12.000Z</time>
      </trkpt>
      <trkpt lat="44.40524" lon="6.35207">
        <ele>1439.5999755859</ele>
        <time>2016-07-11T10:46:20.000Z</time>
      </trkpt>
      <trkpt lat="44.40524" lon="6.35205">
        <ele>1439.4000244141</ele>
        <time>2016-07-11T10:46:21.000Z</time>
      </trkpt>
      <trkpt lat="44.40522" lon="6.35202">
        <ele>1439</ele>
        <time>2016-07-11T10:46:23.000Z</time>
      </trkpt>
      <trkpt lat="44.40523" lon="6.35194">
        <ele>1437.8000488281</ele>
        <time>2016-07-11T10:46:27.000Z</time>
      </trkpt>
      <trkpt lat="44.4053" lon="6.35189">
        <ele>1436.5999755859</ele>
        <time>2016-07-11T10:46:34.000Z</time>
      </trkpt>
      <trkpt lat="44.40533" lon="6.35184">
        <ele>1435.4000244141</ele>
        <time>2016-07-11T10:46:39.000Z</time>
      </trkpt>
      <trkpt lat="44.40535" lon="6.35182">
        <ele>1435</ele>
        <time>2016-07-11T10:46:41.000Z</time>
      </trkpt>
      <trkpt lat="44.40545" lon="6.35173">
        <ele>1432</ele>
        <time>2016-07-11T10:46:53.000Z</time>
      </trkpt>
      <trkpt lat="44.40546" lon="6.35172">
        <ele>1431.5999755859</ele>
        <time>2016-07-11T10:46:54.000Z</time>
      </trkpt>
      <trkpt lat="44.40547" lon="6.35172">
        <ele>1431.4000244141</ele>
        <time>2016-07-11T10:46:55.000Z</time>
      </trkpt>
      <trkpt lat="44.40554" lon="6.35171">
        <ele>1430</ele>
        <time>2016-07-11T10:47:01.000Z</time>
      </trkpt>
      <trkpt lat="44.40558" lon="6.35168">
        <ele>1428.5999755859</ele>
        <time>2016-07-11T10:47:05.000Z</time>
      </trkpt>
      <trkpt lat="44.40564" lon="6.35166">
        <ele>1426.8000488281</ele>
        <time>2016-07-11T10:47:11.000Z</time>
      </trkpt>
      <trkpt lat="44.40569" lon="6.35166">
        <ele>1426</ele>
        <time>2016-07-11T10:47:15.000Z</time>
      </trkpt>
      <trkpt lat="44.4057" lon="6.35166">
        <ele>1425.8000488281</ele>
        <time>2016-07-11T10:47:16.000Z</time>
      </trkpt>
      <trkpt lat="44.40577" lon="6.35166">
        <ele>1424.1999511719</ele>
        <time>2016-07-11T10:47:22.000Z</time>
      </trkpt>
      <trkpt lat="44.40588" lon="6.35164">
        <ele>1421.5999755859</ele>
        <time>2016-07-11T10:47:30.000Z</time>
      </trkpt>
      <trkpt lat="44.40589" lon="6.35163">
        <ele>1421</ele>
        <time>2016-07-11T10:47:31.000Z</time>
      </trkpt>
      <trkpt lat="44.4059" lon="6.35155">
        <ele>1419</ele>
        <time>2016-07-11T10:47:37.000Z</time>
      </trkpt>
      <trkpt lat="44.4059" lon="6.35147">
        <ele>1417.1999511719</ele>
        <time>2016-07-11T10:47:43.000Z</time>
      </trkpt>
      <trkpt lat="44.40591" lon="6.35141">
        <ele>1415.4000244141</ele>
        <time>2016-07-11T10:47:48.000Z</time>
      </trkpt>
      <trkpt lat="44.40597" lon="6.35145">
        <ele>1415.1999511719</ele>
        <time>2016-07-11T10:47:53.000Z</time>
      </trkpt>
      <trkpt lat="44.40601" lon="6.35149">
        <ele>1415.1999511719</ele>
        <time>2016-07-11T10:47:57.000Z</time>
      </trkpt>
      <trkpt lat="44.40605" lon="6.35152">
        <ele>1415.1999511719</ele>
        <time>2016-07-11T10:48:00.000Z</time>
      </trkpt>
      <trkpt lat="44.40615" lon="6.35161">
        <ele>1414.8000488281</ele>
        <time>2016-07-11T10:48:08.000Z</time>
      </trkpt>
      <trkpt lat="44.40618" lon="6.35162">
        <ele>1414.5999755859</ele>
        <time>2016-07-11T10:48:10.000Z</time>
      </trkpt>
      <trkpt lat="44.4062" lon="6.35161">
        <ele>1414.1999511719</ele>
        <time>2016-07-11T10:48:12.000Z</time>
      </trkpt>
      <trkpt lat="44.40625" lon="6.35162">
        <ele>1413.4000244141</ele>
        <time>2016-07-11T10:48:16.000Z</time>
      </trkpt>
      <trkpt lat="44.40635" lon="6.35159">
        <ele>1410.8000488281</ele>
        <time>2016-07-11T10:48:24.000Z</time>
      </trkpt>
      <trkpt lat="44.40643" lon="6.35154">
        <ele>1408.4000244141</ele>
        <time>2016-07-11T10:48:30.000Z</time>
      </trkpt>
      <trkpt lat="44.40646" lon="6.35153">
        <ele>1407.5999755859</ele>
        <time>2016-07-11T10:48:33.000Z</time>
      </trkpt>
      <trkpt lat="44.4065" lon="6.35147">
        <ele>1405.5999755859</ele>
        <time>2016-07-11T10:48:38.000Z</time>
      </trkpt>
      <trkpt lat="44.40653" lon="6.35144">
        <ele>1404.5999755859</ele>
        <time>2016-07-11T10:48:42.000Z</time>
      </trkpt>
      <trkpt lat="44.40658" lon="6.35139">
        <ele>1402.8000488281</ele>
        <time>2016-07-11T10:48:49.000Z</time>
      </trkpt>
      <trkpt lat="44.40659" lon="6.35139">
        <ele>1402.5999755859</ele>
        <time>2016-07-11T10:48:50.000Z</time>
      </trkpt>
      <trkpt lat="44.40659" lon="6.35138">
        <ele>1402.5999755859</ele>
        <time>2016-07-11T10:48:56.000Z</time>
      </trkpt>
      <trkpt lat="44.40661" lon="6.35136">
        <ele>1401.8000488281</ele>
        <time>2016-07-11T10:49:53.000Z</time>
      </trkpt>
      <trkpt lat="44.40664" lon="6.35139">
        <ele>1401.8000488281</ele>
        <time>2016-07-11T10:50:03.000Z</time>
      </trkpt>
      <trkpt lat="44.40663" lon="6.35141">
        <ele>1402.1999511719</ele>
        <time>2016-07-11T10:50:10.000Z</time>
      </trkpt>
      <trkpt lat="44.4066" lon="6.35145">
        <ele>1403.4000244141</ele>
        <time>2016-07-11T10:50:31.000Z</time>
      </trkpt>
      <trkpt lat="44.40662" lon="6.35142">
        <ele>1402.5999755859</ele>
        <time>2016-07-11T10:51:01.000Z</time>
      </trkpt>
      <trkpt lat="44.40664" lon="6.35139">
        <ele>1401.8000488281</ele>
        <time>2016-07-11T10:51:24.000Z</time>
      </trkpt>
      <trkpt lat="44.40666" lon="6.35139">
        <ele>1401.4000244141</ele>
        <time>2016-07-11T10:51:28.000Z</time>
      </trkpt>
      <trkpt lat="44.40671" lon="6.3514">
        <ele>1400.5999755859</ele>
        <time>2016-07-11T10:51:33.000Z</time>
      </trkpt>
      <trkpt lat="44.40672" lon="6.3514">
        <ele>1400.5999755859</ele>
        <time>2016-07-11T10:51:34.000Z</time>
      </trkpt>
      <trkpt lat="44.40674" lon="6.35142">
        <ele>1400.4000244141</ele>
        <time>2016-07-11T10:51:38.000Z</time>
      </trkpt>
      <trkpt lat="44.40675" lon="6.35142">
        <ele>1400.4000244141</ele>
        <time>2016-07-11T10:51:39.000Z</time>
      </trkpt>
      <trkpt lat="44.40681" lon="6.35139">
        <ele>1398.5999755859</ele>
        <time>2016-07-11T10:51:44.000Z</time>
      </trkpt>
      <trkpt lat="44.4069" lon="6.35142">
        <ele>1397.4000244141</ele>
        <time>2016-07-11T10:51:51.000Z</time>
      </trkpt>
      <trkpt lat="44.40696" lon="6.35144">
        <ele>1396.8000488281</ele>
        <time>2016-07-11T10:51:56.000Z</time>
      </trkpt>
      <trkpt lat="44.40705" lon="6.35152">
        <ele>1396.1999511719</ele>
        <time>2016-07-11T10:52:03.000Z</time>
      </trkpt>
      <trkpt lat="44.4071" lon="6.35158">
        <ele>1395.8000488281</ele>
        <time>2016-07-11T10:52:08.000Z</time>
      </trkpt>
      <trkpt lat="44.40717" lon="6.35167">
        <ele>1395.4000244141</ele>
        <time>2016-07-11T10:52:14.000Z</time>
      </trkpt>
      <trkpt lat="44.40723" lon="6.35174">
        <ele>1395</ele>
        <time>2016-07-11T10:52:20.000Z</time>
      </trkpt>
      <trkpt lat="44.40729" lon="6.35178">
        <ele>1394</ele>
        <time>2016-07-11T10:52:25.000Z</time>
      </trkpt>
      <trkpt lat="44.40734" lon="6.3518">
        <ele>1393.1999511719</ele>
        <time>2016-07-11T10:52:29.000Z</time>
      </trkpt>
      <trkpt lat="44.40742" lon="6.35184">
        <ele>1392</ele>
        <time>2016-07-11T10:52:35.000Z</time>
      </trkpt>
      <trkpt lat="44.40746" lon="6.35187">
        <ele>1391.1999511719</ele>
        <time>2016-07-11T10:52:38.000Z</time>
      </trkpt>
      <trkpt lat="44.40753" lon="6.35188">
        <ele>1389.8000488281</ele>
        <time>2016-07-11T10:52:43.000Z</time>
      </trkpt>
      <trkpt lat="44.40756" lon="6.35187">
        <ele>1389.1999511719</ele>
        <time>2016-07-11T10:52:45.000Z</time>
      </trkpt>
      <trkpt lat="44.40764" lon="6.35183">
        <ele>1386.8000488281</ele>
        <time>2016-07-11T10:52:52.000Z</time>
      </trkpt>
      <trkpt lat="44.40765" lon="6.35182">
        <ele>1386.4000244141</ele>
        <time>2016-07-11T10:52:53.000Z</time>
      </trkpt>
      <trkpt lat="44.4077" lon="6.35177">
        <ele>1384.5999755859</ele>
        <time>2016-07-11T10:52:59.000Z</time>
      </trkpt>
      <trkpt lat="44.40769" lon="6.35169">
        <ele>1383.8000488281</ele>
        <time>2016-07-11T10:53:05.000Z</time>
      </trkpt>
      <trkpt lat="44.40769" lon="6.35167">
        <ele>1383.4000244141</ele>
        <time>2016-07-11T10:53:07.000Z</time>
      </trkpt>
      <trkpt lat="44.40772" lon="6.35165">
        <ele>1382.4000244141</ele>
        <time>2016-07-11T10:53:11.000Z</time>
      </trkpt>
      <trkpt lat="44.40778" lon="6.35156">
        <ele>1380</ele>
        <time>2016-07-11T10:53:18.000Z</time>
      </trkpt>
      <trkpt lat="44.40783" lon="6.35152">
        <ele>1378.4000244141</ele>
        <time>2016-07-11T10:53:22.000Z</time>
      </trkpt>
      <trkpt lat="44.40785" lon="6.35145">
        <ele>1376.8000488281</ele>
        <time>2016-07-11T10:53:28.000Z</time>
      </trkpt>
      <trkpt lat="44.40788" lon="6.35142">
        <ele>1375.8000488281</ele>
        <time>2016-07-11T10:53:31.000Z</time>
      </trkpt>
      <trkpt lat="44.40789" lon="6.35141">
        <ele>1375.1999511719</ele>
        <time>2016-07-11T10:53:33.000Z</time>
      </trkpt>
      <trkpt lat="44.40795" lon="6.35135">
        <ele>1373.1999511719</ele>
        <time>2016-07-11T10:53:39.000Z</time>
      </trkpt>
      <trkpt lat="44.40798" lon="6.3513">
        <ele>1371.5999755859</ele>
        <time>2016-07-11T10:53:44.000Z</time>
      </trkpt>
      <trkpt lat="44.40799" lon="6.35129">
        <ele>1371.1999511719</ele>
        <time>2016-07-11T10:53:46.000Z</time>
      </trkpt>
      <trkpt lat="44.40801" lon="6.35129">
        <ele>1370.5999755859</ele>
        <time>2016-07-11T10:53:52.000Z</time>
      </trkpt>
      <trkpt lat="44.40801" lon="6.35131">
        <ele>1371</ele>
        <time>2016-07-11T10:53:58.000Z</time>
      </trkpt>
      <trkpt lat="44.40801" lon="6.3513">
        <ele>1370.8000488281</ele>
        <time>2016-07-11T10:54:04.000Z</time>
      </trkpt>
      <trkpt lat="44.40801" lon="6.35131">
        <ele>1371</ele>
        <time>2016-07-11T10:54:07.000Z</time>
      </trkpt>
      <trkpt lat="44.40807" lon="6.35137">
        <ele>1370.5999755859</ele>
        <time>2016-07-11T10:54:14.000Z</time>
      </trkpt>
      <trkpt lat="44.40808" lon="6.35139">
        <ele>1370.4000244141</ele>
        <time>2016-07-11T10:54:16.000Z</time>
      </trkpt>
      <trkpt lat="44.40809" lon="6.35151">
        <ele>1372</ele>
        <time>2016-07-11T10:54:24.000Z</time>
      </trkpt>
      <trkpt lat="44.40812" lon="6.35157">
        <ele>1372.4000244141</ele>
        <time>2016-07-11T10:54:28.000Z</time>
      </trkpt>
      <trkpt lat="44.40818" lon="6.35157">
        <ele>1370.8000488281</ele>
        <time>2016-07-11T10:54:34.000Z</time>
      </trkpt>
      <trkpt lat="44.40824" lon="6.35149">
        <ele>1368.1999511719</ele>
        <time>2016-07-11T10:54:41.000Z</time>
      </trkpt>
      <trkpt lat="44.40826" lon="6.35146">
        <ele>1367.1999511719</ele>
        <time>2016-07-11T10:54:44.000Z</time>
      </trkpt>
      <trkpt lat="44.40829" lon="6.3514">
        <ele>1365.4000244141</ele>
        <time>2016-07-11T10:54:49.000Z</time>
      </trkpt>
      <trkpt lat="44.40832" lon="6.35132">
        <ele>1363.5999755859</ele>
        <time>2016-07-11T10:54:54.000Z</time>
      </trkpt>
      <trkpt lat="44.40834" lon="6.3513">
        <ele>1363</ele>
        <time>2016-07-11T10:54:55.000Z</time>
      </trkpt>
      <trkpt lat="44.40837" lon="6.35126">
        <ele>1361.5999755859</ele>
        <time>2016-07-11T10:54:58.000Z</time>
      </trkpt>
      <trkpt lat="44.4084" lon="6.3512">
        <ele>1360</ele>
        <time>2016-07-11T10:55:02.000Z</time>
      </trkpt>
      <trkpt lat="44.40842" lon="6.35118">
        <ele>1359.1999511719</ele>
        <time>2016-07-11T10:55:04.000Z</time>
      </trkpt>
      <trkpt lat="44.40842" lon="6.35115">
        <ele>1358.5999755859</ele>
        <time>2016-07-11T10:55:07.000Z</time>
      </trkpt>
      <trkpt lat="44.40845" lon="6.35109">
        <ele>1356.8000488281</ele>
        <time>2016-07-11T10:55:12.000Z</time>
      </trkpt>
      <trkpt lat="44.40849" lon="6.35108">
        <ele>1355.5999755859</ele>
        <time>2016-07-11T10:55:15.000Z</time>
      </trkpt>
      <trkpt lat="44.40862" lon="6.35112">
        <ele>1352.8000488281</ele>
        <time>2016-07-11T10:55:24.000Z</time>
      </trkpt>
      <trkpt lat="44.40878" lon="6.35121">
        <ele>1350.8000488281</ele>
        <time>2016-07-11T10:55:35.000Z</time>
      </trkpt>
      <trkpt lat="44.40889" lon="6.35127">
        <ele>1349.4000244141</ele>
        <time>2016-07-11T10:55:43.000Z</time>
      </trkpt>
      <trkpt lat="44.40904" lon="6.35132">
        <ele>1347</ele>
        <time>2016-07-11T10:55:52.000Z</time>
      </trkpt>
      <trkpt lat="44.40917" lon="6.35135">
        <ele>1344.8000488281</ele>
        <time>2016-07-11T10:56:01.000Z</time>
      </trkpt>
      <trkpt lat="44.4093" lon="6.35138">
        <ele>1342.4000244141</ele>
        <time>2016-07-11T10:56:10.000Z</time>
      </trkpt>
      <trkpt lat="44.40934" lon="6.35141">
        <ele>1342</ele>
        <time>2016-07-11T10:56:13.000Z</time>
      </trkpt>
      <trkpt lat="44.40939" lon="6.35149">
        <ele>1342.4000244141</ele>
        <time>2016-07-11T10:56:18.000Z</time>
      </trkpt>
      <trkpt lat="44.4095" lon="6.35158">
        <ele>1342</ele>
        <time>2016-07-11T10:56:27.000Z</time>
      </trkpt>
      <trkpt lat="44.40961" lon="6.3516">
        <ele>1341.4000244141</ele>
        <time>2016-07-11T10:56:35.000Z</time>
      </trkpt>
      <trkpt lat="44.40968" lon="6.35158">
        <ele>1341</ele>
        <time>2016-07-11T10:56:40.000Z</time>
      </trkpt>
      <trkpt lat="44.4097" lon="6.35161">
        <ele>1341.4000244141</ele>
        <time>2016-07-11T10:56:43.000Z</time>
      </trkpt>
      <trkpt lat="44.40977" lon="6.3516">
        <ele>1340.8000488281</ele>
        <time>2016-07-11T10:56:49.000Z</time>
      </trkpt>
      <trkpt lat="44.40978" lon="6.3516">
        <ele>1341</ele>
        <time>2016-07-11T10:56:58.000Z</time>
      </trkpt>
      <trkpt lat="44.4098" lon="6.35159">
        <ele>1340.5999755859</ele>
        <time>2016-07-11T10:57:03.000Z</time>
      </trkpt>
      <trkpt lat="44.40984" lon="6.35154">
        <ele>1339.5999755859</ele>
        <time>2016-07-11T10:57:07.000Z</time>
      </trkpt>
      <trkpt lat="44.40997" lon="6.35146">
        <ele>1338</ele>
        <time>2016-07-11T10:57:16.000Z</time>
      </trkpt>
      <trkpt lat="44.41002" lon="6.35144">
        <ele>1337.5999755859</ele>
        <time>2016-07-11T10:57:19.000Z</time>
      </trkpt>
      <trkpt lat="44.41006" lon="6.35144">
        <ele>1337.4000244141</ele>
        <time>2016-07-11T10:57:25.000Z</time>
      </trkpt>
      <trkpt lat="44.41007" lon="6.35145">
        <ele>1337.4000244141</ele>
        <time>2016-07-11T10:57:38.000Z</time>
      </trkpt>
      <trkpt lat="44.41008" lon="6.35145">
        <ele>1337.5999755859</ele>
        <time>2016-07-11T10:57:45.000Z</time>
      </trkpt>
      <trkpt lat="44.41005" lon="6.3514">
        <ele>1336.8000488281</ele>
        <time>2016-07-11T10:57:51.000Z</time>
      </trkpt>
      <trkpt lat="44.41006" lon="6.35139">
        <ele>1336.5999755859</ele>
        <time>2016-07-11T10:57:52.000Z</time>
      </trkpt>
      <trkpt lat="44.41009" lon="6.35136">
        <ele>1336</ele>
        <time>2016-07-11T10:57:56.000Z</time>
      </trkpt>
      <trkpt lat="44.4101" lon="6.35135">
        <ele>1335.8000488281</ele>
        <time>2016-07-11T10:57:58.000Z</time>
      </trkpt>
      <trkpt lat="44.41013" lon="6.35131">
        <ele>1335.1999511719</ele>
        <time>2016-07-11T10:58:04.000Z</time>
      </trkpt>
      <trkpt lat="44.41011" lon="6.35129">
        <ele>1334.8000488281</ele>
        <time>2016-07-11T10:58:09.000Z</time>
      </trkpt>
      <trkpt lat="44.41006" lon="6.35131">
        <ele>1335.4000244141</ele>
        <time>2016-07-11T10:58:15.000Z</time>
      </trkpt>
      <trkpt lat="44.41006" lon="6.35132">
        <ele>1335.4000244141</ele>
        <time>2016-07-11T10:58:16.000Z</time>
      </trkpt>
      <trkpt lat="44.41005" lon="6.3513">
        <ele>1335.1999511719</ele>
        <time>2016-07-11T10:58:24.000Z</time>
      </trkpt>
      <trkpt lat="44.41005" lon="6.35132">
        <ele>1335.5999755859</ele>
        <time>2016-07-11T10:58:29.000Z</time>
      </trkpt>
      <trkpt lat="44.41005" lon="6.35137">
        <ele>1336.1999511719</ele>
        <time>2016-07-11T10:58:32.000Z</time>
      </trkpt>
      <trkpt lat="44.41005" lon="6.35142">
        <ele>1337.1999511719</ele>
        <time>2016-07-11T10:58:39.000Z</time>
      </trkpt>
      <trkpt lat="44.41005" lon="6.35149">
        <ele>1338.1999511719</ele>
        <time>2016-07-11T10:58:51.000Z</time>
      </trkpt>
      <trkpt lat="44.41007" lon="6.35151">
        <ele>1338.4000244141</ele>
        <time>2016-07-11T10:59:06.000Z</time>
      </trkpt>
      <trkpt lat="44.41015" lon="6.35149">
        <ele>1337.8000488281</ele>
        <time>2016-07-11T11:03:37.000Z</time>
      </trkpt>
      <trkpt lat="44.41015" lon="6.35142">
        <ele>1336.8000488281</ele>
        <time>2016-07-11T11:06:38.000Z</time>
      </trkpt>
      <trkpt lat="44.41012" lon="6.35125">
        <ele>1334.4000244141</ele>
        <time>2016-07-11T11:06:55.000Z</time>
      </trkpt>
      <trkpt lat="44.41011" lon="6.35124">
        <ele>1334.1999511719</ele>
        <time>2016-07-11T11:06:56.000Z</time>
      </trkpt>
      <trkpt lat="44.41025" lon="6.35144">
        <ele>1336.8000488281</ele>
        <time>2016-07-11T11:08:21.000Z</time>
      </trkpt>
      <trkpt lat="44.41018" lon="6.35141">
        <ele>1336.4000244141</ele>
        <time>2016-07-11T11:08:26.000Z</time>
      </trkpt>
      <trkpt lat="44.41017" lon="6.35143">
        <ele>1336.8000488281</ele>
        <time>2016-07-11T11:08:28.000Z</time>
      </trkpt>
      <trkpt lat="44.41015" lon="6.35142">
        <ele>1336.5999755859</ele>
        <time>2016-07-11T11:08:33.000Z</time>
      </trkpt>
      <trkpt lat="44.41034" lon="6.35154">
        <ele>1338</ele>
        <time>2016-07-11T11:08:58.000Z</time>
      </trkpt>
      <trkpt lat="44.41043" lon="6.35157">
        <ele>1338.8000488281</ele>
        <time>2016-07-11T11:09:04.000Z</time>
      </trkpt>
      <trkpt lat="44.41052" lon="6.35162">
        <ele>1339.8000488281</ele>
        <time>2016-07-11T11:09:11.000Z</time>
      </trkpt>
      <trkpt lat="44.41062" lon="6.35171">
        <ele>1341.5999755859</ele>
        <time>2016-07-11T11:09:19.000Z</time>
      </trkpt>
      <trkpt lat="44.41065" lon="6.35174">
        <ele>1342.1999511719</ele>
        <time>2016-07-11T11:09:22.000Z</time>
      </trkpt>
      <trkpt lat="44.4107" lon="6.35184">
        <ele>1343.5999755859</ele>
        <time>2016-07-11T11:09:28.000Z</time>
      </trkpt>
      <trkpt lat="44.41075" lon="6.35202">
        <ele>1346.5999755859</ele>
        <time>2016-07-11T11:09:38.000Z</time>
      </trkpt>
      <trkpt lat="44.41081" lon="6.3522">
        <ele>1349.5999755859</ele>
        <time>2016-07-11T11:09:48.000Z</time>
      </trkpt>
      <trkpt lat="44.41084" lon="6.3524">
        <ele>1352.5999755859</ele>
        <time>2016-07-11T11:09:58.000Z</time>
      </trkpt>
      <trkpt lat="44.41087" lon="6.35257">
        <ele>1355.4000244141</ele>
        <time>2016-07-11T11:10:07.000Z</time>
      </trkpt>
      <trkpt lat="44.4109" lon="6.35272">
        <ele>1357.8000488281</ele>
        <time>2016-07-11T11:10:15.000Z</time>
      </trkpt>
      <trkpt lat="44.41095" lon="6.35284">
        <ele>1359.8000488281</ele>
        <time>2016-07-11T11:10:23.000Z</time>
      </trkpt>
      <trkpt lat="44.41099" lon="6.3529">
        <ele>1360.8000488281</ele>
        <time>2016-07-11T11:10:29.000Z</time>
      </trkpt>
      <trkpt lat="44.41101" lon="6.35302">
        <ele>1362.8000488281</ele>
        <time>2016-07-11T11:10:35.000Z</time>
      </trkpt>
      <trkpt lat="44.41102" lon="6.35302">
        <ele>1362.8000488281</ele>
        <time>2016-07-11T11:10:48.000Z</time>
      </trkpt>
      <trkpt lat="44.411" lon="6.35307">
        <ele>1363.8000488281</ele>
        <time>2016-07-11T11:10:56.000Z</time>
      </trkpt>
      <trkpt lat="44.41097" lon="6.35298">
        <ele>1362.1999511719</ele>
        <time>2016-07-11T11:12:22.000Z</time>
      </trkpt>
      <trkpt lat="44.41098" lon="6.353">
        <ele>1362.4000244141</ele>
        <time>2016-07-11T11:12:34.000Z</time>
      </trkpt>
      <trkpt lat="44.41102" lon="6.35302">
        <ele>1362.8000488281</ele>
        <time>2016-07-11T11:12:52.000Z</time>
      </trkpt>
      <trkpt lat="44.41104" lon="6.35303">
        <ele>1363</ele>
        <time>2016-07-11T11:13:13.000Z</time>
      </trkpt>
      <trkpt lat="44.41104" lon="6.35305">
        <ele>1363.4000244141</ele>
        <time>2016-07-11T11:13:18.000Z</time>
      </trkpt>
      <trkpt lat="44.41103" lon="6.35302">
        <ele>1362.8000488281</ele>
        <time>2016-07-11T11:13:20.000Z</time>
      </trkpt>
      <trkpt lat="44.411" lon="6.353">
        <ele>1362.4000244141</ele>
        <time>2016-07-11T11:13:27.000Z</time>
      </trkpt>
      <trkpt lat="44.41098" lon="6.353">
        <ele>1362.4000244141</ele>
        <time>2016-07-11T11:14:29.000Z</time>
      </trkpt>
      <trkpt lat="44.41097" lon="6.353">
        <ele>1362.5999755859</ele>
        <time>2016-07-11T11:15:07.000Z</time>
      </trkpt>
      <trkpt lat="44.41096" lon="6.35298">
        <ele>1362.1999511719</ele>
        <time>2016-07-11T11:15:33.000Z</time>
      </trkpt>
      <trkpt lat="44.41097" lon="6.35299">
        <ele>1362.1999511719</ele>
        <time>2016-07-11T11:17:39.000Z</time>
      </trkpt>
      <trkpt lat="44.41098" lon="6.35299">
        <ele>1362.1999511719</ele>
        <time>2016-07-11T11:17:54.000Z</time>
      </trkpt>
      <trkpt lat="44.41101" lon="6.35301">
        <ele>1362.5999755859</ele>
        <time>2016-07-11T11:18:36.000Z</time>
      </trkpt>
      <trkpt lat="44.411" lon="6.35302">
        <ele>1362.8000488281</ele>
        <time>2016-07-11T11:18:47.000Z</time>
      </trkpt>
      <trkpt lat="44.411" lon="6.35301">
        <ele>1362.5999755859</ele>
        <time>2016-07-11T11:18:52.000Z</time>
      </trkpt>
      <trkpt lat="44.41101" lon="6.35301">
        <ele>1362.5999755859</ele>
        <time>2016-07-11T11:18:57.000Z</time>
      </trkpt>
      <trkpt lat="44.41096" lon="6.35298">
        <ele>1362.1999511719</ele>
        <time>2016-07-11T11:20:56.000Z</time>
      </trkpt>
      <trkpt lat="44.41096" lon="6.35296">
        <ele>1361.8000488281</ele>
        <time>2016-07-11T11:21:12.000Z</time>
      </trkpt>
      <trkpt lat="44.41097" lon="6.35298">
        <ele>1362.1999511719</ele>
        <time>2016-07-11T11:21:49.000Z</time>
      </trkpt>
      <trkpt lat="44.41096" lon="6.35298">
        <ele>1362</ele>
        <time>2016-07-11T11:22:05.000Z</time>
      </trkpt>
      <trkpt lat="44.41097" lon="6.353">
        <ele>1362.5999755859</ele>
        <time>2016-07-11T11:22:50.000Z</time>
      </trkpt>
      <trkpt lat="44.41099" lon="6.35302">
        <ele>1362.8000488281</ele>
        <time>2016-07-11T11:23:07.000Z</time>
      </trkpt>
      <trkpt lat="44.41097" lon="6.35302">
        <ele>1362.8000488281</ele>
        <time>2016-07-11T11:23:32.000Z</time>
      </trkpt>
      <trkpt lat="44.41098" lon="6.35302">
        <ele>1362.8000488281</ele>
        <time>2016-07-11T11:23:37.000Z</time>
      </trkpt>
      <trkpt lat="44.41098" lon="6.35303">
        <ele>1363</ele>
        <time>2016-07-11T11:23:57.000Z</time>
      </trkpt>
      <trkpt lat="44.411" lon="6.35302">
        <ele>1362.8000488281</ele>
        <time>2016-07-11T11:24:01.000Z</time>
      </trkpt>
      <trkpt lat="44.41101" lon="6.35302">
        <ele>1362.8000488281</ele>
        <time>2016-07-11T11:24:06.000Z</time>
      </trkpt>
      <trkpt lat="44.41098" lon="6.35298">
        <ele>1362</ele>
        <time>2016-07-11T11:24:13.000Z</time>
      </trkpt>
      <trkpt lat="44.41098" lon="6.35299">
        <ele>1362.4000244141</ele>
        <time>2016-07-11T11:24:18.000Z</time>
      </trkpt>
      <trkpt lat="44.41096" lon="6.35298">
        <ele>1362.1999511719</ele>
        <time>2016-07-11T11:24:24.000Z</time>
      </trkpt>
      <trkpt lat="44.41096" lon="6.35297">
        <ele>1362</ele>
        <time>2016-07-11T11:24:31.000Z</time>
      </trkpt>
      <trkpt lat="44.41099" lon="6.35297">
        <ele>1362</ele>
        <time>2016-07-11T11:25:06.000Z</time>
      </trkpt>
      <trkpt lat="44.41098" lon="6.35299">
        <ele>1362.4000244141</ele>
        <time>2016-07-11T11:25:12.000Z</time>
      </trkpt>
      <trkpt lat="44.41099" lon="6.35303">
        <ele>1363</ele>
        <time>2016-07-11T11:27:30.000Z</time>
      </trkpt>
      <trkpt lat="44.41098" lon="6.35301">
        <ele>1362.8000488281</ele>
        <time>2016-07-11T11:27:47.000Z</time>
      </trkpt>
      <trkpt lat="44.41098" lon="6.353">
        <ele>1362.5999755859</ele>
        <time>2016-07-11T11:28:51.000Z</time>
      </trkpt>
      <trkpt lat="44.41099" lon="6.353">
        <ele>1362.4000244141</ele>
        <time>2016-07-11T11:30:31.000Z</time>
      </trkpt>
      <trkpt lat="44.41098" lon="6.353">
        <ele>1362.4000244141</ele>
        <time>2016-07-11T11:31:11.000Z</time>
      </trkpt>
      <trkpt lat="44.41099" lon="6.353">
        <ele>1362.5999755859</ele>
        <time>2016-07-11T11:31:59.000Z</time>
      </trkpt>
      <trkpt lat="44.411" lon="6.35302">
        <ele>1362.8000488281</ele>
        <time>2016-07-11T11:32:32.000Z</time>
      </trkpt>
      <trkpt lat="44.41099" lon="6.353">
        <ele>1362.4000244141</ele>
        <time>2016-07-11T11:32:41.000Z</time>
      </trkpt>
      <trkpt lat="44.41096" lon="6.35295">
        <ele>1361.5999755859</ele>
        <time>2016-07-11T11:32:49.000Z</time>
      </trkpt>
      <trkpt lat="44.41102" lon="6.353">
        <ele>1362.4000244141</ele>
        <time>2016-07-11T11:33:29.000Z</time>
      </trkpt>
      <trkpt lat="44.41101" lon="6.353">
        <ele>1362.4000244141</ele>
        <time>2016-07-11T11:33:35.000Z</time>
      </trkpt>
      <trkpt lat="44.411" lon="6.353">
        <ele>1362.4000244141</ele>
        <time>2016-07-11T11:33:55.000Z</time>
      </trkpt>
      <trkpt lat="44.41101" lon="6.35305">
        <ele>1363.4000244141</ele>
        <time>2016-07-11T11:34:02.000Z</time>
      </trkpt>
      <trkpt lat="44.41098" lon="6.35307">
        <ele>1363.8000488281</ele>
        <time>2016-07-11T11:34:24.000Z</time>
      </trkpt>
      <trkpt lat="44.41095" lon="6.35304">
        <ele>1363.1999511719</ele>
        <time>2016-07-11T11:34:31.000Z</time>
      </trkpt>
      <trkpt lat="44.41095" lon="6.35302">
        <ele>1363</ele>
        <time>2016-07-11T11:34:47.000Z</time>
      </trkpt>
      <trkpt lat="44.41095" lon="6.35297">
        <ele>1362</ele>
        <time>2016-07-11T11:35:47.000Z</time>
      </trkpt>
      <trkpt lat="44.41097" lon="6.35302">
        <ele>1362.8000488281</ele>
        <time>2016-07-11T11:35:52.000Z</time>
      </trkpt>
      <trkpt lat="44.41096" lon="6.353">
        <ele>1362.5999755859</ele>
        <time>2016-07-11T11:36:07.000Z</time>
      </trkpt>
      <trkpt lat="44.41097" lon="6.35303">
        <ele>1363.1999511719</ele>
        <time>2016-07-11T11:36:15.000Z</time>
      </trkpt>
      <trkpt lat="44.41095" lon="6.35301">
        <ele>1362.8000488281</ele>
        <time>2016-07-11T11:36:19.000Z</time>
      </trkpt>
      <trkpt lat="44.41094" lon="6.35299">
        <ele>1362.1999511719</ele>
        <time>2016-07-11T11:36:27.000Z</time>
      </trkpt>
      <trkpt lat="44.41093" lon="6.35295">
        <ele>1361.5999755859</ele>
        <time>2016-07-11T11:36:32.000Z</time>
      </trkpt>
      <trkpt lat="44.41091" lon="6.35289">
        <ele>1360.4000244141</ele>
        <time>2016-07-11T11:37:19.000Z</time>
      </trkpt>
      <trkpt lat="44.4109" lon="6.35288">
        <ele>1360.4000244141</ele>
        <time>2016-07-11T11:37:25.000Z</time>
      </trkpt>
      <trkpt lat="44.41093" lon="6.35289">
        <ele>1360.5999755859</ele>
        <time>2016-07-11T11:37:32.000Z</time>
      </trkpt>
      <trkpt lat="44.41095" lon="6.35293">
        <ele>1361.1999511719</ele>
        <time>2016-07-11T11:38:43.000Z</time>
      </trkpt>
      <trkpt lat="44.41095" lon="6.35294">
        <ele>1361.4000244141</ele>
        <time>2016-07-11T11:38:55.000Z</time>
      </trkpt>
      <trkpt lat="44.41098" lon="6.35295">
        <ele>1361.5999755859</ele>
        <time>2016-07-11T11:39:01.000Z</time>
      </trkpt>
      <trkpt lat="44.41098" lon="6.35296">
        <ele>1361.8000488281</ele>
        <time>2016-07-11T11:39:13.000Z</time>
      </trkpt>
      <trkpt lat="44.41104" lon="6.35294">
        <ele>1361.5999755859</ele>
        <time>2016-07-11T11:39:31.000Z</time>
      </trkpt>
      <trkpt lat="44.41106" lon="6.35291">
        <ele>1361.1999511719</ele>
        <time>2016-07-11T11:39:32.000Z</time>
      </trkpt>
      <trkpt lat="44.4111" lon="6.35274">
        <ele>1358.5999755859</ele>
        <time>2016-07-11T11:39:42.000Z</time>
      </trkpt>
      <trkpt lat="44.41112" lon="6.35259">
        <ele>1356.1999511719</ele>
        <time>2016-07-11T11:39:49.000Z</time>
      </trkpt>
      <trkpt lat="44.41115" lon="6.35248">
        <ele>1354.8000488281</ele>
        <time>2016-07-11T11:39:55.000Z</time>
      </trkpt>
      <trkpt lat="44.41116" lon="6.35241">
        <ele>1353.4000244141</ele>
        <time>2016-07-11T11:39:59.000Z</time>
      </trkpt>
      <trkpt lat="44.41123" lon="6.35222">
        <ele>1350.4000244141</ele>
        <time>2016-07-11T11:40:09.000Z</time>
      </trkpt>
      <trkpt lat="44.41122" lon="6.35199">
        <ele>1347.4000244141</ele>
        <time>2016-07-11T11:40:19.000Z</time>
      </trkpt>
      <trkpt lat="44.41119" lon="6.3518">
        <ele>1345.1999511719</ele>
        <time>2016-07-11T11:40:29.000Z</time>
      </trkpt>
      <trkpt lat="44.4111" lon="6.35171">
        <ele>1343.8000488281</ele>
        <time>2016-07-11T11:40:35.000Z</time>
      </trkpt>
      <trkpt lat="44.41099" lon="6.35167">
        <ele>1342.8000488281</ele>
        <time>2016-07-11T11:40:43.000Z</time>
      </trkpt>
      <trkpt lat="44.41098" lon="6.35166">
        <ele>1342.5999755859</ele>
        <time>2016-07-11T11:40:49.000Z</time>
      </trkpt>
      <trkpt lat="44.41085" lon="6.35164">
        <ele>1341.8000488281</ele>
        <time>2016-07-11T11:41:01.000Z</time>
      </trkpt>
      <trkpt lat="44.41072" lon="6.35159">
        <ele>1340.4000244141</ele>
        <time>2016-07-11T11:41:07.000Z</time>
      </trkpt>
      <trkpt lat="44.41064" lon="6.35155">
        <ele>1339.4000244141</ele>
        <time>2016-07-11T11:41:12.000Z</time>
      </trkpt>
      <trkpt lat="44.41048" lon="6.35153">
        <ele>1338.4000244141</ele>
        <time>2016-07-11T11:41:22.000Z</time>
      </trkpt>
      <trkpt lat="44.41036" lon="6.35151">
        <ele>1337.5999755859</ele>
        <time>2016-07-11T11:41:29.000Z</time>
      </trkpt>
      <trkpt lat="44.41022" lon="6.35153">
        <ele>1338.1999511719</ele>
        <time>2016-07-11T11:41:37.000Z</time>
      </trkpt>
      <trkpt lat="44.41019" lon="6.35153">
        <ele>1338.4000244141</ele>
        <time>2016-07-11T11:41:39.000Z</time>
      </trkpt>
      <trkpt lat="44.41006" lon="6.35148">
        <ele>1338</ele>
        <time>2016-07-11T11:41:47.000Z</time>
      </trkpt>
      <trkpt lat="44.40996" lon="6.35152">
        <ele>1339</ele>
        <time>2016-07-11T11:41:52.000Z</time>
      </trkpt>
      <trkpt lat="44.40981" lon="6.35157">
        <ele>1340.1999511719</ele>
        <time>2016-07-11T11:42:01.000Z</time>
      </trkpt>
      <trkpt lat="44.40963" lon="6.35169">
        <ele>1343</ele>
        <time>2016-07-11T11:42:12.000Z</time>
      </trkpt>
      <trkpt lat="44.40966" lon="6.35185">
        <ele>1346</ele>
        <time>2016-07-11T11:42:21.000Z</time>
      </trkpt>
      <trkpt lat="44.40967" lon="6.35188">
        <ele>1346.5999755859</ele>
        <time>2016-07-11T11:42:22.000Z</time>
      </trkpt>
      <trkpt lat="44.40959" lon="6.3519">
        <ele>1347.4000244141</ele>
        <time>2016-07-11T11:42:27.000Z</time>
      </trkpt>
      <trkpt lat="44.40957" lon="6.35189">
        <ele>1347.4000244141</ele>
        <time>2016-07-11T11:42:29.000Z</time>
      </trkpt>
      <trkpt lat="44.40944" lon="6.35185">
        <ele>1348.1999511719</ele>
        <time>2016-07-11T11:42:36.000Z</time>
      </trkpt>
      <trkpt lat="44.40922" lon="6.35185">
        <ele>1352.8000488281</ele>
        <time>2016-07-11T11:42:43.000Z</time>
      </trkpt>
      <trkpt lat="44.40912" lon="6.35187">
        <ele>1355.4000244141</ele>
        <time>2016-07-11T11:42:48.000Z</time>
      </trkpt>
      <trkpt lat="44.409" lon="6.35189">
        <ele>1358.1999511719</ele>
        <time>2016-07-11T11:42:55.000Z</time>
      </trkpt>
      <trkpt lat="44.40886" lon="6.35188">
        <ele>1360.5999755859</ele>
        <time>2016-07-11T11:43:05.000Z</time>
      </trkpt>
      <trkpt lat="44.40873" lon="6.3519">
        <ele>1363.1999511719</ele>
        <time>2016-07-11T11:43:12.000Z</time>
      </trkpt>
      <trkpt lat="44.40858" lon="6.35193">
        <ele>1366.8000488281</ele>
        <time>2016-07-11T11:43:22.000Z</time>
      </trkpt>
      <trkpt lat="44.40846" lon="6.35194">
        <ele>1370</ele>
        <time>2016-07-11T11:43:30.000Z</time>
      </trkpt>
      <trkpt lat="44.40835" lon="6.35197">
        <ele>1373</ele>
        <time>2016-07-11T11:43:36.000Z</time>
      </trkpt>
      <trkpt lat="44.40833" lon="6.35197">
        <ele>1373.5999755859</ele>
        <time>2016-07-11T11:43:37.000Z</time>
      </trkpt>
      <trkpt lat="44.40822" lon="6.35204">
        <ele>1376.8000488281</ele>
        <time>2016-07-11T11:43:43.000Z</time>
      </trkpt>
      <trkpt lat="44.4082" lon="6.35205">
        <ele>1377.1999511719</ele>
        <time>2016-07-11T11:43:45.000Z</time>
      </trkpt>
      <trkpt lat="44.40812" lon="6.3521">
        <ele>1379.5999755859</ele>
        <time>2016-07-11T11:43:50.000Z</time>
      </trkpt>
      <trkpt lat="44.40808" lon="6.35212">
        <ele>1381</ele>
        <time>2016-07-11T11:43:54.000Z</time>
      </trkpt>
      <trkpt lat="44.40799" lon="6.35223">
        <ele>1384.1999511719</ele>
        <time>2016-07-11T11:44:02.000Z</time>
      </trkpt>
      <trkpt lat="44.40791" lon="6.3523">
        <ele>1387</ele>
        <time>2016-07-11T11:44:08.000Z</time>
      </trkpt>
      <trkpt lat="44.40788" lon="6.35231">
        <ele>1387.5999755859</ele>
        <time>2016-07-11T11:44:10.000Z</time>
      </trkpt>
      <trkpt lat="44.40777" lon="6.35223">
        <ele>1389</ele>
        <time>2016-07-11T11:44:19.000Z</time>
      </trkpt>
      <trkpt lat="44.40774" lon="6.35223">
        <ele>1389.5999755859</ele>
        <time>2016-07-11T11:44:21.000Z</time>
      </trkpt>
      <trkpt lat="44.40762" lon="6.35231">
        <ele>1395</ele>
        <time>2016-07-11T11:44:30.000Z</time>
      </trkpt>
      <trkpt lat="44.40761" lon="6.35231">
        <ele>1395.4000244141</ele>
        <time>2016-07-11T11:44:31.000Z</time>
      </trkpt>
      <trkpt lat="44.40754" lon="6.35227">
        <ele>1396.5999755859</ele>
        <time>2016-07-11T11:44:35.000Z</time>
      </trkpt>
      <trkpt lat="44.40753" lon="6.35225">
        <ele>1396.5999755859</ele>
        <time>2016-07-11T11:44:36.000Z</time>
      </trkpt>
      <trkpt lat="44.40752" lon="6.35223">
        <ele>1396.5999755859</ele>
        <time>2016-07-11T11:44:37.000Z</time>
      </trkpt>
      <trkpt lat="44.40744" lon="6.35216">
        <ele>1397.5999755859</ele>
        <time>2016-07-11T11:44:43.000Z</time>
      </trkpt>
      <trkpt lat="44.40733" lon="6.35221">
        <ele>1402</ele>
        <time>2016-07-11T11:44:52.000Z</time>
      </trkpt>
      <trkpt lat="44.4073" lon="6.3522">
        <ele>1402.8000488281</ele>
        <time>2016-07-11T11:44:54.000Z</time>
      </trkpt>
      <trkpt lat="44.40725" lon="6.35213">
        <ele>1403</ele>
        <time>2016-07-11T11:44:59.000Z</time>
      </trkpt>
      <trkpt lat="44.40714" lon="6.35206">
        <ele>1404.5999755859</ele>
        <time>2016-07-11T11:45:07.000Z</time>
      </trkpt>
      <trkpt lat="44.40706" lon="6.35199">
        <ele>1405.8000488281</ele>
        <time>2016-07-11T11:45:13.000Z</time>
      </trkpt>
      <trkpt lat="44.40695" lon="6.35195">
        <ele>1407.8000488281</ele>
        <time>2016-07-11T11:45:22.000Z</time>
      </trkpt>
      <trkpt lat="44.40691" lon="6.35192">
        <ele>1408</ele>
        <time>2016-07-11T11:45:25.000Z</time>
      </trkpt>
      <trkpt lat="44.4068" lon="6.3519">
        <ele>1409.5999755859</ele>
        <time>2016-07-11T11:45:32.000Z</time>
      </trkpt>
      <trkpt lat="44.40667" lon="6.35191">
        <ele>1412</ele>
        <time>2016-07-11T11:45:41.000Z</time>
      </trkpt>
      <trkpt lat="44.40653" lon="6.3519">
        <ele>1414.1999511719</ele>
        <time>2016-07-11T11:45:50.000Z</time>
      </trkpt>
      <trkpt lat="44.40639" lon="6.3519">
        <ele>1416.8000488281</ele>
        <time>2016-07-11T11:46:00.000Z</time>
      </trkpt>
      <trkpt lat="44.40638" lon="6.35191">
        <ele>1417.1999511719</ele>
        <time>2016-07-11T11:46:01.000Z</time>
      </trkpt>
      <trkpt lat="44.40634" lon="6.35194">
        <ele>1418.4000244141</ele>
        <time>2016-07-11T11:46:04.000Z</time>
      </trkpt>
      <trkpt lat="44.4063" lon="6.35193">
        <ele>1419</ele>
        <time>2016-07-11T11:46:07.000Z</time>
      </trkpt>
      <trkpt lat="44.40627" lon="6.35188">
        <ele>1418.5999755859</ele>
        <time>2016-07-11T11:46:10.000Z</time>
      </trkpt>
      <trkpt lat="44.40618" lon="6.35176">
        <ele>1417.5999755859</ele>
        <time>2016-07-11T11:46:18.000Z</time>
      </trkpt>
      <trkpt lat="44.40617" lon="6.35174">
        <ele>1417.4000244141</ele>
        <time>2016-07-11T11:46:19.000Z</time>
      </trkpt>
      <trkpt lat="44.40611" lon="6.35168">
        <ele>1417.4000244141</ele>
        <time>2016-07-11T11:46:24.000Z</time>
      </trkpt>
      <trkpt lat="44.40603" lon="6.35162">
        <ele>1417.8000488281</ele>
        <time>2016-07-11T11:46:31.000Z</time>
      </trkpt>
      <trkpt lat="44.40602" lon="6.35162">
        <ele>1418</ele>
        <time>2016-07-11T11:46:32.000Z</time>
      </trkpt>
      <trkpt lat="44.406" lon="6.35165">
        <ele>1419</ele>
        <time>2016-07-11T11:46:35.000Z</time>
      </trkpt>
      <trkpt lat="44.406" lon="6.35168">
        <ele>1419.5999755859</ele>
        <time>2016-07-11T11:46:37.000Z</time>
      </trkpt>
      <trkpt lat="44.406" lon="6.35176">
        <ele>1421.4000244141</ele>
        <time>2016-07-11T11:46:42.000Z</time>
      </trkpt>
      <trkpt lat="44.406" lon="6.35179">
        <ele>1422.1999511719</ele>
        <time>2016-07-11T11:46:45.000Z</time>
      </trkpt>
      <trkpt lat="44.40599" lon="6.35181">
        <ele>1422.5999755859</ele>
        <time>2016-07-11T11:46:47.000Z</time>
      </trkpt>
      <trkpt lat="44.40591" lon="6.35181">
        <ele>1424.4000244141</ele>
        <time>2016-07-11T11:46:53.000Z</time>
      </trkpt>
      <trkpt lat="44.4058" lon="6.35177">
        <ele>1426</ele>
        <time>2016-07-11T11:47:02.000Z</time>
      </trkpt>
      <trkpt lat="44.40576" lon="6.35176">
        <ele>1426.5999755859</ele>
        <time>2016-07-11T11:47:05.000Z</time>
      </trkpt>
      <trkpt lat="44.40568" lon="6.35176">
        <ele>1428.4000244141</ele>
        <time>2016-07-11T11:47:11.000Z</time>
      </trkpt>
      <trkpt lat="44.40561" lon="6.35176">
        <ele>1429.5999755859</ele>
        <time>2016-07-11T11:47:16.000Z</time>
      </trkpt>
      <trkpt lat="44.40551" lon="6.3518">
        <ele>1432</ele>
        <time>2016-07-11T11:47:23.000Z</time>
      </trkpt>
      <trkpt lat="44.40543" lon="6.35183">
        <ele>1433.8000488281</ele>
        <time>2016-07-11T11:47:28.000Z</time>
      </trkpt>
      <trkpt lat="44.40541" lon="6.35185">
        <ele>1434.4000244141</ele>
        <time>2016-07-11T11:47:29.000Z</time>
      </trkpt>
      <trkpt lat="44.40533" lon="6.35193">
        <ele>1437</ele>
        <time>2016-07-11T11:47:35.000Z</time>
      </trkpt>
      <trkpt lat="44.40533" lon="6.35195">
        <ele>1437.1999511719</ele>
        <time>2016-07-11T11:47:36.000Z</time>
      </trkpt>
      <trkpt lat="44.40535" lon="6.35205">
        <ele>1438.4000244141</ele>
        <time>2016-07-11T11:47:41.000Z</time>
      </trkpt>
      <trkpt lat="44.40535" lon="6.35206">
        <ele>1438.5999755859</ele>
        <time>2016-07-11T11:47:42.000Z</time>
      </trkpt>
      <trkpt lat="44.40538" lon="6.35214">
        <ele>1439.4000244141</ele>
        <time>2016-07-11T11:47:47.000Z</time>
      </trkpt>
      <trkpt lat="44.40543" lon="6.35221">
        <ele>1439.5999755859</ele>
        <time>2016-07-11T11:47:52.000Z</time>
      </trkpt>
      <trkpt lat="44.40546" lon="6.35227">
        <ele>1440.1999511719</ele>
        <time>2016-07-11T11:47:59.000Z</time>
      </trkpt>
      <trkpt lat="44.40548" lon="6.3523">
        <ele>1440.4000244141</ele>
        <time>2016-07-11T11:48:01.000Z</time>
      </trkpt>
      <trkpt lat="44.40551" lon="6.35241">
        <ele>1441.5999755859</ele>
        <time>2016-07-11T11:48:07.000Z</time>
      </trkpt>
      <trkpt lat="44.40552" lon="6.35246">
        <ele>1442.1999511719</ele>
        <time>2016-07-11T11:48:11.000Z</time>
      </trkpt>
      <trkpt lat="44.40553" lon="6.35262">
        <ele>1444</ele>
        <time>2016-07-11T11:48:19.000Z</time>
      </trkpt>
      <trkpt lat="44.40552" lon="6.35265">
        <ele>1444.1999511719</ele>
        <time>2016-07-11T11:48:21.000Z</time>
      </trkpt>
      <trkpt lat="44.40555" lon="6.35271">
        <ele>1444.5999755859</ele>
        <time>2016-07-11T11:48:25.000Z</time>
      </trkpt>
      <trkpt lat="44.40557" lon="6.35276">
        <ele>1445</ele>
        <time>2016-07-11T11:48:29.000Z</time>
      </trkpt>
      <trkpt lat="44.40551" lon="6.35285">
        <ele>1446.1999511719</ele>
        <time>2016-07-11T11:48:36.000Z</time>
      </trkpt>
      <trkpt lat="44.40543" lon="6.35287">
        <ele>1447.1999511719</ele>
        <time>2016-07-11T11:48:43.000Z</time>
      </trkpt>
      <trkpt lat="44.40541" lon="6.35288">
        <ele>1447.5999755859</ele>
        <time>2016-07-11T11:48:44.000Z</time>
      </trkpt>
      <trkpt lat="44.40538" lon="6.35291">
        <ele>1448.1999511719</ele>
        <time>2016-07-11T11:48:48.000Z</time>
      </trkpt>
      <trkpt lat="44.40531" lon="6.35301">
        <ele>1449.8000488281</ele>
        <time>2016-07-11T11:48:55.000Z</time>
      </trkpt>
      <trkpt lat="44.40527" lon="6.35313">
        <ele>1451.1999511719</ele>
        <time>2016-07-11T11:49:02.000Z</time>
      </trkpt>
      <trkpt lat="44.40528" lon="6.35329">
        <ele>1452.4000244141</ele>
        <time>2016-07-11T11:49:10.000Z</time>
      </trkpt>
      <trkpt lat="44.40528" lon="6.3534">
        <ele>1453.1999511719</ele>
        <time>2016-07-11T11:49:16.000Z</time>
      </trkpt>
      <trkpt lat="44.40529" lon="6.35354">
        <ele>1454</ele>
        <time>2016-07-11T11:49:24.000Z</time>
      </trkpt>
      <trkpt lat="44.40529" lon="6.35365">
        <ele>1455</ele>
        <time>2016-07-11T11:49:30.000Z</time>
      </trkpt>
      <trkpt lat="44.40528" lon="6.35366">
        <ele>1455</ele>
        <time>2016-07-11T11:49:31.000Z</time>
      </trkpt>
      <trkpt lat="44.4052" lon="6.35368">
        <ele>1456</ele>
        <time>2016-07-11T11:49:37.000Z</time>
      </trkpt>
      <trkpt lat="44.40515" lon="6.35371">
        <ele>1456.5999755859</ele>
        <time>2016-07-11T11:49:40.000Z</time>
      </trkpt>
      <trkpt lat="44.40506" lon="6.35378">
        <ele>1458</ele>
        <time>2016-07-11T11:49:49.000Z</time>
      </trkpt>
      <trkpt lat="44.40494" lon="6.35386">
        <ele>1459.8000488281</ele>
        <time>2016-07-11T11:49:58.000Z</time>
      </trkpt>
      <trkpt lat="44.40485" lon="6.35395">
        <ele>1461.1999511719</ele>
        <time>2016-07-11T11:50:05.000Z</time>
      </trkpt>
      <trkpt lat="44.40484" lon="6.35396">
        <ele>1461.4000244141</ele>
        <time>2016-07-11T11:50:06.000Z</time>
      </trkpt>
      <trkpt lat="44.40474" lon="6.35404">
        <ele>1463.4000244141</ele>
        <time>2016-07-11T11:50:14.000Z</time>
      </trkpt>
      <trkpt lat="44.40467" lon="6.35411">
        <ele>1465.1999511719</ele>
        <time>2016-07-11T11:50:20.000Z</time>
      </trkpt>
      <trkpt lat="44.40456" lon="6.35416">
        <ele>1467.5999755859</ele>
        <time>2016-07-11T11:50:28.000Z</time>
      </trkpt>
      <trkpt lat="44.40445" lon="6.35416">
        <ele>1469</ele>
        <time>2016-07-11T11:50:35.000Z</time>
      </trkpt>
      <trkpt lat="44.40432" lon="6.35418">
        <ele>1470.1999511719</ele>
        <time>2016-07-11T11:50:45.000Z</time>
      </trkpt>
      <trkpt lat="44.40428" lon="6.35419">
        <ele>1470.5999755859</ele>
        <time>2016-07-11T11:50:48.000Z</time>
      </trkpt>
      <trkpt lat="44.40426" lon="6.35421">
        <ele>1471.1999511719</ele>
        <time>2016-07-11T11:50:50.000Z</time>
      </trkpt>
      <trkpt lat="44.4042" lon="6.35422">
        <ele>1471.8000488281</ele>
        <time>2016-07-11T11:50:54.000Z</time>
      </trkpt>
      <trkpt lat="44.4041" lon="6.35427">
        <ele>1473.1999511719</ele>
        <time>2016-07-11T11:51:02.000Z</time>
      </trkpt>
      <trkpt lat="44.40404" lon="6.3543">
        <ele>1474.4000244141</ele>
        <time>2016-07-11T11:51:08.000Z</time>
      </trkpt>
      <trkpt lat="44.40396" lon="6.35433">
        <ele>1475.8000488281</ele>
        <time>2016-07-11T11:51:14.000Z</time>
      </trkpt>
      <trkpt lat="44.40387" lon="6.35439">
        <ele>1478.1999511719</ele>
        <time>2016-07-11T11:51:21.000Z</time>
      </trkpt>
      <trkpt lat="44.40383" lon="6.35448">
        <ele>1480.8000488281</ele>
        <time>2016-07-11T11:51:27.000Z</time>
      </trkpt>
      <trkpt lat="44.40382" lon="6.35449">
        <ele>1481</ele>
        <time>2016-07-11T11:51:28.000Z</time>
      </trkpt>
      <trkpt lat="44.40379" lon="6.35444">
        <ele>1480.1999511719</ele>
        <time>2016-07-11T11:51:34.000Z</time>
      </trkpt>
      <trkpt lat="44.40374" lon="6.3544">
        <ele>1479.8000488281</ele>
        <time>2016-07-11T11:51:39.000Z</time>
      </trkpt>
      <trkpt lat="44.40368" lon="6.35441">
        <ele>1480.8000488281</ele>
        <time>2016-07-11T11:51:44.000Z</time>
      </trkpt>
      <trkpt lat="44.40363" lon="6.35444">
        <ele>1481.5999755859</ele>
        <time>2016-07-11T11:51:47.000Z</time>
      </trkpt>
      <trkpt lat="44.40357" lon="6.35447">
        <ele>1482.8000488281</ele>
        <time>2016-07-11T11:51:52.000Z</time>
      </trkpt>
      <trkpt lat="44.40356" lon="6.35447">
        <ele>1482.8000488281</ele>
        <time>2016-07-11T11:51:53.000Z</time>
      </trkpt>
      <trkpt lat="44.40354" lon="6.35447">
        <ele>1482.8000488281</ele>
        <time>2016-07-11T11:51:55.000Z</time>
      </trkpt>
      <trkpt lat="44.40344" lon="6.3545">
        <ele>1483.8000488281</ele>
        <time>2016-07-11T11:52:01.000Z</time>
      </trkpt>
      <trkpt lat="44.40343" lon="6.35451">
        <ele>1484</ele>
        <time>2016-07-11T11:52:02.000Z</time>
      </trkpt>
      <trkpt lat="44.40335" lon="6.35453">
        <ele>1484.5999755859</ele>
        <time>2016-07-11T11:52:07.000Z</time>
      </trkpt>
      <trkpt lat="44.40322" lon="6.35454">
        <ele>1486.1999511719</ele>
        <time>2016-07-11T11:52:15.000Z</time>
      </trkpt>
      <trkpt lat="44.4031" lon="6.35452">
        <ele>1486.4000244141</ele>
        <time>2016-07-11T11:52:22.000Z</time>
      </trkpt>
      <trkpt lat="44.403" lon="6.35449">
        <ele>1486</ele>
        <time>2016-07-11T11:52:29.000Z</time>
      </trkpt>
      <trkpt lat="44.40293" lon="6.35447">
        <ele>1486</ele>
        <time>2016-07-11T11:52:34.000Z</time>
      </trkpt>
      <trkpt lat="44.40292" lon="6.35447">
        <ele>1486.1999511719</ele>
        <time>2016-07-11T11:52:35.000Z</time>
      </trkpt>
      <trkpt lat="44.40283" lon="6.35445">
        <ele>1486</ele>
        <time>2016-07-11T11:52:40.000Z</time>
      </trkpt>
      <trkpt lat="44.40267" lon="6.35441">
        <ele>1485.4000244141</ele>
        <time>2016-07-11T11:52:48.000Z</time>
      </trkpt>
      <trkpt lat="44.40257" lon="6.3544">
        <ele>1485.4000244141</ele>
        <time>2016-07-11T11:52:53.000Z</time>
      </trkpt>
      <trkpt lat="44.40247" lon="6.35438">
        <ele>1485</ele>
        <time>2016-07-11T11:52:58.000Z</time>
      </trkpt>
      <trkpt lat="44.40237" lon="6.35437">
        <ele>1484.8000488281</ele>
        <time>2016-07-11T11:53:02.000Z</time>
      </trkpt>
      <trkpt lat="44.40225" lon="6.35432">
        <ele>1483.1999511719</ele>
        <time>2016-07-11T11:53:08.000Z</time>
      </trkpt>
      <trkpt lat="44.40213" lon="6.3543">
        <ele>1482</ele>
        <time>2016-07-11T11:53:13.000Z</time>
      </trkpt>
      <trkpt lat="44.402" lon="6.35426">
        <ele>1480.5999755859</ele>
        <time>2016-07-11T11:53:19.000Z</time>
      </trkpt>
      <trkpt lat="44.40194" lon="6.35425">
        <ele>1480.5999755859</ele>
        <time>2016-07-11T11:53:23.000Z</time>
      </trkpt>
      <trkpt lat="44.40185" lon="6.35422">
        <ele>1481</ele>
        <time>2016-07-11T11:53:29.000Z</time>
      </trkpt>
      <trkpt lat="44.40174" lon="6.35419">
        <ele>1481.5999755859</ele>
        <time>2016-07-11T11:53:36.000Z</time>
      </trkpt>
      <trkpt lat="44.40168" lon="6.35419">
        <ele>1482</ele>
        <time>2016-07-11T11:53:40.000Z</time>
      </trkpt>
      <trkpt lat="44.40151" lon="6.35414">
        <ele>1482.8000488281</ele>
        <time>2016-07-11T11:53:51.000Z</time>
      </trkpt>
      <trkpt lat="44.40132" lon="6.35405">
        <ele>1482.8000488281</ele>
        <time>2016-07-11T11:54:04.000Z</time>
      </trkpt>
      <trkpt lat="44.40124" lon="6.35404">
        <ele>1483.4000244141</ele>
        <time>2016-07-11T11:54:09.000Z</time>
      </trkpt>
      <trkpt lat="44.40123" lon="6.35403">
        <ele>1483.4000244141</ele>
        <time>2016-07-11T11:54:10.000Z</time>
      </trkpt>
      <trkpt lat="44.40117" lon="6.35402">
        <ele>1483.5999755859</ele>
        <time>2016-07-11T11:54:15.000Z</time>
      </trkpt>
      <trkpt lat="44.40112" lon="6.35401">
        <ele>1483.5999755859</ele>
        <time>2016-07-11T11:54:19.000Z</time>
      </trkpt>
      <trkpt lat="44.40101" lon="6.35396">
        <ele>1482.5999755859</ele>
        <time>2016-07-11T11:54:26.000Z</time>
      </trkpt>
      <trkpt lat="44.4009" lon="6.35394">
        <ele>1482</ele>
        <time>2016-07-11T11:54:32.000Z</time>
      </trkpt>
      <trkpt lat="44.40082" lon="6.3539">
        <ele>1481.4000244141</ele>
        <time>2016-07-11T11:54:38.000Z</time>
      </trkpt>
      <trkpt lat="44.4008" lon="6.3539">
        <ele>1481.1999511719</ele>
        <time>2016-07-11T11:54:39.000Z</time>
      </trkpt>
      <trkpt lat="44.40072" lon="6.35384">
        <ele>1480</ele>
        <time>2016-07-11T11:54:45.000Z</time>
      </trkpt>
      <trkpt lat="44.40062" lon="6.35378">
        <ele>1478.8000488281</ele>
        <time>2016-07-11T11:54:53.000Z</time>
      </trkpt>
      <trkpt lat="44.4006" lon="6.35376">
        <ele>1478.4000244141</ele>
        <time>2016-07-11T11:54:54.000Z</time>
      </trkpt>
      <trkpt lat="44.40054" lon="6.35372">
        <ele>1477.5999755859</ele>
        <time>2016-07-11T11:54:59.000Z</time>
      </trkpt>
      <trkpt lat="44.40045" lon="6.35368">
        <ele>1476.8000488281</ele>
        <time>2016-07-11T11:55:06.000Z</time>
      </trkpt>
      <trkpt lat="44.40033" lon="6.35365">
        <ele>1476</ele>
        <time>2016-07-11T11:55:13.000Z</time>
      </trkpt>
      <trkpt lat="44.40032" lon="6.35365">
        <ele>1476.1999511719</ele>
        <time>2016-07-11T11:55:14.000Z</time>
      </trkpt>
      <trkpt lat="44.40024" lon="6.35367">
        <ele>1475.8000488281</ele>
        <time>2016-07-11T11:55:19.000Z</time>
      </trkpt>
      <trkpt lat="44.40022" lon="6.35367">
        <ele>1475.5999755859</ele>
        <time>2016-07-11T11:55:21.000Z</time>
      </trkpt>
      <trkpt lat="44.40019" lon="6.35371">
        <ele>1476</ele>
        <time>2016-07-11T11:55:25.000Z</time>
      </trkpt>
      <trkpt lat="44.40022" lon="6.35389">
        <ele>1479.4000244141</ele>
        <time>2016-07-11T11:55:35.000Z</time>
      </trkpt>
      <trkpt lat="44.40018" lon="6.35399">
        <ele>1480.1999511719</ele>
        <time>2016-07-11T11:55:41.000Z</time>
      </trkpt>
      <trkpt lat="44.40013" lon="6.35407">
        <ele>1480.4000244141</ele>
        <time>2016-07-11T11:55:47.000Z</time>
      </trkpt>
      <trkpt lat="44.40009" lon="6.35421">
        <ele>1481.1999511719</ele>
        <time>2016-07-11T11:55:55.000Z</time>
      </trkpt>
      <trkpt lat="44.40009" lon="6.35422">
        <ele>1481.4000244141</ele>
        <time>2016-07-11T11:55:56.000Z</time>
      </trkpt>
      <trkpt lat="44.40008" lon="6.35427">
        <ele>1481.8000488281</ele>
        <time>2016-07-11T11:55:59.000Z</time>
      </trkpt>
      <trkpt lat="44.40009" lon="6.3543">
        <ele>1482.1999511719</ele>
        <time>2016-07-11T11:56:01.000Z</time>
      </trkpt>
      <trkpt lat="44.40008" lon="6.35439">
        <ele>1483</ele>
        <time>2016-07-11T11:56:07.000Z</time>
      </trkpt>
      <trkpt lat="44.40008" lon="6.3544">
        <ele>1483.1999511719</ele>
        <time>2016-07-11T11:56:08.000Z</time>
      </trkpt>
      <trkpt lat="44.40008" lon="6.35441">
        <ele>1483.1999511719</ele>
        <time>2016-07-11T11:56:09.000Z</time>
      </trkpt>
      <trkpt lat="44.40008" lon="6.35448">
        <ele>1484</ele>
        <time>2016-07-11T11:56:14.000Z</time>
      </trkpt>
      <trkpt lat="44.40007" lon="6.3545">
        <ele>1484</ele>
        <time>2016-07-11T11:56:15.000Z</time>
      </trkpt>
      <trkpt lat="44.40004" lon="6.35456">
        <ele>1484.4000244141</ele>
        <time>2016-07-11T11:56:19.000Z</time>
      </trkpt>
      <trkpt lat="44.40001" lon="6.35467">
        <ele>1485.5999755859</ele>
        <time>2016-07-11T11:56:26.000Z</time>
      </trkpt>
      <trkpt lat="44.4" lon="6.35472">
        <ele>1486.1999511719</ele>
        <time>2016-07-11T11:56:29.000Z</time>
      </trkpt>
      <trkpt lat="44.39998" lon="6.35476">
        <ele>1486.5999755859</ele>
        <time>2016-07-11T11:56:32.000Z</time>
      </trkpt>
      <trkpt lat="44.39991" lon="6.35486">
        <ele>1487.8000488281</ele>
        <time>2016-07-11T11:56:38.000Z</time>
      </trkpt>
      <trkpt lat="44.39986" lon="6.35495">
        <ele>1489</ele>
        <time>2016-07-11T11:56:44.000Z</time>
      </trkpt>
      <trkpt lat="44.39978" lon="6.35505">
        <ele>1490.4000244141</ele>
        <time>2016-07-11T11:56:52.000Z</time>
      </trkpt>
      <trkpt lat="44.39967" lon="6.35519">
        <ele>1492.1999511719</ele>
        <time>2016-07-11T11:57:03.000Z</time>
      </trkpt>
      <trkpt lat="44.39957" lon="6.3553">
        <ele>1493.5999755859</ele>
        <time>2016-07-11T11:57:12.000Z</time>
      </trkpt>
      <trkpt lat="44.39951" lon="6.35539">
        <ele>1494.8000488281</ele>
        <time>2016-07-11T11:57:19.000Z</time>
      </trkpt>
      <trkpt lat="44.39942" lon="6.3555">
        <ele>1496.1999511719</ele>
        <time>2016-07-11T11:57:27.000Z</time>
      </trkpt>
      <trkpt lat="44.39935" lon="6.35564">
        <ele>1497.4000244141</ele>
        <time>2016-07-11T11:57:36.000Z</time>
      </trkpt>
      <trkpt lat="44.39928" lon="6.35582">
        <ele>1500.8000488281</ele>
        <time>2016-07-11T11:57:46.000Z</time>
      </trkpt>
      <trkpt lat="44.39924" lon="6.35593">
        <ele>1502.8000488281</ele>
        <time>2016-07-11T11:57:53.000Z</time>
      </trkpt>
      <trkpt lat="44.39919" lon="6.35603">
        <ele>1504.5999755859</ele>
        <time>2016-07-11T11:58:00.000Z</time>
      </trkpt>
      <trkpt lat="44.39914" lon="6.35612">
        <ele>1505.8000488281</ele>
        <time>2016-07-11T11:58:07.000Z</time>
      </trkpt>
      <trkpt lat="44.39908" lon="6.35617">
        <ele>1506</ele>
        <time>2016-07-11T11:58:13.000Z</time>
      </trkpt>
      <trkpt lat="44.39907" lon="6.35618">
        <ele>1506</ele>
        <time>2016-07-11T11:58:14.000Z</time>
      </trkpt>
      <trkpt lat="44.39901" lon="6.35622">
        <ele>1506</ele>
        <time>2016-07-11T11:58:18.000Z</time>
      </trkpt>
      <trkpt lat="44.39896" lon="6.35626">
        <ele>1506.1999511719</ele>
        <time>2016-07-11T11:58:23.000Z</time>
      </trkpt>
      <trkpt lat="44.39892" lon="6.35629">
        <ele>1506.1999511719</ele>
        <time>2016-07-11T11:58:27.000Z</time>
      </trkpt>
      <trkpt lat="44.39888" lon="6.35633">
        <ele>1506.4000244141</ele>
        <time>2016-07-11T11:58:31.000Z</time>
      </trkpt>
      <trkpt lat="44.39882" lon="6.3564">
        <ele>1507.1999511719</ele>
        <time>2016-07-11T11:58:38.000Z</time>
      </trkpt>
      <trkpt lat="44.3988" lon="6.35643">
        <ele>1507.4000244141</ele>
        <time>2016-07-11T11:58:39.000Z</time>
      </trkpt>
      <trkpt lat="44.39872" lon="6.35656">
        <ele>1509.1999511719</ele>
        <time>2016-07-11T11:58:48.000Z</time>
      </trkpt>
      <trkpt lat="44.39865" lon="6.35669">
        <ele>1510.8000488281</ele>
        <time>2016-07-11T11:58:56.000Z</time>
      </trkpt>
      <trkpt lat="44.39862" lon="6.35673">
        <ele>1511.1999511719</ele>
        <time>2016-07-11T11:58:59.000Z</time>
      </trkpt>
      <trkpt lat="44.39852" lon="6.35684">
        <ele>1511.4000244141</ele>
        <time>2016-07-11T11:59:07.000Z</time>
      </trkpt>
      <trkpt lat="44.3985" lon="6.35685">
        <ele>1511.1999511719</ele>
        <time>2016-07-11T11:59:09.000Z</time>
      </trkpt>
      <trkpt lat="44.39844" lon="6.3569">
        <ele>1511.1999511719</ele>
        <time>2016-07-11T11:59:14.000Z</time>
      </trkpt>
      <trkpt lat="44.39835" lon="6.35698">
        <ele>1511</ele>
        <time>2016-07-11T11:59:21.000Z</time>
      </trkpt>
      <trkpt lat="44.39832" lon="6.35702">
        <ele>1510.8000488281</ele>
        <time>2016-07-11T11:59:24.000Z</time>
      </trkpt>
      <trkpt lat="44.3983" lon="6.35704">
        <ele>1510.5999755859</ele>
        <time>2016-07-11T11:59:26.000Z</time>
      </trkpt>
      <trkpt lat="44.39821" lon="6.35715">
        <ele>1509</ele>
        <time>2016-07-11T11:59:35.000Z</time>
      </trkpt>
      <trkpt lat="44.39821" lon="6.35717">
        <ele>1509</ele>
        <time>2016-07-11T11:59:36.000Z</time>
      </trkpt>
      <trkpt lat="44.39813" lon="6.35734">
        <ele>1508.5999755859</ele>
        <time>2016-07-11T11:59:45.000Z</time>
      </trkpt>
      <trkpt lat="44.39805" lon="6.35744">
        <ele>1507.1999511719</ele>
        <time>2016-07-11T11:59:53.000Z</time>
      </trkpt>
      <trkpt lat="44.39802" lon="6.35748">
        <ele>1507</ele>
        <time>2016-07-11T11:59:56.000Z</time>
      </trkpt>
      <trkpt lat="44.39802" lon="6.35767">
        <ele>1508.8000488281</ele>
        <time>2016-07-11T12:00:05.000Z</time>
      </trkpt>
      <trkpt lat="44.39802" lon="6.35781">
        <ele>1510.4000244141</ele>
        <time>2016-07-11T12:00:12.000Z</time>
      </trkpt>
      <trkpt lat="44.39802" lon="6.35794">
        <ele>1511.8000488281</ele>
        <time>2016-07-11T12:00:19.000Z</time>
      </trkpt>
      <trkpt lat="44.39802" lon="6.35799">
        <ele>1512.1999511719</ele>
        <time>2016-07-11T12:00:21.000Z</time>
      </trkpt>
      <trkpt lat="44.39802" lon="6.35802">
        <ele>1512.8000488281</ele>
        <time>2016-07-11T12:00:23.000Z</time>
      </trkpt>
      <trkpt lat="44.39803" lon="6.35816">
        <ele>1514.4000244141</ele>
        <time>2016-07-11T12:00:30.000Z</time>
      </trkpt>
      <trkpt lat="44.39801" lon="6.35821">
        <ele>1514.4000244141</ele>
        <time>2016-07-11T12:00:32.000Z</time>
      </trkpt>
      <trkpt lat="44.39798" lon="6.35838">
        <ele>1515.5999755859</ele>
        <time>2016-07-11T12:00:40.000Z</time>
      </trkpt>
      <trkpt lat="44.39795" lon="6.3585">
        <ele>1517</ele>
        <time>2016-07-11T12:00:46.000Z</time>
      </trkpt>
      <trkpt lat="44.39787" lon="6.35862">
        <ele>1517.5999755859</ele>
        <time>2016-07-11T12:00:53.000Z</time>
      </trkpt>
      <trkpt lat="44.3978" lon="6.35873">
        <ele>1518.1999511719</ele>
        <time>2016-07-11T12:01:00.000Z</time>
      </trkpt>
      <trkpt lat="44.3978" lon="6.35874">
        <ele>1518.4000244141</ele>
        <time>2016-07-11T12:01:01.000Z</time>
      </trkpt>
      <trkpt lat="44.39779" lon="6.3588">
        <ele>1519.4000244141</ele>
        <time>2016-07-11T12:01:04.000Z</time>
      </trkpt>
      <trkpt lat="44.39777" lon="6.35896">
        <ele>1522.5999755859</ele>
        <time>2016-07-11T12:01:12.000Z</time>
      </trkpt>
      <trkpt lat="44.39776" lon="6.35898">
        <ele>1523</ele>
        <time>2016-07-11T12:01:13.000Z</time>
      </trkpt>
      <trkpt lat="44.39767" lon="6.359">
        <ele>1523.4000244141</ele>
        <time>2016-07-11T12:01:17.000Z</time>
      </trkpt>
      <trkpt lat="44.39755" lon="6.35903">
        <ele>1523.8000488281</ele>
        <time>2016-07-11T12:01:25.000Z</time>
      </trkpt>
      <trkpt lat="44.39747" lon="6.35912">
        <ele>1525.8000488281</ele>
        <time>2016-07-11T12:01:33.000Z</time>
      </trkpt>
      <trkpt lat="44.39746" lon="6.35914">
        <ele>1526</ele>
        <time>2016-07-11T12:01:34.000Z</time>
      </trkpt>
      <trkpt lat="44.39742" lon="6.35928">
        <ele>1529</ele>
        <time>2016-07-11T12:01:41.000Z</time>
      </trkpt>
      <trkpt lat="44.3974" lon="6.3594">
        <ele>1531.5999755859</ele>
        <time>2016-07-11T12:01:47.000Z</time>
      </trkpt>
      <trkpt lat="44.39731" lon="6.35945">
        <ele>1532</ele>
        <time>2016-07-11T12:01:53.000Z</time>
      </trkpt>
      <trkpt lat="44.39718" lon="6.35944">
        <ele>1531.1999511719</ele>
        <time>2016-07-11T12:02:01.000Z</time>
      </trkpt>
      <trkpt lat="44.3971" lon="6.35943">
        <ele>1530.8000488281</ele>
        <time>2016-07-11T12:02:08.000Z</time>
      </trkpt>
      <trkpt lat="44.39703" lon="6.35941">
        <ele>1530</ele>
        <time>2016-07-11T12:02:13.000Z</time>
      </trkpt>
      <trkpt lat="44.39703" lon="6.3594">
        <ele>1530</ele>
        <time>2016-07-11T12:02:14.000Z</time>
      </trkpt>
      <trkpt lat="44.39698" lon="6.35938">
        <ele>1529.1999511719</ele>
        <time>2016-07-11T12:02:18.000Z</time>
      </trkpt>
      <trkpt lat="44.39694" lon="6.35936">
        <ele>1529.1999511719</ele>
        <time>2016-07-11T12:02:21.000Z</time>
      </trkpt>
      <trkpt lat="44.3969" lon="6.35934">
        <ele>1529.1999511719</ele>
        <time>2016-07-11T12:02:28.000Z</time>
      </trkpt>
      <trkpt lat="44.39687" lon="6.35933">
        <ele>1529.1999511719</ele>
        <time>2016-07-11T12:02:40.000Z</time>
      </trkpt>
      <trkpt lat="44.39682" lon="6.35932">
        <ele>1529.4000244141</ele>
        <time>2016-07-11T12:02:58.000Z</time>
      </trkpt>
      <trkpt lat="44.39677" lon="6.35928">
        <ele>1529</ele>
        <time>2016-07-11T12:03:04.000Z</time>
      </trkpt>
      <trkpt lat="44.39676" lon="6.35927">
        <ele>1528.8000488281</ele>
        <time>2016-07-11T12:03:05.000Z</time>
      </trkpt>
      <trkpt lat="44.39669" lon="6.35922">
        <ele>1528.4000244141</ele>
        <time>2016-07-11T12:03:10.000Z</time>
      </trkpt>
      <trkpt lat="44.39663" lon="6.35918">
        <ele>1528.1999511719</ele>
        <time>2016-07-11T12:03:16.000Z</time>
      </trkpt>
      <trkpt lat="44.39662" lon="6.35918">
        <ele>1528.1999511719</ele>
        <time>2016-07-11T12:03:17.000Z</time>
      </trkpt>
      <trkpt lat="44.39656" lon="6.35914">
        <ele>1528</ele>
        <time>2016-07-11T12:03:21.000Z</time>
      </trkpt>
      <trkpt lat="44.39648" lon="6.35914">
        <ele>1528.4000244141</ele>
        <time>2016-07-11T12:03:27.000Z</time>
      </trkpt>
      <trkpt lat="44.39647" lon="6.35914">
        <ele>1528.5999755859</ele>
        <time>2016-07-11T12:03:28.000Z</time>
      </trkpt>
      <trkpt lat="44.39643" lon="6.35922">
        <ele>1530.1999511719</ele>
        <time>2016-07-11T12:03:33.000Z</time>
      </trkpt>
      <trkpt lat="44.39641" lon="6.35928">
        <ele>1531.5999755859</ele>
        <time>2016-07-11T12:03:37.000Z</time>
      </trkpt>
      <trkpt lat="44.3964" lon="6.35931">
        <ele>1532.1999511719</ele>
        <time>2016-07-11T12:03:39.000Z</time>
      </trkpt>
      <trkpt lat="44.39638" lon="6.35943">
        <ele>1534.1999511719</ele>
        <time>2016-07-11T12:03:46.000Z</time>
      </trkpt>
      <trkpt lat="44.39637" lon="6.35949">
        <ele>1535.1999511719</ele>
        <time>2016-07-11T12:03:50.000Z</time>
      </trkpt>
      <trkpt lat="44.39637" lon="6.35957">
        <ele>1536.5999755859</ele>
        <time>2016-07-11T12:03:55.000Z</time>
      </trkpt>
      <trkpt lat="44.39637" lon="6.35961">
        <ele>1537.1999511719</ele>
        <time>2016-07-11T12:03:57.000Z</time>
      </trkpt>
      <trkpt lat="44.39636" lon="6.35969">
        <ele>1538.8000488281</ele>
        <time>2016-07-11T12:04:01.000Z</time>
      </trkpt>
      <trkpt lat="44.39636" lon="6.35973">
        <ele>1539.4000244141</ele>
        <time>2016-07-11T12:04:03.000Z</time>
      </trkpt>
      <trkpt lat="44.39634" lon="6.35976">
        <ele>1540</ele>
        <time>2016-07-11T12:04:10.000Z</time>
      </trkpt>
      <trkpt lat="44.39629" lon="6.35987">
        <ele>1542.5999755859</ele>
        <time>2016-07-11T12:04:42.000Z</time>
      </trkpt>
      <trkpt lat="44.39622" lon="6.35986">
        <ele>1542.8000488281</ele>
        <time>2016-07-11T12:04:48.000Z</time>
      </trkpt>
      <trkpt lat="44.39616" lon="6.35981">
        <ele>1542</ele>
        <time>2016-07-11T12:04:53.000Z</time>
      </trkpt>
      <trkpt lat="44.39604" lon="6.35978">
        <ele>1541.4000244141</ele>
        <time>2016-07-11T12:05:02.000Z</time>
      </trkpt>
      <trkpt lat="44.39603" lon="6.35978">
        <ele>1541.4000244141</ele>
        <time>2016-07-11T12:05:03.000Z</time>
      </trkpt>
      <trkpt lat="44.39595" lon="6.35979">
        <ele>1541.5999755859</ele>
        <time>2016-07-11T12:05:09.000Z</time>
      </trkpt>
      <trkpt lat="44.39583" lon="6.35982">
        <ele>1542</ele>
        <time>2016-07-11T12:05:18.000Z</time>
      </trkpt>
      <trkpt lat="44.3958" lon="6.35982">
        <ele>1541.8000488281</ele>
        <time>2016-07-11T12:05:21.000Z</time>
      </trkpt>
      <trkpt lat="44.3957" lon="6.35985">
        <ele>1542.5999755859</ele>
        <time>2016-07-11T12:05:29.000Z</time>
      </trkpt>
      <trkpt lat="44.39568" lon="6.35986">
        <ele>1542.5999755859</ele>
        <time>2016-07-11T12:05:30.000Z</time>
      </trkpt>
      <trkpt lat="44.39562" lon="6.35987">
        <ele>1542.8000488281</ele>
        <time>2016-07-11T12:05:35.000Z</time>
      </trkpt>
      <trkpt lat="44.39552" lon="6.35991">
        <ele>1543.8000488281</ele>
        <time>2016-07-11T12:05:43.000Z</time>
      </trkpt>
      <trkpt lat="44.39545" lon="6.35992">
        <ele>1544.1999511719</ele>
        <time>2016-07-11T12:05:48.000Z</time>
      </trkpt>
      <trkpt lat="44.39535" lon="6.35994">
        <ele>1544</ele>
        <time>2016-07-11T12:05:53.000Z</time>
      </trkpt>
      <trkpt lat="44.39529" lon="6.35998">
        <ele>1544.4000244141</ele>
        <time>2016-07-11T12:05:58.000Z</time>
      </trkpt>
      <trkpt lat="44.39527" lon="6.35998">
        <ele>1544.4000244141</ele>
        <time>2016-07-11T12:05:59.000Z</time>
      </trkpt>
      <trkpt lat="44.39522" lon="6.36003">
        <ele>1545</ele>
        <time>2016-07-11T12:06:05.000Z</time>
      </trkpt>
      <trkpt lat="44.39518" lon="6.36008">
        <ele>1545.8000488281</ele>
        <time>2016-07-11T12:06:08.000Z</time>
      </trkpt>
      <trkpt lat="44.39511" lon="6.36018">
        <ele>1547.5999755859</ele>
        <time>2016-07-11T12:06:14.000Z</time>
      </trkpt>
      <trkpt lat="44.39499" lon="6.36032">
        <ele>1549.5999755859</ele>
        <time>2016-07-11T12:06:22.000Z</time>
      </trkpt>
      <trkpt lat="44.39489" lon="6.36041">
        <ele>1550.4000244141</ele>
        <time>2016-07-11T12:06:30.000Z</time>
      </trkpt>
      <trkpt lat="44.39481" lon="6.36047">
        <ele>1550.8000488281</ele>
        <time>2016-07-11T12:06:36.000Z</time>
      </trkpt>
      <trkpt lat="44.39473" lon="6.36055">
        <ele>1551.5999755859</ele>
        <time>2016-07-11T12:06:43.000Z</time>
      </trkpt>
      <trkpt lat="44.39466" lon="6.36062">
        <ele>1552.1999511719</ele>
        <time>2016-07-11T12:06:49.000Z</time>
      </trkpt>
      <trkpt lat="44.3946" lon="6.3607">
        <ele>1552.5999755859</ele>
        <time>2016-07-11T12:06:55.000Z</time>
      </trkpt>
      <trkpt lat="44.39456" lon="6.36081">
        <ele>1553.8000488281</ele>
        <time>2016-07-11T12:07:02.000Z</time>
      </trkpt>
      <trkpt lat="44.39455" lon="6.36084">
        <ele>1554</ele>
        <time>2016-07-11T12:07:04.000Z</time>
      </trkpt>
      <trkpt lat="44.39451" lon="6.3609">
        <ele>1554.5999755859</ele>
        <time>2016-07-11T12:07:08.000Z</time>
      </trkpt>
      <trkpt lat="44.39448" lon="6.36096">
        <ele>1555.1999511719</ele>
        <time>2016-07-11T12:07:17.000Z</time>
      </trkpt>
      <trkpt lat="44.39449" lon="6.36098">
        <ele>1555.5999755859</ele>
        <time>2016-07-11T12:07:29.000Z</time>
      </trkpt>
      <trkpt lat="44.39443" lon="6.36102">
        <ele>1555.8000488281</ele>
        <time>2016-07-11T12:07:56.000Z</time>
      </trkpt>
      <trkpt lat="44.3944" lon="6.36103">
        <ele>1555.8000488281</ele>
        <time>2016-07-11T12:07:58.000Z</time>
      </trkpt>
      <trkpt lat="44.39436" lon="6.36099">
        <ele>1555.1999511719</ele>
        <time>2016-07-11T12:08:04.000Z</time>
      </trkpt>
      <trkpt lat="44.39435" lon="6.36099">
        <ele>1555</ele>
        <time>2016-07-11T12:08:11.000Z</time>
      </trkpt>
      <trkpt lat="44.39434" lon="6.36101">
        <ele>1555.4000244141</ele>
        <time>2016-07-11T12:08:23.000Z</time>
      </trkpt>
      <trkpt lat="44.39432" lon="6.361">
        <ele>1555.1999511719</ele>
        <time>2016-07-11T12:08:32.000Z</time>
      </trkpt>
      <trkpt lat="44.39432" lon="6.36099">
        <ele>1555</ele>
        <time>2016-07-11T12:08:38.000Z</time>
      </trkpt>
      <trkpt lat="44.39428" lon="6.36093">
        <ele>1554</ele>
        <time>2016-07-11T12:08:45.000Z</time>
      </trkpt>
      <trkpt lat="44.39421" lon="6.36085">
        <ele>1552.8000488281</ele>
        <time>2016-07-11T12:08:52.000Z</time>
      </trkpt>
      <trkpt lat="44.39419" lon="6.36084">
        <ele>1552.5999755859</ele>
        <time>2016-07-11T12:08:53.000Z</time>
      </trkpt>
      <trkpt lat="44.39417" lon="6.36077">
        <ele>1551.5999755859</ele>
        <time>2016-07-11T12:08:59.000Z</time>
      </trkpt>
      <trkpt lat="44.39414" lon="6.36071">
        <ele>1550.5999755859</ele>
        <time>2016-07-11T12:09:03.000Z</time>
      </trkpt>
      <trkpt lat="44.3941" lon="6.36065">
        <ele>1549.8000488281</ele>
        <time>2016-07-11T12:09:08.000Z</time>
      </trkpt>
      <trkpt lat="44.39409" lon="6.36064">
        <ele>1549.4000244141</ele>
        <time>2016-07-11T12:09:09.000Z</time>
      </trkpt>
      <trkpt lat="44.39408" lon="6.36062">
        <ele>1549.1999511719</ele>
        <time>2016-07-11T12:09:10.000Z</time>
      </trkpt>
      <trkpt lat="44.39405" lon="6.36058">
        <ele>1548.1999511719</ele>
        <time>2016-07-11T12:09:14.000Z</time>
      </trkpt>
      <trkpt lat="44.39402" lon="6.36048">
        <ele>1546</ele>
        <time>2016-07-11T12:09:26.000Z</time>
      </trkpt>
      <trkpt lat="44.394" lon="6.36044">
        <ele>1545</ele>
        <time>2016-07-11T12:09:29.000Z</time>
      </trkpt>
      <trkpt lat="44.39395" lon="6.36033">
        <ele>1542.8000488281</ele>
        <time>2016-07-11T12:09:35.000Z</time>
      </trkpt>
      <trkpt lat="44.39395" lon="6.36031">
        <ele>1542.4000244141</ele>
        <time>2016-07-11T12:09:36.000Z</time>
      </trkpt>
      <trkpt lat="44.39394" lon="6.36022">
        <ele>1540.4000244141</ele>
        <time>2016-07-11T12:09:43.000Z</time>
      </trkpt>
      <trkpt lat="44.39396" lon="6.36016">
        <ele>1539.1999511719</ele>
        <time>2016-07-11T12:09:48.000Z</time>
      </trkpt>
      <trkpt lat="44.39396" lon="6.36013">
        <ele>1538.5999755859</ele>
        <time>2016-07-11T12:09:50.000Z</time>
      </trkpt>
      <trkpt lat="44.39396" lon="6.36006">
        <ele>1537.1999511719</ele>
        <time>2016-07-11T12:09:55.000Z</time>
      </trkpt>
      <trkpt lat="44.39394" lon="6.36003">
        <ele>1536.5999755859</ele>
        <time>2016-07-11T12:10:04.000Z</time>
      </trkpt>
      <trkpt lat="44.39393" lon="6.35997">
        <ele>1535.5999755859</ele>
        <time>2016-07-11T12:10:23.000Z</time>
      </trkpt>
      <trkpt lat="44.39393" lon="6.35996">
        <ele>1535.1999511719</ele>
        <time>2016-07-11T12:10:45.000Z</time>
      </trkpt>
      <trkpt lat="44.39392" lon="6.35996">
        <ele>1535</ele>
        <time>2016-07-11T12:10:49.000Z</time>
      </trkpt>
      <trkpt lat="44.39393" lon="6.35995">
        <ele>1535</ele>
        <time>2016-07-11T12:10:54.000Z</time>
      </trkpt>
      <trkpt lat="44.39393" lon="6.35997">
        <ele>1535.4000244141</ele>
        <time>2016-07-11T12:11:19.000Z</time>
      </trkpt>
      <trkpt lat="44.3939" lon="6.35992">
        <ele>1534.1999511719</ele>
        <time>2016-07-11T12:11:24.000Z</time>
      </trkpt>
      <trkpt lat="44.39388" lon="6.35991">
        <ele>1534</ele>
        <time>2016-07-11T12:11:25.000Z</time>
      </trkpt>
      <trkpt lat="44.39387" lon="6.35989">
        <ele>1533.8000488281</ele>
        <time>2016-07-11T12:11:26.000Z</time>
      </trkpt>
      <trkpt lat="44.39384" lon="6.35984">
        <ele>1532.5999755859</ele>
        <time>2016-07-11T12:11:31.000Z</time>
      </trkpt>
      <trkpt lat="44.39378" lon="6.35976">
        <ele>1530.4000244141</ele>
        <time>2016-07-11T12:11:37.000Z</time>
      </trkpt>
      <trkpt lat="44.39377" lon="6.35975">
        <ele>1530</ele>
        <time>2016-07-11T12:11:38.000Z</time>
      </trkpt>
      <trkpt lat="44.39375" lon="6.35972">
        <ele>1529.1999511719</ele>
        <time>2016-07-11T12:11:40.000Z</time>
      </trkpt>
      <trkpt lat="44.39369" lon="6.35964">
        <ele>1527.1999511719</ele>
        <time>2016-07-11T12:11:46.000Z</time>
      </trkpt>
      <trkpt lat="44.39369" lon="6.35963">
        <ele>1526.8000488281</ele>
        <time>2016-07-11T12:11:47.000Z</time>
      </trkpt>
      <trkpt lat="44.39362" lon="6.35951">
        <ele>1524</ele>
        <time>2016-07-11T12:11:55.000Z</time>
      </trkpt>
      <trkpt lat="44.39358" lon="6.35945">
        <ele>1522.5999755859</ele>
        <time>2016-07-11T12:11:59.000Z</time>
      </trkpt>
      <trkpt lat="44.39358" lon="6.35936">
        <ele>1520.4000244141</ele>
        <time>2016-07-11T12:12:06.000Z</time>
      </trkpt>
      <trkpt lat="44.39355" lon="6.35926">
        <ele>1518</ele>
        <time>2016-07-11T12:12:12.000Z</time>
      </trkpt>
      <trkpt lat="44.39352" lon="6.35921">
        <ele>1517.1999511719</ele>
        <time>2016-07-11T12:12:15.000Z</time>
      </trkpt>
      <trkpt lat="44.39347" lon="6.35917">
        <ele>1516.1999511719</ele>
        <time>2016-07-11T12:12:20.000Z</time>
      </trkpt>
      <trkpt lat="44.39342" lon="6.35915">
        <ele>1515.8000488281</ele>
        <time>2016-07-11T12:12:25.000Z</time>
      </trkpt>
      <trkpt lat="44.39335" lon="6.3591">
        <ele>1515</ele>
        <time>2016-07-11T12:12:31.000Z</time>
      </trkpt>
      <trkpt lat="44.39329" lon="6.35907">
        <ele>1514.5999755859</ele>
        <time>2016-07-11T12:12:37.000Z</time>
      </trkpt>
      <trkpt lat="44.39328" lon="6.35907">
        <ele>1514.4000244141</ele>
        <time>2016-07-11T12:12:38.000Z</time>
      </trkpt>
      <trkpt lat="44.3932" lon="6.35902">
        <ele>1513.5999755859</ele>
        <time>2016-07-11T12:12:45.000Z</time>
      </trkpt>
      <trkpt lat="44.39313" lon="6.35885">
        <ele>1510</ele>
        <time>2016-07-11T12:12:59.000Z</time>
      </trkpt>
      <trkpt lat="44.39312" lon="6.35884">
        <ele>1509.5999755859</ele>
        <time>2016-07-11T12:13:00.000Z</time>
      </trkpt>
      <trkpt lat="44.39312" lon="6.3588">
        <ele>1508.8000488281</ele>
        <time>2016-07-11T12:13:02.000Z</time>
      </trkpt>
      <trkpt lat="44.39313" lon="6.35871">
        <ele>1506.4000244141</ele>
        <time>2016-07-11T12:13:09.000Z</time>
      </trkpt>
      <trkpt lat="44.39313" lon="6.35869">
        <ele>1506.1999511719</ele>
        <time>2016-07-11T12:13:10.000Z</time>
      </trkpt>
      <trkpt lat="44.39314" lon="6.35867">
        <ele>1505.4000244141</ele>
        <time>2016-07-11T12:13:12.000Z</time>
      </trkpt>
      <trkpt lat="44.39313" lon="6.35859">
        <ele>1503.5999755859</ele>
        <time>2016-07-11T12:13:18.000Z</time>
      </trkpt>
      <trkpt lat="44.39311" lon="6.35852">
        <ele>1502</ele>
        <time>2016-07-11T12:13:23.000Z</time>
      </trkpt>
      <trkpt lat="44.39311" lon="6.35851">
        <ele>1501.8000488281</ele>
        <time>2016-07-11T12:13:24.000Z</time>
      </trkpt>
      <trkpt lat="44.3931" lon="6.3585">
        <ele>1501.4000244141</ele>
        <time>2016-07-11T12:13:25.000Z</time>
      </trkpt>
      <trkpt lat="44.39308" lon="6.35846">
        <ele>1500.8000488281</ele>
        <time>2016-07-11T12:13:28.000Z</time>
      </trkpt>
      <trkpt lat="44.39307" lon="6.35844">
        <ele>1500.4000244141</ele>
        <time>2016-07-11T12:13:30.000Z</time>
      </trkpt>
      <trkpt lat="44.39303" lon="6.35842">
        <ele>1499.8000488281</ele>
        <time>2016-07-11T12:13:34.000Z</time>
      </trkpt>
      <trkpt lat="44.39301" lon="6.35837">
        <ele>1498.5999755859</ele>
        <time>2016-07-11T12:13:38.000Z</time>
      </trkpt>
      <trkpt lat="44.393" lon="6.35834">
        <ele>1498</ele>
        <time>2016-07-11T12:13:40.000Z</time>
      </trkpt>
      <trkpt lat="44.39298" lon="6.35831">
        <ele>1497.4000244141</ele>
        <time>2016-07-11T12:13:43.000Z</time>
      </trkpt>
      <trkpt lat="44.39299" lon="6.35827">
        <ele>1496.4000244141</ele>
        <time>2016-07-11T12:13:47.000Z</time>
      </trkpt>
      <trkpt lat="44.39296" lon="6.35819">
        <ele>1494.5999755859</ele>
        <time>2016-07-11T12:13:52.000Z</time>
      </trkpt>
      <trkpt lat="44.39296" lon="6.35811">
        <ele>1493</ele>
        <time>2016-07-11T12:13:58.000Z</time>
      </trkpt>
      <trkpt lat="44.39295" lon="6.35807">
        <ele>1492.1999511719</ele>
        <time>2016-07-11T12:14:02.000Z</time>
      </trkpt>
      <trkpt lat="44.39295" lon="6.35805">
        <ele>1491.8000488281</ele>
        <time>2016-07-11T12:14:04.000Z</time>
      </trkpt>
      <trkpt lat="44.39292" lon="6.35794">
        <ele>1489.8000488281</ele>
        <time>2016-07-11T12:14:11.000Z</time>
      </trkpt>
      <trkpt lat="44.39288" lon="6.35786">
        <ele>1488.5999755859</ele>
        <time>2016-07-11T12:14:17.000Z</time>
      </trkpt>
      <trkpt lat="44.39288" lon="6.35785">
        <ele>1488.4000244141</ele>
        <time>2016-07-11T12:14:18.000Z</time>
      </trkpt>
      <trkpt lat="44.39287" lon="6.35783">
        <ele>1488.1999511719</ele>
        <time>2016-07-11T12:14:20.000Z</time>
      </trkpt>
      <trkpt lat="44.39285" lon="6.35778">
        <ele>1487.4000244141</ele>
        <time>2016-07-11T12:14:24.000Z</time>
      </trkpt>
      <trkpt lat="44.39282" lon="6.35774">
        <ele>1486.8000488281</ele>
        <time>2016-07-11T12:14:27.000Z</time>
      </trkpt>
      <trkpt lat="44.39279" lon="6.35768">
        <ele>1485.4000244141</ele>
        <time>2016-07-11T12:14:32.000Z</time>
      </trkpt>
      <trkpt lat="44.39278" lon="6.35767">
        <ele>1485</ele>
        <time>2016-07-11T12:14:33.000Z</time>
      </trkpt>
      <trkpt lat="44.39276" lon="6.35765">
        <ele>1484.4000244141</ele>
        <time>2016-07-11T12:14:35.000Z</time>
      </trkpt>
      <trkpt lat="44.39276" lon="6.35761">
        <ele>1483.8000488281</ele>
        <time>2016-07-11T12:14:38.000Z</time>
      </trkpt>
      <trkpt lat="44.39275" lon="6.35751">
        <ele>1482</ele>
        <time>2016-07-11T12:14:43.000Z</time>
      </trkpt>
      <trkpt lat="44.39275" lon="6.35748">
        <ele>1481.1999511719</ele>
        <time>2016-07-11T12:14:45.000Z</time>
      </trkpt>
      <trkpt lat="44.39269" lon="6.35744">
        <ele>1480</ele>
        <time>2016-07-11T12:14:49.000Z</time>
      </trkpt>
      <trkpt lat="44.39267" lon="6.3574">
        <ele>1479</ele>
        <time>2016-07-11T12:14:52.000Z</time>
      </trkpt>
      <trkpt lat="44.39263" lon="6.35729">
        <ele>1476.4000244141</ele>
        <time>2016-07-11T12:14:58.000Z</time>
      </trkpt>
      <trkpt lat="44.39262" lon="6.35728">
        <ele>1476</ele>
        <time>2016-07-11T12:14:59.000Z</time>
      </trkpt>
      <trkpt lat="44.39257" lon="6.35718">
        <ele>1473.1999511719</ele>
        <time>2016-07-11T12:15:05.000Z</time>
      </trkpt>
      <trkpt lat="44.39255" lon="6.35715">
        <ele>1472</ele>
        <time>2016-07-11T12:15:07.000Z</time>
      </trkpt>
      <trkpt lat="44.39254" lon="6.3571">
        <ele>1470.5999755859</ele>
        <time>2016-07-11T12:15:13.000Z</time>
      </trkpt>
      <trkpt lat="44.39249" lon="6.35703">
        <ele>1468.4000244141</ele>
        <time>2016-07-11T12:15:20.000Z</time>
      </trkpt>
      <trkpt lat="44.39244" lon="6.35699">
        <ele>1466.8000488281</ele>
        <time>2016-07-11T12:15:25.000Z</time>
      </trkpt>
      <trkpt lat="44.39238" lon="6.35691">
        <ele>1464.1999511719</ele>
        <time>2016-07-11T12:15:32.000Z</time>
      </trkpt>
      <trkpt lat="44.39236" lon="6.35685">
        <ele>1462.4000244141</ele>
        <time>2016-07-11T12:15:36.000Z</time>
      </trkpt>
      <trkpt lat="44.39236" lon="6.35682">
        <ele>1461.8000488281</ele>
        <time>2016-07-11T12:15:38.000Z</time>
      </trkpt>
      <trkpt lat="44.39233" lon="6.3567">
        <ele>1458.5999755859</ele>
        <time>2016-07-11T12:15:46.000Z</time>
      </trkpt>
      <trkpt lat="44.39233" lon="6.3566">
        <ele>1456.1999511719</ele>
        <time>2016-07-11T12:15:52.000Z</time>
      </trkpt>
      <trkpt lat="44.39233" lon="6.35646">
        <ele>1452.8000488281</ele>
        <time>2016-07-11T12:16:02.000Z</time>
      </trkpt>
      <trkpt lat="44.39232" lon="6.35644">
        <ele>1452.4000244141</ele>
        <time>2016-07-11T12:16:03.000Z</time>
      </trkpt>
      <trkpt lat="44.39231" lon="6.35638">
        <ele>1451</ele>
        <time>2016-07-11T12:16:08.000Z</time>
      </trkpt>
      <trkpt lat="44.39228" lon="6.35631">
        <ele>1449.1999511719</ele>
        <time>2016-07-11T12:16:13.000Z</time>
      </trkpt>
      <trkpt lat="44.39226" lon="6.35622">
        <ele>1447</ele>
        <time>2016-07-11T12:16:20.000Z</time>
      </trkpt>
      <trkpt lat="44.39224" lon="6.35617">
        <ele>1445.8000488281</ele>
        <time>2016-07-11T12:16:25.000Z</time>
      </trkpt>
      <trkpt lat="44.39219" lon="6.35617">
        <ele>1445.1999511719</ele>
        <time>2016-07-11T12:16:30.000Z</time>
      </trkpt>
      <trkpt lat="44.39214" lon="6.35617">
        <ele>1444.5999755859</ele>
        <time>2016-07-11T12:16:35.000Z</time>
      </trkpt>
      <trkpt lat="44.3921" lon="6.35618">
        <ele>1444.4000244141</ele>
        <time>2016-07-11T12:16:38.000Z</time>
      </trkpt>
      <trkpt lat="44.392" lon="6.35619">
        <ele>1443.4000244141</ele>
        <time>2016-07-11T12:16:46.000Z</time>
      </trkpt>
      <trkpt lat="44.39191" lon="6.35618">
        <ele>1442.1999511719</ele>
        <time>2016-07-11T12:16:53.000Z</time>
      </trkpt>
      <trkpt lat="44.3919" lon="6.35618">
        <ele>1442</ele>
        <time>2016-07-11T12:16:54.000Z</time>
      </trkpt>
      <trkpt lat="44.39187" lon="6.35616">
        <ele>1441.4000244141</ele>
        <time>2016-07-11T12:16:57.000Z</time>
      </trkpt>
      <trkpt lat="44.39177" lon="6.35615">
        <ele>1440</ele>
        <time>2016-07-11T12:17:05.000Z</time>
      </trkpt>
      <trkpt lat="44.39165" lon="6.35612">
        <ele>1438.1999511719</ele>
        <time>2016-07-11T12:17:14.000Z</time>
      </trkpt>
      <trkpt lat="44.39156" lon="6.35612">
        <ele>1437</ele>
        <time>2016-07-11T12:17:21.000Z</time>
      </trkpt>
      <trkpt lat="44.39148" lon="6.35613">
        <ele>1436.1999511719</ele>
        <time>2016-07-11T12:17:27.000Z</time>
      </trkpt>
      <trkpt lat="44.39146" lon="6.35613">
        <ele>1435.8000488281</ele>
        <time>2016-07-11T12:17:30.000Z</time>
      </trkpt>
      <trkpt lat="44.39141" lon="6.35613">
        <ele>1435.1999511719</ele>
        <time>2016-07-11T12:17:36.000Z</time>
      </trkpt>
      <trkpt lat="44.39134" lon="6.35613">
        <ele>1434.1999511719</ele>
        <time>2016-07-11T12:17:43.000Z</time>
      </trkpt>
      <trkpt lat="44.39132" lon="6.35613">
        <ele>1434</ele>
        <time>2016-07-11T12:17:44.000Z</time>
      </trkpt>
      <trkpt lat="44.3913" lon="6.35613">
        <ele>1433.8000488281</ele>
        <time>2016-07-11T12:17:46.000Z</time>
      </trkpt>
      <trkpt lat="44.39124" lon="6.35611">
        <ele>1432.8000488281</ele>
        <time>2016-07-11T12:17:52.000Z</time>
      </trkpt>
      <trkpt lat="44.39123" lon="6.35611">
        <ele>1432.5999755859</ele>
        <time>2016-07-11T12:17:53.000Z</time>
      </trkpt>
      <trkpt lat="44.39119" lon="6.3561">
        <ele>1431.8000488281</ele>
        <time>2016-07-11T12:17:57.000Z</time>
      </trkpt>
      <trkpt lat="44.3911" lon="6.3561">
        <ele>1430.8000488281</ele>
        <time>2016-07-11T12:18:03.000Z</time>
      </trkpt>
      <trkpt lat="44.39107" lon="6.35611">
        <ele>1430.5999755859</ele>
        <time>2016-07-11T12:18:06.000Z</time>
      </trkpt>
      <trkpt lat="44.39097" lon="6.35612">
        <ele>1430</ele>
        <time>2016-07-11T12:18:13.000Z</time>
      </trkpt>
      <trkpt lat="44.39087" lon="6.35614">
        <ele>1429.1999511719</ele>
        <time>2016-07-11T12:18:20.000Z</time>
      </trkpt>
      <trkpt lat="44.39078" lon="6.35612">
        <ele>1428</ele>
        <time>2016-07-11T12:18:27.000Z</time>
      </trkpt>
      <trkpt lat="44.39074" lon="6.35611">
        <ele>1427.4000244141</ele>
        <time>2016-07-11T12:18:30.000Z</time>
      </trkpt>
      <trkpt lat="44.39068" lon="6.35609">
        <ele>1426.4000244141</ele>
        <time>2016-07-11T12:18:35.000Z</time>
      </trkpt>
      <trkpt lat="44.39064" lon="6.35608">
        <ele>1425.5999755859</ele>
        <time>2016-07-11T12:18:39.000Z</time>
      </trkpt>
      <trkpt lat="44.39061" lon="6.35602">
        <ele>1424.4000244141</ele>
        <time>2016-07-11T12:18:44.000Z</time>
      </trkpt>
      <trkpt lat="44.39061" lon="6.35599">
        <ele>1424</ele>
        <time>2016-07-11T12:18:47.000Z</time>
      </trkpt>
      <trkpt lat="44.39058" lon="6.35589">
        <ele>1422</ele>
        <time>2016-07-11T12:18:55.000Z</time>
      </trkpt>
      <trkpt lat="44.39057" lon="6.35588">
        <ele>1421.8000488281</ele>
        <time>2016-07-11T12:18:56.000Z</time>
      </trkpt>
      <trkpt lat="44.39056" lon="6.35587">
        <ele>1421.4000244141</ele>
        <time>2016-07-11T12:18:58.000Z</time>
      </trkpt>
      <trkpt lat="44.39052" lon="6.35583">
        <ele>1420.1999511719</ele>
        <time>2016-07-11T12:19:04.000Z</time>
      </trkpt>
      <trkpt lat="44.3905" lon="6.35579">
        <ele>1419.4000244141</ele>
        <time>2016-07-11T12:19:09.000Z</time>
      </trkpt>
      <trkpt lat="44.39049" lon="6.35576">
        <ele>1418.8000488281</ele>
        <time>2016-07-11T12:19:14.000Z</time>
      </trkpt>
      <trkpt lat="44.39048" lon="6.35578">
        <ele>1419</ele>
        <time>2016-07-11T12:19:24.000Z</time>
      </trkpt>
      <trkpt lat="44.39044" lon="6.35575">
        <ele>1418.1999511719</ele>
        <time>2016-07-11T12:19:38.000Z</time>
      </trkpt>
      <trkpt lat="44.39044" lon="6.35571">
        <ele>1417.4000244141</ele>
        <time>2016-07-11T12:19:43.000Z</time>
      </trkpt>
      <trkpt lat="44.39042" lon="6.35565">
        <ele>1416.1999511719</ele>
        <time>2016-07-11T12:19:49.000Z</time>
      </trkpt>
      <trkpt lat="44.39041" lon="6.35558">
        <ele>1414.8000488281</ele>
        <time>2016-07-11T12:19:54.000Z</time>
      </trkpt>
      <trkpt lat="44.39041" lon="6.35556">
        <ele>1414.4000244141</ele>
        <time>2016-07-11T12:19:56.000Z</time>
      </trkpt>
      <trkpt lat="44.39039" lon="6.35549">
        <ele>1412.8000488281</ele>
        <time>2016-07-11T12:20:01.000Z</time>
      </trkpt>
      <trkpt lat="44.39036" lon="6.35543">
        <ele>1411.1999511719</ele>
        <time>2016-07-11T12:20:07.000Z</time>
      </trkpt>
      <trkpt lat="44.39036" lon="6.35542">
        <ele>1411</ele>
        <time>2016-07-11T12:20:08.000Z</time>
      </trkpt>
      <trkpt lat="44.39037" lon="6.35535">
        <ele>1409.8000488281</ele>
        <time>2016-07-11T12:20:15.000Z</time>
      </trkpt>
      <trkpt lat="44.39035" lon="6.3553">
        <ele>1408.8000488281</ele>
        <time>2016-07-11T12:20:21.000Z</time>
      </trkpt>
      <trkpt lat="44.39036" lon="6.3553">
        <ele>1408.8000488281</ele>
        <time>2016-07-11T12:20:27.000Z</time>
      </trkpt>
      <trkpt lat="44.39033" lon="6.35524">
        <ele>1407.4000244141</ele>
        <time>2016-07-11T12:20:38.000Z</time>
      </trkpt>
      <trkpt lat="44.3903" lon="6.35518">
        <ele>1406</ele>
        <time>2016-07-11T12:20:44.000Z</time>
      </trkpt>
      <trkpt lat="44.39029" lon="6.3551">
        <ele>1404.4000244141</ele>
        <time>2016-07-11T12:20:49.000Z</time>
      </trkpt>
      <trkpt lat="44.39031" lon="6.35505">
        <ele>1403.5999755859</ele>
        <time>2016-07-11T12:20:53.000Z</time>
      </trkpt>
      <trkpt lat="44.39033" lon="6.35499">
        <ele>1402.4000244141</ele>
        <time>2016-07-11T12:20:59.000Z</time>
      </trkpt>
      <trkpt lat="44.39033" lon="6.35495">
        <ele>1401.8000488281</ele>
        <time>2016-07-11T12:21:01.000Z</time>
      </trkpt>
      <trkpt lat="44.39033" lon="6.35487">
        <ele>1400.1999511719</ele>
        <time>2016-07-11T12:21:07.000Z</time>
      </trkpt>
      <trkpt lat="44.39033" lon="6.35481">
        <ele>1399.1999511719</ele>
        <time>2016-07-11T12:21:10.000Z</time>
      </trkpt>
      <trkpt lat="44.39033" lon="6.35477">
        <ele>1398.1999511719</ele>
        <time>2016-07-11T12:21:12.000Z</time>
      </trkpt>
      <trkpt lat="44.39034" lon="6.35468">
        <ele>1396.4000244141</ele>
        <time>2016-07-11T12:21:18.000Z</time>
      </trkpt>
      <trkpt lat="44.39037" lon="6.3546">
        <ele>1395</ele>
        <time>2016-07-11T12:21:24.000Z</time>
      </trkpt>
      <trkpt lat="44.39038" lon="6.35452">
        <ele>1393.4000244141</ele>
        <time>2016-07-11T12:21:29.000Z</time>
      </trkpt>
      <trkpt lat="44.39039" lon="6.35448">
        <ele>1392.8000488281</ele>
        <time>2016-07-11T12:21:32.000Z</time>
      </trkpt>
      <trkpt lat="44.39038" lon="6.35446">
        <ele>1392.1999511719</ele>
        <time>2016-07-11T12:21:34.000Z</time>
      </trkpt>
      <trkpt lat="44.39038" lon="6.35443">
        <ele>1391.5999755859</ele>
        <time>2016-07-11T12:21:36.000Z</time>
      </trkpt>
      <trkpt lat="44.39033" lon="6.35434">
        <ele>1389.5999755859</ele>
        <time>2016-07-11T12:21:44.000Z</time>
      </trkpt>
      <trkpt lat="44.39028" lon="6.35429">
        <ele>1388.4000244141</ele>
        <time>2016-07-11T12:21:50.000Z</time>
      </trkpt>
      <trkpt lat="44.39019" lon="6.35424">
        <ele>1387</ele>
        <time>2016-07-11T12:21:59.000Z</time>
      </trkpt>
      <trkpt lat="44.39015" lon="6.35423">
        <ele>1386.5999755859</ele>
        <time>2016-07-11T12:22:03.000Z</time>
      </trkpt>
      <trkpt lat="44.39013" lon="6.35422">
        <ele>1386.1999511719</ele>
        <time>2016-07-11T12:22:06.000Z</time>
      </trkpt>
      <trkpt lat="44.39009" lon="6.35418">
        <ele>1385.1999511719</ele>
        <time>2016-07-11T12:22:12.000Z</time>
      </trkpt>
      <trkpt lat="44.39005" lon="6.35416">
        <ele>1384.8000488281</ele>
        <time>2016-07-11T12:22:16.000Z</time>
      </trkpt>
      <trkpt lat="44.39003" lon="6.35415">
        <ele>1384.4000244141</ele>
        <time>2016-07-11T12:22:22.000Z</time>
      </trkpt>
      <trkpt lat="44.38997" lon="6.35415">
        <ele>1384.4000244141</ele>
        <time>2016-07-11T12:22:47.000Z</time>
      </trkpt>
      <trkpt lat="44.38991" lon="6.35412">
        <ele>1383.5999755859</ele>
        <time>2016-07-11T12:22:53.000Z</time>
      </trkpt>
      <trkpt lat="44.3899" lon="6.35412">
        <ele>1383.4000244141</ele>
        <time>2016-07-11T12:22:54.000Z</time>
      </trkpt>
      <trkpt lat="44.38986" lon="6.35406">
        <ele>1382.1999511719</ele>
        <time>2016-07-11T12:22:58.000Z</time>
      </trkpt>
      <trkpt lat="44.3898" lon="6.35398">
        <ele>1380.1999511719</ele>
        <time>2016-07-11T12:23:05.000Z</time>
      </trkpt>
      <trkpt lat="44.38979" lon="6.35397">
        <ele>1380</ele>
        <time>2016-07-11T12:23:06.000Z</time>
      </trkpt>
      <trkpt lat="44.38978" lon="6.35391">
        <ele>1379</ele>
        <time>2016-07-11T12:23:10.000Z</time>
      </trkpt>
      <trkpt lat="44.38977" lon="6.35381">
        <ele>1377.1999511719</ele>
        <time>2016-07-11T12:23:17.000Z</time>
      </trkpt>
      <trkpt lat="44.38976" lon="6.3537">
        <ele>1375.4000244141</ele>
        <time>2016-07-11T12:23:24.000Z</time>
      </trkpt>
      <trkpt lat="44.38974" lon="6.35365">
        <ele>1374.4000244141</ele>
        <time>2016-07-11T12:23:28.000Z</time>
      </trkpt>
      <trkpt lat="44.38972" lon="6.35355">
        <ele>1372.8000488281</ele>
        <time>2016-07-11T12:23:35.000Z</time>
      </trkpt>
      <trkpt lat="44.38968" lon="6.35345">
        <ele>1370.8000488281</ele>
        <time>2016-07-11T12:23:43.000Z</time>
      </trkpt>
      <trkpt lat="44.38968" lon="6.35343">
        <ele>1370.5999755859</ele>
        <time>2016-07-11T12:23:44.000Z</time>
      </trkpt>
      <trkpt lat="44.38966" lon="6.35335">
        <ele>1369</ele>
        <time>2016-07-11T12:23:50.000Z</time>
      </trkpt>
      <trkpt lat="44.38966" lon="6.35331">
        <ele>1368.4000244141</ele>
        <time>2016-07-11T12:23:52.000Z</time>
      </trkpt>
      <trkpt lat="44.38966" lon="6.35328">
        <ele>1367.8000488281</ele>
        <time>2016-07-11T12:23:54.000Z</time>
      </trkpt>
      <trkpt lat="44.38964" lon="6.35319">
        <ele>1366</ele>
        <time>2016-07-11T12:24:00.000Z</time>
      </trkpt>
      <trkpt lat="44.38963" lon="6.35318">
        <ele>1365.5999755859</ele>
        <time>2016-07-11T12:24:01.000Z</time>
      </trkpt>
      <trkpt lat="44.38961" lon="6.35314">
        <ele>1365</ele>
        <time>2016-07-11T12:24:03.000Z</time>
      </trkpt>
      <trkpt lat="44.38956" lon="6.35307">
        <ele>1364</ele>
        <time>2016-07-11T12:24:09.000Z</time>
      </trkpt>
      <trkpt lat="44.38954" lon="6.35304">
        <ele>1363.5999755859</ele>
        <time>2016-07-11T12:24:11.000Z</time>
      </trkpt>
      <trkpt lat="44.3895" lon="6.35293">
        <ele>1362.1999511719</ele>
        <time>2016-07-11T12:24:19.000Z</time>
      </trkpt>
      <trkpt lat="44.38948" lon="6.35289">
        <ele>1361.5999755859</ele>
        <time>2016-07-11T12:24:22.000Z</time>
      </trkpt>
      <trkpt lat="44.38944" lon="6.35283">
        <ele>1361</ele>
        <time>2016-07-11T12:24:29.000Z</time>
      </trkpt>
      <trkpt lat="44.3894" lon="6.3528">
        <ele>1360.5999755859</ele>
        <time>2016-07-11T12:24:33.000Z</time>
      </trkpt>
      <trkpt lat="44.38939" lon="6.35279">
        <ele>1360.5999755859</ele>
        <time>2016-07-11T12:24:35.000Z</time>
      </trkpt>
      <trkpt lat="44.38937" lon="6.35276">
        <ele>1360.1999511719</ele>
        <time>2016-07-11T12:24:39.000Z</time>
      </trkpt>
      <trkpt lat="44.38931" lon="6.35269">
        <ele>1359.4000244141</ele>
        <time>2016-07-11T12:24:47.000Z</time>
      </trkpt>
      <trkpt lat="44.38929" lon="6.35266">
        <ele>1359.1999511719</ele>
        <time>2016-07-11T12:24:50.000Z</time>
      </trkpt>
      <trkpt lat="44.38927" lon="6.35265">
        <ele>1359</ele>
        <time>2016-07-11T12:24:52.000Z</time>
      </trkpt>
      <trkpt lat="44.3892" lon="6.35257">
        <ele>1358.1999511719</ele>
        <time>2016-07-11T12:24:59.000Z</time>
      </trkpt>
      <trkpt lat="44.38913" lon="6.35252">
        <ele>1357.5999755859</ele>
        <time>2016-07-11T12:25:06.000Z</time>
      </trkpt>
      <trkpt lat="44.38909" lon="6.35246">
        <ele>1357</ele>
        <time>2016-07-11T12:25:11.000Z</time>
      </trkpt>
      <trkpt lat="44.38903" lon="6.3524">
        <ele>1356.1999511719</ele>
        <time>2016-07-11T12:25:17.000Z</time>
      </trkpt>
      <trkpt lat="44.38903" lon="6.35239">
        <ele>1356.1999511719</ele>
        <time>2016-07-11T12:25:18.000Z</time>
      </trkpt>
      <trkpt lat="44.38897" lon="6.3523">
        <ele>1355</ele>
        <time>2016-07-11T12:25:26.000Z</time>
      </trkpt>
      <trkpt lat="44.38892" lon="6.35221">
        <ele>1353.4000244141</ele>
        <time>2016-07-11T12:25:32.000Z</time>
      </trkpt>
      <trkpt lat="44.3889" lon="6.35215">
        <ele>1352.4000244141</ele>
        <time>2016-07-11T12:25:36.000Z</time>
      </trkpt>
      <trkpt lat="44.38888" lon="6.35212">
        <ele>1351.8000488281</ele>
        <time>2016-07-11T12:25:38.000Z</time>
      </trkpt>
      <trkpt lat="44.38887" lon="6.35211">
        <ele>1351.5999755859</ele>
        <time>2016-07-11T12:25:39.000Z</time>
      </trkpt>
      <trkpt lat="44.38885" lon="6.35205">
        <ele>1350.5999755859</ele>
        <time>2016-07-11T12:25:43.000Z</time>
      </trkpt>
      <trkpt lat="44.38883" lon="6.35198">
        <ele>1349.1999511719</ele>
        <time>2016-07-11T12:25:48.000Z</time>
      </trkpt>
      <trkpt lat="44.38878" lon="6.35187">
        <ele>1347.1999511719</ele>
        <time>2016-07-11T12:25:56.000Z</time>
      </trkpt>
      <trkpt lat="44.38874" lon="6.35176">
        <ele>1345.4000244141</ele>
        <time>2016-07-11T12:26:03.000Z</time>
      </trkpt>
      <trkpt lat="44.38872" lon="6.35172">
        <ele>1344.5999755859</ele>
        <time>2016-07-11T12:26:09.000Z</time>
      </trkpt>
      <trkpt lat="44.38869" lon="6.35163">
        <ele>1343</ele>
        <time>2016-07-11T12:26:43.000Z</time>
      </trkpt>
      <trkpt lat="44.3887" lon="6.35159">
        <ele>1342.1999511719</ele>
        <time>2016-07-11T12:26:47.000Z</time>
      </trkpt>
      <trkpt lat="44.38869" lon="6.35154">
        <ele>1341.1999511719</ele>
        <time>2016-07-11T12:26:51.000Z</time>
      </trkpt>
      <trkpt lat="44.38864" lon="6.35146">
        <ele>1339.8000488281</ele>
        <time>2016-07-11T12:26:57.000Z</time>
      </trkpt>
      <trkpt lat="44.38857" lon="6.35137">
        <ele>1339.1999511719</ele>
        <time>2016-07-11T12:27:05.000Z</time>
      </trkpt>
      <trkpt lat="44.38856" lon="6.35136">
        <ele>1339</ele>
        <time>2016-07-11T12:27:06.000Z</time>
      </trkpt>
      <trkpt lat="44.38852" lon="6.35133">
        <ele>1338.8000488281</ele>
        <time>2016-07-11T12:27:14.000Z</time>
      </trkpt>
      <trkpt lat="44.38847" lon="6.35129">
        <ele>1338.5999755859</ele>
        <time>2016-07-11T12:27:46.000Z</time>
      </trkpt>
      <trkpt lat="44.38843" lon="6.35124">
        <ele>1338.1999511719</ele>
        <time>2016-07-11T12:27:51.000Z</time>
      </trkpt>
      <trkpt lat="44.38835" lon="6.35114">
        <ele>1337.4000244141</ele>
        <time>2016-07-11T12:27:59.000Z</time>
      </trkpt>
      <trkpt lat="44.38833" lon="6.3511">
        <ele>1337.1999511719</ele>
        <time>2016-07-11T12:28:02.000Z</time>
      </trkpt>
      <trkpt lat="44.38829" lon="6.35103">
        <ele>1336.4000244141</ele>
        <time>2016-07-11T12:28:08.000Z</time>
      </trkpt>
      <trkpt lat="44.38828" lon="6.35101">
        <ele>1336.4000244141</ele>
        <time>2016-07-11T12:28:09.000Z</time>
      </trkpt>
      <trkpt lat="44.38818" lon="6.3509">
        <ele>1335.4000244141</ele>
        <time>2016-07-11T12:28:17.000Z</time>
      </trkpt>
      <trkpt lat="44.38809" lon="6.35079">
        <ele>1334.5999755859</ele>
        <time>2016-07-11T12:28:25.000Z</time>
      </trkpt>
      <trkpt lat="44.38803" lon="6.35073">
        <ele>1334.1999511719</ele>
        <time>2016-07-11T12:28:31.000Z</time>
      </trkpt>
      <trkpt lat="44.388" lon="6.35069">
        <ele>1333.8000488281</ele>
        <time>2016-07-11T12:28:34.000Z</time>
      </trkpt>
      <trkpt lat="44.38793" lon="6.35059">
        <ele>1333</ele>
        <time>2016-07-11T12:28:43.000Z</time>
      </trkpt>
      <trkpt lat="44.38791" lon="6.35058">
        <ele>1333</ele>
        <time>2016-07-11T12:28:45.000Z</time>
      </trkpt>
      <trkpt lat="44.38785" lon="6.35047">
        <ele>1332</ele>
        <time>2016-07-11T12:28:54.000Z</time>
      </trkpt>
      <trkpt lat="44.38779" lon="6.35039">
        <ele>1331.1999511719</ele>
        <time>2016-07-11T12:29:01.000Z</time>
      </trkpt>
      <trkpt lat="44.38774" lon="6.35031">
        <ele>1330.5999755859</ele>
        <time>2016-07-11T12:29:07.000Z</time>
      </trkpt>
      <trkpt lat="44.38767" lon="6.35023">
        <ele>1330</ele>
        <time>2016-07-11T12:29:14.000Z</time>
      </trkpt>
      <trkpt lat="44.38763" lon="6.35019">
        <ele>1329.5999755859</ele>
        <time>2016-07-11T12:29:19.000Z</time>
      </trkpt>
      <trkpt lat="44.38754" lon="6.35011">
        <ele>1329</ele>
        <time>2016-07-11T12:29:27.000Z</time>
      </trkpt>
      <trkpt lat="44.38747" lon="6.35003">
        <ele>1328.1999511719</ele>
        <time>2016-07-11T12:29:34.000Z</time>
      </trkpt>
      <trkpt lat="44.3874" lon="6.34997">
        <ele>1327.5999755859</ele>
        <time>2016-07-11T12:29:40.000Z</time>
      </trkpt>
      <trkpt lat="44.38733" lon="6.3499">
        <ele>1327.1999511719</ele>
        <time>2016-07-11T12:29:47.000Z</time>
      </trkpt>
      <trkpt lat="44.38725" lon="6.34982">
        <ele>1326.4000244141</ele>
        <time>2016-07-11T12:29:55.000Z</time>
      </trkpt>
      <trkpt lat="44.38717" lon="6.34972">
        <ele>1326</ele>
        <time>2016-07-11T12:30:02.000Z</time>
      </trkpt>
      <trkpt lat="44.38715" lon="6.34969">
        <ele>1325.8000488281</ele>
        <time>2016-07-11T12:30:04.000Z</time>
      </trkpt>
      <trkpt lat="44.38709" lon="6.34961">
        <ele>1325.5999755859</ele>
        <time>2016-07-11T12:30:10.000Z</time>
      </trkpt>
      <trkpt lat="44.38704" lon="6.34951">
        <ele>1325</ele>
        <time>2016-07-11T12:30:17.000Z</time>
      </trkpt>
      <trkpt lat="44.38703" lon="6.34949">
        <ele>1325</ele>
        <time>2016-07-11T12:30:18.000Z</time>
      </trkpt>
      <trkpt lat="44.38702" lon="6.34948">
        <ele>1325</ele>
        <time>2016-07-11T12:30:19.000Z</time>
      </trkpt>
      <trkpt lat="44.38696" lon="6.34934">
        <ele>1324.1999511719</ele>
        <time>2016-07-11T12:30:27.000Z</time>
      </trkpt>
      <trkpt lat="44.38695" lon="6.34925">
        <ele>1323.5999755859</ele>
        <time>2016-07-11T12:30:32.000Z</time>
      </trkpt>
      <trkpt lat="44.38695" lon="6.34924">
        <ele>1323.5999755859</ele>
        <time>2016-07-11T12:30:33.000Z</time>
      </trkpt>
      <trkpt lat="44.38695" lon="6.3492">
        <ele>1323.4000244141</ele>
        <time>2016-07-11T12:30:35.000Z</time>
      </trkpt>
      <trkpt lat="44.38694" lon="6.34909">
        <ele>1322.5999755859</ele>
        <time>2016-07-11T12:30:41.000Z</time>
      </trkpt>
      <trkpt lat="44.38694" lon="6.34906">
        <ele>1322.4000244141</ele>
        <time>2016-07-11T12:30:44.000Z</time>
      </trkpt>
      <trkpt lat="44.38693" lon="6.34898">
        <ele>1322</ele>
        <time>2016-07-11T12:30:48.000Z</time>
      </trkpt>
      <trkpt lat="44.38691" lon="6.34888">
        <ele>1321</ele>
        <time>2016-07-11T12:30:54.000Z</time>
      </trkpt>
      <trkpt lat="44.38692" lon="6.34879">
        <ele>1320.4000244141</ele>
        <time>2016-07-11T12:30:59.000Z</time>
      </trkpt>
      <trkpt lat="44.38694" lon="6.34868">
        <ele>1319.8000488281</ele>
        <time>2016-07-11T12:31:05.000Z</time>
      </trkpt>
      <trkpt lat="44.38694" lon="6.34865">
        <ele>1319.4000244141</ele>
        <time>2016-07-11T12:31:07.000Z</time>
      </trkpt>
      <trkpt lat="44.38696" lon="6.34857">
        <ele>1319</ele>
        <time>2016-07-11T12:31:12.000Z</time>
      </trkpt>
      <trkpt lat="44.38697" lon="6.34847">
        <ele>1318.4000244141</ele>
        <time>2016-07-11T12:31:18.000Z</time>
      </trkpt>
      <trkpt lat="44.38699" lon="6.34839">
        <ele>1317.5999755859</ele>
        <time>2016-07-11T12:31:25.000Z</time>
      </trkpt>
      <trkpt lat="44.38699" lon="6.34838">
        <ele>1317.5999755859</ele>
        <time>2016-07-11T12:31:26.000Z</time>
      </trkpt>
      <trkpt lat="44.38698" lon="6.34837">
        <ele>1317.5999755859</ele>
        <time>2016-07-11T12:31:32.000Z</time>
      </trkpt>
      <trkpt lat="44.38699" lon="6.34831">
        <ele>1317.1999511719</ele>
        <time>2016-07-11T12:31:36.000Z</time>
      </trkpt>
      <trkpt lat="44.38699" lon="6.34829">
        <ele>1317</ele>
        <time>2016-07-11T12:31:37.000Z</time>
      </trkpt>
      <trkpt lat="44.387" lon="6.3482">
        <ele>1316.1999511719</ele>
        <time>2016-07-11T12:31:42.000Z</time>
      </trkpt>
      <trkpt lat="44.387" lon="6.34811">
        <ele>1315.5999755859</ele>
        <time>2016-07-11T12:31:48.000Z</time>
      </trkpt>
      <trkpt lat="44.387" lon="6.3481">
        <ele>1315.4000244141</ele>
        <time>2016-07-11T12:31:50.000Z</time>
      </trkpt>
      <trkpt lat="44.38699" lon="6.34803">
        <ele>1314.8000488281</ele>
        <time>2016-07-11T12:31:54.000Z</time>
      </trkpt>
      <trkpt lat="44.38699" lon="6.34796">
        <ele>1314</ele>
        <time>2016-07-11T12:31:58.000Z</time>
      </trkpt>
      <trkpt lat="44.38699" lon="6.34793">
        <ele>1313.5999755859</ele>
        <time>2016-07-11T12:32:00.000Z</time>
      </trkpt>
      <trkpt lat="44.38699" lon="6.34787">
        <ele>1313</ele>
        <time>2016-07-11T12:32:05.000Z</time>
      </trkpt>
      <trkpt lat="44.38699" lon="6.34776">
        <ele>1311.8000488281</ele>
        <time>2016-07-11T12:32:10.000Z</time>
      </trkpt>
      <trkpt lat="44.38699" lon="6.34762">
        <ele>1310.4000244141</ele>
        <time>2016-07-11T12:32:16.000Z</time>
      </trkpt>
      <trkpt lat="44.38701" lon="6.34745">
        <ele>1308.4000244141</ele>
        <time>2016-07-11T12:32:24.000Z</time>
      </trkpt>
      <trkpt lat="44.38698" lon="6.34735">
        <ele>1307.4000244141</ele>
        <time>2016-07-11T12:32:30.000Z</time>
      </trkpt>
      <trkpt lat="44.38694" lon="6.34724">
        <ele>1306.1999511719</ele>
        <time>2016-07-11T12:32:37.000Z</time>
      </trkpt>
      <trkpt lat="44.38689" lon="6.34706">
        <ele>1304.4000244141</ele>
        <time>2016-07-11T12:32:47.000Z</time>
      </trkpt>
      <trkpt lat="44.38688" lon="6.34696">
        <ele>1303.4000244141</ele>
        <time>2016-07-11T12:32:54.000Z</time>
      </trkpt>
      <trkpt lat="44.38689" lon="6.34688">
        <ele>1302.4000244141</ele>
        <time>2016-07-11T12:33:16.000Z</time>
      </trkpt>
      <trkpt lat="44.38695" lon="6.34671">
        <ele>1300.5999755859</ele>
        <time>2016-07-11T12:33:25.000Z</time>
      </trkpt>
      <trkpt lat="44.387" lon="6.34654">
        <ele>1298.4000244141</ele>
        <time>2016-07-11T12:33:34.000Z</time>
      </trkpt>
      <trkpt lat="44.38704" lon="6.34641">
        <ele>1297.1999511719</ele>
        <time>2016-07-11T12:33:41.000Z</time>
      </trkpt>
      <trkpt lat="44.3871" lon="6.34624">
        <ele>1296</ele>
        <time>2016-07-11T12:33:50.000Z</time>
      </trkpt>
      <trkpt lat="44.38714" lon="6.34607">
        <ele>1294.8000488281</ele>
        <time>2016-07-11T12:33:59.000Z</time>
      </trkpt>
      <trkpt lat="44.38716" lon="6.34589">
        <ele>1293.5999755859</ele>
        <time>2016-07-11T12:34:08.000Z</time>
      </trkpt>
      <trkpt lat="44.3872" lon="6.34573">
        <ele>1292.4000244141</ele>
        <time>2016-07-11T12:34:17.000Z</time>
      </trkpt>
      <trkpt lat="44.38727" lon="6.34561">
        <ele>1291.4000244141</ele>
        <time>2016-07-11T12:34:25.000Z</time>
      </trkpt>
      <trkpt lat="44.38729" lon="6.34559">
        <ele>1291.1999511719</ele>
        <time>2016-07-11T12:34:29.000Z</time>
      </trkpt>
      <trkpt lat="44.38727" lon="6.34551">
        <ele>1290.8000488281</ele>
        <time>2016-07-11T12:34:44.000Z</time>
      </trkpt>
      <trkpt lat="44.38721" lon="6.34537">
        <ele>1290.1999511719</ele>
        <time>2016-07-11T12:34:53.000Z</time>
      </trkpt>
      <trkpt lat="44.38706" lon="6.34523">
        <ele>1290.1999511719</ele>
        <time>2016-07-11T12:35:05.000Z</time>
      </trkpt>
      <trkpt lat="44.38693" lon="6.34518">
        <ele>1290.1999511719</ele>
        <time>2016-07-11T12:35:15.000Z</time>
      </trkpt>
      <trkpt lat="44.38685" lon="6.34517">
        <ele>1289.8000488281</ele>
        <time>2016-07-11T12:35:22.000Z</time>
      </trkpt>
      <trkpt lat="44.38684" lon="6.34516">
        <ele>1289.8000488281</ele>
        <time>2016-07-11T12:35:24.000Z</time>
      </trkpt>
      <trkpt lat="44.38683" lon="6.34514">
        <ele>1289.5999755859</ele>
        <time>2016-07-11T12:35:32.000Z</time>
      </trkpt>
      <trkpt lat="44.3868" lon="6.34509">
        <ele>1289.1999511719</ele>
        <time>2016-07-11T12:35:38.000Z</time>
      </trkpt>
      <trkpt lat="44.38681" lon="6.34505">
        <ele>1289</ele>
        <time>2016-07-11T12:35:40.000Z</time>
      </trkpt>
      <trkpt lat="44.38676" lon="6.34496">
        <ele>1288.4000244141</ele>
        <time>2016-07-11T12:35:48.000Z</time>
      </trkpt>
      <trkpt lat="44.38669" lon="6.34494">
        <ele>1288.1999511719</ele>
        <time>2016-07-11T12:35:56.000Z</time>
      </trkpt>
      <trkpt lat="44.38665" lon="6.34493">
        <ele>1288</ele>
        <time>2016-07-11T12:36:01.000Z</time>
      </trkpt>
      <trkpt lat="44.3866" lon="6.34492">
        <ele>1287.8000488281</ele>
        <time>2016-07-11T12:36:05.000Z</time>
      </trkpt>
      <trkpt lat="44.38658" lon="6.34492">
        <ele>1287.5999755859</ele>
        <time>2016-07-11T12:36:07.000Z</time>
      </trkpt>
      <trkpt lat="44.38656" lon="6.34494">
        <ele>1287.8000488281</ele>
        <time>2016-07-11T12:36:11.000Z</time>
      </trkpt>
      <trkpt lat="44.38661" lon="6.34493">
        <ele>1287.8000488281</ele>
        <time>2016-07-11T12:36:31.000Z</time>
      </trkpt>
      <trkpt lat="44.38668" lon="6.34495">
        <ele>1288.1999511719</ele>
        <time>2016-07-11T12:36:38.000Z</time>
      </trkpt>
      <trkpt lat="44.38674" lon="6.34492">
        <ele>1288</ele>
        <time>2016-07-11T12:36:44.000Z</time>
      </trkpt>
      <trkpt lat="44.38676" lon="6.34491">
        <ele>1288</ele>
        <time>2016-07-11T12:36:45.000Z</time>
      </trkpt>
      <trkpt lat="44.38677" lon="6.34491">
        <ele>1288</ele>
        <time>2016-07-11T12:36:47.000Z</time>
      </trkpt>
      <trkpt lat="44.38677" lon="6.34489">
        <ele>1288</ele>
        <time>2016-07-11T12:36:51.000Z</time>
      </trkpt>
      <trkpt lat="44.38677" lon="6.34483">
        <ele>1287.5999755859</ele>
        <time>2016-07-11T12:36:59.000Z</time>
      </trkpt>
      <trkpt lat="44.38677" lon="6.34485">
        <ele>1287.8000488281</ele>
        <time>2016-07-11T12:37:10.000Z</time>
      </trkpt>
      <trkpt lat="44.38679" lon="6.3449">
        <ele>1288</ele>
        <time>2016-07-11T12:37:48.000Z</time>
      </trkpt>
      <trkpt lat="44.3868" lon="6.34492">
        <ele>1288.1999511719</ele>
        <time>2016-07-11T12:37:50.000Z</time>
      </trkpt>
      <trkpt lat="44.38678" lon="6.34504">
        <ele>1289</ele>
        <time>2016-07-11T12:37:57.000Z</time>
      </trkpt>
      <trkpt lat="44.3868" lon="6.34511">
        <ele>1289.4000244141</ele>
        <time>2016-07-11T12:38:02.000Z</time>
      </trkpt>
      <trkpt lat="44.38684" lon="6.34518">
        <ele>1289.8000488281</ele>
        <time>2016-07-11T12:38:08.000Z</time>
      </trkpt>
      <trkpt lat="44.38689" lon="6.34519">
        <ele>1290</ele>
        <time>2016-07-11T12:38:12.000Z</time>
      </trkpt>
      <trkpt lat="44.387" lon="6.34521">
        <ele>1290.1999511719</ele>
        <time>2016-07-11T12:38:20.000Z</time>
      </trkpt>
      <trkpt lat="44.38709" lon="6.34525">
        <ele>1290.1999511719</ele>
        <time>2016-07-11T12:38:27.000Z</time>
      </trkpt>
      <trkpt lat="44.38719" lon="6.34532">
        <ele>1290</ele>
        <time>2016-07-11T12:38:35.000Z</time>
      </trkpt>
      <trkpt lat="44.38727" lon="6.34543">
        <ele>1290.4000244141</ele>
        <time>2016-07-11T12:38:43.000Z</time>
      </trkpt>
      <trkpt lat="44.38728" lon="6.34545">
        <ele>1290.4000244141</ele>
        <time>2016-07-11T12:38:45.000Z</time>
      </trkpt>
      <trkpt lat="44.38732" lon="6.34545">
        <ele>1290.1999511719</ele>
        <time>2016-07-11T12:38:49.000Z</time>
      </trkpt>
      <trkpt lat="44.38735" lon="6.34535">
        <ele>1289.4000244141</ele>
        <time>2016-07-11T12:38:56.000Z</time>
      </trkpt>
      <trkpt lat="44.38737" lon="6.34527">
        <ele>1289</ele>
        <time>2016-07-11T12:39:02.000Z</time>
      </trkpt>
      <trkpt lat="44.3874" lon="6.34517">
        <ele>1288.1999511719</ele>
        <time>2016-07-11T12:39:08.000Z</time>
      </trkpt>
      <trkpt lat="44.38742" lon="6.34506">
        <ele>1287.4000244141</ele>
        <time>2016-07-11T12:39:14.000Z</time>
      </trkpt>
      <trkpt lat="44.38745" lon="6.34493">
        <ele>1286.5999755859</ele>
        <time>2016-07-11T12:39:22.000Z</time>
      </trkpt>
      <trkpt lat="44.38744" lon="6.34477">
        <ele>1285.5999755859</ele>
        <time>2016-07-11T12:39:31.000Z</time>
      </trkpt>
      <trkpt lat="44.38742" lon="6.34472">
        <ele>1285.1999511719</ele>
        <time>2016-07-11T12:39:34.000Z</time>
      </trkpt>
      <trkpt lat="44.3874" lon="6.34466">
        <ele>1284.8000488281</ele>
        <time>2016-07-11T12:39:38.000Z</time>
      </trkpt>
      <trkpt lat="44.38735" lon="6.34453">
        <ele>1284</ele>
        <time>2016-07-11T12:39:46.000Z</time>
      </trkpt>
      <trkpt lat="44.38732" lon="6.34441">
        <ele>1283</ele>
        <time>2016-07-11T12:39:52.000Z</time>
      </trkpt>
      <trkpt lat="44.38732" lon="6.34439">
        <ele>1283</ele>
        <time>2016-07-11T12:39:53.000Z</time>
      </trkpt>
      <trkpt lat="44.38733" lon="6.34437">
        <ele>1282.5999755859</ele>
        <time>2016-07-11T12:40:03.000Z</time>
      </trkpt>
      <trkpt lat="44.38734" lon="6.34438">
        <ele>1282.5999755859</ele>
        <time>2016-07-11T12:40:16.000Z</time>
      </trkpt>
      <trkpt lat="44.38734" lon="6.34437">
        <ele>1282.5999755859</ele>
        <time>2016-07-11T12:40:43.000Z</time>
      </trkpt>
      <trkpt lat="44.38734" lon="6.34434">
        <ele>1282.4000244141</ele>
        <time>2016-07-11T12:41:15.000Z</time>
      </trkpt>
      <trkpt lat="44.38734" lon="6.34433">
        <ele>1282.4000244141</ele>
        <time>2016-07-11T12:42:17.000Z</time>
      </trkpt>
      <trkpt lat="44.38733" lon="6.3443">
        <ele>1282.1999511719</ele>
        <time>2016-07-11T12:42:20.000Z</time>
      </trkpt>
      <trkpt lat="44.38731" lon="6.34418">
        <ele>1281.4000244141</ele>
        <time>2016-07-11T12:42:27.000Z</time>
      </trkpt>
      <trkpt lat="44.3873" lon="6.34417">
        <ele>1281.4000244141</ele>
        <time>2016-07-11T12:42:28.000Z</time>
      </trkpt>
      <trkpt lat="44.3872" lon="6.34407">
        <ele>1281</ele>
        <time>2016-07-11T12:42:36.000Z</time>
      </trkpt>
      <trkpt lat="44.38711" lon="6.34402">
        <ele>1281</ele>
        <time>2016-07-11T12:42:42.000Z</time>
      </trkpt>
      <trkpt lat="44.38706" lon="6.34399">
        <ele>1280.8000488281</ele>
        <time>2016-07-11T12:42:46.000Z</time>
      </trkpt>
      <trkpt lat="44.38687" lon="6.34389">
        <ele>1280.1999511719</ele>
        <time>2016-07-11T12:42:59.000Z</time>
      </trkpt>
      <trkpt lat="44.38677" lon="6.34381">
        <ele>1279.4000244141</ele>
        <time>2016-07-11T12:43:07.000Z</time>
      </trkpt>
      <trkpt lat="44.38669" lon="6.34368">
        <ele>1278.1999511719</ele>
        <time>2016-07-11T12:43:15.000Z</time>
      </trkpt>
      <trkpt lat="44.3866" lon="6.34351">
        <ele>1276.1999511719</ele>
        <time>2016-07-11T12:43:25.000Z</time>
      </trkpt>
      <trkpt lat="44.38653" lon="6.34335">
        <ele>1274.4000244141</ele>
        <time>2016-07-11T12:43:34.000Z</time>
      </trkpt>
      <trkpt lat="44.38648" lon="6.34325">
        <ele>1273.1999511719</ele>
        <time>2016-07-11T12:43:42.000Z</time>
      </trkpt>
      <trkpt lat="44.38647" lon="6.34324">
        <ele>1273.1999511719</ele>
        <time>2016-07-11T12:43:43.000Z</time>
      </trkpt>
      <trkpt lat="44.38646" lon="6.34324">
        <ele>1273.1999511719</ele>
        <time>2016-07-11T12:43:51.000Z</time>
      </trkpt>
      <trkpt lat="44.38643" lon="6.34324">
        <ele>1273.1999511719</ele>
        <time>2016-07-11T12:44:26.000Z</time>
      </trkpt>
      <trkpt lat="44.38632" lon="6.34315">
        <ele>1272.4000244141</ele>
        <time>2016-07-11T12:44:35.000Z</time>
      </trkpt>
      <trkpt lat="44.38622" lon="6.34303">
        <ele>1272</ele>
        <time>2016-07-11T12:44:44.000Z</time>
      </trkpt>
      <trkpt lat="44.38602" lon="6.34272">
        <ele>1270.8000488281</ele>
        <time>2016-07-11T12:45:04.000Z</time>
      </trkpt>
      <trkpt lat="44.38593" lon="6.34264">
        <ele>1270.5999755859</ele>
        <time>2016-07-11T12:45:11.000Z</time>
      </trkpt>
      <trkpt lat="44.38581" lon="6.34255">
        <ele>1270.8000488281</ele>
        <time>2016-07-11T12:45:20.000Z</time>
      </trkpt>
      <trkpt lat="44.38571" lon="6.34249">
        <ele>1271</ele>
        <time>2016-07-11T12:45:28.000Z</time>
      </trkpt>
      <trkpt lat="44.38558" lon="6.34239">
        <ele>1271</ele>
        <time>2016-07-11T12:45:39.000Z</time>
      </trkpt>
      <trkpt lat="44.38553" lon="6.34231">
        <ele>1270.8000488281</ele>
        <time>2016-07-11T12:45:45.000Z</time>
      </trkpt>
      <trkpt lat="44.38552" lon="6.3423">
        <ele>1270.8000488281</ele>
        <time>2016-07-11T12:45:46.000Z</time>
      </trkpt>
      <trkpt lat="44.38548" lon="6.34229">
        <ele>1271</ele>
        <time>2016-07-11T12:45:51.000Z</time>
      </trkpt>
      <trkpt lat="44.38549" lon="6.34229">
        <ele>1270.8000488281</ele>
        <time>2016-07-11T12:46:01.000Z</time>
      </trkpt>
      <trkpt lat="44.38551" lon="6.34228">
        <ele>1270.5999755859</ele>
        <time>2016-07-11T12:46:03.000Z</time>
      </trkpt>
      <trkpt lat="44.38549" lon="6.34219">
        <ele>1270.4000244141</ele>
        <time>2016-07-11T12:46:09.000Z</time>
      </trkpt>
      <trkpt lat="44.38545" lon="6.34213">
        <ele>1270.4000244141</ele>
        <time>2016-07-11T12:46:14.000Z</time>
      </trkpt>
      <trkpt lat="44.3854" lon="6.34204">
        <ele>1270.1999511719</ele>
        <time>2016-07-11T12:46:22.000Z</time>
      </trkpt>
      <trkpt lat="44.38539" lon="6.34203">
        <ele>1270.1999511719</ele>
        <time>2016-07-11T12:46:26.000Z</time>
      </trkpt>
      <trkpt lat="44.38539" lon="6.34202">
        <ele>1270.1999511719</ele>
        <time>2016-07-11T12:46:50.000Z</time>
      </trkpt>
      <trkpt lat="44.38539" lon="6.34203">
        <ele>1270.1999511719</ele>
        <time>2016-07-11T12:46:57.000Z</time>
      </trkpt>
      <trkpt lat="44.38538" lon="6.34203">
        <ele>1270.1999511719</ele>
        <time>2016-07-11T12:47:00.000Z</time>
      </trkpt>
      <trkpt lat="44.38542" lon="6.34208">
        <ele>1270.4000244141</ele>
        <time>2016-07-11T12:47:04.000Z</time>
      </trkpt>
      <trkpt lat="44.38549" lon="6.34219">
        <ele>1270.4000244141</ele>
        <time>2016-07-11T12:47:10.000Z</time>
      </trkpt>
      <trkpt lat="44.38554" lon="6.34231">
        <ele>1270.5999755859</ele>
        <time>2016-07-11T12:47:16.000Z</time>
      </trkpt>
      <trkpt lat="44.38552" lon="6.34245">
        <ele>1271.8000488281</ele>
        <time>2016-07-11T12:47:22.000Z</time>
      </trkpt>
      <trkpt lat="44.38545" lon="6.34267">
        <ele>1273.5999755859</ele>
        <time>2016-07-11T12:47:30.000Z</time>
      </trkpt>
      <trkpt lat="44.38538" lon="6.34291">
        <ele>1275.4000244141</ele>
        <time>2016-07-11T12:47:38.000Z</time>
      </trkpt>
      <trkpt lat="44.38535" lon="6.34316">
        <ele>1277</ele>
        <time>2016-07-11T12:47:45.000Z</time>
      </trkpt>
      <trkpt lat="44.38529" lon="6.3434">
        <ele>1278.4000244141</ele>
        <time>2016-07-11T12:47:53.000Z</time>
      </trkpt>
      <trkpt lat="44.38527" lon="6.3435">
        <ele>1279</ele>
        <time>2016-07-11T12:47:58.000Z</time>
      </trkpt>
      <trkpt lat="44.3853" lon="6.34359">
        <ele>1279.1999511719</ele>
        <time>2016-07-11T12:48:04.000Z</time>
      </trkpt>
      <trkpt lat="44.38532" lon="6.3436">
        <ele>1279.1999511719</ele>
        <time>2016-07-11T12:48:05.000Z</time>
      </trkpt>
      <trkpt lat="44.38536" lon="6.3436">
        <ele>1279.1999511719</ele>
        <time>2016-07-11T12:48:12.000Z</time>
      </trkpt>
      <trkpt lat="44.38535" lon="6.34361">
        <ele>1279.1999511719</ele>
        <time>2016-07-11T12:48:15.000Z</time>
      </trkpt>
      <trkpt lat="44.3853" lon="6.34364">
        <ele>1279.4000244141</ele>
        <time>2016-07-11T12:48:21.000Z</time>
      </trkpt>
      <trkpt lat="44.38536" lon="6.34363">
        <ele>1279.1999511719</ele>
        <time>2016-07-11T12:48:25.000Z</time>
      </trkpt>
      <trkpt lat="44.38537" lon="6.34362">
        <ele>1279.1999511719</ele>
        <time>2016-07-11T12:48:26.000Z</time>
      </trkpt>
      <trkpt lat="44.38538" lon="6.34361">
        <ele>1279.1999511719</ele>
        <time>2016-07-11T12:48:31.000Z</time>
      </trkpt>
      <trkpt lat="44.3854" lon="6.34363">
        <ele>1279.1999511719</ele>
        <time>2016-07-11T12:48:36.000Z</time>
      </trkpt>
      <trkpt lat="44.3854" lon="6.34364">
        <ele>1279.1999511719</ele>
        <time>2016-07-11T12:48:45.000Z</time>
      </trkpt>
      <trkpt lat="44.38541" lon="6.34365">
        <ele>1279.4000244141</ele>
        <time>2016-07-11T12:49:27.000Z</time>
      </trkpt>
      <trkpt lat="44.38551" lon="6.3438">
        <ele>1280</ele>
        <time>2016-07-11T12:49:37.000Z</time>
      </trkpt>
      <trkpt lat="44.38561" lon="6.34392">
        <ele>1280.4000244141</ele>
        <time>2016-07-11T12:49:46.000Z</time>
      </trkpt>
      <trkpt lat="44.38573" lon="6.34401">
        <ele>1280.8000488281</ele>
        <time>2016-07-11T12:49:55.000Z</time>
      </trkpt>
      <trkpt lat="44.38576" lon="6.34412">
        <ele>1281.4000244141</ele>
        <time>2016-07-11T12:50:01.000Z</time>
      </trkpt>
      <trkpt lat="44.38571" lon="6.34421">
        <ele>1282.1999511719</ele>
        <time>2016-07-11T12:50:07.000Z</time>
      </trkpt>
      <trkpt lat="44.38563" lon="6.34434">
        <ele>1283.1999511719</ele>
        <time>2016-07-11T12:50:15.000Z</time>
      </trkpt>
      <trkpt lat="44.3856" lon="6.34436">
        <ele>1283.4000244141</ele>
        <time>2016-07-11T12:50:19.000Z</time>
      </trkpt>
      <trkpt lat="44.38557" lon="6.3444">
        <ele>1283.5999755859</ele>
        <time>2016-07-11T12:50:23.000Z</time>
      </trkpt>
      <trkpt lat="44.38547" lon="6.3445">
        <ele>1284.1999511719</ele>
        <time>2016-07-11T12:50:31.000Z</time>
      </trkpt>
      <trkpt lat="44.3854" lon="6.34449">
        <ele>1284</ele>
        <time>2016-07-11T12:50:36.000Z</time>
      </trkpt>
      <trkpt lat="44.38536" lon="6.34444">
        <ele>1283.8000488281</ele>
        <time>2016-07-11T12:50:41.000Z</time>
      </trkpt>
      <trkpt lat="44.38537" lon="6.34446">
        <ele>1284</ele>
        <time>2016-07-11T12:50:47.000Z</time>
      </trkpt>
      <trkpt lat="44.38532" lon="6.34441">
        <ele>1283.5999755859</ele>
        <time>2016-07-11T12:50:55.000Z</time>
      </trkpt>
      <trkpt lat="44.38529" lon="6.34434">
        <ele>1283.4000244141</ele>
        <time>2016-07-11T12:50:58.000Z</time>
      </trkpt>
      <trkpt lat="44.38519" lon="6.34418">
        <ele>1282.8000488281</ele>
        <time>2016-07-11T12:51:07.000Z</time>
      </trkpt>
      <trkpt lat="44.38512" lon="6.34406">
        <ele>1282.4000244141</ele>
        <time>2016-07-11T12:51:14.000Z</time>
      </trkpt>
      <trkpt lat="44.38501" lon="6.34388">
        <ele>1282.1999511719</ele>
        <time>2016-07-11T12:51:25.000Z</time>
      </trkpt>
      <trkpt lat="44.38494" lon="6.34375">
        <ele>1282</ele>
        <time>2016-07-11T12:51:32.000Z</time>
      </trkpt>
      <trkpt lat="44.38486" lon="6.34356">
        <ele>1281.5999755859</ele>
        <time>2016-07-11T12:51:42.000Z</time>
      </trkpt>
      <trkpt lat="44.38478" lon="6.34341">
        <ele>1281.4000244141</ele>
        <time>2016-07-11T12:51:50.000Z</time>
      </trkpt>
      <trkpt lat="44.38471" lon="6.34325">
        <ele>1281.1999511719</ele>
        <time>2016-07-11T12:51:58.000Z</time>
      </trkpt>
      <trkpt lat="44.38463" lon="6.3431">
        <ele>1281</ele>
        <time>2016-07-11T12:52:06.000Z</time>
      </trkpt>
      <trkpt lat="44.38453" lon="6.34287">
        <ele>1281.8000488281</ele>
        <time>2016-07-11T12:52:18.000Z</time>
      </trkpt>
      <trkpt lat="44.38445" lon="6.34268">
        <ele>1282</ele>
        <time>2016-07-11T12:52:27.000Z</time>
      </trkpt>
      <trkpt lat="44.38434" lon="6.34247">
        <ele>1282.4000244141</ele>
        <time>2016-07-11T12:52:39.000Z</time>
      </trkpt>
      <trkpt lat="44.38419" lon="6.3423">
        <ele>1282.5999755859</ele>
        <time>2016-07-11T12:52:51.000Z</time>
      </trkpt>
      <trkpt lat="44.38407" lon="6.34221">
        <ele>1281.1999511719</ele>
        <time>2016-07-11T12:52:59.000Z</time>
      </trkpt>
      <trkpt lat="44.38398" lon="6.3421">
        <ele>1279.4000244141</ele>
        <time>2016-07-11T12:53:06.000Z</time>
      </trkpt>
      <trkpt lat="44.38396" lon="6.34203">
        <ele>1278.1999511719</ele>
        <time>2016-07-11T12:53:12.000Z</time>
      </trkpt>
      <trkpt lat="44.38397" lon="6.34192">
        <ele>1276.1999511719</ele>
        <time>2016-07-11T12:53:20.000Z</time>
      </trkpt>
      <trkpt lat="44.38397" lon="6.34191">
        <ele>1276</ele>
        <time>2016-07-11T12:53:21.000Z</time>
      </trkpt>
      <trkpt lat="44.38402" lon="6.34181">
        <ele>1274.4000244141</ele>
        <time>2016-07-11T12:53:28.000Z</time>
      </trkpt>
      <trkpt lat="44.38404" lon="6.34176">
        <ele>1273.8000488281</ele>
        <time>2016-07-11T12:53:31.000Z</time>
      </trkpt>
      <trkpt lat="44.38416" lon="6.3415">
        <ele>1271.1999511719</ele>
        <time>2016-07-11T12:53:47.000Z</time>
      </trkpt>
      <trkpt lat="44.38419" lon="6.34139">
        <ele>1269.4000244141</ele>
        <time>2016-07-11T12:53:53.000Z</time>
      </trkpt>
      <trkpt lat="44.38422" lon="6.34132">
        <ele>1268.4000244141</ele>
        <time>2016-07-11T12:53:57.000Z</time>
      </trkpt>
      <trkpt lat="44.38429" lon="6.34116">
        <ele>1266.5999755859</ele>
        <time>2016-07-11T12:54:06.000Z</time>
      </trkpt>
      <trkpt lat="44.3843" lon="6.34114">
        <ele>1266.4000244141</ele>
        <time>2016-07-11T12:54:07.000Z</time>
      </trkpt>
      <trkpt lat="44.3843" lon="6.34104">
        <ele>1265.1999511719</ele>
        <time>2016-07-11T12:54:13.000Z</time>
      </trkpt>
      <trkpt lat="44.38429" lon="6.34102">
        <ele>1265</ele>
        <time>2016-07-11T12:54:14.000Z</time>
      </trkpt>
      <trkpt lat="44.38426" lon="6.34099">
        <ele>1264.4000244141</ele>
        <time>2016-07-11T12:54:17.000Z</time>
      </trkpt>
      <trkpt lat="44.38425" lon="6.34096">
        <ele>1264</ele>
        <time>2016-07-11T12:54:19.000Z</time>
      </trkpt>
      <trkpt lat="44.38426" lon="6.34096">
        <ele>1264</ele>
        <time>2016-07-11T12:54:20.000Z</time>
      </trkpt>
      <trkpt lat="44.38431" lon="6.34103">
        <ele>1265.1999511719</ele>
        <time>2016-07-11T12:54:26.000Z</time>
      </trkpt>
      <trkpt lat="44.38437" lon="6.34103">
        <ele>1265.8000488281</ele>
        <time>2016-07-11T12:54:31.000Z</time>
      </trkpt>
      <trkpt lat="44.3844" lon="6.341">
        <ele>1265.5999755859</ele>
        <time>2016-07-11T12:54:34.000Z</time>
      </trkpt>
      <trkpt lat="44.38442" lon="6.34093">
        <ele>1265</ele>
        <time>2016-07-11T12:54:40.000Z</time>
      </trkpt>
      <trkpt lat="44.38446" lon="6.34079">
        <ele>1263.5999755859</ele>
        <time>2016-07-11T12:54:48.000Z</time>
      </trkpt>
      <trkpt lat="44.38447" lon="6.34075">
        <ele>1263.1999511719</ele>
        <time>2016-07-11T12:54:50.000Z</time>
      </trkpt>
      <trkpt lat="44.38448" lon="6.34071">
        <ele>1262.8000488281</ele>
        <time>2016-07-11T12:54:52.000Z</time>
      </trkpt>
      <trkpt lat="44.38454" lon="6.34061">
        <ele>1261.5999755859</ele>
        <time>2016-07-11T12:54:59.000Z</time>
      </trkpt>
      <trkpt lat="44.38455" lon="6.34059">
        <ele>1261.4000244141</ele>
        <time>2016-07-11T12:55:00.000Z</time>
      </trkpt>
      <trkpt lat="44.38456" lon="6.34054">
        <ele>1260.8000488281</ele>
        <time>2016-07-11T12:55:03.000Z</time>
      </trkpt>
      <trkpt lat="44.38459" lon="6.34051">
        <ele>1260.5999755859</ele>
        <time>2016-07-11T12:55:06.000Z</time>
      </trkpt>
      <trkpt lat="44.38463" lon="6.34043">
        <ele>1259.8000488281</ele>
        <time>2016-07-11T12:55:11.000Z</time>
      </trkpt>
      <trkpt lat="44.38472" lon="6.34033">
        <ele>1258.5999755859</ele>
        <time>2016-07-11T12:55:19.000Z</time>
      </trkpt>
      <trkpt lat="44.38477" lon="6.34027">
        <ele>1257.8000488281</ele>
        <time>2016-07-11T12:55:24.000Z</time>
      </trkpt>
      <trkpt lat="44.38483" lon="6.34022">
        <ele>1257.4000244141</ele>
        <time>2016-07-11T12:55:29.000Z</time>
      </trkpt>
      <trkpt lat="44.38491" lon="6.34015">
        <ele>1257.4000244141</ele>
        <time>2016-07-11T12:55:36.000Z</time>
      </trkpt>
      <trkpt lat="44.38499" lon="6.34013">
        <ele>1258.1999511719</ele>
        <time>2016-07-11T12:55:43.000Z</time>
      </trkpt>
      <trkpt lat="44.38501" lon="6.34012">
        <ele>1258.4000244141</ele>
        <time>2016-07-11T12:55:45.000Z</time>
      </trkpt>
      <trkpt lat="44.38511" lon="6.34012">
        <ele>1259.5999755859</ele>
        <time>2016-07-11T12:55:53.000Z</time>
      </trkpt>
      <trkpt lat="44.38516" lon="6.34008">
        <ele>1260</ele>
        <time>2016-07-11T12:56:00.000Z</time>
      </trkpt>
      <trkpt lat="44.38516" lon="6.34006">
        <ele>1260</ele>
        <time>2016-07-11T12:56:07.000Z</time>
      </trkpt>
      <trkpt lat="44.38518" lon="6.33999">
        <ele>1260</ele>
        <time>2016-07-11T12:56:12.000Z</time>
      </trkpt>
      <trkpt lat="44.38519" lon="6.33998">
        <ele>1260.1999511719</ele>
        <time>2016-07-11T12:56:16.000Z</time>
      </trkpt>
      <trkpt lat="44.38519" lon="6.33995">
        <ele>1260</ele>
        <time>2016-07-11T12:56:26.000Z</time>
      </trkpt>
      <trkpt lat="44.3852" lon="6.33995">
        <ele>1260.1999511719</ele>
        <time>2016-07-11T12:56:32.000Z</time>
      </trkpt>
      <trkpt lat="44.38519" lon="6.33995">
        <ele>1260</ele>
        <time>2016-07-11T12:56:38.000Z</time>
      </trkpt>
      <trkpt lat="44.3852" lon="6.33994">
        <ele>1260.1999511719</ele>
        <time>2016-07-11T12:56:42.000Z</time>
      </trkpt>
      <trkpt lat="44.38524" lon="6.33988">
        <ele>1260.4000244141</ele>
        <time>2016-07-11T12:56:47.000Z</time>
      </trkpt>
      <trkpt lat="44.38526" lon="6.33981">
        <ele>1260.4000244141</ele>
        <time>2016-07-11T12:56:51.000Z</time>
      </trkpt>
      <trkpt lat="44.38538" lon="6.33966">
        <ele>1260</ele>
        <time>2016-07-11T12:57:02.000Z</time>
      </trkpt>
      <trkpt lat="44.38546" lon="6.33955">
        <ele>1259.1999511719</ele>
        <time>2016-07-11T12:57:10.000Z</time>
      </trkpt>
      <trkpt lat="44.38555" lon="6.33944">
        <ele>1258.1999511719</ele>
        <time>2016-07-11T12:57:18.000Z</time>
      </trkpt>
      <trkpt lat="44.38567" lon="6.33932">
        <ele>1257.1999511719</ele>
        <time>2016-07-11T12:57:28.000Z</time>
      </trkpt>
      <trkpt lat="44.38573" lon="6.33925">
        <ele>1256.8000488281</ele>
        <time>2016-07-11T12:57:34.000Z</time>
      </trkpt>
      <trkpt lat="44.38573" lon="6.33919">
        <ele>1256.8000488281</ele>
        <time>2016-07-11T12:57:38.000Z</time>
      </trkpt>
      <trkpt lat="44.38573" lon="6.33898">
        <ele>1256.4000244141</ele>
        <time>2016-07-11T12:57:48.000Z</time>
      </trkpt>
      <trkpt lat="44.38572" lon="6.33883">
        <ele>1255</ele>
        <time>2016-07-11T12:57:56.000Z</time>
      </trkpt>
      <trkpt lat="44.38568" lon="6.33867">
        <ele>1253.4000244141</ele>
        <time>2016-07-11T12:58:04.000Z</time>
      </trkpt>
      <trkpt lat="44.38564" lon="6.3385">
        <ele>1251.8000488281</ele>
        <time>2016-07-11T12:58:12.000Z</time>
      </trkpt>
      <trkpt lat="44.38561" lon="6.33829">
        <ele>1249.5999755859</ele>
        <time>2016-07-11T12:58:22.000Z</time>
      </trkpt>
      <trkpt lat="44.38559" lon="6.33815">
        <ele>1248.1999511719</ele>
        <time>2016-07-11T12:58:29.000Z</time>
      </trkpt>
      <trkpt lat="44.38554" lon="6.33804">
        <ele>1246.4000244141</ele>
        <time>2016-07-11T12:58:36.000Z</time>
      </trkpt>
      <trkpt lat="44.38545" lon="6.33794">
        <ele>1245.1999511719</ele>
        <time>2016-07-11T12:58:44.000Z</time>
      </trkpt>
      <trkpt lat="44.38536" lon="6.33785">
        <ele>1244</ele>
        <time>2016-07-11T12:58:52.000Z</time>
      </trkpt>
      <trkpt lat="44.38525" lon="6.33776">
        <ele>1242.4000244141</ele>
        <time>2016-07-11T12:59:01.000Z</time>
      </trkpt>
      <trkpt lat="44.38514" lon="6.33768">
        <ele>1240.8000488281</ele>
        <time>2016-07-11T12:59:09.000Z</time>
      </trkpt>
      <trkpt lat="44.38507" lon="6.33763">
        <ele>1239.4000244141</ele>
        <time>2016-07-11T12:59:15.000Z</time>
      </trkpt>
      <trkpt lat="44.38506" lon="6.3375">
        <ele>1237.4000244141</ele>
        <time>2016-07-11T12:59:22.000Z</time>
      </trkpt>
      <trkpt lat="44.3851" lon="6.33748">
        <ele>1237.1999511719</ele>
        <time>2016-07-11T12:59:26.000Z</time>
      </trkpt>
      <trkpt lat="44.38518" lon="6.33746">
        <ele>1237.1999511719</ele>
        <time>2016-07-11T12:59:34.000Z</time>
      </trkpt>
      <trkpt lat="44.38519" lon="6.33744">
        <ele>1236.8000488281</ele>
        <time>2016-07-11T12:59:46.000Z</time>
      </trkpt>
      <trkpt lat="44.38521" lon="6.33744">
        <ele>1236.8000488281</ele>
        <time>2016-07-11T12:59:54.000Z</time>
      </trkpt>
      <trkpt lat="44.38528" lon="6.33743">
        <ele>1237</ele>
        <time>2016-07-11T13:00:00.000Z</time>
      </trkpt>
      <trkpt lat="44.38535" lon="6.33743">
        <ele>1237</ele>
        <time>2016-07-11T13:00:06.000Z</time>
      </trkpt>
      <trkpt lat="44.38543" lon="6.33745">
        <ele>1237</ele>
        <time>2016-07-11T13:00:13.000Z</time>
      </trkpt>
      <trkpt lat="44.38544" lon="6.33745">
        <ele>1237</ele>
        <time>2016-07-11T13:00:14.000Z</time>
      </trkpt>
      <trkpt lat="44.38546" lon="6.33745">
        <ele>1237</ele>
        <time>2016-07-11T13:00:24.000Z</time>
      </trkpt>
      <trkpt lat="44.38547" lon="6.33746">
        <ele>1237</ele>
        <time>2016-07-11T13:00:35.000Z</time>
      </trkpt>
      <trkpt lat="44.38554" lon="6.33749">
        <ele>1237.1999511719</ele>
        <time>2016-07-11T13:01:02.000Z</time>
      </trkpt>
      <trkpt lat="44.38566" lon="6.33752">
        <ele>1237.5999755859</ele>
        <time>2016-07-11T13:01:10.000Z</time>
      </trkpt>
      <trkpt lat="44.38578" lon="6.33756">
        <ele>1237.8000488281</ele>
        <time>2016-07-11T13:01:18.000Z</time>
      </trkpt>
      <trkpt lat="44.38581" lon="6.33758">
        <ele>1238</ele>
        <time>2016-07-11T13:01:22.000Z</time>
      </trkpt>
      <trkpt lat="44.38582" lon="6.33759">
        <ele>1238.1999511719</ele>
        <time>2016-07-11T13:01:27.000Z</time>
      </trkpt>
      <trkpt lat="44.38589" lon="6.3376">
        <ele>1238.1999511719</ele>
        <time>2016-07-11T13:01:34.000Z</time>
      </trkpt>
      <trkpt lat="44.38597" lon="6.33761">
        <ele>1238.1999511719</ele>
        <time>2016-07-11T13:01:40.000Z</time>
      </trkpt>
      <trkpt lat="44.38609" lon="6.33762">
        <ele>1238</ele>
        <time>2016-07-11T13:01:48.000Z</time>
      </trkpt>
      <trkpt lat="44.38618" lon="6.33764">
        <ele>1237.5999755859</ele>
        <time>2016-07-11T13:01:56.000Z</time>
      </trkpt>
      <trkpt lat="44.38622" lon="6.33769">
        <ele>1237.8000488281</ele>
        <time>2016-07-11T13:02:02.000Z</time>
      </trkpt>
      <trkpt lat="44.38631" lon="6.33774">
        <ele>1237.4000244141</ele>
        <time>2016-07-11T13:02:09.000Z</time>
      </trkpt>
      <trkpt lat="44.38632" lon="6.33774">
        <ele>1237.4000244141</ele>
        <time>2016-07-11T13:02:10.000Z</time>
      </trkpt>
      <trkpt lat="44.38635" lon="6.33776">
        <ele>1237.1999511719</ele>
        <time>2016-07-11T13:02:13.000Z</time>
      </trkpt>
      <trkpt lat="44.38642" lon="6.33777">
        <ele>1236.1999511719</ele>
        <time>2016-07-11T13:02:20.000Z</time>
      </trkpt>
      <trkpt lat="44.38648" lon="6.33775">
        <ele>1235</ele>
        <time>2016-07-11T13:02:25.000Z</time>
      </trkpt>
      <trkpt lat="44.38651" lon="6.33775">
        <ele>1234.5999755859</ele>
        <time>2016-07-11T13:02:28.000Z</time>
      </trkpt>
      <trkpt lat="44.38663" lon="6.33778">
        <ele>1233.5999755859</ele>
        <time>2016-07-11T13:02:36.000Z</time>
      </trkpt>
      <trkpt lat="44.38668" lon="6.33782">
        <ele>1233.4000244141</ele>
        <time>2016-07-11T13:02:40.000Z</time>
      </trkpt>
      <trkpt lat="44.38675" lon="6.33783">
        <ele>1232.8000488281</ele>
        <time>2016-07-11T13:02:46.000Z</time>
      </trkpt>
      <trkpt lat="44.38685" lon="6.33785">
        <ele>1231.8000488281</ele>
        <time>2016-07-11T13:02:54.000Z</time>
      </trkpt>
      <trkpt lat="44.38696" lon="6.33794">
        <ele>1231.5999755859</ele>
        <time>2016-07-11T13:03:04.000Z</time>
      </trkpt>
      <trkpt lat="44.38703" lon="6.33797">
        <ele>1230.5999755859</ele>
        <time>2016-07-11T13:03:11.000Z</time>
      </trkpt>
      <trkpt lat="44.38705" lon="6.33798">
        <ele>1230.4000244141</ele>
        <time>2016-07-11T13:03:13.000Z</time>
      </trkpt>
      <trkpt lat="44.38712" lon="6.33798">
        <ele>1229</ele>
        <time>2016-07-11T13:03:18.000Z</time>
      </trkpt>
      <trkpt lat="44.38719" lon="6.33792">
        <ele>1226.5999755859</ele>
        <time>2016-07-11T13:03:25.000Z</time>
      </trkpt>
      <trkpt lat="44.3872" lon="6.33791">
        <ele>1226.1999511719</ele>
        <time>2016-07-11T13:03:26.000Z</time>
      </trkpt>
      <trkpt lat="44.38722" lon="6.33791">
        <ele>1225.8000488281</ele>
        <time>2016-07-11T13:03:28.000Z</time>
      </trkpt>
      <trkpt lat="44.38729" lon="6.3379">
        <ele>1224.1999511719</ele>
        <time>2016-07-11T13:03:35.000Z</time>
      </trkpt>
      <trkpt lat="44.38729" lon="6.33786">
        <ele>1223.5999755859</ele>
        <time>2016-07-11T13:03:38.000Z</time>
      </trkpt>
      <trkpt lat="44.38729" lon="6.33784">
        <ele>1223.4000244141</ele>
        <time>2016-07-11T13:03:40.000Z</time>
      </trkpt>
      <trkpt lat="44.38726" lon="6.33778">
        <ele>1223.1999511719</ele>
        <time>2016-07-11T13:03:47.000Z</time>
      </trkpt>
      <trkpt lat="44.38724" lon="6.33772">
        <ele>1222.8000488281</ele>
        <time>2016-07-11T13:03:53.000Z</time>
      </trkpt>
      <trkpt lat="44.38723" lon="6.33767">
        <ele>1222.4000244141</ele>
        <time>2016-07-11T13:03:59.000Z</time>
      </trkpt>
      <trkpt lat="44.38724" lon="6.33767">
        <ele>1222.4000244141</ele>
        <time>2016-07-11T13:04:07.000Z</time>
      </trkpt>
      <trkpt lat="44.38724" lon="6.33768">
        <ele>1222.4000244141</ele>
        <time>2016-07-11T13:04:13.000Z</time>
      </trkpt>
      <trkpt lat="44.38723" lon="6.33768">
        <ele>1222.4000244141</ele>
        <time>2016-07-11T13:04:16.000Z</time>
      </trkpt>
      <trkpt lat="44.38726" lon="6.33764">
        <ele>1221.4000244141</ele>
        <time>2016-07-11T13:04:20.000Z</time>
      </trkpt>
      <trkpt lat="44.38729" lon="6.33761">
        <ele>1220.4000244141</ele>
        <time>2016-07-11T13:04:25.000Z</time>
      </trkpt>
      <trkpt lat="44.38737" lon="6.33754">
        <ele>1219</ele>
        <time>2016-07-11T13:04:32.000Z</time>
      </trkpt>
      <trkpt lat="44.38744" lon="6.33748">
        <ele>1217.8000488281</ele>
        <time>2016-07-11T13:04:38.000Z</time>
      </trkpt>
      <trkpt lat="44.38745" lon="6.33748">
        <ele>1217.5999755859</ele>
        <time>2016-07-11T13:04:39.000Z</time>
      </trkpt>
      <trkpt lat="44.38756" lon="6.33741">
        <ele>1215.8000488281</ele>
        <time>2016-07-11T13:04:48.000Z</time>
      </trkpt>
      <trkpt lat="44.38762" lon="6.33737">
        <ele>1215</ele>
        <time>2016-07-11T13:04:56.000Z</time>
      </trkpt>
      <trkpt lat="44.38767" lon="6.3373">
        <ele>1213.8000488281</ele>
        <time>2016-07-11T13:05:03.000Z</time>
      </trkpt>
      <trkpt lat="44.38769" lon="6.33728">
        <ele>1213.5999755859</ele>
        <time>2016-07-11T13:05:05.000Z</time>
      </trkpt>
      <trkpt lat="44.3877" lon="6.33726">
        <ele>1213.5999755859</ele>
        <time>2016-07-11T13:05:11.000Z</time>
      </trkpt>
      <trkpt lat="44.38772" lon="6.33726">
        <ele>1213.1999511719</ele>
        <time>2016-07-11T13:05:19.000Z</time>
      </trkpt>
      <trkpt lat="44.38772" lon="6.33724">
        <ele>1213.1999511719</ele>
        <time>2016-07-11T13:05:25.000Z</time>
      </trkpt>
      <trkpt lat="44.38774" lon="6.33726">
        <ele>1213</ele>
        <time>2016-07-11T13:05:31.000Z</time>
      </trkpt>
      <trkpt lat="44.38776" lon="6.33722">
        <ele>1212.8000488281</ele>
        <time>2016-07-11T13:05:40.000Z</time>
      </trkpt>
      <trkpt lat="44.38776" lon="6.33721">
        <ele>1212.8000488281</ele>
        <time>2016-07-11T13:05:41.000Z</time>
      </trkpt>
      <trkpt lat="44.38777" lon="6.33715">
        <ele>1212.5999755859</ele>
        <time>2016-07-11T13:05:45.000Z</time>
      </trkpt>
      <trkpt lat="44.38777" lon="6.33712">
        <ele>1212.8000488281</ele>
        <time>2016-07-11T13:05:47.000Z</time>
      </trkpt>
      <trkpt lat="44.38777" lon="6.33707">
        <ele>1212.8000488281</ele>
        <time>2016-07-11T13:05:50.000Z</time>
      </trkpt>
      <trkpt lat="44.38775" lon="6.33698">
        <ele>1213.1999511719</ele>
        <time>2016-07-11T13:05:55.000Z</time>
      </trkpt>
      <trkpt lat="44.38775" lon="6.33694">
        <ele>1213.1999511719</ele>
        <time>2016-07-11T13:05:58.000Z</time>
      </trkpt>
      <trkpt lat="44.38775" lon="6.33689">
        <ele>1213.1999511719</ele>
        <time>2016-07-11T13:06:01.000Z</time>
      </trkpt>
      <trkpt lat="44.38775" lon="6.3368">
        <ele>1213.4000244141</ele>
        <time>2016-07-11T13:06:06.000Z</time>
      </trkpt>
      <trkpt lat="44.38774" lon="6.33671">
        <ele>1213.5999755859</ele>
        <time>2016-07-11T13:06:12.000Z</time>
      </trkpt>
      <trkpt lat="44.38773" lon="6.33659">
        <ele>1213.8000488281</ele>
        <time>2016-07-11T13:06:19.000Z</time>
      </trkpt>
      <trkpt lat="44.38772" lon="6.33655">
        <ele>1214</ele>
        <time>2016-07-11T13:06:21.000Z</time>
      </trkpt>
      <trkpt lat="44.38772" lon="6.33652">
        <ele>1214</ele>
        <time>2016-07-11T13:06:23.000Z</time>
      </trkpt>
      <trkpt lat="44.38772" lon="6.33648">
        <ele>1214</ele>
        <time>2016-07-11T13:06:26.000Z</time>
      </trkpt>
      <trkpt lat="44.38772" lon="6.33647">
        <ele>1214.1999511719</ele>
        <time>2016-07-11T13:06:31.000Z</time>
      </trkpt>
      <trkpt lat="44.38771" lon="6.33642">
        <ele>1214</ele>
        <time>2016-07-11T13:06:37.000Z</time>
      </trkpt>
      <trkpt lat="44.38771" lon="6.33631">
        <ele>1213</ele>
        <time>2016-07-11T13:06:43.000Z</time>
      </trkpt>
      <trkpt lat="44.3877" lon="6.33624">
        <ele>1212.4000244141</ele>
        <time>2016-07-11T13:06:46.000Z</time>
      </trkpt>
      <trkpt lat="44.38768" lon="6.33616">
        <ele>1211.5999755859</ele>
        <time>2016-07-11T13:06:50.000Z</time>
      </trkpt>
      <trkpt lat="44.38766" lon="6.33605">
        <ele>1210.5999755859</ele>
        <time>2016-07-11T13:06:56.000Z</time>
      </trkpt>
      <trkpt lat="44.38766" lon="6.33601">
        <ele>1210.1999511719</ele>
        <time>2016-07-11T13:06:58.000Z</time>
      </trkpt>
      <trkpt lat="44.38762" lon="6.3359">
        <ele>1209.4000244141</ele>
        <time>2016-07-11T13:07:04.000Z</time>
      </trkpt>
      <trkpt lat="44.38761" lon="6.33582">
        <ele>1208.4000244141</ele>
        <time>2016-07-11T13:07:08.000Z</time>
      </trkpt>
      <trkpt lat="44.38756" lon="6.33568">
        <ele>1207.8000488281</ele>
        <time>2016-07-11T13:07:15.000Z</time>
      </trkpt>
      <trkpt lat="44.38751" lon="6.33555">
        <ele>1206.4000244141</ele>
        <time>2016-07-11T13:07:23.000Z</time>
      </trkpt>
      <trkpt lat="44.38748" lon="6.33543">
        <ele>1205</ele>
        <time>2016-07-11T13:07:29.000Z</time>
      </trkpt>
      <trkpt lat="44.38747" lon="6.33534">
        <ele>1203.5999755859</ele>
        <time>2016-07-11T13:07:33.000Z</time>
      </trkpt>
      <trkpt lat="44.38747" lon="6.33525">
        <ele>1202.1999511719</ele>
        <time>2016-07-11T13:07:38.000Z</time>
      </trkpt>
      <trkpt lat="44.38746" lon="6.33516">
        <ele>1201.1999511719</ele>
        <time>2016-07-11T13:07:43.000Z</time>
      </trkpt>
      <trkpt lat="44.38745" lon="6.33508">
        <ele>1200.1999511719</ele>
        <time>2016-07-11T13:07:47.000Z</time>
      </trkpt>
      <trkpt lat="44.38737" lon="6.33493">
        <ele>1199.1999511719</ele>
        <time>2016-07-11T13:07:55.000Z</time>
      </trkpt>
      <trkpt lat="44.38728" lon="6.33484">
        <ele>1199.4000244141</ele>
        <time>2016-07-11T13:08:02.000Z</time>
      </trkpt>
      <trkpt lat="44.38727" lon="6.33483">
        <ele>1199.4000244141</ele>
        <time>2016-07-11T13:08:03.000Z</time>
      </trkpt>
      <trkpt lat="44.38725" lon="6.33476">
        <ele>1198</ele>
        <time>2016-07-11T13:08:07.000Z</time>
      </trkpt>
      <trkpt lat="44.38722" lon="6.33463">
        <ele>1194.5999755859</ele>
        <time>2016-07-11T13:08:13.000Z</time>
      </trkpt>
      <trkpt lat="44.38722" lon="6.33462">
        <ele>1194.1999511719</ele>
        <time>2016-07-11T13:08:14.000Z</time>
      </trkpt>
      <trkpt lat="44.38723" lon="6.33455">
        <ele>1191.8000488281</ele>
        <time>2016-07-11T13:08:19.000Z</time>
      </trkpt>
      <trkpt lat="44.38722" lon="6.33442">
        <ele>1188</ele>
        <time>2016-07-11T13:08:25.000Z</time>
      </trkpt>
      <trkpt lat="44.38722" lon="6.33441">
        <ele>1187.4000244141</ele>
        <time>2016-07-11T13:08:26.000Z</time>
      </trkpt>
      <trkpt lat="44.38722" lon="6.3343">
        <ele>1184</ele>
        <time>2016-07-11T13:08:32.000Z</time>
      </trkpt>
      <trkpt lat="44.38721" lon="6.33422">
        <ele>1182</ele>
        <time>2016-07-11T13:08:35.000Z</time>
      </trkpt>
      <trkpt lat="44.38718" lon="6.33412">
        <ele>1180</ele>
        <time>2016-07-11T13:08:40.000Z</time>
      </trkpt>
      <trkpt lat="44.38718" lon="6.3341">
        <ele>1179.5999755859</ele>
        <time>2016-07-11T13:08:41.000Z</time>
      </trkpt>
      <trkpt lat="44.38715" lon="6.33403">
        <ele>1178.4000244141</ele>
        <time>2016-07-11T13:08:46.000Z</time>
      </trkpt>
      <trkpt lat="44.38709" lon="6.33391">
        <ele>1175.8000488281</ele>
        <time>2016-07-11T13:08:53.000Z</time>
      </trkpt>
      <trkpt lat="44.3871" lon="6.33375">
        <ele>1171</ele>
        <time>2016-07-11T13:09:01.000Z</time>
      </trkpt>
      <trkpt lat="44.38711" lon="6.33373">
        <ele>1170.5999755859</ele>
        <time>2016-07-11T13:09:02.000Z</time>
      </trkpt>
      <trkpt lat="44.38717" lon="6.33367">
        <ele>1168.5999755859</ele>
        <time>2016-07-11T13:09:08.000Z</time>
      </trkpt>
      <trkpt lat="44.3872" lon="6.3336">
        <ele>1166.5999755859</ele>
        <time>2016-07-11T13:09:13.000Z</time>
      </trkpt>
      <trkpt lat="44.38719" lon="6.33357">
        <ele>1165.5999755859</ele>
        <time>2016-07-11T13:09:15.000Z</time>
      </trkpt>
      <trkpt lat="44.38716" lon="6.33353">
        <ele>1164.5999755859</ele>
        <time>2016-07-11T13:09:18.000Z</time>
      </trkpt>
      <trkpt lat="44.38709" lon="6.33348">
        <ele>1163.5999755859</ele>
        <time>2016-07-11T13:09:25.000Z</time>
      </trkpt>
      <trkpt lat="44.38705" lon="6.3335">
        <ele>1164.1999511719</ele>
        <time>2016-07-11T13:09:28.000Z</time>
      </trkpt>
      <trkpt lat="44.38699" lon="6.33356">
        <ele>1166.1999511719</ele>
        <time>2016-07-11T13:09:34.000Z</time>
      </trkpt>
      <trkpt lat="44.38687" lon="6.33364">
        <ele>1169</ele>
        <time>2016-07-11T13:09:44.000Z</time>
      </trkpt>
      <trkpt lat="44.3868" lon="6.33367">
        <ele>1170</ele>
        <time>2016-07-11T13:09:50.000Z</time>
      </trkpt>
      <trkpt lat="44.38671" lon="6.3337">
        <ele>1171</ele>
        <time>2016-07-11T13:09:57.000Z</time>
      </trkpt>
      <trkpt lat="44.38664" lon="6.3337">
        <ele>1171.4000244141</ele>
        <time>2016-07-11T13:10:03.000Z</time>
      </trkpt>
      <trkpt lat="44.38656" lon="6.33369">
        <ele>1171.5999755859</ele>
        <time>2016-07-11T13:10:09.000Z</time>
      </trkpt>
      <trkpt lat="44.38648" lon="6.33366">
        <ele>1171</ele>
        <time>2016-07-11T13:10:15.000Z</time>
      </trkpt>
      <trkpt lat="44.38637" lon="6.33361">
        <ele>1170</ele>
        <time>2016-07-11T13:10:22.000Z</time>
      </trkpt>
      <trkpt lat="44.38627" lon="6.33354">
        <ele>1168.4000244141</ele>
        <time>2016-07-11T13:10:29.000Z</time>
      </trkpt>
      <trkpt lat="44.38622" lon="6.33349">
        <ele>1167.1999511719</ele>
        <time>2016-07-11T13:10:35.000Z</time>
      </trkpt>
      <trkpt lat="44.38615" lon="6.33338">
        <ele>1164.1999511719</ele>
        <time>2016-07-11T13:10:42.000Z</time>
      </trkpt>
      <trkpt lat="44.38605" lon="6.3333">
        <ele>1162</ele>
        <time>2016-07-11T13:10:49.000Z</time>
      </trkpt>
      <trkpt lat="44.38597" lon="6.33323">
        <ele>1159.8000488281</ele>
        <time>2016-07-11T13:10:56.000Z</time>
      </trkpt>
      <trkpt lat="44.38589" lon="6.33317">
        <ele>1158.4000244141</ele>
        <time>2016-07-11T13:11:03.000Z</time>
      </trkpt>
      <trkpt lat="44.38583" lon="6.33316">
        <ele>1158</ele>
        <time>2016-07-11T13:11:08.000Z</time>
      </trkpt>
      <trkpt lat="44.38575" lon="6.33313">
        <ele>1157.1999511719</ele>
        <time>2016-07-11T13:11:14.000Z</time>
      </trkpt>
      <trkpt lat="44.38572" lon="6.3331">
        <ele>1156.4000244141</ele>
        <time>2016-07-11T13:11:17.000Z</time>
      </trkpt>
      <trkpt lat="44.38563" lon="6.33304">
        <ele>1155</ele>
        <time>2016-07-11T13:11:25.000Z</time>
      </trkpt>
      <trkpt lat="44.38551" lon="6.33299">
        <ele>1153.8000488281</ele>
        <time>2016-07-11T13:11:33.000Z</time>
      </trkpt>
      <trkpt lat="44.38543" lon="6.33292">
        <ele>1152.1999511719</ele>
        <time>2016-07-11T13:11:40.000Z</time>
      </trkpt>
      <trkpt lat="44.38533" lon="6.33289">
        <ele>1151.4000244141</ele>
        <time>2016-07-11T13:11:47.000Z</time>
      </trkpt>
      <trkpt lat="44.38522" lon="6.33285">
        <ele>1150.8000488281</ele>
        <time>2016-07-11T13:11:55.000Z</time>
      </trkpt>
      <trkpt lat="44.38516" lon="6.33281">
        <ele>1149.8000488281</ele>
        <time>2016-07-11T13:12:01.000Z</time>
      </trkpt>
      <trkpt lat="44.38507" lon="6.33276">
        <ele>1148.5999755859</ele>
        <time>2016-07-11T13:12:07.000Z</time>
      </trkpt>
      <trkpt lat="44.38496" lon="6.33271">
        <ele>1147.4000244141</ele>
        <time>2016-07-11T13:12:15.000Z</time>
      </trkpt>
      <trkpt lat="44.38484" lon="6.33263">
        <ele>1145.8000488281</ele>
        <time>2016-07-11T13:12:23.000Z</time>
      </trkpt>
      <trkpt lat="44.3847" lon="6.33258">
        <ele>1145.4000244141</ele>
        <time>2016-07-11T13:12:32.000Z</time>
      </trkpt>
      <trkpt lat="44.38455" lon="6.33251">
        <ele>1145.5999755859</ele>
        <time>2016-07-11T13:12:41.000Z</time>
      </trkpt>
      <trkpt lat="44.38441" lon="6.33245">
        <ele>1144</ele>
        <time>2016-07-11T13:12:50.000Z</time>
      </trkpt>
      <trkpt lat="44.38434" lon="6.33242">
        <ele>1142.4000244141</ele>
        <time>2016-07-11T13:12:54.000Z</time>
      </trkpt>
      <trkpt lat="44.38422" lon="6.33235">
        <ele>1139</ele>
        <time>2016-07-11T13:13:02.000Z</time>
      </trkpt>
      <trkpt lat="44.38409" lon="6.33229">
        <ele>1136.5999755859</ele>
        <time>2016-07-11T13:13:10.000Z</time>
      </trkpt>
      <trkpt lat="44.38397" lon="6.33223">
        <ele>1135</ele>
        <time>2016-07-11T13:13:18.000Z</time>
      </trkpt>
      <trkpt lat="44.38384" lon="6.33223">
        <ele>1134.5999755859</ele>
        <time>2016-07-11T13:13:26.000Z</time>
      </trkpt>
      <trkpt lat="44.38374" lon="6.33221">
        <ele>1133.8000488281</ele>
        <time>2016-07-11T13:13:32.000Z</time>
      </trkpt>
      <trkpt lat="44.38362" lon="6.33218">
        <ele>1132.8000488281</ele>
        <time>2016-07-11T13:13:40.000Z</time>
      </trkpt>
      <trkpt lat="44.38353" lon="6.33215">
        <ele>1131.5999755859</ele>
        <time>2016-07-11T13:13:47.000Z</time>
      </trkpt>
      <trkpt lat="44.38342" lon="6.33211">
        <ele>1129.8000488281</ele>
        <time>2016-07-11T13:13:55.000Z</time>
      </trkpt>
      <trkpt lat="44.38336" lon="6.33208">
        <ele>1128.1999511719</ele>
        <time>2016-07-11T13:14:01.000Z</time>
      </trkpt>
      <trkpt lat="44.3833" lon="6.33207">
        <ele>1127.1999511719</ele>
        <time>2016-07-11T13:14:05.000Z</time>
      </trkpt>
      <trkpt lat="44.38315" lon="6.33207">
        <ele>1125</ele>
        <time>2016-07-11T13:14:14.000Z</time>
      </trkpt>
      <trkpt lat="44.38298" lon="6.3321">
        <ele>1122.8000488281</ele>
        <time>2016-07-11T13:14:25.000Z</time>
      </trkpt>
      <trkpt lat="44.38288" lon="6.3321">
        <ele>1121.1999511719</ele>
        <time>2016-07-11T13:14:32.000Z</time>
      </trkpt>
      <trkpt lat="44.38279" lon="6.33213">
        <ele>1120.4000244141</ele>
        <time>2016-07-11T13:14:38.000Z</time>
      </trkpt>
      <trkpt lat="44.3827" lon="6.33216">
        <ele>1120.4000244141</ele>
        <time>2016-07-11T13:14:44.000Z</time>
      </trkpt>
      <trkpt lat="44.38262" lon="6.3322">
        <ele>1119.5999755859</ele>
        <time>2016-07-11T13:14:50.000Z</time>
      </trkpt>
      <trkpt lat="44.38258" lon="6.33224">
        <ele>1119.4000244141</ele>
        <time>2016-07-11T13:14:54.000Z</time>
      </trkpt>
      <trkpt lat="44.38256" lon="6.33225">
        <ele>1119.1999511719</ele>
        <time>2016-07-11T13:14:55.000Z</time>
      </trkpt>
      <trkpt lat="44.38245" lon="6.33233">
        <ele>1118.4000244141</ele>
        <time>2016-07-11T13:15:02.000Z</time>
      </trkpt>
      <trkpt lat="44.38236" lon="6.33238">
        <ele>1118.4000244141</ele>
        <time>2016-07-11T13:15:08.000Z</time>
      </trkpt>
      <trkpt lat="44.38226" lon="6.33242">
        <ele>1118.4000244141</ele>
        <time>2016-07-11T13:15:14.000Z</time>
      </trkpt>
      <trkpt lat="44.38214" lon="6.33248">
        <ele>1118</ele>
        <time>2016-07-11T13:15:22.000Z</time>
      </trkpt>
      <trkpt lat="44.38203" lon="6.33256">
        <ele>1115.5999755859</ele>
        <time>2016-07-11T13:15:30.000Z</time>
      </trkpt>
      <trkpt lat="44.38192" lon="6.33261">
        <ele>1114.5999755859</ele>
        <time>2016-07-11T13:15:37.000Z</time>
      </trkpt>
      <trkpt lat="44.38178" lon="6.33266">
        <ele>1114.8000488281</ele>
        <time>2016-07-11T13:15:46.000Z</time>
      </trkpt>
      <trkpt lat="44.38168" lon="6.33269">
        <ele>1114.8000488281</ele>
        <time>2016-07-11T13:15:53.000Z</time>
      </trkpt>
      <trkpt lat="44.38166" lon="6.3327">
        <ele>1115</ele>
        <time>2016-07-11T13:15:54.000Z</time>
      </trkpt>
      <trkpt lat="44.38147" lon="6.33273">
        <ele>1113.8000488281</ele>
        <time>2016-07-11T13:16:07.000Z</time>
      </trkpt>
      <trkpt lat="44.38134" lon="6.33274">
        <ele>1112</ele>
        <time>2016-07-11T13:16:15.000Z</time>
      </trkpt>
      <trkpt lat="44.38125" lon="6.33276">
        <ele>1110.8000488281</ele>
        <time>2016-07-11T13:16:21.000Z</time>
      </trkpt>
      <trkpt lat="44.38114" lon="6.33277">
        <ele>1109.5999755859</ele>
        <time>2016-07-11T13:16:28.000Z</time>
      </trkpt>
      <trkpt lat="44.38104" lon="6.33276">
        <ele>1109.8000488281</ele>
        <time>2016-07-11T13:16:35.000Z</time>
      </trkpt>
      <trkpt lat="44.38101" lon="6.3328">
        <ele>1110</ele>
        <time>2016-07-11T13:16:40.000Z</time>
      </trkpt>
      <trkpt lat="44.381" lon="6.33282">
        <ele>1110</ele>
        <time>2016-07-11T13:16:52.000Z</time>
      </trkpt>
      <trkpt lat="44.381" lon="6.33281">
        <ele>1110</ele>
        <time>2016-07-11T13:17:09.000Z</time>
      </trkpt>
      <trkpt lat="44.38094" lon="6.33273">
        <ele>1110</ele>
        <time>2016-07-11T13:17:15.000Z</time>
      </trkpt>
      <trkpt lat="44.38092" lon="6.33272">
        <ele>1110</ele>
        <time>2016-07-11T13:17:16.000Z</time>
      </trkpt>
      <trkpt lat="44.38077" lon="6.33264">
        <ele>1110.1999511719</ele>
        <time>2016-07-11T13:17:26.000Z</time>
      </trkpt>
      <trkpt lat="44.38068" lon="6.33265">
        <ele>1110.5999755859</ele>
        <time>2016-07-11T13:17:32.000Z</time>
      </trkpt>
      <trkpt lat="44.38057" lon="6.33272">
        <ele>1110.5999755859</ele>
        <time>2016-07-11T13:17:39.000Z</time>
      </trkpt>
      <trkpt lat="44.38043" lon="6.33282">
        <ele>1110.8000488281</ele>
        <time>2016-07-11T13:17:49.000Z</time>
      </trkpt>
      <trkpt lat="44.3803" lon="6.33289">
        <ele>1111</ele>
        <time>2016-07-11T13:17:58.000Z</time>
      </trkpt>
      <trkpt lat="44.38016" lon="6.33294">
        <ele>1111.8000488281</ele>
        <time>2016-07-11T13:18:07.000Z</time>
      </trkpt>
      <trkpt lat="44.38003" lon="6.33298">
        <ele>1112.5999755859</ele>
        <time>2016-07-11T13:18:15.000Z</time>
      </trkpt>
      <trkpt lat="44.37991" lon="6.33304">
        <ele>1113.1999511719</ele>
        <time>2016-07-11T13:18:23.000Z</time>
      </trkpt>
      <trkpt lat="44.37982" lon="6.33312">
        <ele>1114</ele>
        <time>2016-07-11T13:18:30.000Z</time>
      </trkpt>
      <trkpt lat="44.37975" lon="6.33315">
        <ele>1114.4000244141</ele>
        <time>2016-07-11T13:18:35.000Z</time>
      </trkpt>
      <trkpt lat="44.37963" lon="6.33324">
        <ele>1115</ele>
        <time>2016-07-11T13:18:43.000Z</time>
      </trkpt>
      <trkpt lat="44.37951" lon="6.33331">
        <ele>1116.1999511719</ele>
        <time>2016-07-11T13:18:51.000Z</time>
      </trkpt>
      <trkpt lat="44.37941" lon="6.33334">
        <ele>1117.1999511719</ele>
        <time>2016-07-11T13:18:58.000Z</time>
      </trkpt>
      <trkpt lat="44.37929" lon="6.33342">
        <ele>1118.8000488281</ele>
        <time>2016-07-11T13:19:07.000Z</time>
      </trkpt>
      <trkpt lat="44.37919" lon="6.33347">
        <ele>1120</ele>
        <time>2016-07-11T13:19:14.000Z</time>
      </trkpt>
      <trkpt lat="44.37911" lon="6.33352">
        <ele>1120.8000488281</ele>
        <time>2016-07-11T13:19:20.000Z</time>
      </trkpt>
      <trkpt lat="44.37904" lon="6.33355">
        <ele>1121.5999755859</ele>
        <time>2016-07-11T13:19:27.000Z</time>
      </trkpt>
      <trkpt lat="44.37901" lon="6.33355">
        <ele>1122</ele>
        <time>2016-07-11T13:19:29.000Z</time>
      </trkpt>
      <trkpt lat="44.37886" lon="6.33356">
        <ele>1123.4000244141</ele>
        <time>2016-07-11T13:19:37.000Z</time>
      </trkpt>
      <trkpt lat="44.37879" lon="6.33354">
        <ele>1124.1999511719</ele>
        <time>2016-07-11T13:19:41.000Z</time>
      </trkpt>
      <trkpt lat="44.37874" lon="6.33351">
        <ele>1124.5999755859</ele>
        <time>2016-07-11T13:19:44.000Z</time>
      </trkpt>
      <trkpt lat="44.3786" lon="6.33347">
        <ele>1125.8000488281</ele>
        <time>2016-07-11T13:19:53.000Z</time>
      </trkpt>
      <trkpt lat="44.37852" lon="6.33348">
        <ele>1126.4000244141</ele>
        <time>2016-07-11T13:19:59.000Z</time>
      </trkpt>
      <trkpt lat="44.37851" lon="6.33348">
        <ele>1126.5999755859</ele>
        <time>2016-07-11T13:20:00.000Z</time>
      </trkpt>
      <trkpt lat="44.37841" lon="6.33346">
        <ele>1127.4000244141</ele>
        <time>2016-07-11T13:20:07.000Z</time>
      </trkpt>
      <trkpt lat="44.37839" lon="6.33346">
        <ele>1127.5999755859</ele>
        <time>2016-07-11T13:20:08.000Z</time>
      </trkpt>
      <trkpt lat="44.37823" lon="6.33353">
        <ele>1129</ele>
        <time>2016-07-11T13:20:15.000Z</time>
      </trkpt>
      <trkpt lat="44.37808" lon="6.33359">
        <ele>1131.5999755859</ele>
        <time>2016-07-11T13:20:21.000Z</time>
      </trkpt>
      <trkpt lat="44.37792" lon="6.33369">
        <ele>1134.8000488281</ele>
        <time>2016-07-11T13:20:27.000Z</time>
      </trkpt>
      <trkpt lat="44.3779" lon="6.3337">
        <ele>1135.4000244141</ele>
        <time>2016-07-11T13:20:28.000Z</time>
      </trkpt>
      <trkpt lat="44.37773" lon="6.33379">
        <ele>1138.4000244141</ele>
        <time>2016-07-11T13:20:34.000Z</time>
      </trkpt>
      <trkpt lat="44.37765" lon="6.33385">
        <ele>1140</ele>
        <time>2016-07-11T13:20:38.000Z</time>
      </trkpt>
      <trkpt lat="44.37749" lon="6.33397">
        <ele>1145.1999511719</ele>
        <time>2016-07-11T13:20:44.000Z</time>
      </trkpt>
      <trkpt lat="44.37734" lon="6.33401">
        <ele>1148.4000244141</ele>
        <time>2016-07-11T13:20:49.000Z</time>
      </trkpt>
      <trkpt lat="44.37724" lon="6.33406">
        <ele>1150.8000488281</ele>
        <time>2016-07-11T13:20:53.000Z</time>
      </trkpt>
      <trkpt lat="44.37722" lon="6.3341">
        <ele>1151.5999755859</ele>
        <time>2016-07-11T13:20:54.000Z</time>
      </trkpt>
      <trkpt lat="44.37716" lon="6.3343">
        <ele>1154</ele>
        <time>2016-07-11T13:20:59.000Z</time>
      </trkpt>
      <trkpt lat="44.37711" lon="6.33454">
        <ele>1156.8000488281</ele>
        <time>2016-07-11T13:21:06.000Z</time>
      </trkpt>
      <trkpt lat="44.37706" lon="6.33468">
        <ele>1158.5999755859</ele>
        <time>2016-07-11T13:21:13.000Z</time>
      </trkpt>
      <trkpt lat="44.37701" lon="6.33479">
        <ele>1160.4000244141</ele>
        <time>2016-07-11T13:21:20.000Z</time>
      </trkpt>
      <trkpt lat="44.37697" lon="6.33488">
        <ele>1161.1999511719</ele>
        <time>2016-07-11T13:21:26.000Z</time>
      </trkpt>
      <trkpt lat="44.37692" lon="6.335">
        <ele>1161.8000488281</ele>
        <time>2016-07-11T13:21:34.000Z</time>
      </trkpt>
      <trkpt lat="44.37687" lon="6.33512">
        <ele>1162.4000244141</ele>
        <time>2016-07-11T13:21:40.000Z</time>
      </trkpt>
      <trkpt lat="44.37682" lon="6.33526">
        <ele>1163.1999511719</ele>
        <time>2016-07-11T13:21:48.000Z</time>
      </trkpt>
      <trkpt lat="44.37676" lon="6.3354">
        <ele>1164</ele>
        <time>2016-07-11T13:21:55.000Z</time>
      </trkpt>
      <trkpt lat="44.37671" lon="6.33551">
        <ele>1165.1999511719</ele>
        <time>2016-07-11T13:22:01.000Z</time>
      </trkpt>
      <trkpt lat="44.37665" lon="6.33562">
        <ele>1166.4000244141</ele>
        <time>2016-07-11T13:22:08.000Z</time>
      </trkpt>
      <trkpt lat="44.37664" lon="6.33563">
        <ele>1166.5999755859</ele>
        <time>2016-07-11T13:22:09.000Z</time>
      </trkpt>
      <trkpt lat="44.37658" lon="6.33576">
        <ele>1168</ele>
        <time>2016-07-11T13:22:16.000Z</time>
      </trkpt>
      <trkpt lat="44.37652" lon="6.3359">
        <ele>1169.4000244141</ele>
        <time>2016-07-11T13:22:24.000Z</time>
      </trkpt>
      <trkpt lat="44.37647" lon="6.33603">
        <ele>1170.1999511719</ele>
        <time>2016-07-11T13:22:31.000Z</time>
      </trkpt>
      <trkpt lat="44.37639" lon="6.33619">
        <ele>1170.4000244141</ele>
        <time>2016-07-11T13:22:40.000Z</time>
      </trkpt>
      <trkpt lat="44.37622" lon="6.33642">
        <ele>1171.4000244141</ele>
        <time>2016-07-11T13:22:56.000Z</time>
      </trkpt>
      <trkpt lat="44.37615" lon="6.33651">
        <ele>1172.1999511719</ele>
        <time>2016-07-11T13:23:03.000Z</time>
      </trkpt>
      <trkpt lat="44.37611" lon="6.33658">
        <ele>1172.8000488281</ele>
        <time>2016-07-11T13:23:08.000Z</time>
      </trkpt>
      <trkpt lat="44.37605" lon="6.33666">
        <ele>1173.5999755859</ele>
        <time>2016-07-11T13:23:14.000Z</time>
      </trkpt>
      <trkpt lat="44.37602" lon="6.33669">
        <ele>1174</ele>
        <time>2016-07-11T13:23:17.000Z</time>
      </trkpt>
      <trkpt lat="44.37597" lon="6.33676">
        <ele>1174.8000488281</ele>
        <time>2016-07-11T13:23:24.000Z</time>
      </trkpt>
      <trkpt lat="44.37592" lon="6.3368">
        <ele>1175.1999511719</ele>
        <time>2016-07-11T13:23:27.000Z</time>
      </trkpt>
      <trkpt lat="44.37582" lon="6.33688">
        <ele>1176</ele>
        <time>2016-07-11T13:23:34.000Z</time>
      </trkpt>
      <trkpt lat="44.37576" lon="6.33692">
        <ele>1176.8000488281</ele>
        <time>2016-07-11T13:23:39.000Z</time>
      </trkpt>
      <trkpt lat="44.37557" lon="6.33707">
        <ele>1182</ele>
        <time>2016-07-11T13:23:53.000Z</time>
      </trkpt>
      <trkpt lat="44.3755" lon="6.33712">
        <ele>1184</ele>
        <time>2016-07-11T13:23:58.000Z</time>
      </trkpt>
      <trkpt lat="44.37541" lon="6.3372">
        <ele>1186.8000488281</ele>
        <time>2016-07-11T13:24:05.000Z</time>
      </trkpt>
      <trkpt lat="44.37537" lon="6.3373">
        <ele>1189</ele>
        <time>2016-07-11T13:24:10.000Z</time>
      </trkpt>
      <trkpt lat="44.37538" lon="6.33739">
        <ele>1190.4000244141</ele>
        <time>2016-07-11T13:24:16.000Z</time>
      </trkpt>
      <trkpt lat="44.37539" lon="6.33741">
        <ele>1190.5999755859</ele>
        <time>2016-07-11T13:24:17.000Z</time>
      </trkpt>
      <trkpt lat="44.37541" lon="6.3375">
        <ele>1192</ele>
        <time>2016-07-11T13:24:23.000Z</time>
      </trkpt>
      <trkpt lat="44.37542" lon="6.33751">
        <ele>1192.4000244141</ele>
        <time>2016-07-11T13:24:24.000Z</time>
      </trkpt>
      <trkpt lat="44.3754" lon="6.33758">
        <ele>1194.1999511719</ele>
        <time>2016-07-11T13:24:28.000Z</time>
      </trkpt>
      <trkpt lat="44.37539" lon="6.33761">
        <ele>1195.4000244141</ele>
        <time>2016-07-11T13:24:30.000Z</time>
      </trkpt>
      <trkpt lat="44.37534" lon="6.33763">
        <ele>1197.1999511719</ele>
        <time>2016-07-11T13:24:34.000Z</time>
      </trkpt>
      <trkpt lat="44.37528" lon="6.33762">
        <ele>1198</ele>
        <time>2016-07-11T13:24:39.000Z</time>
      </trkpt>
      <trkpt lat="44.37527" lon="6.33762">
        <ele>1198.1999511719</ele>
        <time>2016-07-11T13:24:40.000Z</time>
      </trkpt>
      <trkpt lat="44.37517" lon="6.3376">
        <ele>1199.4000244141</ele>
        <time>2016-07-11T13:24:49.000Z</time>
      </trkpt>
      <trkpt lat="44.37509" lon="6.3376">
        <ele>1201</ele>
        <time>2016-07-11T13:24:56.000Z</time>
      </trkpt>
      <trkpt lat="44.37499" lon="6.33762">
        <ele>1203</ele>
        <time>2016-07-11T13:25:04.000Z</time>
      </trkpt>
      <trkpt lat="44.37489" lon="6.3376">
        <ele>1204</ele>
        <time>2016-07-11T13:25:12.000Z</time>
      </trkpt>
      <trkpt lat="44.37488" lon="6.3376">
        <ele>1204.1999511719</ele>
        <time>2016-07-11T13:25:13.000Z</time>
      </trkpt>
      <trkpt lat="44.37481" lon="6.33758">
        <ele>1205</ele>
        <time>2016-07-11T13:25:18.000Z</time>
      </trkpt>
      <trkpt lat="44.3748" lon="6.33758">
        <ele>1205.1999511719</ele>
        <time>2016-07-11T13:25:19.000Z</time>
      </trkpt>
      <trkpt lat="44.37471" lon="6.33757">
        <ele>1206.5999755859</ele>
        <time>2016-07-11T13:25:24.000Z</time>
      </trkpt>
      <trkpt lat="44.37468" lon="6.33756">
        <ele>1207.4000244141</ele>
        <time>2016-07-11T13:25:26.000Z</time>
      </trkpt>
      <trkpt lat="44.37459" lon="6.33756">
        <ele>1209.8000488281</ele>
        <time>2016-07-11T13:25:33.000Z</time>
      </trkpt>
      <trkpt lat="44.37449" lon="6.33752">
        <ele>1211.4000244141</ele>
        <time>2016-07-11T13:25:40.000Z</time>
      </trkpt>
      <trkpt lat="44.37434" lon="6.3375">
        <ele>1212.5999755859</ele>
        <time>2016-07-11T13:25:50.000Z</time>
      </trkpt>
      <trkpt lat="44.37431" lon="6.33751">
        <ele>1213.1999511719</ele>
        <time>2016-07-11T13:25:52.000Z</time>
      </trkpt>
      <trkpt lat="44.3742" lon="6.33746">
        <ele>1213</ele>
        <time>2016-07-11T13:26:00.000Z</time>
      </trkpt>
      <trkpt lat="44.37409" lon="6.33743">
        <ele>1213</ele>
        <time>2016-07-11T13:26:07.000Z</time>
      </trkpt>
      <trkpt lat="44.37399" lon="6.33742">
        <ele>1214</ele>
        <time>2016-07-11T13:26:14.000Z</time>
      </trkpt>
      <trkpt lat="44.37385" lon="6.33738">
        <ele>1214.1999511719</ele>
        <time>2016-07-11T13:26:22.000Z</time>
      </trkpt>
      <trkpt lat="44.37374" lon="6.33737">
        <ele>1215.1999511719</ele>
        <time>2016-07-11T13:26:29.000Z</time>
      </trkpt>
      <trkpt lat="44.37364" lon="6.33737">
        <ele>1216.1999511719</ele>
        <time>2016-07-11T13:26:36.000Z</time>
      </trkpt>
      <trkpt lat="44.37354" lon="6.3374">
        <ele>1216.5999755859</ele>
        <time>2016-07-11T13:26:43.000Z</time>
      </trkpt>
      <trkpt lat="44.37344" lon="6.33743">
        <ele>1217.4000244141</ele>
        <time>2016-07-11T13:26:50.000Z</time>
      </trkpt>
      <trkpt lat="44.37328" lon="6.33751">
        <ele>1219.4000244141</ele>
        <time>2016-07-11T13:27:01.000Z</time>
      </trkpt>
      <trkpt lat="44.37315" lon="6.33754">
        <ele>1220.1999511719</ele>
        <time>2016-07-11T13:27:10.000Z</time>
      </trkpt>
      <trkpt lat="44.37303" lon="6.33759">
        <ele>1221.4000244141</ele>
        <time>2016-07-11T13:27:19.000Z</time>
      </trkpt>
      <trkpt lat="44.37293" lon="6.33764">
        <ele>1222.5999755859</ele>
        <time>2016-07-11T13:27:26.000Z</time>
      </trkpt>
      <trkpt lat="44.37278" lon="6.33771">
        <ele>1224.5999755859</ele>
        <time>2016-07-11T13:27:37.000Z</time>
      </trkpt>
      <trkpt lat="44.37264" lon="6.33778">
        <ele>1226.8000488281</ele>
        <time>2016-07-11T13:27:47.000Z</time>
      </trkpt>
      <trkpt lat="44.37251" lon="6.33783">
        <ele>1228</ele>
        <time>2016-07-11T13:27:56.000Z</time>
      </trkpt>
      <trkpt lat="44.3724" lon="6.33786">
        <ele>1228</ele>
        <time>2016-07-11T13:28:04.000Z</time>
      </trkpt>
      <trkpt lat="44.3723" lon="6.33785">
        <ele>1227.1999511719</ele>
        <time>2016-07-11T13:28:11.000Z</time>
      </trkpt>
      <trkpt lat="44.37226" lon="6.33784">
        <ele>1226.8000488281</ele>
        <time>2016-07-11T13:28:14.000Z</time>
      </trkpt>
      <trkpt lat="44.37215" lon="6.33785">
        <ele>1226.4000244141</ele>
        <time>2016-07-11T13:28:21.000Z</time>
      </trkpt>
      <trkpt lat="44.37213" lon="6.33786">
        <ele>1226.4000244141</ele>
        <time>2016-07-11T13:28:22.000Z</time>
      </trkpt>
      <trkpt lat="44.37204" lon="6.33787">
        <ele>1226.1999511719</ele>
        <time>2016-07-11T13:28:28.000Z</time>
      </trkpt>
      <trkpt lat="44.37192" lon="6.33789">
        <ele>1226.8000488281</ele>
        <time>2016-07-11T13:28:36.000Z</time>
      </trkpt>
      <trkpt lat="44.37177" lon="6.33791">
        <ele>1228</ele>
        <time>2016-07-11T13:28:46.000Z</time>
      </trkpt>
      <trkpt lat="44.37172" lon="6.33791">
        <ele>1228.1999511719</ele>
        <time>2016-07-11T13:28:49.000Z</time>
      </trkpt>
      <trkpt lat="44.37167" lon="6.33792">
        <ele>1228.5999755859</ele>
        <time>2016-07-11T13:28:53.000Z</time>
      </trkpt>
      <trkpt lat="44.37153" lon="6.33796">
        <ele>1229.5999755859</ele>
        <time>2016-07-11T13:29:02.000Z</time>
      </trkpt>
      <trkpt lat="44.37143" lon="6.33798">
        <ele>1230.4000244141</ele>
        <time>2016-07-11T13:29:08.000Z</time>
      </trkpt>
      <trkpt lat="44.3714" lon="6.33799">
        <ele>1230.8000488281</ele>
        <time>2016-07-11T13:29:10.000Z</time>
      </trkpt>
      <trkpt lat="44.37131" lon="6.33802">
        <ele>1231.5999755859</ele>
        <time>2016-07-11T13:29:16.000Z</time>
      </trkpt>
      <trkpt lat="44.37116" lon="6.33807">
        <ele>1233.1999511719</ele>
        <time>2016-07-11T13:29:26.000Z</time>
      </trkpt>
      <trkpt lat="44.37103" lon="6.33812">
        <ele>1236.1999511719</ele>
        <time>2016-07-11T13:29:35.000Z</time>
      </trkpt>
      <trkpt lat="44.37086" lon="6.33818">
        <ele>1240.5999755859</ele>
        <time>2016-07-11T13:29:47.000Z</time>
      </trkpt>
      <trkpt lat="44.37074" lon="6.33823">
        <ele>1244.1999511719</ele>
        <time>2016-07-11T13:29:56.000Z</time>
      </trkpt>
      <trkpt lat="44.37061" lon="6.33824">
        <ele>1246.5999755859</ele>
        <time>2016-07-11T13:30:05.000Z</time>
      </trkpt>
      <trkpt lat="44.37051" lon="6.33819">
        <ele>1246.5999755859</ele>
        <time>2016-07-11T13:30:12.000Z</time>
      </trkpt>
      <trkpt lat="44.37041" lon="6.33811">
        <ele>1245.8000488281</ele>
        <time>2016-07-11T13:30:20.000Z</time>
      </trkpt>
      <trkpt lat="44.37026" lon="6.33799">
        <ele>1245</ele>
        <time>2016-07-11T13:30:31.000Z</time>
      </trkpt>
      <trkpt lat="44.3702" lon="6.33794">
        <ele>1244.5999755859</ele>
        <time>2016-07-11T13:30:36.000Z</time>
      </trkpt>
      <trkpt lat="44.37004" lon="6.33784">
        <ele>1244.4000244141</ele>
        <time>2016-07-11T13:30:47.000Z</time>
      </trkpt>
      <trkpt lat="44.36994" lon="6.33778">
        <ele>1244.1999511719</ele>
        <time>2016-07-11T13:30:54.000Z</time>
      </trkpt>
      <trkpt lat="44.36981" lon="6.33771">
        <ele>1243.8000488281</ele>
        <time>2016-07-11T13:31:03.000Z</time>
      </trkpt>
      <trkpt lat="44.3697" lon="6.33765">
        <ele>1243.1999511719</ele>
        <time>2016-07-11T13:31:11.000Z</time>
      </trkpt>
      <trkpt lat="44.36957" lon="6.3376">
        <ele>1243</ele>
        <time>2016-07-11T13:31:19.000Z</time>
      </trkpt>
      <trkpt lat="44.36947" lon="6.33756">
        <ele>1243</ele>
        <time>2016-07-11T13:31:25.000Z</time>
      </trkpt>
      <trkpt lat="44.36932" lon="6.33747">
        <ele>1241.5999755859</ele>
        <time>2016-07-11T13:31:35.000Z</time>
      </trkpt>
      <trkpt lat="44.36912" lon="6.33737">
        <ele>1240</ele>
        <time>2016-07-11T13:31:48.000Z</time>
      </trkpt>
      <trkpt lat="44.36901" lon="6.3373">
        <ele>1239</ele>
        <time>2016-07-11T13:31:56.000Z</time>
      </trkpt>
      <trkpt lat="44.36888" lon="6.33721">
        <ele>1238.1999511719</ele>
        <time>2016-07-11T13:32:05.000Z</time>
      </trkpt>
      <trkpt lat="44.36876" lon="6.33715">
        <ele>1237.5999755859</ele>
        <time>2016-07-11T13:32:13.000Z</time>
      </trkpt>
      <trkpt lat="44.3686" lon="6.33706">
        <ele>1236.8000488281</ele>
        <time>2016-07-11T13:32:23.000Z</time>
      </trkpt>
      <trkpt lat="44.36847" lon="6.33696">
        <ele>1235.1999511719</ele>
        <time>2016-07-11T13:32:32.000Z</time>
      </trkpt>
      <trkpt lat="44.36824" lon="6.3369">
        <ele>1233.5999755859</ele>
        <time>2016-07-11T13:32:49.000Z</time>
      </trkpt>
      <trkpt lat="44.36814" lon="6.33698">
        <ele>1232.5999755859</ele>
        <time>2016-07-11T13:32:57.000Z</time>
      </trkpt>
      <trkpt lat="44.36802" lon="6.3371">
        <ele>1231.1999511719</ele>
        <time>2016-07-11T13:33:07.000Z</time>
      </trkpt>
      <trkpt lat="44.36795" lon="6.33717">
        <ele>1230.4000244141</ele>
        <time>2016-07-11T13:33:13.000Z</time>
      </trkpt>
      <trkpt lat="44.36779" lon="6.33731">
        <ele>1228.8000488281</ele>
        <time>2016-07-11T13:33:25.000Z</time>
      </trkpt>
      <trkpt lat="44.36765" lon="6.33742">
        <ele>1228.1999511719</ele>
        <time>2016-07-11T13:33:35.000Z</time>
      </trkpt>
      <trkpt lat="44.3675" lon="6.33755">
        <ele>1227.4000244141</ele>
        <time>2016-07-11T13:33:46.000Z</time>
      </trkpt>
      <trkpt lat="44.36737" lon="6.3377">
        <ele>1226.8000488281</ele>
        <time>2016-07-11T13:33:57.000Z</time>
      </trkpt>
      <trkpt lat="44.36734" lon="6.33773">
        <ele>1226.1999511719</ele>
        <time>2016-07-11T13:34:02.000Z</time>
      </trkpt>
      <trkpt lat="44.36734" lon="6.33775">
        <ele>1226</ele>
        <time>2016-07-11T13:34:05.000Z</time>
      </trkpt>
      <trkpt lat="44.36729" lon="6.3378">
        <ele>1225.1999511719</ele>
        <time>2016-07-11T13:34:09.000Z</time>
      </trkpt>
      <trkpt lat="44.36722" lon="6.33787">
        <ele>1223.8000488281</ele>
        <time>2016-07-11T13:34:16.000Z</time>
      </trkpt>
      <trkpt lat="44.36713" lon="6.33794">
        <ele>1222.1999511719</ele>
        <time>2016-07-11T13:34:23.000Z</time>
      </trkpt>
      <trkpt lat="44.36705" lon="6.338">
        <ele>1220.8000488281</ele>
        <time>2016-07-11T13:34:30.000Z</time>
      </trkpt>
      <trkpt lat="44.36697" lon="6.33808">
        <ele>1219.1999511719</ele>
        <time>2016-07-11T13:34:37.000Z</time>
      </trkpt>
      <trkpt lat="44.3669" lon="6.3382">
        <ele>1217.8000488281</ele>
        <time>2016-07-11T13:34:45.000Z</time>
      </trkpt>
      <trkpt lat="44.36689" lon="6.33824">
        <ele>1217.4000244141</ele>
        <time>2016-07-11T13:34:47.000Z</time>
      </trkpt>
      <trkpt lat="44.36685" lon="6.33836">
        <ele>1216.1999511719</ele>
        <time>2016-07-11T13:34:54.000Z</time>
      </trkpt>
      <trkpt lat="44.36685" lon="6.33838">
        <ele>1216.1999511719</ele>
        <time>2016-07-11T13:34:55.000Z</time>
      </trkpt>
      <trkpt lat="44.36683" lon="6.33848">
        <ele>1215.4000244141</ele>
        <time>2016-07-11T13:35:00.000Z</time>
      </trkpt>
      <trkpt lat="44.3668" lon="6.33861">
        <ele>1214.4000244141</ele>
        <time>2016-07-11T13:35:07.000Z</time>
      </trkpt>
      <trkpt lat="44.36678" lon="6.33873">
        <ele>1213.4000244141</ele>
        <time>2016-07-11T13:35:14.000Z</time>
      </trkpt>
      <trkpt lat="44.36674" lon="6.33886">
        <ele>1212.8000488281</ele>
        <time>2016-07-11T13:35:21.000Z</time>
      </trkpt>
      <trkpt lat="44.3667" lon="6.33895">
        <ele>1212.4000244141</ele>
        <time>2016-07-11T13:35:26.000Z</time>
      </trkpt>
      <trkpt lat="44.36669" lon="6.33903">
        <ele>1212.5999755859</ele>
        <time>2016-07-11T13:35:30.000Z</time>
      </trkpt>
      <trkpt lat="44.36664" lon="6.33921">
        <ele>1213.5999755859</ele>
        <time>2016-07-11T13:35:39.000Z</time>
      </trkpt>
      <trkpt lat="44.36662" lon="6.33929">
        <ele>1213.8000488281</ele>
        <time>2016-07-11T13:35:44.000Z</time>
      </trkpt>
      <trkpt lat="44.36661" lon="6.33933">
        <ele>1214</ele>
        <time>2016-07-11T13:35:49.000Z</time>
      </trkpt>
      <trkpt lat="44.36658" lon="6.33933">
        <ele>1213.8000488281</ele>
        <time>2016-07-11T13:35:55.000Z</time>
      </trkpt>
      <trkpt lat="44.36656" lon="6.33931">
        <ele>1213.4000244141</ele>
        <time>2016-07-11T13:36:10.000Z</time>
      </trkpt>
      <trkpt lat="44.36651" lon="6.33929">
        <ele>1212.8000488281</ele>
        <time>2016-07-11T13:37:09.000Z</time>
      </trkpt>
      <trkpt lat="44.36653" lon="6.33932">
        <ele>1213.1999511719</ele>
        <time>2016-07-11T13:38:21.000Z</time>
      </trkpt>
      <trkpt lat="44.3665" lon="6.33931">
        <ele>1212.8000488281</ele>
        <time>2016-07-11T13:38:31.000Z</time>
      </trkpt>
      <trkpt lat="44.36648" lon="6.3393">
        <ele>1212.5999755859</ele>
        <time>2016-07-11T13:38:32.000Z</time>
      </trkpt>
      <trkpt lat="44.36642" lon="6.33931">
        <ele>1212</ele>
        <time>2016-07-11T13:38:37.000Z</time>
      </trkpt>
      <trkpt lat="44.36634" lon="6.33934">
        <ele>1211</ele>
        <time>2016-07-11T13:38:43.000Z</time>
      </trkpt>
      <trkpt lat="44.36633" lon="6.33934">
        <ele>1210.8000488281</ele>
        <time>2016-07-11T13:38:44.000Z</time>
      </trkpt>
      <trkpt lat="44.36621" lon="6.33936">
        <ele>1209.1999511719</ele>
        <time>2016-07-11T13:38:52.000Z</time>
      </trkpt>
      <trkpt lat="44.36611" lon="6.33934">
        <ele>1208</ele>
        <time>2016-07-11T13:38:59.000Z</time>
      </trkpt>
      <trkpt lat="44.36601" lon="6.33931">
        <ele>1206.5999755859</ele>
        <time>2016-07-11T13:39:07.000Z</time>
      </trkpt>
      <trkpt lat="44.36597" lon="6.3393">
        <ele>1206</ele>
        <time>2016-07-11T13:39:11.000Z</time>
      </trkpt>
      <trkpt lat="44.36594" lon="6.33931">
        <ele>1205.8000488281</ele>
        <time>2016-07-11T13:39:13.000Z</time>
      </trkpt>
      <trkpt lat="44.36591" lon="6.3393">
        <ele>1205.4000244141</ele>
        <time>2016-07-11T13:39:16.000Z</time>
      </trkpt>
      <trkpt lat="44.36583" lon="6.33928">
        <ele>1204.1999511719</ele>
        <time>2016-07-11T13:39:22.000Z</time>
      </trkpt>
      <trkpt lat="44.3658" lon="6.33927">
        <ele>1203.8000488281</ele>
        <time>2016-07-11T13:39:29.000Z</time>
      </trkpt>
      <trkpt lat="44.36578" lon="6.33927">
        <ele>1203.8000488281</ele>
        <time>2016-07-11T13:39:30.000Z</time>
      </trkpt>
      <trkpt lat="44.36576" lon="6.33925">
        <ele>1203.4000244141</ele>
        <time>2016-07-11T13:39:32.000Z</time>
      </trkpt>
      <trkpt lat="44.36562" lon="6.3392">
        <ele>1201.5999755859</ele>
        <time>2016-07-11T13:39:41.000Z</time>
      </trkpt>
      <trkpt lat="44.36558" lon="6.3392">
        <ele>1201</ele>
        <time>2016-07-11T13:39:47.000Z</time>
      </trkpt>
      <trkpt lat="44.36559" lon="6.3392">
        <ele>1201.1999511719</ele>
        <time>2016-07-11T13:39:54.000Z</time>
      </trkpt>
      <trkpt lat="44.36556" lon="6.3392">
        <ele>1200.8000488281</ele>
        <time>2016-07-11T13:39:59.000Z</time>
      </trkpt>
      <trkpt lat="44.36542" lon="6.33921">
        <ele>1199.5999755859</ele>
        <time>2016-07-11T13:40:08.000Z</time>
      </trkpt>
      <trkpt lat="44.36529" lon="6.33924">
        <ele>1198.8000488281</ele>
        <time>2016-07-11T13:40:16.000Z</time>
      </trkpt>
      <trkpt lat="44.36515" lon="6.33928">
        <ele>1198.8000488281</ele>
        <time>2016-07-11T13:40:25.000Z</time>
      </trkpt>
      <trkpt lat="44.36504" lon="6.3393">
        <ele>1198.8000488281</ele>
        <time>2016-07-11T13:40:33.000Z</time>
      </trkpt>
      <trkpt lat="44.36491" lon="6.33932">
        <ele>1198.5999755859</ele>
        <time>2016-07-11T13:40:41.000Z</time>
      </trkpt>
      <trkpt lat="44.36484" lon="6.33933">
        <ele>1198.4000244141</ele>
        <time>2016-07-11T13:40:48.000Z</time>
      </trkpt>
      <trkpt lat="44.36478" lon="6.33933">
        <ele>1198.1999511719</ele>
        <time>2016-07-11T13:41:05.000Z</time>
      </trkpt>
      <trkpt lat="44.36466" lon="6.33933">
        <ele>1197.5999755859</ele>
        <time>2016-07-11T13:41:14.000Z</time>
      </trkpt>
      <trkpt lat="44.36456" lon="6.33935">
        <ele>1197.1999511719</ele>
        <time>2016-07-11T13:41:21.000Z</time>
      </trkpt>
      <trkpt lat="44.36446" lon="6.33936">
        <ele>1196.8000488281</ele>
        <time>2016-07-11T13:41:28.000Z</time>
      </trkpt>
      <trkpt lat="44.36436" lon="6.33937">
        <ele>1196</ele>
        <time>2016-07-11T13:41:35.000Z</time>
      </trkpt>
      <trkpt lat="44.36422" lon="6.33937">
        <ele>1194.8000488281</ele>
        <time>2016-07-11T13:41:44.000Z</time>
      </trkpt>
      <trkpt lat="44.36411" lon="6.33935">
        <ele>1193.5999755859</ele>
        <time>2016-07-11T13:41:56.000Z</time>
      </trkpt>
      <trkpt lat="44.36401" lon="6.3394">
        <ele>1193.4000244141</ele>
        <time>2016-07-11T13:42:03.000Z</time>
      </trkpt>
      <trkpt lat="44.364" lon="6.3394">
        <ele>1193.4000244141</ele>
        <time>2016-07-11T13:42:04.000Z</time>
      </trkpt>
      <trkpt lat="44.36394" lon="6.33942">
        <ele>1193.4000244141</ele>
        <time>2016-07-11T13:42:10.000Z</time>
      </trkpt>
      <trkpt lat="44.36391" lon="6.33942">
        <ele>1193.1999511719</ele>
        <time>2016-07-11T13:42:12.000Z</time>
      </trkpt>
      <trkpt lat="44.36388" lon="6.3394">
        <ele>1193</ele>
        <time>2016-07-11T13:42:14.000Z</time>
      </trkpt>
      <trkpt lat="44.36381" lon="6.33937">
        <ele>1192.4000244141</ele>
        <time>2016-07-11T13:42:19.000Z</time>
      </trkpt>
      <trkpt lat="44.36379" lon="6.33938">
        <ele>1192.4000244141</ele>
        <time>2016-07-11T13:42:26.000Z</time>
      </trkpt>
      <trkpt lat="44.36386" lon="6.33942">
        <ele>1193</ele>
        <time>2016-07-11T13:42:32.000Z</time>
      </trkpt>
      <trkpt lat="44.36394" lon="6.33942">
        <ele>1193.4000244141</ele>
        <time>2016-07-11T13:42:37.000Z</time>
      </trkpt>
      <trkpt lat="44.36405" lon="6.33936">
        <ele>1193.1999511719</ele>
        <time>2016-07-11T13:42:42.000Z</time>
      </trkpt>
      <trkpt lat="44.36417" lon="6.33937">
        <ele>1194.1999511719</ele>
        <time>2016-07-11T13:42:48.000Z</time>
      </trkpt>
      <trkpt lat="44.36429" lon="6.33939">
        <ele>1195.4000244141</ele>
        <time>2016-07-11T13:42:54.000Z</time>
      </trkpt>
      <trkpt lat="44.36448" lon="6.33937">
        <ele>1197</ele>
        <time>2016-07-11T13:43:01.000Z</time>
      </trkpt>
      <trkpt lat="44.36469" lon="6.33935">
        <ele>1197.8000488281</ele>
        <time>2016-07-11T13:43:08.000Z</time>
      </trkpt>
      <trkpt lat="44.36482" lon="6.33934">
        <ele>1198.4000244141</ele>
        <time>2016-07-11T13:43:14.000Z</time>
      </trkpt>
      <trkpt lat="44.36497" lon="6.33931">
        <ele>1198.5999755859</ele>
        <time>2016-07-11T13:43:22.000Z</time>
      </trkpt>
      <trkpt lat="44.36509" lon="6.33926">
        <ele>1198.5999755859</ele>
        <time>2016-07-11T13:43:29.000Z</time>
      </trkpt>
      <trkpt lat="44.36519" lon="6.33924">
        <ele>1198.5999755859</ele>
        <time>2016-07-11T13:43:35.000Z</time>
      </trkpt>
      <trkpt lat="44.36533" lon="6.33919">
        <ele>1198.8000488281</ele>
        <time>2016-07-11T13:43:41.000Z</time>
      </trkpt>
      <trkpt lat="44.36545" lon="6.33915">
        <ele>1199.4000244141</ele>
        <time>2016-07-11T13:43:47.000Z</time>
      </trkpt>
      <trkpt lat="44.36548" lon="6.33915">
        <ele>1199.5999755859</ele>
        <time>2016-07-11T13:43:49.000Z</time>
      </trkpt>
      <trkpt lat="44.36549" lon="6.33905">
        <ele>1199.4000244141</ele>
        <time>2016-07-11T13:43:56.000Z</time>
      </trkpt>
      <trkpt lat="44.36542" lon="6.33892">
        <ele>1198.4000244141</ele>
        <time>2016-07-11T13:44:03.000Z</time>
      </trkpt>
      <trkpt lat="44.36534" lon="6.3388">
        <ele>1197.4000244141</ele>
        <time>2016-07-11T13:44:11.000Z</time>
      </trkpt>
      <trkpt lat="44.36531" lon="6.33875">
        <ele>1197</ele>
        <time>2016-07-11T13:44:30.000Z</time>
      </trkpt>
      <trkpt lat="44.36523" lon="6.33862">
        <ele>1196.4000244141</ele>
        <time>2016-07-11T13:44:38.000Z</time>
      </trkpt>
      <trkpt lat="44.36522" lon="6.3383">
        <ele>1196.1999511719</ele>
        <time>2016-07-11T13:44:48.000Z</time>
      </trkpt>
      <trkpt lat="44.3652" lon="6.33801">
        <ele>1196.1999511719</ele>
        <time>2016-07-11T13:44:53.000Z</time>
      </trkpt>
      <trkpt lat="44.36516" lon="6.33777">
        <ele>1197.5999755859</ele>
        <time>2016-07-11T13:44:57.000Z</time>
      </trkpt>
      <trkpt lat="44.36513" lon="6.33746">
        <ele>1199.1999511719</ele>
        <time>2016-07-11T13:45:02.000Z</time>
      </trkpt>
      <trkpt lat="44.36512" lon="6.3374">
        <ele>1199.5999755859</ele>
        <time>2016-07-11T13:45:03.000Z</time>
      </trkpt>
      <trkpt lat="44.36507" lon="6.33724">
        <ele>1199.8000488281</ele>
        <time>2016-07-11T13:45:08.000Z</time>
      </trkpt>
      <trkpt lat="44.36497" lon="6.33714">
        <ele>1199.1999511719</ele>
        <time>2016-07-11T13:45:17.000Z</time>
      </trkpt>
      <trkpt lat="44.36485" lon="6.33711">
        <ele>1197.5999755859</ele>
        <time>2016-07-11T13:45:25.000Z</time>
      </trkpt>
      <trkpt lat="44.36473" lon="6.33709">
        <ele>1196</ele>
        <time>2016-07-11T13:45:34.000Z</time>
      </trkpt>
      <trkpt lat="44.36462" lon="6.33704">
        <ele>1194.5999755859</ele>
        <time>2016-07-11T13:45:42.000Z</time>
      </trkpt>
      <trkpt lat="44.36452" lon="6.33695">
        <ele>1193.8000488281</ele>
        <time>2016-07-11T13:45:50.000Z</time>
      </trkpt>
      <trkpt lat="44.36444" lon="6.33686">
        <ele>1192.8000488281</ele>
        <time>2016-07-11T13:45:58.000Z</time>
      </trkpt>
      <trkpt lat="44.36435" lon="6.3368">
        <ele>1191.4000244141</ele>
        <time>2016-07-11T13:46:05.000Z</time>
      </trkpt>
      <trkpt lat="44.36425" lon="6.33675">
        <ele>1189.5999755859</ele>
        <time>2016-07-11T13:46:13.000Z</time>
      </trkpt>
      <trkpt lat="44.36413" lon="6.33668">
        <ele>1187.8000488281</ele>
        <time>2016-07-11T13:46:21.000Z</time>
      </trkpt>
      <trkpt lat="44.36404" lon="6.33659">
        <ele>1186.4000244141</ele>
        <time>2016-07-11T13:46:28.000Z</time>
      </trkpt>
      <trkpt lat="44.36393" lon="6.3365">
        <ele>1184.5999755859</ele>
        <time>2016-07-11T13:46:37.000Z</time>
      </trkpt>
      <trkpt lat="44.36387" lon="6.33638">
        <ele>1183.1999511719</ele>
        <time>2016-07-11T13:46:44.000Z</time>
      </trkpt>
      <trkpt lat="44.3638" lon="6.33619">
        <ele>1181.5999755859</ele>
        <time>2016-07-11T13:46:53.000Z</time>
      </trkpt>
      <trkpt lat="44.36373" lon="6.33607">
        <ele>1179.8000488281</ele>
        <time>2016-07-11T13:47:00.000Z</time>
      </trkpt>
      <trkpt lat="44.36366" lon="6.33595">
        <ele>1178.1999511719</ele>
        <time>2016-07-11T13:47:07.000Z</time>
      </trkpt>
      <trkpt lat="44.36362" lon="6.33583">
        <ele>1177</ele>
        <time>2016-07-11T13:47:14.000Z</time>
      </trkpt>
      <trkpt lat="44.3636" lon="6.33567">
        <ele>1176.1999511719</ele>
        <time>2016-07-11T13:47:22.000Z</time>
      </trkpt>
      <trkpt lat="44.36359" lon="6.3356">
        <ele>1176</ele>
        <time>2016-07-11T13:47:28.000Z</time>
      </trkpt>
      <trkpt lat="44.36363" lon="6.33556">
        <ele>1176.4000244141</ele>
        <time>2016-07-11T13:47:36.000Z</time>
      </trkpt>
      <trkpt lat="44.36367" lon="6.33548">
        <ele>1176.8000488281</ele>
        <time>2016-07-11T13:47:44.000Z</time>
      </trkpt>
      <trkpt lat="44.36362" lon="6.33561">
        <ele>1176.4000244141</ele>
        <time>2016-07-11T13:47:52.000Z</time>
      </trkpt>
      <trkpt lat="44.36361" lon="6.33562">
        <ele>1176.4000244141</ele>
        <time>2016-07-11T13:47:53.000Z</time>
      </trkpt>
      <trkpt lat="44.3636" lon="6.33563">
        <ele>1176.1999511719</ele>
        <time>2016-07-11T13:47:57.000Z</time>
      </trkpt>
      <trkpt lat="44.36361" lon="6.33571">
        <ele>1176.5999755859</ele>
        <time>2016-07-11T13:48:01.000Z</time>
      </trkpt>
      <trkpt lat="44.36362" lon="6.33581">
        <ele>1177</ele>
        <time>2016-07-11T13:48:06.000Z</time>
      </trkpt>
      <trkpt lat="44.36364" lon="6.33588">
        <ele>1177.4000244141</ele>
        <time>2016-07-11T13:48:10.000Z</time>
      </trkpt>
      <trkpt lat="44.3636" lon="6.3359">
        <ele>1176.8000488281</ele>
        <time>2016-07-11T13:48:16.000Z</time>
      </trkpt>
      <trkpt lat="44.36359" lon="6.33591">
        <ele>1176.8000488281</ele>
        <time>2016-07-11T13:48:17.000Z</time>
      </trkpt>
      <trkpt lat="44.36351" lon="6.33593">
        <ele>1175.1999511719</ele>
        <time>2016-07-11T13:48:24.000Z</time>
      </trkpt>
      <trkpt lat="44.36343" lon="6.33602">
        <ele>1174</ele>
        <time>2016-07-11T13:48:31.000Z</time>
      </trkpt>
      <trkpt lat="44.36337" lon="6.33623">
        <ele>1173.5999755859</ele>
        <time>2016-07-11T13:48:39.000Z</time>
      </trkpt>
      <trkpt lat="44.36332" lon="6.3364">
        <ele>1174.1999511719</ele>
        <time>2016-07-11T13:48:47.000Z</time>
      </trkpt>
      <trkpt lat="44.36334" lon="6.33656">
        <ele>1175.4000244141</ele>
        <time>2016-07-11T13:48:55.000Z</time>
      </trkpt>
      <trkpt lat="44.36343" lon="6.33669">
        <ele>1177</ele>
        <time>2016-07-11T13:49:03.000Z</time>
      </trkpt>
      <trkpt lat="44.36356" lon="6.33684">
        <ele>1179.1999511719</ele>
        <time>2016-07-11T13:49:13.000Z</time>
      </trkpt>
      <trkpt lat="44.36366" lon="6.33698">
        <ele>1181</ele>
        <time>2016-07-11T13:49:22.000Z</time>
      </trkpt>
      <trkpt lat="44.36375" lon="6.33713">
        <ele>1182.5999755859</ele>
        <time>2016-07-11T13:49:31.000Z</time>
      </trkpt>
      <trkpt lat="44.36382" lon="6.33733">
        <ele>1183.8000488281</ele>
        <time>2016-07-11T13:49:41.000Z</time>
      </trkpt>
      <trkpt lat="44.36391" lon="6.33756">
        <ele>1184.5999755859</ele>
        <time>2016-07-11T13:49:52.000Z</time>
      </trkpt>
      <trkpt lat="44.36401" lon="6.33773">
        <ele>1185.8000488281</ele>
        <time>2016-07-11T13:50:02.000Z</time>
      </trkpt>
      <trkpt lat="44.36413" lon="6.33789">
        <ele>1187.1999511719</ele>
        <time>2016-07-11T13:50:12.000Z</time>
      </trkpt>
      <trkpt lat="44.36423" lon="6.33797">
        <ele>1188</ele>
        <time>2016-07-11T13:50:19.000Z</time>
      </trkpt>
      <trkpt lat="44.36434" lon="6.33789">
        <ele>1188.8000488281</ele>
        <time>2016-07-11T13:50:27.000Z</time>
      </trkpt>
      <trkpt lat="44.36435" lon="6.33788">
        <ele>1189</ele>
        <time>2016-07-11T13:50:28.000Z</time>
      </trkpt>
      <trkpt lat="44.36441" lon="6.33774">
        <ele>1189.8000488281</ele>
        <time>2016-07-11T13:50:36.000Z</time>
      </trkpt>
      <trkpt lat="44.36445" lon="6.33753">
        <ele>1190.4000244141</ele>
        <time>2016-07-11T13:50:45.000Z</time>
      </trkpt>
      <trkpt lat="44.36447" lon="6.33729">
        <ele>1191</ele>
        <time>2016-07-11T13:50:51.000Z</time>
      </trkpt>
      <trkpt lat="44.36449" lon="6.33703">
        <ele>1192.8000488281</ele>
        <time>2016-07-11T13:50:57.000Z</time>
      </trkpt>
      <trkpt lat="44.36451" lon="6.337">
        <ele>1193.1999511719</ele>
        <time>2016-07-11T13:50:58.000Z</time>
      </trkpt>
      <trkpt lat="44.36458" lon="6.33699">
        <ele>1194.4000244141</ele>
        <time>2016-07-11T13:51:01.000Z</time>
      </trkpt>
      <trkpt lat="44.36462" lon="6.33703">
        <ele>1194.8000488281</ele>
        <time>2016-07-11T13:51:03.000Z</time>
      </trkpt>
      <trkpt lat="44.36476" lon="6.33709">
        <ele>1196.4000244141</ele>
        <time>2016-07-11T13:51:09.000Z</time>
      </trkpt>
      <trkpt lat="44.36489" lon="6.33711">
        <ele>1198</ele>
        <time>2016-07-11T13:51:14.000Z</time>
      </trkpt>
      <trkpt lat="44.36505" lon="6.33719">
        <ele>1200</ele>
        <time>2016-07-11T13:51:20.000Z</time>
      </trkpt>
      <trkpt lat="44.36507" lon="6.33722">
        <ele>1200</ele>
        <time>2016-07-11T13:51:21.000Z</time>
      </trkpt>
      <trkpt lat="44.36511" lon="6.3373">
        <ele>1200.1999511719</ele>
        <time>2016-07-11T13:51:25.000Z</time>
      </trkpt>
      <trkpt lat="44.36516" lon="6.33746">
        <ele>1199.8000488281</ele>
        <time>2016-07-11T13:51:33.000Z</time>
      </trkpt>
      <trkpt lat="44.36518" lon="6.33762">
        <ele>1198.8000488281</ele>
        <time>2016-07-11T13:51:39.000Z</time>
      </trkpt>
      <trkpt lat="44.36523" lon="6.33788">
        <ele>1197.5999755859</ele>
        <time>2016-07-11T13:51:47.000Z</time>
      </trkpt>
      <trkpt lat="44.36527" lon="6.33816">
        <ele>1196.5999755859</ele>
        <time>2016-07-11T13:51:55.000Z</time>
      </trkpt>
      <trkpt lat="44.36529" lon="6.33846">
        <ele>1196.8000488281</ele>
        <time>2016-07-11T13:52:02.000Z</time>
      </trkpt>
      <trkpt lat="44.36535" lon="6.33868">
        <ele>1197.5999755859</ele>
        <time>2016-07-11T13:52:07.000Z</time>
      </trkpt>
      <trkpt lat="44.36549" lon="6.33891">
        <ele>1199</ele>
        <time>2016-07-11T13:52:13.000Z</time>
      </trkpt>
      <trkpt lat="44.36558" lon="6.33913">
        <ele>1200.8000488281</ele>
        <time>2016-07-11T13:52:19.000Z</time>
      </trkpt>
      <trkpt lat="44.36567" lon="6.33919">
        <ele>1202</ele>
        <time>2016-07-11T13:52:23.000Z</time>
      </trkpt>
      <trkpt lat="44.36581" lon="6.33924">
        <ele>1204</ele>
        <time>2016-07-11T13:52:29.000Z</time>
      </trkpt>
      <trkpt lat="44.36593" lon="6.33926">
        <ele>1205.4000244141</ele>
        <time>2016-07-11T13:52:35.000Z</time>
      </trkpt>
      <trkpt lat="44.36603" lon="6.33929">
        <ele>1206.8000488281</ele>
        <time>2016-07-11T13:52:41.000Z</time>
      </trkpt>
      <trkpt lat="44.36619" lon="6.33932">
        <ele>1208.8000488281</ele>
        <time>2016-07-11T13:52:47.000Z</time>
      </trkpt>
      <trkpt lat="44.36631" lon="6.33932">
        <ele>1210.4000244141</ele>
        <time>2016-07-11T13:52:52.000Z</time>
      </trkpt>
      <trkpt lat="44.36644" lon="6.3393">
        <ele>1212.1999511719</ele>
        <time>2016-07-11T13:53:00.000Z</time>
      </trkpt>
      <trkpt lat="44.36648" lon="6.33936">
        <ele>1212.8000488281</ele>
        <time>2016-07-11T13:53:03.000Z</time>
      </trkpt>
      <trkpt lat="44.36638" lon="6.33954">
        <ele>1212.1999511719</ele>
        <time>2016-07-11T13:53:09.000Z</time>
      </trkpt>
      <trkpt lat="44.36624" lon="6.33973">
        <ele>1211</ele>
        <time>2016-07-11T13:53:16.000Z</time>
      </trkpt>
      <trkpt lat="44.36613" lon="6.33988">
        <ele>1210.8000488281</ele>
        <time>2016-07-11T13:53:24.000Z</time>
      </trkpt>
      <trkpt lat="44.36605" lon="6.33997">
        <ele>1211.1999511719</ele>
        <time>2016-07-11T13:53:30.000Z</time>
      </trkpt>
      <trkpt lat="44.36592" lon="6.34016">
        <ele>1212.4000244141</ele>
        <time>2016-07-11T13:53:38.000Z</time>
      </trkpt>
      <trkpt lat="44.36584" lon="6.34031">
        <ele>1213.5999755859</ele>
        <time>2016-07-11T13:53:44.000Z</time>
      </trkpt>
      <trkpt lat="44.36575" lon="6.34044">
        <ele>1214</ele>
        <time>2016-07-11T13:53:52.000Z</time>
      </trkpt>
      <trkpt lat="44.3656" lon="6.34059">
        <ele>1214.1999511719</ele>
        <time>2016-07-11T13:54:00.000Z</time>
      </trkpt>
      <trkpt lat="44.36546" lon="6.34077">
        <ele>1216</ele>
        <time>2016-07-11T13:54:08.000Z</time>
      </trkpt>
      <trkpt lat="44.36532" lon="6.34096">
        <ele>1216.4000244141</ele>
        <time>2016-07-11T13:54:15.000Z</time>
      </trkpt>
      <trkpt lat="44.3652" lon="6.34114">
        <ele>1217.8000488281</ele>
        <time>2016-07-11T13:54:21.000Z</time>
      </trkpt>
      <trkpt lat="44.36509" lon="6.34131">
        <ele>1219.1999511719</ele>
        <time>2016-07-11T13:54:28.000Z</time>
      </trkpt>
      <trkpt lat="44.365" lon="6.34143">
        <ele>1219.1999511719</ele>
        <time>2016-07-11T13:54:36.000Z</time>
      </trkpt>
      <trkpt lat="44.36489" lon="6.34155">
        <ele>1219.4000244141</ele>
        <time>2016-07-11T13:54:45.000Z</time>
      </trkpt>
      <trkpt lat="44.36477" lon="6.34168">
        <ele>1219.8000488281</ele>
        <time>2016-07-11T13:54:54.000Z</time>
      </trkpt>
      <trkpt lat="44.36463" lon="6.34182">
        <ele>1220.1999511719</ele>
        <time>2016-07-11T13:55:05.000Z</time>
      </trkpt>
      <trkpt lat="44.36456" lon="6.34191">
        <ele>1220.8000488281</ele>
        <time>2016-07-11T13:55:11.000Z</time>
      </trkpt>
      <trkpt lat="44.36447" lon="6.3421">
        <ele>1222.1999511719</ele>
        <time>2016-07-11T13:55:22.000Z</time>
      </trkpt>
      <trkpt lat="44.36438" lon="6.34229">
        <ele>1223.1999511719</ele>
        <time>2016-07-11T13:55:33.000Z</time>
      </trkpt>
      <trkpt lat="44.36428" lon="6.3425">
        <ele>1223.5999755859</ele>
        <time>2016-07-11T13:55:45.000Z</time>
      </trkpt>
      <trkpt lat="44.3642" lon="6.34265">
        <ele>1223.8000488281</ele>
        <time>2016-07-11T13:55:54.000Z</time>
      </trkpt>
      <trkpt lat="44.3641" lon="6.34281">
        <ele>1223.5999755859</ele>
        <time>2016-07-11T13:56:04.000Z</time>
      </trkpt>
      <trkpt lat="44.36401" lon="6.34296">
        <ele>1224</ele>
        <time>2016-07-11T13:56:13.000Z</time>
      </trkpt>
      <trkpt lat="44.36393" lon="6.3431">
        <ele>1224.8000488281</ele>
        <time>2016-07-11T13:56:21.000Z</time>
      </trkpt>
      <trkpt lat="44.36382" lon="6.34332">
        <ele>1225.8000488281</ele>
        <time>2016-07-11T13:56:33.000Z</time>
      </trkpt>
      <trkpt lat="44.36376" lon="6.34347">
        <ele>1226.8000488281</ele>
        <time>2016-07-11T13:56:41.000Z</time>
      </trkpt>
      <trkpt lat="44.3637" lon="6.34361">
        <ele>1228</ele>
        <time>2016-07-11T13:56:49.000Z</time>
      </trkpt>
      <trkpt lat="44.36362" lon="6.3437">
        <ele>1228.1999511719</ele>
        <time>2016-07-11T13:56:56.000Z</time>
      </trkpt>
      <trkpt lat="44.36352" lon="6.34378">
        <ele>1228.4000244141</ele>
        <time>2016-07-11T13:57:04.000Z</time>
      </trkpt>
      <trkpt lat="44.36344" lon="6.34386">
        <ele>1228.8000488281</ele>
        <time>2016-07-11T13:57:11.000Z</time>
      </trkpt>
      <trkpt lat="44.36337" lon="6.34394">
        <ele>1229.1999511719</ele>
        <time>2016-07-11T13:57:18.000Z</time>
      </trkpt>
      <trkpt lat="44.36327" lon="6.34404">
        <ele>1230.1999511719</ele>
        <time>2016-07-11T13:57:26.000Z</time>
      </trkpt>
      <trkpt lat="44.36317" lon="6.34415">
        <ele>1231.1999511719</ele>
        <time>2016-07-11T13:57:34.000Z</time>
      </trkpt>
      <trkpt lat="44.36308" lon="6.34423">
        <ele>1231.8000488281</ele>
        <time>2016-07-11T13:57:42.000Z</time>
      </trkpt>
      <trkpt lat="44.36296" lon="6.34432">
        <ele>1233</ele>
        <time>2016-07-11T13:57:51.000Z</time>
      </trkpt>
      <trkpt lat="44.36286" lon="6.3444">
        <ele>1234</ele>
        <time>2016-07-11T13:57:59.000Z</time>
      </trkpt>
      <trkpt lat="44.36277" lon="6.34448">
        <ele>1235</ele>
        <time>2016-07-11T13:58:07.000Z</time>
      </trkpt>
      <trkpt lat="44.36269" lon="6.34453">
        <ele>1235.5999755859</ele>
        <time>2016-07-11T13:58:13.000Z</time>
      </trkpt>
      <trkpt lat="44.36259" lon="6.34461">
        <ele>1236.5999755859</ele>
        <time>2016-07-11T13:58:20.000Z</time>
      </trkpt>
      <trkpt lat="44.3625" lon="6.34469">
        <ele>1237.5999755859</ele>
        <time>2016-07-11T13:58:27.000Z</time>
      </trkpt>
      <trkpt lat="44.36241" lon="6.34479">
        <ele>1238.8000488281</ele>
        <time>2016-07-11T13:58:35.000Z</time>
      </trkpt>
      <trkpt lat="44.3623" lon="6.34483">
        <ele>1238.8000488281</ele>
        <time>2016-07-11T13:58:42.000Z</time>
      </trkpt>
      <trkpt lat="44.3622" lon="6.34483">
        <ele>1238</ele>
        <time>2016-07-11T13:58:48.000Z</time>
      </trkpt>
      <trkpt lat="44.36209" lon="6.34486">
        <ele>1237.8000488281</ele>
        <time>2016-07-11T13:58:55.000Z</time>
      </trkpt>
      <trkpt lat="44.36197" lon="6.34492">
        <ele>1238.1999511719</ele>
        <time>2016-07-11T13:59:03.000Z</time>
      </trkpt>
      <trkpt lat="44.36186" lon="6.34499">
        <ele>1237.5999755859</ele>
        <time>2016-07-11T13:59:11.000Z</time>
      </trkpt>
      <trkpt lat="44.36175" lon="6.34505">
        <ele>1237.1999511719</ele>
        <time>2016-07-11T13:59:19.000Z</time>
      </trkpt>
      <trkpt lat="44.36166" lon="6.34509">
        <ele>1236.5999755859</ele>
        <time>2016-07-11T13:59:25.000Z</time>
      </trkpt>
      <trkpt lat="44.36161" lon="6.34513">
        <ele>1236.4000244141</ele>
        <time>2016-07-11T13:59:29.000Z</time>
      </trkpt>
      <trkpt lat="44.36155" lon="6.34515">
        <ele>1236</ele>
        <time>2016-07-11T13:59:33.000Z</time>
      </trkpt>
      <trkpt lat="44.36144" lon="6.3452">
        <ele>1235.1999511719</ele>
        <time>2016-07-11T13:59:41.000Z</time>
      </trkpt>
      <trkpt lat="44.3613" lon="6.3453">
        <ele>1234.8000488281</ele>
        <time>2016-07-11T13:59:51.000Z</time>
      </trkpt>
      <trkpt lat="44.3612" lon="6.34537">
        <ele>1234.5999755859</ele>
        <time>2016-07-11T13:59:58.000Z</time>
      </trkpt>
      <trkpt lat="44.36106" lon="6.34549">
        <ele>1234.8000488281</ele>
        <time>2016-07-11T14:00:08.000Z</time>
      </trkpt>
      <trkpt lat="44.36096" lon="6.34561">
        <ele>1234.1999511719</ele>
        <time>2016-07-11T14:00:16.000Z</time>
      </trkpt>
      <trkpt lat="44.36082" lon="6.34574">
        <ele>1233</ele>
        <time>2016-07-11T14:00:27.000Z</time>
      </trkpt>
      <trkpt lat="44.36075" lon="6.34582">
        <ele>1232.5999755859</ele>
        <time>2016-07-11T14:00:33.000Z</time>
      </trkpt>
      <trkpt lat="44.36064" lon="6.34594">
        <ele>1231.8000488281</ele>
        <time>2016-07-11T14:00:42.000Z</time>
      </trkpt>
      <trkpt lat="44.36051" lon="6.34613">
        <ele>1231</ele>
        <time>2016-07-11T14:00:54.000Z</time>
      </trkpt>
      <trkpt lat="44.36038" lon="6.34633">
        <ele>1230</ele>
        <time>2016-07-11T14:01:06.000Z</time>
      </trkpt>
      <trkpt lat="44.3603" lon="6.34649">
        <ele>1230</ele>
        <time>2016-07-11T14:01:15.000Z</time>
      </trkpt>
      <trkpt lat="44.36028" lon="6.34656">
        <ele>1230.4000244141</ele>
        <time>2016-07-11T14:01:20.000Z</time>
      </trkpt>
      <trkpt lat="44.36025" lon="6.34658">
        <ele>1230.1999511719</ele>
        <time>2016-07-11T14:01:44.000Z</time>
      </trkpt>
      <trkpt lat="44.36023" lon="6.34652">
        <ele>1228.8000488281</ele>
        <time>2016-07-11T14:01:49.000Z</time>
      </trkpt>
      <trkpt lat="44.36018" lon="6.34634">
        <ele>1225.4000244141</ele>
        <time>2016-07-11T14:01:59.000Z</time>
      </trkpt>
      <trkpt lat="44.36017" lon="6.34622">
        <ele>1223.8000488281</ele>
        <time>2016-07-11T14:02:06.000Z</time>
      </trkpt>
      <trkpt lat="44.36017" lon="6.34614">
        <ele>1222.8000488281</ele>
        <time>2016-07-11T14:02:12.000Z</time>
      </trkpt>
      <trkpt lat="44.36017" lon="6.34612">
        <ele>1222.5999755859</ele>
        <time>2016-07-11T14:02:13.000Z</time>
      </trkpt>
      <trkpt lat="44.36018" lon="6.34607">
        <ele>1222.1999511719</ele>
        <time>2016-07-11T14:02:16.000Z</time>
      </trkpt>
      <trkpt lat="44.36019" lon="6.34594">
        <ele>1220.5999755859</ele>
        <time>2016-07-11T14:02:24.000Z</time>
      </trkpt>
      <trkpt lat="44.36021" lon="6.34582">
        <ele>1219.4000244141</ele>
        <time>2016-07-11T14:02:31.000Z</time>
      </trkpt>
      <trkpt lat="44.36025" lon="6.34576">
        <ele>1219.4000244141</ele>
        <time>2016-07-11T14:02:36.000Z</time>
      </trkpt>
      <trkpt lat="44.36025" lon="6.34577">
        <ele>1219.4000244141</ele>
        <time>2016-07-11T14:02:42.000Z</time>
      </trkpt>
      <trkpt lat="44.36023" lon="6.34577">
        <ele>1219.1999511719</ele>
        <time>2016-07-11T14:02:54.000Z</time>
      </trkpt>
      <trkpt lat="44.3602" lon="6.34586">
        <ele>1219.5999755859</ele>
        <time>2016-07-11T14:02:59.000Z</time>
      </trkpt>
      <trkpt lat="44.3602" lon="6.34592">
        <ele>1220.4000244141</ele>
        <time>2016-07-11T14:03:02.000Z</time>
      </trkpt>
      <trkpt lat="44.3602" lon="6.34598">
        <ele>1221.1999511719</ele>
        <time>2016-07-11T14:03:05.000Z</time>
      </trkpt>
      <trkpt lat="44.36019" lon="6.34608">
        <ele>1222.1999511719</ele>
        <time>2016-07-11T14:03:11.000Z</time>
      </trkpt>
      <trkpt lat="44.36018" lon="6.34623">
        <ele>1224.1999511719</ele>
        <time>2016-07-11T14:03:20.000Z</time>
      </trkpt>
      <trkpt lat="44.36021" lon="6.34637">
        <ele>1226.5999755859</ele>
        <time>2016-07-11T14:03:27.000Z</time>
      </trkpt>
      <trkpt lat="44.36023" lon="6.3465">
        <ele>1228.8000488281</ele>
        <time>2016-07-11T14:03:32.000Z</time>
      </trkpt>
      <trkpt lat="44.36022" lon="6.34653">
        <ele>1229</ele>
        <time>2016-07-11T14:03:33.000Z</time>
      </trkpt>
      <trkpt lat="44.3602" lon="6.3466">
        <ele>1229.4000244141</ele>
        <time>2016-07-11T14:03:36.000Z</time>
      </trkpt>
      <trkpt lat="44.36015" lon="6.34685">
        <ele>1231.5999755859</ele>
        <time>2016-07-11T14:03:44.000Z</time>
      </trkpt>
      <trkpt lat="44.36014" lon="6.34703">
        <ele>1234</ele>
        <time>2016-07-11T14:03:51.000Z</time>
      </trkpt>
      <trkpt lat="44.36014" lon="6.34724">
        <ele>1236.8000488281</ele>
        <time>2016-07-11T14:04:00.000Z</time>
      </trkpt>
      <trkpt lat="44.36012" lon="6.34739">
        <ele>1238.5999755859</ele>
        <time>2016-07-11T14:04:06.000Z</time>
      </trkpt>
      <trkpt lat="44.36004" lon="6.34749">
        <ele>1239.1999511719</ele>
        <time>2016-07-11T14:04:12.000Z</time>
      </trkpt>
      <trkpt lat="44.3599" lon="6.34755">
        <ele>1237.5999755859</ele>
        <time>2016-07-11T14:04:22.000Z</time>
      </trkpt>
      <trkpt lat="44.3598" lon="6.3476">
        <ele>1236.4000244141</ele>
        <time>2016-07-11T14:04:29.000Z</time>
      </trkpt>
      <trkpt lat="44.35971" lon="6.34767">
        <ele>1235.5999755859</ele>
        <time>2016-07-11T14:04:36.000Z</time>
      </trkpt>
      <trkpt lat="44.35962" lon="6.34782">
        <ele>1235.5999755859</ele>
        <time>2016-07-11T14:04:45.000Z</time>
      </trkpt>
      <trkpt lat="44.3595" lon="6.348">
        <ele>1235.5999755859</ele>
        <time>2016-07-11T14:04:56.000Z</time>
      </trkpt>
      <trkpt lat="44.35939" lon="6.34817">
        <ele>1235.8000488281</ele>
        <time>2016-07-11T14:05:06.000Z</time>
      </trkpt>
      <trkpt lat="44.35929" lon="6.34835">
        <ele>1237</ele>
        <time>2016-07-11T14:05:17.000Z</time>
      </trkpt>
      <trkpt lat="44.35921" lon="6.34856">
        <ele>1239</ele>
        <time>2016-07-11T14:05:28.000Z</time>
      </trkpt>
      <trkpt lat="44.35912" lon="6.34861">
        <ele>1238.1999511719</ele>
        <time>2016-07-11T14:05:34.000Z</time>
      </trkpt>
      <trkpt lat="44.35898" lon="6.34869">
        <ele>1236.8000488281</ele>
        <time>2016-07-11T14:05:44.000Z</time>
      </trkpt>
      <trkpt lat="44.35877" lon="6.34897">
        <ele>1237.4000244141</ele>
        <time>2016-07-11T14:06:03.000Z</time>
      </trkpt>
      <trkpt lat="44.35868" lon="6.34914">
        <ele>1238.1999511719</ele>
        <time>2016-07-11T14:06:13.000Z</time>
      </trkpt>
      <trkpt lat="44.35856" lon="6.34933">
        <ele>1238.5999755859</ele>
        <time>2016-07-11T14:06:24.000Z</time>
      </trkpt>
      <trkpt lat="44.35844" lon="6.34951">
        <ele>1239</ele>
        <time>2016-07-11T14:06:35.000Z</time>
      </trkpt>
      <trkpt lat="44.35834" lon="6.34965">
        <ele>1240</ele>
        <time>2016-07-11T14:06:44.000Z</time>
      </trkpt>
      <trkpt lat="44.35828" lon="6.34976">
        <ele>1241.1999511719</ele>
        <time>2016-07-11T14:06:51.000Z</time>
      </trkpt>
      <trkpt lat="44.35819" lon="6.34992">
        <ele>1242.4000244141</ele>
        <time>2016-07-11T14:07:00.000Z</time>
      </trkpt>
      <trkpt lat="44.35814" lon="6.35005">
        <ele>1243.4000244141</ele>
        <time>2016-07-11T14:07:07.000Z</time>
      </trkpt>
      <trkpt lat="44.35804" lon="6.35019">
        <ele>1243.5999755859</ele>
        <time>2016-07-11T14:07:16.000Z</time>
      </trkpt>
      <trkpt lat="44.35797" lon="6.35032">
        <ele>1244</ele>
        <time>2016-07-11T14:07:23.000Z</time>
      </trkpt>
      <trkpt lat="44.35789" lon="6.35046">
        <ele>1244.1999511719</ele>
        <time>2016-07-11T14:07:32.000Z</time>
      </trkpt>
      <trkpt lat="44.35788" lon="6.35048">
        <ele>1244.4000244141</ele>
        <time>2016-07-11T14:07:33.000Z</time>
      </trkpt>
      <trkpt lat="44.35783" lon="6.35058">
        <ele>1244.8000488281</ele>
        <time>2016-07-11T14:07:39.000Z</time>
      </trkpt>
      <trkpt lat="44.35773" lon="6.35072">
        <ele>1245.1999511719</ele>
        <time>2016-07-11T14:07:49.000Z</time>
      </trkpt>
      <trkpt lat="44.35761" lon="6.35094">
        <ele>1246.5999755859</ele>
        <time>2016-07-11T14:08:01.000Z</time>
      </trkpt>
      <trkpt lat="44.3575" lon="6.35115">
        <ele>1247.8000488281</ele>
        <time>2016-07-11T14:08:13.000Z</time>
      </trkpt>
      <trkpt lat="44.35743" lon="6.35129">
        <ele>1248.8000488281</ele>
        <time>2016-07-11T14:08:21.000Z</time>
      </trkpt>
      <trkpt lat="44.35734" lon="6.35149">
        <ele>1250.1999511719</ele>
        <time>2016-07-11T14:08:32.000Z</time>
      </trkpt>
      <trkpt lat="44.35727" lon="6.35162">
        <ele>1251</ele>
        <time>2016-07-11T14:08:40.000Z</time>
      </trkpt>
      <trkpt lat="44.35722" lon="6.35167">
        <ele>1251.1999511719</ele>
        <time>2016-07-11T14:08:46.000Z</time>
      </trkpt>
      <trkpt lat="44.3572" lon="6.3517">
        <ele>1251.1999511719</ele>
        <time>2016-07-11T14:08:56.000Z</time>
      </trkpt>
      <trkpt lat="44.35716" lon="6.35178">
        <ele>1251.5999755859</ele>
        <time>2016-07-11T14:09:01.000Z</time>
      </trkpt>
      <trkpt lat="44.35709" lon="6.3519">
        <ele>1251.8000488281</ele>
        <time>2016-07-11T14:09:08.000Z</time>
      </trkpt>
      <trkpt lat="44.35701" lon="6.35203">
        <ele>1252</ele>
        <time>2016-07-11T14:09:17.000Z</time>
      </trkpt>
      <trkpt lat="44.35693" lon="6.35219">
        <ele>1253.4000244141</ele>
        <time>2016-07-11T14:09:26.000Z</time>
      </trkpt>
      <trkpt lat="44.35687" lon="6.35232">
        <ele>1254</ele>
        <time>2016-07-11T14:09:33.000Z</time>
      </trkpt>
      <trkpt lat="44.35678" lon="6.3525">
        <ele>1255.8000488281</ele>
        <time>2016-07-11T14:09:43.000Z</time>
      </trkpt>
      <trkpt lat="44.3567" lon="6.35269">
        <ele>1257.5999755859</ele>
        <time>2016-07-11T14:09:54.000Z</time>
      </trkpt>
      <trkpt lat="44.35658" lon="6.35284">
        <ele>1258.8000488281</ele>
        <time>2016-07-11T14:10:05.000Z</time>
      </trkpt>
      <trkpt lat="44.35646" lon="6.35295">
        <ele>1259</ele>
        <time>2016-07-11T14:10:15.000Z</time>
      </trkpt>
      <trkpt lat="44.35636" lon="6.35305">
        <ele>1259.1999511719</ele>
        <time>2016-07-11T14:10:24.000Z</time>
      </trkpt>
      <trkpt lat="44.35625" lon="6.35314">
        <ele>1259.4000244141</ele>
        <time>2016-07-11T14:10:33.000Z</time>
      </trkpt>
      <trkpt lat="44.3559" lon="6.35344">
        <ele>1261.5999755859</ele>
        <time>2016-07-11T14:11:02.000Z</time>
      </trkpt>
      <trkpt lat="44.35583" lon="6.35351">
        <ele>1262.4000244141</ele>
        <time>2016-07-11T14:11:08.000Z</time>
      </trkpt>
      <trkpt lat="44.35578" lon="6.35355">
        <ele>1262.8000488281</ele>
        <time>2016-07-11T14:11:12.000Z</time>
      </trkpt>
      <trkpt lat="44.35569" lon="6.35363">
        <ele>1262.4000244141</ele>
        <time>2016-07-11T14:11:19.000Z</time>
      </trkpt>
      <trkpt lat="44.35562" lon="6.35371">
        <ele>1261.4000244141</ele>
        <time>2016-07-11T14:11:25.000Z</time>
      </trkpt>
      <trkpt lat="44.35551" lon="6.3538">
        <ele>1260.1999511719</ele>
        <time>2016-07-11T14:11:33.000Z</time>
      </trkpt>
      <trkpt lat="44.35542" lon="6.35387">
        <ele>1259.1999511719</ele>
        <time>2016-07-11T14:11:40.000Z</time>
      </trkpt>
      <trkpt lat="44.35534" lon="6.35392">
        <ele>1258.5999755859</ele>
        <time>2016-07-11T14:11:45.000Z</time>
      </trkpt>
      <trkpt lat="44.3552" lon="6.35399">
        <ele>1256.5999755859</ele>
        <time>2016-07-11T14:11:55.000Z</time>
      </trkpt>
      <trkpt lat="44.35507" lon="6.35397">
        <ele>1255.1999511719</ele>
        <time>2016-07-11T14:12:04.000Z</time>
      </trkpt>
      <trkpt lat="44.35494" lon="6.35391">
        <ele>1254.5999755859</ele>
        <time>2016-07-11T14:12:13.000Z</time>
      </trkpt>
      <trkpt lat="44.35481" lon="6.35387">
        <ele>1253.5999755859</ele>
        <time>2016-07-11T14:12:22.000Z</time>
      </trkpt>
      <trkpt lat="44.35468" lon="6.35382">
        <ele>1252.8000488281</ele>
        <time>2016-07-11T14:12:30.000Z</time>
      </trkpt>
      <trkpt lat="44.3545" lon="6.35374">
        <ele>1252</ele>
        <time>2016-07-11T14:12:42.000Z</time>
      </trkpt>
      <trkpt lat="44.35439" lon="6.35368">
        <ele>1252.1999511719</ele>
        <time>2016-07-11T14:12:50.000Z</time>
      </trkpt>
      <trkpt lat="44.35427" lon="6.35363">
        <ele>1252.5999755859</ele>
        <time>2016-07-11T14:12:58.000Z</time>
      </trkpt>
      <trkpt lat="44.35413" lon="6.35358">
        <ele>1253</ele>
        <time>2016-07-11T14:13:07.000Z</time>
      </trkpt>
      <trkpt lat="44.354" lon="6.35356">
        <ele>1252.8000488281</ele>
        <time>2016-07-11T14:13:16.000Z</time>
      </trkpt>
      <trkpt lat="44.35388" lon="6.35361">
        <ele>1251.5999755859</ele>
        <time>2016-07-11T14:13:24.000Z</time>
      </trkpt>
      <trkpt lat="44.35379" lon="6.35372">
        <ele>1249.4000244141</ele>
        <time>2016-07-11T14:13:32.000Z</time>
      </trkpt>
      <trkpt lat="44.35367" lon="6.35388">
        <ele>1246.5999755859</ele>
        <time>2016-07-11T14:13:42.000Z</time>
      </trkpt>
      <trkpt lat="44.35357" lon="6.354">
        <ele>1245</ele>
        <time>2016-07-11T14:13:51.000Z</time>
      </trkpt>
      <trkpt lat="44.35342" lon="6.35407">
        <ele>1244.5999755859</ele>
        <time>2016-07-11T14:14:01.000Z</time>
      </trkpt>
      <trkpt lat="44.35326" lon="6.3541">
        <ele>1245</ele>
        <time>2016-07-11T14:14:11.000Z</time>
      </trkpt>
      <trkpt lat="44.35314" lon="6.35411">
        <ele>1245.5999755859</ele>
        <time>2016-07-11T14:14:19.000Z</time>
      </trkpt>
      <trkpt lat="44.35302" lon="6.3542">
        <ele>1244.8000488281</ele>
        <time>2016-07-11T14:14:28.000Z</time>
      </trkpt>
      <trkpt lat="44.35301" lon="6.3542">
        <ele>1244.5999755859</ele>
        <time>2016-07-11T14:14:29.000Z</time>
      </trkpt>
      <trkpt lat="44.35301" lon="6.35423">
        <ele>1243.8000488281</ele>
        <time>2016-07-11T14:14:34.000Z</time>
      </trkpt>
      <trkpt lat="44.35299" lon="6.35429">
        <ele>1242</ele>
        <time>2016-07-11T14:14:39.000Z</time>
      </trkpt>
      <trkpt lat="44.35292" lon="6.35441">
        <ele>1238.8000488281</ele>
        <time>2016-07-11T14:14:46.000Z</time>
      </trkpt>
      <trkpt lat="44.35289" lon="6.35445">
        <ele>1237.5999755859</ele>
        <time>2016-07-11T14:14:49.000Z</time>
      </trkpt>
      <trkpt lat="44.35285" lon="6.3545">
        <ele>1236.4000244141</ele>
        <time>2016-07-11T14:14:55.000Z</time>
      </trkpt>
      <trkpt lat="44.35281" lon="6.35454">
        <ele>1235.1999511719</ele>
        <time>2016-07-11T14:15:04.000Z</time>
      </trkpt>
      <trkpt lat="44.3528" lon="6.35455">
        <ele>1234.8000488281</ele>
        <time>2016-07-11T14:15:05.000Z</time>
      </trkpt>
      <trkpt lat="44.35276" lon="6.35458">
        <ele>1233.1999511719</ele>
        <time>2016-07-11T14:15:09.000Z</time>
      </trkpt>
      <trkpt lat="44.35266" lon="6.35469">
        <ele>1229.1999511719</ele>
        <time>2016-07-11T14:15:18.000Z</time>
      </trkpt>
      <trkpt lat="44.35255" lon="6.35479">
        <ele>1227.8000488281</ele>
        <time>2016-07-11T14:15:27.000Z</time>
      </trkpt>
      <trkpt lat="44.35244" lon="6.35491">
        <ele>1225.4000244141</ele>
        <time>2016-07-11T14:15:37.000Z</time>
      </trkpt>
      <trkpt lat="44.35237" lon="6.35498">
        <ele>1224</ele>
        <time>2016-07-11T14:15:44.000Z</time>
      </trkpt>
      <trkpt lat="44.35232" lon="6.35499">
        <ele>1223.8000488281</ele>
        <time>2016-07-11T14:15:48.000Z</time>
      </trkpt>
      <trkpt lat="44.35224" lon="6.35504">
        <ele>1222.5999755859</ele>
        <time>2016-07-11T14:15:55.000Z</time>
      </trkpt>
      <trkpt lat="44.35216" lon="6.35507">
        <ele>1221.8000488281</ele>
        <time>2016-07-11T14:16:01.000Z</time>
      </trkpt>
      <trkpt lat="44.35209" lon="6.35513">
        <ele>1220.4000244141</ele>
        <time>2016-07-11T14:16:07.000Z</time>
      </trkpt>
      <trkpt lat="44.35205" lon="6.35514">
        <ele>1220.1999511719</ele>
        <time>2016-07-11T14:16:10.000Z</time>
      </trkpt>
      <trkpt lat="44.35206" lon="6.35513">
        <ele>1220.1999511719</ele>
        <time>2016-07-11T14:16:19.000Z</time>
      </trkpt>
      <trkpt lat="44.35207" lon="6.35514">
        <ele>1220</ele>
        <time>2016-07-11T14:16:31.000Z</time>
      </trkpt>
      <trkpt lat="44.35207" lon="6.35513">
        <ele>1220.1999511719</ele>
        <time>2016-07-11T14:16:39.000Z</time>
      </trkpt>
      <trkpt lat="44.35207" lon="6.35512">
        <ele>1220.5999755859</ele>
        <time>2016-07-11T14:16:59.000Z</time>
      </trkpt>
      <trkpt lat="44.35206" lon="6.35512">
        <ele>1220.4000244141</ele>
        <time>2016-07-11T14:17:37.000Z</time>
      </trkpt>
      <trkpt lat="44.35207" lon="6.35515">
        <ele>1220</ele>
        <time>2016-07-11T14:18:01.000Z</time>
      </trkpt>
      <trkpt lat="44.35206" lon="6.35515">
        <ele>1219.8000488281</ele>
        <time>2016-07-11T14:18:06.000Z</time>
      </trkpt>
      <trkpt lat="44.35205" lon="6.35516">
        <ele>1219.5999755859</ele>
        <time>2016-07-11T14:18:07.000Z</time>
      </trkpt>
      <trkpt lat="44.352" lon="6.35521">
        <ele>1218.4000244141</ele>
        <time>2016-07-11T14:18:12.000Z</time>
      </trkpt>
      <trkpt lat="44.35191" lon="6.35522">
        <ele>1216.8000488281</ele>
        <time>2016-07-11T14:18:18.000Z</time>
      </trkpt>
      <trkpt lat="44.3519" lon="6.35523">
        <ele>1216.5999755859</ele>
        <time>2016-07-11T14:18:19.000Z</time>
      </trkpt>
      <trkpt lat="44.35179" lon="6.35525">
        <ele>1214</ele>
        <time>2016-07-11T14:18:27.000Z</time>
      </trkpt>
      <trkpt lat="44.35167" lon="6.35524">
        <ele>1212.4000244141</ele>
        <time>2016-07-11T14:18:35.000Z</time>
      </trkpt>
      <trkpt lat="44.35157" lon="6.35525">
        <ele>1210.4000244141</ele>
        <time>2016-07-11T14:18:42.000Z</time>
      </trkpt>
      <trkpt lat="44.35156" lon="6.35526">
        <ele>1210.4000244141</ele>
        <time>2016-07-11T14:18:43.000Z</time>
      </trkpt>
      <trkpt lat="44.35146" lon="6.3553">
        <ele>1210.1999511719</ele>
        <time>2016-07-11T14:18:50.000Z</time>
      </trkpt>
      <trkpt lat="44.35135" lon="6.35535">
        <ele>1210</ele>
        <time>2016-07-11T14:18:58.000Z</time>
      </trkpt>
      <trkpt lat="44.35132" lon="6.35535">
        <ele>1210</ele>
        <time>2016-07-11T14:19:00.000Z</time>
      </trkpt>
      <trkpt lat="44.35128" lon="6.35529">
        <ele>1210.1999511719</ele>
        <time>2016-07-11T14:19:04.000Z</time>
      </trkpt>
      <trkpt lat="44.35122" lon="6.35513">
        <ele>1210.8000488281</ele>
        <time>2016-07-11T14:19:13.000Z</time>
      </trkpt>
      <trkpt lat="44.35117" lon="6.35499">
        <ele>1211.4000244141</ele>
        <time>2016-07-11T14:19:21.000Z</time>
      </trkpt>
      <trkpt lat="44.35117" lon="6.35488">
        <ele>1211.8000488281</ele>
        <time>2016-07-11T14:19:27.000Z</time>
      </trkpt>
      <trkpt lat="44.3512" lon="6.35474">
        <ele>1212.5999755859</ele>
        <time>2016-07-11T14:19:35.000Z</time>
      </trkpt>
      <trkpt lat="44.3512" lon="6.35463">
        <ele>1212</ele>
        <time>2016-07-11T14:19:41.000Z</time>
      </trkpt>
      <trkpt lat="44.35117" lon="6.35451">
        <ele>1210.8000488281</ele>
        <time>2016-07-11T14:19:48.000Z</time>
      </trkpt>
      <trkpt lat="44.35116" lon="6.35448">
        <ele>1210.4000244141</ele>
        <time>2016-07-11T14:19:50.000Z</time>
      </trkpt>
      <trkpt lat="44.35116" lon="6.35439">
        <ele>1209.8000488281</ele>
        <time>2016-07-11T14:19:55.000Z</time>
      </trkpt>
      <trkpt lat="44.35115" lon="6.35426">
        <ele>1208.8000488281</ele>
        <time>2016-07-11T14:20:02.000Z</time>
      </trkpt>
      <trkpt lat="44.35111" lon="6.35422">
        <ele>1207.5999755859</ele>
        <time>2016-07-11T14:20:08.000Z</time>
      </trkpt>
      <trkpt lat="44.3511" lon="6.35423">
        <ele>1207.4000244141</ele>
        <time>2016-07-11T14:20:09.000Z</time>
      </trkpt>
      <trkpt lat="44.35109" lon="6.35431">
        <ele>1207.1999511719</ele>
        <time>2016-07-11T14:20:14.000Z</time>
      </trkpt>
      <trkpt lat="44.35106" lon="6.35427">
        <ele>1206.1999511719</ele>
        <time>2016-07-11T14:20:18.000Z</time>
      </trkpt>
      <trkpt lat="44.35104" lon="6.35415">
        <ele>1205</ele>
        <time>2016-07-11T14:20:26.000Z</time>
      </trkpt>
      <trkpt lat="44.35101" lon="6.35419">
        <ele>1204.1999511719</ele>
        <time>2016-07-11T14:20:31.000Z</time>
      </trkpt>
      <trkpt lat="44.35101" lon="6.3542">
        <ele>1204.4000244141</ele>
        <time>2016-07-11T14:20:32.000Z</time>
      </trkpt>
      <trkpt lat="44.35097" lon="6.35433">
        <ele>1204</ele>
        <time>2016-07-11T14:20:39.000Z</time>
      </trkpt>
      <trkpt lat="44.35091" lon="6.35444">
        <ele>1202.8000488281</ele>
        <time>2016-07-11T14:20:47.000Z</time>
      </trkpt>
      <trkpt lat="44.35086" lon="6.35442">
        <ele>1201.1999511719</ele>
        <time>2016-07-11T14:20:56.000Z</time>
      </trkpt>
      <trkpt lat="44.35088" lon="6.3543">
        <ele>1201</ele>
        <time>2016-07-11T14:21:03.000Z</time>
      </trkpt>
      <trkpt lat="44.35087" lon="6.35421">
        <ele>1200</ele>
        <time>2016-07-11T14:21:09.000Z</time>
      </trkpt>
      <trkpt lat="44.35086" lon="6.35419">
        <ele>1199.8000488281</ele>
        <time>2016-07-11T14:21:10.000Z</time>
      </trkpt>
      <trkpt lat="44.35078" lon="6.35415">
        <ele>1197.1999511719</ele>
        <time>2016-07-11T14:21:16.000Z</time>
      </trkpt>
      <trkpt lat="44.35071" lon="6.35418">
        <ele>1195.1999511719</ele>
        <time>2016-07-11T14:21:23.000Z</time>
      </trkpt>
      <trkpt lat="44.35063" lon="6.35428">
        <ele>1193.4000244141</ele>
        <time>2016-07-11T14:21:31.000Z</time>
      </trkpt>
      <trkpt lat="44.35058" lon="6.35439">
        <ele>1192.1999511719</ele>
        <time>2016-07-11T14:21:38.000Z</time>
      </trkpt>
      <trkpt lat="44.35056" lon="6.35444">
        <ele>1191.4000244141</ele>
        <time>2016-07-11T14:21:43.000Z</time>
      </trkpt>
      <trkpt lat="44.35055" lon="6.35462">
        <ele>1191.8000488281</ele>
        <time>2016-07-11T14:21:51.000Z</time>
      </trkpt>
      <trkpt lat="44.35054" lon="6.35475">
        <ele>1191.8000488281</ele>
        <time>2016-07-11T14:21:58.000Z</time>
      </trkpt>
      <trkpt lat="44.35051" lon="6.35493">
        <ele>1190.4000244141</ele>
        <time>2016-07-11T14:22:08.000Z</time>
      </trkpt>
      <trkpt lat="44.35048" lon="6.35511">
        <ele>1190.4000244141</ele>
        <time>2016-07-11T14:22:18.000Z</time>
      </trkpt>
      <trkpt lat="44.35046" lon="6.35525">
        <ele>1191.4000244141</ele>
        <time>2016-07-11T14:22:26.000Z</time>
      </trkpt>
      <trkpt lat="44.35041" lon="6.35537">
        <ele>1191.4000244141</ele>
        <time>2016-07-11T14:22:33.000Z</time>
      </trkpt>
      <trkpt lat="44.35039" lon="6.35546">
        <ele>1191.8000488281</ele>
        <time>2016-07-11T14:22:41.000Z</time>
      </trkpt>
      <trkpt lat="44.35037" lon="6.35545">
        <ele>1191.4000244141</ele>
        <time>2016-07-11T14:22:50.000Z</time>
      </trkpt>
      <trkpt lat="44.35037" lon="6.35543">
        <ele>1191.1999511719</ele>
        <time>2016-07-11T14:23:05.000Z</time>
      </trkpt>
      <trkpt lat="44.35035" lon="6.35543">
        <ele>1190.8000488281</ele>
        <time>2016-07-11T14:23:52.000Z</time>
      </trkpt>
      <trkpt lat="44.35034" lon="6.35543">
        <ele>1190.5999755859</ele>
        <time>2016-07-11T14:24:23.000Z</time>
      </trkpt>
      <trkpt lat="44.35034" lon="6.35542">
        <ele>1190.5999755859</ele>
        <time>2016-07-11T14:24:30.000Z</time>
      </trkpt>
      <trkpt lat="44.35034" lon="6.35541">
        <ele>1190.4000244141</ele>
        <time>2016-07-11T14:24:34.000Z</time>
      </trkpt>
      <trkpt lat="44.35033" lon="6.35543">
        <ele>1190.4000244141</ele>
        <time>2016-07-11T14:24:39.000Z</time>
      </trkpt>
      <trkpt lat="44.35033" lon="6.35544">
        <ele>1190.4000244141</ele>
        <time>2016-07-11T14:24:46.000Z</time>
      </trkpt>
      <trkpt lat="44.35031" lon="6.3554">
        <ele>1189.8000488281</ele>
        <time>2016-07-11T14:25:12.000Z</time>
      </trkpt>
      <trkpt lat="44.35033" lon="6.35541">
        <ele>1190.1999511719</ele>
        <time>2016-07-11T14:25:34.000Z</time>
      </trkpt>
      <trkpt lat="44.35033" lon="6.35544">
        <ele>1190.5999755859</ele>
        <time>2016-07-11T14:25:58.000Z</time>
      </trkpt>
      <trkpt lat="44.35033" lon="6.35541">
        <ele>1190.1999511719</ele>
        <time>2016-07-11T14:26:14.000Z</time>
      </trkpt>
      <trkpt lat="44.35032" lon="6.35543">
        <ele>1190.1999511719</ele>
        <time>2016-07-11T14:26:17.000Z</time>
      </trkpt>
      <trkpt lat="44.35026" lon="6.35547">
        <ele>1189</ele>
        <time>2016-07-11T14:26:24.000Z</time>
      </trkpt>
      <trkpt lat="44.35025" lon="6.35547">
        <ele>1188.8000488281</ele>
        <time>2016-07-11T14:26:25.000Z</time>
      </trkpt>
      <trkpt lat="44.35019" lon="6.35552">
        <ele>1187.8000488281</ele>
        <time>2016-07-11T14:26:30.000Z</time>
      </trkpt>
      <trkpt lat="44.35011" lon="6.35551">
        <ele>1185.4000244141</ele>
        <time>2016-07-11T14:26:36.000Z</time>
      </trkpt>
      <trkpt lat="44.34989" lon="6.35542">
        <ele>1178.1999511719</ele>
        <time>2016-07-11T14:26:59.000Z</time>
      </trkpt>
      <trkpt lat="44.34988" lon="6.35551">
        <ele>1178.5999755859</ele>
        <time>2016-07-11T14:27:04.000Z</time>
      </trkpt>
      <trkpt lat="44.34986" lon="6.35551">
        <ele>1178</ele>
        <time>2016-07-11T14:27:08.000Z</time>
      </trkpt>
      <trkpt lat="44.34986" lon="6.3555">
        <ele>1178</ele>
        <time>2016-07-11T14:27:10.000Z</time>
      </trkpt>
      <trkpt lat="44.34985" lon="6.35544">
        <ele>1177.4000244141</ele>
        <time>2016-07-11T14:27:14.000Z</time>
      </trkpt>
      <trkpt lat="44.34978" lon="6.35541">
        <ele>1175.1999511719</ele>
        <time>2016-07-11T14:27:20.000Z</time>
      </trkpt>
      <trkpt lat="44.34973" lon="6.35538">
        <ele>1173.4000244141</ele>
        <time>2016-07-11T14:27:27.000Z</time>
      </trkpt>
      <trkpt lat="44.34971" lon="6.3553">
        <ele>1172.4000244141</ele>
        <time>2016-07-11T14:27:34.000Z</time>
      </trkpt>
      <trkpt lat="44.34972" lon="6.35528">
        <ele>1172.4000244141</ele>
        <time>2016-07-11T14:27:35.000Z</time>
      </trkpt>
      <trkpt lat="44.34975" lon="6.35523">
        <ele>1173.1999511719</ele>
        <time>2016-07-11T14:27:39.000Z</time>
      </trkpt>
      <trkpt lat="44.34976" lon="6.35513">
        <ele>1172.4000244141</ele>
        <time>2016-07-11T14:27:45.000Z</time>
      </trkpt>
      <trkpt lat="44.34973" lon="6.35507">
        <ele>1171.1999511719</ele>
        <time>2016-07-11T14:27:50.000Z</time>
      </trkpt>
      <trkpt lat="44.34973" lon="6.35506">
        <ele>1171</ele>
        <time>2016-07-11T14:27:51.000Z</time>
      </trkpt>
      <trkpt lat="44.34973" lon="6.35504">
        <ele>1171</ele>
        <time>2016-07-11T14:27:52.000Z</time>
      </trkpt>
      <trkpt lat="44.34976" lon="6.35501">
        <ele>1171.5999755859</ele>
        <time>2016-07-11T14:27:55.000Z</time>
      </trkpt>
      <trkpt lat="44.34984" lon="6.355">
        <ele>1173.4000244141</ele>
        <time>2016-07-11T14:28:01.000Z</time>
      </trkpt>
      <trkpt lat="44.34983" lon="6.35499">
        <ele>1173.1999511719</ele>
        <time>2016-07-11T14:28:02.000Z</time>
      </trkpt>
      <trkpt lat="44.34983" lon="6.35498">
        <ele>1173</ele>
        <time>2016-07-11T14:28:03.000Z</time>
      </trkpt>
      <trkpt lat="44.34978" lon="6.35488">
        <ele>1170.5999755859</ele>
        <time>2016-07-11T14:28:09.000Z</time>
      </trkpt>
      <trkpt lat="44.34972" lon="6.35481">
        <ele>1168.4000244141</ele>
        <time>2016-07-11T14:28:15.000Z</time>
      </trkpt>
      <trkpt lat="44.34971" lon="6.3548">
        <ele>1168</ele>
        <time>2016-07-11T14:28:17.000Z</time>
      </trkpt>
      <trkpt lat="44.34971" lon="6.35469">
        <ele>1168</ele>
        <time>2016-07-11T14:28:23.000Z</time>
      </trkpt>
      <trkpt lat="44.34974" lon="6.35457">
        <ele>1168.5999755859</ele>
        <time>2016-07-11T14:28:29.000Z</time>
      </trkpt>
      <trkpt lat="44.34977" lon="6.35446">
        <ele>1169.1999511719</ele>
        <time>2016-07-11T14:28:35.000Z</time>
      </trkpt>
      <trkpt lat="44.3498" lon="6.35439">
        <ele>1170</ele>
        <time>2016-07-11T14:28:40.000Z</time>
      </trkpt>
      <trkpt lat="44.34981" lon="6.35432">
        <ele>1170.1999511719</ele>
        <time>2016-07-11T14:28:43.000Z</time>
      </trkpt>
      <trkpt lat="44.3498" lon="6.35431">
        <ele>1170</ele>
        <time>2016-07-11T14:28:45.000Z</time>
      </trkpt>
      <trkpt lat="44.34973" lon="6.35427">
        <ele>1168.1999511719</ele>
        <time>2016-07-11T14:28:51.000Z</time>
      </trkpt>
      <trkpt lat="44.34962" lon="6.35418">
        <ele>1165.1999511719</ele>
        <time>2016-07-11T14:29:02.000Z</time>
      </trkpt>
      <trkpt lat="44.34961" lon="6.35416">
        <ele>1164.8000488281</ele>
        <time>2016-07-11T14:29:04.000Z</time>
      </trkpt>
      <trkpt lat="44.34952" lon="6.35406">
        <ele>1162.4000244141</ele>
        <time>2016-07-11T14:29:12.000Z</time>
      </trkpt>
      <trkpt lat="44.34944" lon="6.35398">
        <ele>1160.5999755859</ele>
        <time>2016-07-11T14:29:20.000Z</time>
      </trkpt>
      <trkpt lat="44.34938" lon="6.3539">
        <ele>1159.4000244141</ele>
        <time>2016-07-11T14:29:27.000Z</time>
      </trkpt>
      <trkpt lat="44.34933" lon="6.35385">
        <ele>1158.5999755859</ele>
        <time>2016-07-11T14:29:32.000Z</time>
      </trkpt>
      <trkpt lat="44.34928" lon="6.3538">
        <ele>1158</ele>
        <time>2016-07-11T14:29:37.000Z</time>
      </trkpt>
      <trkpt lat="44.34925" lon="6.35377">
        <ele>1157.5999755859</ele>
        <time>2016-07-11T14:29:40.000Z</time>
      </trkpt>
      <trkpt lat="44.34917" lon="6.35369">
        <ele>1156.1999511719</ele>
        <time>2016-07-11T14:29:49.000Z</time>
      </trkpt>
      <trkpt lat="44.34916" lon="6.35369">
        <ele>1156.1999511719</ele>
        <time>2016-07-11T14:29:50.000Z</time>
      </trkpt>
      <trkpt lat="44.34909" lon="6.35362">
        <ele>1155</ele>
        <time>2016-07-11T14:29:57.000Z</time>
      </trkpt>
      <trkpt lat="44.34902" lon="6.35357">
        <ele>1154</ele>
        <time>2016-07-11T14:30:04.000Z</time>
      </trkpt>
      <trkpt lat="44.34895" lon="6.35356">
        <ele>1152.8000488281</ele>
        <time>2016-07-11T14:30:09.000Z</time>
      </trkpt>
      <trkpt lat="44.3489" lon="6.35355">
        <ele>1152</ele>
        <time>2016-07-11T14:30:14.000Z</time>
      </trkpt>
      <trkpt lat="44.34889" lon="6.35355">
        <ele>1151.8000488281</ele>
        <time>2016-07-11T14:30:16.000Z</time>
      </trkpt>
      <trkpt lat="44.34882" lon="6.35354">
        <ele>1150.8000488281</ele>
        <time>2016-07-11T14:30:21.000Z</time>
      </trkpt>
      <trkpt lat="44.34878" lon="6.35354">
        <ele>1150.1999511719</ele>
        <time>2016-07-11T14:30:26.000Z</time>
      </trkpt>
      <trkpt lat="44.34876" lon="6.35353">
        <ele>1149.8000488281</ele>
        <time>2016-07-11T14:30:27.000Z</time>
      </trkpt>
      <trkpt lat="44.34872" lon="6.35353">
        <ele>1149.1999511719</ele>
        <time>2016-07-11T14:30:32.000Z</time>
      </trkpt>
      <trkpt lat="44.34868" lon="6.3535">
        <ele>1148.5999755859</ele>
        <time>2016-07-11T14:30:36.000Z</time>
      </trkpt>
      <trkpt lat="44.34861" lon="6.35344">
        <ele>1147.8000488281</ele>
        <time>2016-07-11T14:30:42.000Z</time>
      </trkpt>
      <trkpt lat="44.34857" lon="6.35338">
        <ele>1147.5999755859</ele>
        <time>2016-07-11T14:30:47.000Z</time>
      </trkpt>
      <trkpt lat="44.34854" lon="6.35331">
        <ele>1147.4000244141</ele>
        <time>2016-07-11T14:30:52.000Z</time>
      </trkpt>
      <trkpt lat="44.3485" lon="6.35323">
        <ele>1147.1999511719</ele>
        <time>2016-07-11T14:30:56.000Z</time>
      </trkpt>
      <trkpt lat="44.34846" lon="6.35314">
        <ele>1146.8000488281</ele>
        <time>2016-07-11T14:31:03.000Z</time>
      </trkpt>
      <trkpt lat="44.34845" lon="6.35312">
        <ele>1146.8000488281</ele>
        <time>2016-07-11T14:31:04.000Z</time>
      </trkpt>
      <trkpt lat="44.34845" lon="6.35303">
        <ele>1146.4000244141</ele>
        <time>2016-07-11T14:31:08.000Z</time>
      </trkpt>
      <trkpt lat="44.34846" lon="6.35299">
        <ele>1146.4000244141</ele>
        <time>2016-07-11T14:31:11.000Z</time>
      </trkpt>
      <trkpt lat="44.34848" lon="6.35292">
        <ele>1146.1999511719</ele>
        <time>2016-07-11T14:31:14.000Z</time>
      </trkpt>
      <trkpt lat="44.34847" lon="6.35291">
        <ele>1146</ele>
        <time>2016-07-11T14:31:22.000Z</time>
      </trkpt>
      <trkpt lat="44.34846" lon="6.35292">
        <ele>1146</ele>
        <time>2016-07-11T14:31:26.000Z</time>
      </trkpt>
      <trkpt lat="44.34847" lon="6.35283">
        <ele>1145.5999755859</ele>
        <time>2016-07-11T14:31:32.000Z</time>
      </trkpt>
      <trkpt lat="44.34852" lon="6.35277">
        <ele>1145.1999511719</ele>
        <time>2016-07-11T14:31:37.000Z</time>
      </trkpt>
      <trkpt lat="44.34858" lon="6.35268">
        <ele>1145</ele>
        <time>2016-07-11T14:31:44.000Z</time>
      </trkpt>
      <trkpt lat="44.34867" lon="6.35255">
        <ele>1145</ele>
        <time>2016-07-11T14:31:52.000Z</time>
      </trkpt>
      <trkpt lat="44.34873" lon="6.35242">
        <ele>1145.8000488281</ele>
        <time>2016-07-11T14:32:00.000Z</time>
      </trkpt>
      <trkpt lat="44.3488" lon="6.35227">
        <ele>1145.1999511719</ele>
        <time>2016-07-11T14:32:08.000Z</time>
      </trkpt>
      <trkpt lat="44.34889" lon="6.35213">
        <ele>1145.8000488281</ele>
        <time>2016-07-11T14:32:17.000Z</time>
      </trkpt>
      <trkpt lat="44.34901" lon="6.35194">
        <ele>1146.4000244141</ele>
        <time>2016-07-11T14:32:27.000Z</time>
      </trkpt>
      <trkpt lat="44.34912" lon="6.35174">
        <ele>1145.5999755859</ele>
        <time>2016-07-11T14:32:38.000Z</time>
      </trkpt>
      <trkpt lat="44.34922" lon="6.3516">
        <ele>1144.5999755859</ele>
        <time>2016-07-11T14:32:47.000Z</time>
      </trkpt>
      <trkpt lat="44.34928" lon="6.35143">
        <ele>1143.4000244141</ele>
        <time>2016-07-11T14:32:55.000Z</time>
      </trkpt>
      <trkpt lat="44.34935" lon="6.35134">
        <ele>1143.8000488281</ele>
        <time>2016-07-11T14:33:01.000Z</time>
      </trkpt>
      <trkpt lat="44.34937" lon="6.35128">
        <ele>1143.4000244141</ele>
        <time>2016-07-11T14:33:05.000Z</time>
      </trkpt>
      <trkpt lat="44.34946" lon="6.35119">
        <ele>1142.8000488281</ele>
        <time>2016-07-11T14:33:12.000Z</time>
      </trkpt>
      <trkpt lat="44.34952" lon="6.35107">
        <ele>1142.4000244141</ele>
        <time>2016-07-11T14:33:17.000Z</time>
      </trkpt>
      <trkpt lat="44.3496" lon="6.35088">
        <ele>1141.5999755859</ele>
        <time>2016-07-11T14:33:27.000Z</time>
      </trkpt>
      <trkpt lat="44.34963" lon="6.3508">
        <ele>1141.1999511719</ele>
        <time>2016-07-11T14:33:32.000Z</time>
      </trkpt>
      <trkpt lat="44.34961" lon="6.35067">
        <ele>1139.5999755859</ele>
        <time>2016-07-11T14:33:37.000Z</time>
      </trkpt>
      <trkpt lat="44.34952" lon="6.35052">
        <ele>1139</ele>
        <time>2016-07-11T14:33:46.000Z</time>
      </trkpt>
      <trkpt lat="44.34945" lon="6.35041">
        <ele>1138.5999755859</ele>
        <time>2016-07-11T14:33:52.000Z</time>
      </trkpt>
      <trkpt lat="44.34937" lon="6.35028">
        <ele>1138.4000244141</ele>
        <time>2016-07-11T14:34:00.000Z</time>
      </trkpt>
      <trkpt lat="44.3493" lon="6.35024">
        <ele>1138.4000244141</ele>
        <time>2016-07-11T14:34:05.000Z</time>
      </trkpt>
      <trkpt lat="44.3493" lon="6.3502">
        <ele>1138.1999511719</ele>
        <time>2016-07-11T14:34:06.000Z</time>
      </trkpt>
      <trkpt lat="44.34923" lon="6.35006">
        <ele>1138</ele>
        <time>2016-07-11T14:34:14.000Z</time>
      </trkpt>
      <trkpt lat="44.34916" lon="6.34992">
        <ele>1137.8000488281</ele>
        <time>2016-07-11T14:34:20.000Z</time>
      </trkpt>
      <trkpt lat="44.3491" lon="6.34979">
        <ele>1137.5999755859</ele>
        <time>2016-07-11T14:34:27.000Z</time>
      </trkpt>
      <trkpt lat="44.34904" lon="6.34961">
        <ele>1137.1999511719</ele>
        <time>2016-07-11T14:34:37.000Z</time>
      </trkpt>
      <trkpt lat="44.34897" lon="6.34945">
        <ele>1137</ele>
        <time>2016-07-11T14:34:46.000Z</time>
      </trkpt>
      <trkpt lat="44.3489" lon="6.34931">
        <ele>1136.8000488281</ele>
        <time>2016-07-11T14:34:54.000Z</time>
      </trkpt>
      <trkpt lat="44.34886" lon="6.34923">
        <ele>1136.5999755859</ele>
        <time>2016-07-11T14:34:59.000Z</time>
      </trkpt>
      <trkpt lat="44.34876" lon="6.34906">
        <ele>1136.1999511719</ele>
        <time>2016-07-11T14:35:08.000Z</time>
      </trkpt>
      <trkpt lat="44.34866" lon="6.34893">
        <ele>1136</ele>
        <time>2016-07-11T14:35:17.000Z</time>
      </trkpt>
      <trkpt lat="44.34865" lon="6.34893">
        <ele>1135.8000488281</ele>
        <time>2016-07-11T14:35:23.000Z</time>
      </trkpt>
      <trkpt lat="44.34865" lon="6.34891">
        <ele>1135.8000488281</ele>
        <time>2016-07-11T14:35:34.000Z</time>
      </trkpt>
      <trkpt lat="44.34865" lon="6.3489">
        <ele>1135.8000488281</ele>
        <time>2016-07-11T14:35:40.000Z</time>
      </trkpt>
      <trkpt lat="44.34864" lon="6.34888">
        <ele>1135.8000488281</ele>
        <time>2016-07-11T14:35:47.000Z</time>
      </trkpt>
      <trkpt lat="44.34859" lon="6.34882">
        <ele>1135.5999755859</ele>
        <time>2016-07-11T14:35:52.000Z</time>
      </trkpt>
      <trkpt lat="44.34853" lon="6.34875">
        <ele>1135.4000244141</ele>
        <time>2016-07-11T14:36:01.000Z</time>
      </trkpt>
      <trkpt lat="44.34853" lon="6.34874">
        <ele>1135.4000244141</ele>
        <time>2016-07-11T14:36:02.000Z</time>
      </trkpt>
      <trkpt lat="44.34853" lon="6.34875">
        <ele>1135.4000244141</ele>
        <time>2016-07-11T14:36:14.000Z</time>
      </trkpt>
      <trkpt lat="44.3485" lon="6.34872">
        <ele>1135.4000244141</ele>
        <time>2016-07-11T14:36:19.000Z</time>
      </trkpt>
      <trkpt lat="44.34843" lon="6.34866">
        <ele>1135.1999511719</ele>
        <time>2016-07-11T14:36:25.000Z</time>
      </trkpt>
      <trkpt lat="44.34835" lon="6.34856">
        <ele>1135</ele>
        <time>2016-07-11T14:36:32.000Z</time>
      </trkpt>
      <trkpt lat="44.34825" lon="6.34844">
        <ele>1134.8000488281</ele>
        <time>2016-07-11T14:36:42.000Z</time>
      </trkpt>
      <trkpt lat="44.34819" lon="6.34835">
        <ele>1134.4000244141</ele>
        <time>2016-07-11T14:36:48.000Z</time>
      </trkpt>
      <trkpt lat="44.34814" lon="6.34828">
        <ele>1134.4000244141</ele>
        <time>2016-07-11T14:36:54.000Z</time>
      </trkpt>
      <trkpt lat="44.34808" lon="6.3482">
        <ele>1134.1999511719</ele>
        <time>2016-07-11T14:37:01.000Z</time>
      </trkpt>
      <trkpt lat="44.34802" lon="6.34811">
        <ele>1134</ele>
        <time>2016-07-11T14:37:07.000Z</time>
      </trkpt>
      <trkpt lat="44.34801" lon="6.34808">
        <ele>1133.8000488281</ele>
        <time>2016-07-11T14:37:12.000Z</time>
      </trkpt>
      <trkpt lat="44.34796" lon="6.34803">
        <ele>1133.8000488281</ele>
        <time>2016-07-11T14:37:17.000Z</time>
      </trkpt>
      <trkpt lat="44.34792" lon="6.34798">
        <ele>1133.5999755859</ele>
        <time>2016-07-11T14:37:22.000Z</time>
      </trkpt>
      <trkpt lat="44.34788" lon="6.34792">
        <ele>1133.4000244141</ele>
        <time>2016-07-11T14:37:26.000Z</time>
      </trkpt>
      <trkpt lat="44.34782" lon="6.34782">
        <ele>1133.1999511719</ele>
        <time>2016-07-11T14:37:34.000Z</time>
      </trkpt>
      <trkpt lat="44.34774" lon="6.34769">
        <ele>1133</ele>
        <time>2016-07-11T14:37:43.000Z</time>
      </trkpt>
      <trkpt lat="44.34774" lon="6.34768">
        <ele>1132.8000488281</ele>
        <time>2016-07-11T14:37:44.000Z</time>
      </trkpt>
      <trkpt lat="44.34771" lon="6.34762">
        <ele>1132.8000488281</ele>
        <time>2016-07-11T14:37:47.000Z</time>
      </trkpt>
      <trkpt lat="44.34769" lon="6.34758">
        <ele>1132.5999755859</ele>
        <time>2016-07-11T14:37:51.000Z</time>
      </trkpt>
      <trkpt lat="44.34767" lon="6.34754">
        <ele>1132.5999755859</ele>
        <time>2016-07-11T14:37:59.000Z</time>
      </trkpt>
      <trkpt lat="44.34764" lon="6.34745">
        <ele>1132.4000244141</ele>
        <time>2016-07-11T14:38:04.000Z</time>
      </trkpt>
      <trkpt lat="44.34763" lon="6.34742">
        <ele>1132.1999511719</ele>
        <time>2016-07-11T14:38:06.000Z</time>
      </trkpt>
      <trkpt lat="44.3476" lon="6.34728">
        <ele>1132</ele>
        <time>2016-07-11T14:38:14.000Z</time>
      </trkpt>
      <trkpt lat="44.34759" lon="6.3472">
        <ele>1132</ele>
        <time>2016-07-11T14:38:18.000Z</time>
      </trkpt>
      <trkpt lat="44.34758" lon="6.3471">
        <ele>1132</ele>
        <time>2016-07-11T14:38:23.000Z</time>
      </trkpt>
      <trkpt lat="44.34758" lon="6.34698">
        <ele>1131.8000488281</ele>
        <time>2016-07-11T14:38:30.000Z</time>
      </trkpt>
      <trkpt lat="44.34759" lon="6.34691">
        <ele>1131.5999755859</ele>
        <time>2016-07-11T14:38:34.000Z</time>
      </trkpt>
      <trkpt lat="44.34759" lon="6.34686">
        <ele>1131.4000244141</ele>
        <time>2016-07-11T14:38:40.000Z</time>
      </trkpt>
      <trkpt lat="44.3476" lon="6.34682">
        <ele>1131.4000244141</ele>
        <time>2016-07-11T14:38:42.000Z</time>
      </trkpt>
    </trkseg>
  </trk>
</gpx>